GFSWCAN_prec_kuchsnow_027.txt.gz
Snowfall_Accumulation
0.0 0.0 0.0 0.0 0.0 0.0 0.0 0.0 0.0 0.0 0.0 0.0 0.0 0.0 0.0 0.0 0.0 0.0 0.0 0.0 0.0 0.0 0.0 0.0 0.0 0.0 0.0 0.0 0.0 0.0 0.0 0.0 0.0 0.2 0.0 0.0 0.0 0.0 0.0 0.0 0.0 0.0 0.1 0.1 0.3 0.3 0.0 0.0 0.0 0.0 0.0 0.0 0.0 0.0
0.0 0.0 0.0 0.0 0.0 0.0 0.0 0.0 0.0 0.0 0.0 0.0 0.0 0.0 0.0 0.0 0.0 0.0 0.0 0.0 0.0 0.0 0.0 0.0 0.0 0.0 0.0 0.0 0.0 0.0 0.0 0.0 0.0 0.0 0.0 0.0 0.0 0.0 0.0 0.0 0.0 0.0 0.0 0.0 0.0 0.0 0.0 0.0 0.0 0.0 0.0 0.0 0.0 0.0
0.0 0.0 0.0 0.0 0.0 0.0 0.0 0.0 0.0 0.0 0.0 0.0 0.0 0.0 0.0 0.0 0.0 0.0 0.0 0.0 0.0 0.1 0.0 0.0 0.0 0.0 0.0 0.0 0.0 0.0 0.0 0.0 0.0 0.0 0.0 0.0 0.0 0.0 0.0 0.0 0.0 0.0 0.0 0.0 0.0 0.0 0.0 0.0 0.0 0.0 0.0 0.0 0.0 0.0
0.0 0.0 0.0 0.0 0.0 0.0 0.0 0.0 0.0 0.0 0.0 0.0 0.0 0.0 0.0 0.0 0.0 0.0 0.0 0.0 0.0 0.1 0.6 0.0 0.0 0.0 0.0 0.0 0.0 0.0 0.0 0.0 0.0 0.0 0.0 0.0 0.0 0.0 0.0 0.0 0.0 0.0 0.0 0.0 0.0 0.0 0.0 0.0 0.0 0.0 0.0 0.0 0.0 0.0
0.0 0.0 0.0 0.0 0.0 0.0 0.0 0.0 0.0 0.0 0.0 0.0 0.0 0.0 0.0 0.0 0.0 0.0 0.0 0.0 0.0 0.1 1.4 0.2 0.0 0.0 0.0 0.0 0.0 0.0 0.0 0.0 0.2 0.1 0.0 0.0 0.0 0.0 0.0 0.0 0.0 0.0 0.0 0.0 0.0 0.0 0.0 0.0 0.0 0.0 0.0 0.0 0.0 0.0
0.0 0.0 0.0 0.0 0.0 0.0 0.0 0.0 0.0 0.0 0.0 0.0 0.0 0.0 0.0 0.0 0.0 0.0 0.0 0.0 0.0 0.0 1.8 1.7 0.0 0.0 0.0 0.0 0.0 0.0 0.0 0.0 0.0 0.4 0.0 0.0 0.0 0.0 0.0 0.0 0.0 0.0 0.0 0.0 0.0 0.0 0.0 0.0 0.0 0.0 0.0 0.0 0.0 0.0
0.0 0.0 0.0 0.0 0.0 0.0 0.0 0.0 0.0 0.0 0.0 0.0 0.0 0.0 0.0 0.0 0.0 0.0 0.0 0.0 0.0 0.0 0.8 3.4 3.3 0.0 0.0 0.0 0.0 0.0 0.0 0.0 0.4 0.8 0.0 0.0 0.0 0.0 0.0 0.0 0.0 0.0 0.0 0.0 0.0 0.0 0.0 0.0 0.0 0.0 0.0 0.0 0.0 0.0
0.0 0.0 0.0 0.0 0.0 0.0 0.0 0.0 0.0 0.0 0.0 0.0 0.0 0.0 0.0 0.0 0.0 0.0 0.0 0.0 0.0 0.0 1.8 9.4 6.7 1.5 0.0 0.0 0.0 0.0 0.0 0.0 0.0 0.0 0.0 0.0 0.0 0.0 0.0 0.0 0.0 0.0 0.0 0.0 0.0 0.0 0.0 0.0 0.0 0.0 0.0 0.0 0.0 0.0
0.0 0.0 0.0 0.0 0.0 0.0 0.0 0.0 0.0 0.0 0.0 0.0 0.0 0.0 0.0 0.0 0.0 0.0 0.0 0.0 0.0 0.0 6.0 5.4 6.8 3.7 0.0 0.0 0.0 0.0 0.0 2.3 0.0 0.0 0.0 0.0 0.0 0.0 0.0 0.0 0.0 0.0 0.0 0.0 0.0 0.0 0.0 0.0 0.0 0.0 0.0 0.0 0.0 0.0
0.0 0.0 0.0 0.0 0.0 0.0 0.0 0.0 0.0 0.0 0.0 0.0 0.0 0.0 0.3 0.0 0.0 0.0 0.0 0.2 1.9 1.4 2.0 4.6 2.4 4.7 0.8 1.0 0.0 0.0 0.0 0.7 2.7 0.0 0.0 0.0 0.0 0.0 0.0 0.0 0.0 0.0 0.0 0.0 0.0 0.0 0.0 0.0 0.0 0.0 0.0 0.0 0.0 0.0
0.0 0.0 0.0 0.0 0.0 0.0 0.0 0.0 0.0 0.0 0.0 0.0 0.0 0.0 0.0 0.0 0.0 0.0 3.3 4.0 1.7 1.6 1.0 1.7 2.2 1.8 0.0 0.8 0.0 0.0 0.0 0.0 0.6 0.2 0.0 0.1 0.0 0.0 0.0 0.0 0.0 0.0 0.0 0.0 0.0 0.0 0.0 0.0 0.0 0.0 0.0 0.0 0.0 0.0
0.0 0.0 0.0 0.0 0.0 0.0 0.0 0.0 0.0 0.0 0.0 0.0 0.0 0.0 0.0 0.3 2.4 4.1 4.3 2.3 0.6 0.5 0.3 1.1 0.5 0.0 0.0 0.0 0.0 0.0 0.0 0.2 0.1 0.0 0.0 0.0 0.0 0.0 0.0 0.0 0.0 0.0 0.0 0.0 0.0 0.0 0.0 0.0 0.0 0.0 0.0 0.0 0.0 0.0
0.0 0.0 0.0 0.0 0.0 0.0 0.0 0.0 0.0 0.0 0.0 0.0 0.0 0.0 0.4 0.9 2.6 3.3 3.6 2.1 0.4 0.3 0.4 0.6 0.8 0.0 0.0 0.0 0.0 0.0 0.0 0.0 0.0 0.0 0.0 0.0 0.0 0.0 0.0 0.0 0.0 0.0 0.0 0.0 0.0 0.0 0.0 0.0 0.0 0.0 0.0 0.0 0.0 0.0
0.0 0.0 0.0 0.0 0.0 0.0 0.0 0.0 0.0 0.0 0.0 0.0 0.0 0.0 0.7 1.0 1.4 1.1 1.1 0.9 0.2 0.1 0.0 0.0 0.3 0.4 0.0 0.2 0.0 0.0 0.0 0.0 0.0 0.0 0.0 0.0 0.0 0.0 0.0 0.0 0.0 0.0 0.0 0.0 0.0 0.0 0.0 0.0 0.0 0.0 0.0 0.0 0.0 0.0
0.0 0.0 0.0 0.0 0.0 0.0 0.0 0.0 0.0 0.0 0.0 0.0 0.0 0.0 0.0 0.0 0.1 0.1 0.0 0.1 0.0 0.0 0.1 0.0 0.0 0.0 0.5 0.6 0.0 0.1 0.0 0.0 0.0 0.0 0.0 0.0 0.0 0.0 0.0 0.0 0.0 0.0 0.0 0.0 0.0 0.0 0.0 0.0 0.0 0.0 0.0 0.0 0.0 0.0
0.0 0.0 0.0 0.0 0.0 0.0 0.0 0.0 0.0 0.0 0.0 0.0 0.0 0.0 0.0 0.0 0.0 0.0 0.0 0.0 0.0 0.0 0.2 0.2 0.3 0.5 0.2 0.3 0.0 0.0 0.0 0.0 0.0 0.0 0.0 0.0 0.0 0.0 0.0 0.0 0.0 0.0 0.0 0.0 0.0 0.0 0.0 0.0 0.0 0.0 0.0 0.0 0.0 0.0
0.0 0.0 0.0 0.0 0.0 0.0 0.0 0.0 0.0 0.0 0.0 0.0 0.0 0.0 0.0 0.0 0.0 0.0 0.0 0.0 0.0 0.2 1.3 1.6 1.9 0.1 0.3 0.2 0.0 0.0 0.0 0.0 0.0 0.0 0.0 0.0 0.0 0.0 0.0 0.0 0.0 0.0 0.0 0.0 0.0 0.0 0.0 0.0 0.0 0.0 0.0 0.0 0.0 0.0
0.0 0.0 0.0 0.0 0.0 0.0 0.0 0.0 0.0 0.0 0.0 0.0 0.0 0.0 0.0 0.0 0.0 0.0 0.0 0.0 0.0 0.1 1.7 4.6 2.7 1.8 0.3 0.0 0.0 0.0 0.0 0.0 0.0 0.0 0.0 0.0 0.0 0.0 0.0 0.0 0.0 0.0 0.0 0.0 0.0 0.0 0.0 0.0 0.0 0.0 0.0 0.0 0.0 0.0
0.0 0.0 0.0 0.0 0.0 0.0 0.5 0.2 0.0 0.0 0.0 0.0 0.0 0.0 0.0 0.0 0.0 0.0 0.1 0.0 0.0 0.1 0.8 2.2 2.9 0.7 0.0 0.0 0.0 0.0 0.0 0.0 0.0 0.0 0.0 0.0 0.0 0.0 0.0 0.0 0.0 0.0 0.0 0.0 0.0 0.0 0.0 0.0 0.0 0.0 0.0 0.0 0.0 0.0
0.0 0.0 0.0 0.0 0.0 0.3 0.7 0.1 0.0 0.0 0.0 0.0 0.0 0.0 0.0 0.0 0.1 0.0 0.1 0.0 0.2 0.2 0.2 1.0 0.0 0.1 0.1 0.4 0.5 0.4 0.0 0.0 0.0 0.0 0.0 0.0 0.0 0.0 0.0 0.0 0.0 0.0 0.0 0.0 0.0 0.0 0.0 0.0 0.0 0.0 0.0 0.0 0.0 0.0
0.0 0.0 0.0 0.0 0.9 0.6 0.5 0.0 0.0 0.0 0.0 0.0 0.0 0.0 0.0 0.0 0.0 0.0 0.2 0.1 0.5 0.4 0.0 0.2 0.0 0.0 0.4 0.4 0.2 0.4 0.1 0.1 0.0 0.0 0.0 0.0 0.0 0.0 0.0 0.0 0.0 0.0 0.0 0.0 0.0 0.0 0.0 0.0 0.0 0.0 0.0 0.0 0.0 0.0
0.2 0.0 0.9 1.5 1.7 1.0 0.7 0.0 0.0 0.0 0.0 0.0 0.0 0.0 0.0 0.0 0.0 0.0 0.0 0.3 0.0 0.0 0.2 0.3 0.0 0.0 0.0 0.0 0.6 0.4 0.5 0.0 0.1 0.0 0.0 0.0 0.0 0.0 0.0 0.0 0.0 0.0 0.0 0.0 0.0 0.0 0.0 0.0 0.0 0.0 0.0 0.0 0.0 0.0
0.0 1.4 3.0 2.4 2.2 1.4 0.5 0.0 0.0 0.0 0.0 0.0 0.0 0.0 0.0 0.0 0.0 0.0 0.0 0.0 0.0 0.0 0.0 0.0 0.0 1.0 1.4 1.2 1.4 1.1 0.6 0.1 0.0 0.0 0.1 0.0 0.0 0.0 0.0 0.0 0.0 0.0 0.0 0.0 0.0 0.0 0.0 0.0 0.0 0.0 0.0 0.0 0.0 0.0
0.0 3.0 3.8 2.6 1.4 0.7 0.4 0.1 0.2 0.0 0.0 0.0 0.0 0.0 0.0 0.0 0.0 0.0 0.0 0.0 0.0 0.0 0.0 0.0 0.0 0.0 0.0 0.8 1.2 1.9 2.3 1.6 0.5 0.0 0.6 0.3 0.0 0.0 0.0 0.0 0.0 0.0 0.0 0.0 0.0 0.0 0.0 0.0 0.0 0.0 0.0 0.0 0.0 0.0
6.9 5.5 3.0 2.6 0.9 0.4 0.2 0.2 0.1 0.0 0.0 0.0 0.0 0.0 0.0 0.0 0.0 0.0 0.0 0.0 0.0 0.0 0.0 0.0 0.0 0.0 0.0 0.0 0.7 0.9 1.1 1.5 2.4 2.5 0.3 1.7 0.8 0.2 0.0 0.0 0.2 0.1 0.0 0.0 0.0 0.0 0.0 0.0 0.0 0.0 0.0 0.0 0.0 0.0
6.8 2.7 0.9 0.0 0.0 0.0 0.0 0.0 0.0 0.0 0.0 0.0 0.0 0.0 0.0 0.0 0.1 0.0 0.0 0.0 0.0 0.0 0.0 0.0 0.0 0.0 0.0 0.0 0.0 0.9 1.1 1.2 1.0 1.6 0.3 2.0 1.8 2.4 1.9 1.5 0.9 0.4 0.0 0.0 0.3 0.3 0.1 0.0 0.0 0.0 0.0 0.1 0.0 0.0
3.0 1.5 0.0 0.1 0.0 0.0 0.0 0.0 0.0 0.0 0.0 0.0 0.0 0.0 0.0 0.0 0.0 0.0 0.0 0.0 0.0 0.0 0.0 0.0 0.0 0.0 0.0 0.0 0.0 0.0 0.9 1.3 1.2 0.5 0.3 1.6 1.3 0.9 0.6 1.8 1.4 0.9 0.6 1.1 1.0 0.7 0.6 0.4 0.2 0.2 0.4 0.3 0.3 0.3
0.0 0.0 0.0 0.0 0.0 0.0 0.0 0.0 0.0 0.0 0.0 0.0 0.0 0.0 0.0 0.0 0.0 0.0 0.0 0.0 0.0 0.0 0.0 0.0 0.0 0.0 0.0 0.0 0.0 0.6 0.9 1.2 1.2 0.8 1.7 1.8 1.5 1.2 1.0 1.1 2.3 2.4 2.3 1.7 1.1 1.5 1.8 1.3 0.9 1.3 1.0 0.5 0.8 0.7
0.1 0.0 0.0 0.0 0.0 0.0 0.0 0.0 0.0 0.0 0.0 0.0 0.0 0.0 0.0 0.0 0.0 0.0 0.0 0.0 0.0 0.0 0.0 0.0 0.0 0.0 0.0 0.0 0.0 0.6 0.8 1.3 1.9 1.8 1.3 1.3 1.6 1.8 1.8 3.2 3.9 5.0 4.8 4.5 3.0 2.5 2.1 2.0 2.7 2.6 2.7 2.7 2.3 2.5
0.0 0.0 0.0 0.0 0.0 0.0 0.0 0.0 0.0 0.0 0.0 0.0 0.0 0.0 0.0 0.0 0.0 0.0 0.0 0.0 0.0 0.0 0.0 0.0 0.0 0.0 0.0 0.0 0.0 0.7 0.7 0.7 1.4 1.5 1.5 1.3 1.4 1.7 3.0 3.7 4.9 5.5 5.8 5.2 6.4 7.2 5.0 5.8 6.7 7.0 6.6 6.0 5.4 4.7
0.0 0.0 0.0 0.0 0.0 0.0 0.0 0.0 0.0 0.0 0.0 0.0 0.0 0.0 0.0 0.0 0.0 0.0 0.0 0.0 0.0 0.0 0.0 0.0 0.0 0.2 0.3 0.6 0.9 1.2 1.1 1.1 1.2 1.9 2.1 2.5 2.3 3.1 3.0 4.6 4.7 5.6 6.2 6.4 5.9 5.7 5.3 5.0 4.4 4.3 4.8 4.4 4.2 3.7
0.0 0.0 0.0 0.0 0.0 0.0 0.0 0.0 0.0 0.0 0.0 0.0 0.0 0.0 0.0 0.0 0.0 0.0 0.0 0.0 0.0 0.0 0.0 0.0 0.5 0.8 0.9 1.2 1.6 1.8 2.5 2.8 1.7 2.6 2.6 2.6 3.1 2.8 4.2 4.8 5.7 6.0 6.8 6.9 6.2 5.8 5.5 5.4 6.1 5.9 6.2 6.4 6.1 5.4
0.3 0.0 0.0 0.0 0.0 0.0 0.0 0.0 0.0 0.0 0.0 0.0 0.0 0.0 0.0 0.0 0.0 0.0 0.0 0.0 0.0 0.0 0.0 0.8 1.0 1.3 2.2 2.6 2.4 3.5 3.7 3.1 4.2 4.1 4.7 4.6 4.2 4.7 6.0 6.0 6.5 6.5 6.3 6.7 7.2 7.8 7.9 7.4 7.1 6.8 6.4 6.1 6.0 5.6

GFSWCAN_prec_kuchsnow_030.txt.gz
Snowfall_Accumulation
0.0 0.0 0.0 0.0 0.0 0.0 0.0 0.0 0.0 0.0 0.0 0.0 0.0 0.0 0.0 0.0 0.0 0.0 0.0 0.0 0.0 0.0 0.0 0.0 0.0 0.0 0.0 0.0 0.0 0.0 0.0 0.0 0.0 0.2 0.0 0.0 0.0 0.0 0.0 0.0 0.0 0.0 0.1 0.1 0.3 0.3 0.0 0.0 0.0 0.0 0.0 0.0 0.0 0.0
0.0 0.0 0.0 0.0 0.0 0.0 0.0 0.0 0.0 0.0 0.0 0.0 0.0 0.0 0.0 0.0 0.0 0.0 0.0 0.0 0.0 0.0 0.0 0.0 0.0 0.0 0.0 0.0 0.0 0.0 0.0 0.0 0.0 0.0 0.0 0.0 0.0 0.0 0.0 0.0 0.0 0.0 0.0 0.0 0.0 0.0 0.0 0.0 0.0 0.0 0.0 0.0 0.0 0.0
0.0 0.0 0.0 0.0 0.0 0.0 0.0 0.0 0.0 0.0 0.0 0.0 0.0 0.0 0.0 0.0 0.0 0.0 0.0 0.0 0.0 0.1 0.0 0.0 0.0 0.0 0.0 0.0 0.0 0.0 0.0 0.0 0.0 0.0 0.0 0.0 0.0 0.0 0.0 0.0 0.0 0.0 0.0 0.0 0.0 0.0 0.0 0.0 0.0 0.0 0.0 0.0 0.0 0.0
0.0 0.0 0.0 0.0 0.0 0.0 0.0 0.0 0.0 0.0 0.0 0.0 0.0 0.0 0.0 0.0 0.0 0.0 0.0 0.0 0.0 0.1 0.7 0.1 0.0 0.0 0.0 0.0 0.0 0.0 0.0 0.0 0.0 0.0 0.0 0.0 0.0 0.0 0.0 0.0 0.0 0.0 0.0 0.0 0.0 0.0 0.0 0.0 0.0 0.0 0.0 0.0 0.0 0.0
0.0 0.0 0.0 0.0 0.0 0.0 0.0 0.0 0.0 0.0 0.0 0.0 0.0 0.0 0.0 0.0 0.0 0.0 0.0 0.0 0.0 0.1 1.5 0.2 0.0 0.0 0.0 0.0 0.0 0.0 0.0 0.0 0.2 0.1 0.6 0.0 0.0 0.0 0.0 0.0 0.0 0.0 0.0 0.0 0.0 0.0 0.0 0.0 0.0 0.0 0.0 0.0 0.0 0.0
0.0 0.0 0.0 0.0 0.0 0.0 0.0 0.0 0.0 0.0 0.0 0.0 0.0 0.0 0.0 0.0 0.0 0.0 0.0 0.0 0.0 0.0 1.8 1.7 0.0 0.0 0.0 0.0 0.0 0.0 0.0 0.0 0.0 0.4 1.1 0.0 0.0 0.0 0.0 0.0 0.0 0.0 0.0 0.0 0.0 0.0 0.0 0.0 0.0 0.0 0.0 0.0 0.0 0.0
0.0 0.0 0.0 0.0 0.0 0.0 0.0 0.0 0.0 0.0 0.0 0.0 0.0 0.0 0.0 0.0 0.0 0.0 0.0 0.0 0.0 0.0 0.8 3.5 3.3 0.0 0.0 0.0 0.0 0.0 0.0 0.0 0.4 1.2 0.8 0.0 0.0 0.0 0.0 0.0 0.0 0.0 0.0 0.0 0.0 0.0 0.0 0.0 0.0 0.0 0.0 0.0 0.0 0.0
0.0 0.0 0.0 0.0 0.0 0.0 0.0 0.0 0.0 0.0 0.0 0.0 0.0 0.0 0.0 0.0 0.0 0.0 0.0 0.0 0.0 0.0 1.8 9.5 6.7 1.5 0.0 0.1 0.0 0.0 0.0 0.0 0.1 0.4 0.0 0.0 0.0 0.0 0.0 0.0 0.0 0.0 0.0 0.0 0.0 0.0 0.0 0.0 0.0 0.0 0.0 0.0 0.0 0.0
0.0 0.0 0.0 0.0 0.0 0.0 0.0 0.0 0.0 0.0 0.0 0.0 0.0 0.0 0.0 0.0 0.0 0.0 0.0 0.0 0.0 0.0 6.0 5.4 6.8 3.7 0.0 0.0 0.0 0.0 0.0 2.3 0.0 0.6 0.0 0.0 0.0 0.0 0.0 0.0 0.0 0.0 0.0 0.0 0.0 0.0 0.0 0.0 0.0 0.0 0.0 0.0 0.0 0.0
0.0 0.0 0.0 0.0 0.0 0.0 0.0 0.0 0.0 0.0 0.0 0.0 0.0 0.0 0.3 0.0 0.0 0.0 0.0 0.2 2.0 1.5 2.0 4.9 2.6 5.3 1.1 1.2 0.3 0.2 0.4 1.2 2.7 0.0 0.0 0.3 0.0 0.0 0.0 0.0 0.0 0.0 0.0 0.0 0.0 0.0 0.0 0.0 0.0 0.0 0.0 0.0 0.0 0.0
0.0 0.0 0.0 0.0 0.0 0.0 0.0 0.0 0.0 0.0 0.0 0.0 0.0 0.0 0.0 0.0 0.0 0.0 3.4 4.1 1.7 1.7 1.1 1.8 2.7 2.8 0.0 2.4 0.9 0.0 2.1 0.7 1.7 0.9 0.0 0.2 0.0 0.0 0.0 0.0 0.0 0.0 0.0 0.0 0.0 0.0 0.0 0.0 0.0 0.0 0.0 0.0 0.0 0.0
0.0 0.0 0.0 0.0 0.0 0.0 0.0 0.0 0.0 0.0 0.0 0.0 0.0 0.0 0.0 0.3 2.4 4.1 4.3 2.3 0.7 0.6 0.5 1.3 0.7 0.3 0.2 0.0 0.0 0.0 0.3 0.3 0.6 0.0 0.0 0.0 0.0 0.0 0.0 0.0 0.0 0.0 0.0 0.0 0.0 0.0 0.0 0.0 0.0 0.0 0.0 0.0 0.0 0.0
0.0 0.0 0.0 0.0 0.0 0.0 0.0 0.0 0.0 0.0 0.0 0.0 0.0 0.0 0.4 0.9 2.6 3.3 3.6 2.2 0.4 0.5 0.6 0.6 0.8 0.0 0.0 0.0 0.0 0.0 0.0 0.0 0.0 0.0 0.0 0.0 0.0 0.0 0.0 0.0 0.0 0.0 0.0 0.0 0.0 0.0 0.0 0.0 0.0 0.0 0.0 0.0 0.0 0.0
0.0 0.0 0.0 0.0 0.0 0.0 0.0 0.0 0.0 0.0 0.0 0.0 0.0 0.0 0.7 1.0 1.4 1.1 1.1 0.9 0.2 0.1 0.0 0.0 0.3 0.5 0.0 0.3 0.0 0.1 0.0 0.0 0.0 0.0 0.0 0.0 0.0 0.0 0.0 0.0 0.0 0.0 0.0 0.0 0.0 0.0 0.0 0.0 0.0 0.0 0.0 0.0 0.0 0.0
0.0 0.0 0.0 0.0 0.0 0.0 0.0 0.0 0.0 0.0 0.0 0.0 0.0 0.0 0.0 0.0 0.1 0.1 0.0 0.1 0.0 0.0 0.1 0.0 0.0 0.0 0.6 0.9 0.0 0.1 0.0 0.0 0.0 0.0 0.0 0.0 0.0 0.0 0.0 0.0 0.0 0.0 0.0 0.0 0.0 0.0 0.0 0.0 0.0 0.0 0.0 0.0 0.0 0.0
0.0 0.0 0.0 0.0 0.0 0.0 0.0 0.0 0.0 0.0 0.0 0.0 0.0 0.0 0.0 0.0 0.0 0.0 0.0 0.0 0.0 0.0 0.2 0.3 0.4 0.6 0.4 0.6 0.2 0.0 0.0 0.0 0.0 0.0 0.0 0.0 0.0 0.0 0.0 0.0 0.0 0.0 0.0 0.0 0.0 0.0 0.0 0.0 0.0 0.0 0.0 0.0 0.0 0.0
0.0 0.0 0.0 0.0 0.0 0.0 0.0 0.0 0.0 0.0 0.0 0.0 0.0 0.0 0.0 0.0 0.0 0.0 0.0 0.0 0.0 0.2 1.3 1.6 2.2 0.1 0.3 0.5 0.0 0.0 0.0 0.0 0.0 0.0 0.0 0.0 0.0 0.0 0.0 0.0 0.0 0.0 0.0 0.0 0.0 0.0 0.0 0.0 0.0 0.0 0.0 0.0 0.0 0.0
0.0 0.0 0.0 0.0 0.0 0.0 0.0 0.0 0.0 0.0 0.0 0.0 0.0 0.0 0.0 0.0 0.0 0.0 0.0 0.0 0.0 0.1 1.7 4.6 2.7 1.8 0.4 0.1 0.0 0.0 0.0 0.0 0.0 0.0 0.0 0.0 0.0 0.0 0.0 0.0 0.0 0.0 0.0 0.0 0.0 0.0 0.0 0.0 0.0 0.0 0.0 0.0 0.0 0.0
0.0 0.0 0.0 0.0 0.0 0.0 0.5 0.3 0.0 0.0 0.0 0.0 0.0 0.0 0.0 0.0 0.0 0.0 0.1 0.0 0.0 0.1 0.9 2.2 2.9 0.7 0.0 0.0 0.0 0.0 0.0 0.0 0.0 0.0 0.0 0.0 0.0 0.0 0.0 0.0 0.0 0.0 0.0 0.0 0.0 0.0 0.0 0.0 0.0 0.0 0.0 0.0 0.0 0.0
0.0 0.0 0.0 0.0 0.0 0.3 1.3 0.1 0.1 0.0 0.0 0.0 0.0 0.0 0.0 0.0 0.1 0.0 0.1 0.0 0.2 0.2 0.2 1.0 0.0 0.1 0.1 0.4 0.5 0.4 0.0 0.0 0.0 0.0 0.0 0.0 0.0 0.0 0.0 0.0 0.0 0.0 0.0 0.0 0.0 0.0 0.0 0.0 0.0 0.0 0.0 0.0 0.0 0.0
0.0 0.0 0.0 0.0 0.9 0.6 0.8 0.0 0.0 0.0 0.0 0.0 0.0 0.0 0.0 0.0 0.0 0.0 0.2 0.1 0.6 0.4 0.0 0.2 0.0 0.0 0.4 0.4 0.2 0.4 0.1 0.1 0.0 0.0 0.0 0.0 0.0 0.0 0.0 0.0 0.0 0.0 0.0 0.0 0.0 0.0 0.0 0.0 0.0 0.0 0.0 0.0 0.0 0.0
0.2 0.0 0.9 1.5 1.7 1.6 0.9 0.0 0.0 0.0 0.0 0.0 0.0 0.0 0.0 0.0 0.0 0.0 0.1 0.4 0.0 0.0 0.2 0.3 0.0 0.0 0.0 0.0 0.6 0.4 0.5 0.0 0.1 0.0 0.0 0.0 0.0 0.0 0.0 0.0 0.0 0.0 0.0 0.0 0.0 0.0 0.0 0.0 0.0 0.0 0.0 0.0 0.0 0.0
0.0 1.4 3.0 2.4 2.2 1.8 0.5 0.1 0.1 0.0 0.0 0.0 0.0 0.0 0.0 0.0 0.0 0.0 0.0 0.0 0.0 0.0 0.0 0.0 0.0 1.0 1.4 1.2 1.4 1.1 0.6 0.1 0.0 0.0 0.1 0.0 0.0 0.0 0.0 0.0 0.0 0.0 0.0 0.0 0.0 0.0 0.0 0.0 0.0 0.0 0.0 0.0 0.0 0.0
0.0 3.0 4.1 3.0 1.7 0.7 0.4 0.1 0.3 0.0 0.0 0.0 0.0 0.0 0.0 0.0 0.0 0.0 0.0 0.0 0.0 0.0 0.0 0.0 0.0 0.0 0.0 0.8 1.2 1.9 2.3 1.6 0.5 0.0 0.6 0.3 0.0 0.0 0.0 0.0 0.0 0.0 0.0 0.0 0.0 0.0 0.0 0.0 0.0 0.0 0.0 0.0 0.0 0.0
8.2 7.3 3.5 2.9 0.9 0.6 0.2 0.3 0.2 0.1 0.0 0.0 0.0 0.0 0.0 0.0 0.0 0.0 0.0 0.0 0.0 0.0 0.0 0.0 0.0 0.0 0.0 0.0 0.7 0.9 1.1 1.5 2.4 2.5 0.3 1.7 0.8 0.2 0.0 0.0 0.2 0.1 0.0 0.0 0.0 0.0 0.0 0.0 0.0 0.0 0.0 0.0 0.0 0.0
8.5 3.1 1.0 0.0 0.0 0.1 0.0 0.0 0.0 0.0 0.0 0.0 0.0 0.0 0.0 0.0 0.1 0.0 0.0 0.0 0.0 0.0 0.0 0.0 0.0 0.0 0.0 0.0 0.0 0.9 1.1 1.2 1.0 1.6 0.3 2.0 1.8 2.4 1.9 1.5 0.9 0.4 0.0 0.0 0.3 0.3 0.1 0.0 0.0 0.0 0.0 0.1 0.0 0.0
3.6 1.5 0.0 0.2 0.1 0.1 0.1 0.0 0.0 0.0 0.0 0.0 0.0 0.0 0.0 0.0 0.0 0.0 0.0 0.0 0.0 0.0 0.0 0.0 0.0 0.0 0.0 0.0 0.0 0.0 0.9 1.3 1.2 0.5 0.3 1.6 1.3 0.9 0.6 1.8 1.4 0.9 0.6 1.1 1.0 0.7 0.6 0.4 0.2 0.2 0.4 0.3 0.3 0.3
0.0 0.0 0.0 0.0 0.1 0.0 0.0 0.0 0.0 0.0 0.0 0.0 0.0 0.0 0.0 0.0 0.0 0.0 0.0 0.0 0.0 0.0 0.0 0.0 0.0 0.0 0.0 0.0 0.0 0.6 0.9 1.2 1.2 0.8 1.7 1.8 1.5 1.2 1.0 1.1 2.3 2.4 2.3 1.7 1.1 1.5 1.8 1.3 0.9 1.3 1.0 0.5 0.8 0.7
0.2 0.0 0.0 0.0 0.0 0.0 0.0 0.0 0.2 0.1 0.0 0.0 0.0 0.0 0.0 0.0 0.0 0.0 0.0 0.0 0.0 0.0 0.0 0.0 0.0 0.0 0.0 0.0 0.0 0.6 0.8 1.3 1.9 1.8 1.3 1.3 1.6 1.8 1.8 3.2 3.9 5.0 4.8 4.5 3.0 2.5 2.1 2.0 2.7 2.6 2.7 2.7 2.3 2.5
0.1 0.0 0.0 0.0 0.0 0.0 0.0 0.0 0.0 0.0 0.0 0.0 0.0 0.0 0.0 0.0 0.0 0.0 0.0 0.0 0.0 0.0 0.0 0.0 0.0 0.0 0.0 0.0 0.0 0.7 0.7 0.7 1.4 1.5 1.5 1.3 1.4 1.7 3.0 3.7 4.9 5.5 5.8 5.2 6.4 7.2 5.0 5.8 6.7 7.0 6.6 6.0 5.5 4.7
0.0 0.0 0.0 0.0 0.0 0.0 0.0 0.0 0.0 0.0 0.0 0.0 0.0 0.0 0.0 0.0 0.0 0.0 0.0 0.0 0.0 0.0 0.0 0.0 0.0 0.2 0.3 0.6 0.9 1.2 1.1 1.1 1.2 1.9 2.1 2.5 2.3 3.1 3.0 4.6 4.7 5.6 6.2 6.4 5.9 5.7 5.3 5.0 4.4 4.3 4.8 4.4 4.2 3.7
0.0 0.0 0.0 0.0 0.0 0.0 0.0 0.0 0.0 0.0 0.0 0.0 0.0 0.0 0.0 0.0 0.0 0.0 0.0 0.0 0.0 0.0 0.0 0.0 0.5 0.8 0.9 1.2 1.6 1.8 2.5 2.8 1.7 2.6 2.6 2.6 3.1 2.8 4.2 4.8 5.7 6.0 6.8 6.9 6.2 5.8 5.6 5.5 6.2 5.9 6.2 6.4 6.1 5.4
0.4 0.0 0.0 0.0 0.0 0.0 0.0 0.0 0.0 0.0 0.0 0.0 0.0 0.0 0.0 0.0 0.0 0.0 0.0 0.0 0.0 0.0 0.0 0.8 1.0 1.3 2.2 2.6 2.4 3.5 3.7 3.1 4.2 4.1 4.7 4.6 4.2 4.7 6.0 6.0 6.5 6.5 6.3 6.7 7.2 7.8 8.0 7.5 7.2 6.8 6.4 6.1 6.0 5.6

GFSWCAN_prec_kuchsnow_033.txt.gz
Snowfall_Accumulation
0.0 0.0 0.0 0.0 0.0 0.0 0.0 0.0 0.0 0.0 0.0 0.0 0.0 0.0 0.0 0.0 0.0 0.0 0.0 0.0 0.0 0.0 0.0 0.0 0.0 0.0 0.0 0.0 0.0 0.0 0.0 0.0 0.0 0.2 0.0 0.0 0.0 0.0 0.0 0.0 0.0 0.0 0.1 0.1 0.3 0.3 0.0 0.0 0.0 0.0 0.0 0.0 0.0 0.0
0.0 0.0 0.0 0.0 0.0 0.0 0.0 0.0 0.0 0.0 0.0 0.0 0.0 0.0 0.0 0.0 0.0 0.0 0.0 0.0 0.0 0.0 0.0 0.0 0.0 0.0 0.0 0.0 0.0 0.0 0.0 0.0 0.0 0.0 0.0 0.0 0.0 0.0 0.0 0.0 0.0 0.0 0.0 0.0 0.0 0.0 0.0 0.0 0.0 0.0 0.0 0.0 0.0 0.0
0.0 0.0 0.0 0.0 0.0 0.0 0.0 0.0 0.0 0.0 0.0 0.0 0.0 0.0 0.0 0.0 0.0 0.0 0.0 0.0 0.0 0.1 0.0 0.0 0.0 0.0 0.0 0.0 0.0 0.0 0.0 0.0 0.0 0.0 0.0 0.0 0.0 0.0 0.0 0.0 0.0 0.0 0.0 0.0 0.0 0.0 0.0 0.0 0.0 0.0 0.0 0.0 0.0 0.0
0.0 0.0 0.0 0.0 0.0 0.0 0.0 0.0 0.0 0.0 0.0 0.0 0.0 0.0 0.0 0.0 0.0 0.0 0.0 0.0 0.0 0.1 0.8 0.1 0.0 0.0 0.0 0.0 0.0 0.0 0.0 0.0 0.0 0.0 0.0 0.0 0.0 0.0 0.0 0.0 0.0 0.0 0.0 0.0 0.0 0.0 0.0 0.0 0.0 0.0 0.0 0.0 0.0 0.0
0.0 0.0 0.0 0.0 0.0 0.0 0.0 0.0 0.0 0.0 0.0 0.0 0.0 0.0 0.0 0.0 0.0 0.0 0.0 0.0 0.0 0.1 1.6 0.2 0.0 0.0 0.0 0.0 0.0 0.0 0.0 0.0 0.2 0.1 0.6 0.3 0.0 0.0 0.0 0.0 0.0 0.0 0.0 0.0 0.0 0.0 0.0 0.0 0.0 0.0 0.0 0.0 0.0 0.0
0.0 0.0 0.0 0.0 0.0 0.0 0.0 0.0 0.0 0.0 0.0 0.0 0.0 0.0 0.0 0.0 0.0 0.0 0.0 0.0 0.0 0.0 1.9 1.7 0.0 0.0 0.0 0.0 0.0 0.0 0.0 0.0 0.0 0.4 1.1 0.0 0.0 0.0 0.0 0.0 0.0 0.0 0.0 0.0 0.0 0.0 0.0 0.0 0.0 0.0 0.0 0.0 0.0 0.0
0.0 0.0 0.0 0.0 0.0 0.0 0.0 0.0 0.0 0.0 0.0 0.0 0.0 0.0 0.0 0.0 0.0 0.0 0.0 0.0 0.0 0.0 0.8 3.6 3.3 0.0 0.0 0.0 0.0 0.0 0.0 0.0 0.4 1.2 0.8 0.0 0.0 0.7 0.0 0.0 0.0 0.0 0.0 0.0 0.0 0.0 0.0 0.0 0.0 0.0 0.0 0.0 0.0 0.0
0.0 0.0 0.0 0.0 0.0 0.0 0.0 0.0 0.0 0.0 0.0 0.0 0.0 0.0 0.0 0.0 0.0 0.0 0.0 0.0 0.0 0.0 1.8 9.6 6.7 1.5 0.0 0.2 0.0 0.0 0.0 0.0 0.1 0.4 0.0 0.0 0.0 0.9 0.4 0.0 0.0 0.0 0.0 0.0 0.0 0.0 0.0 0.0 0.0 0.0 0.0 0.0 0.0 0.0
0.0 0.0 0.0 0.0 0.0 0.0 0.0 0.0 0.0 0.0 0.0 0.0 0.0 0.0 0.0 0.0 0.0 0.0 0.0 0.0 0.0 0.0 6.1 5.6 7.0 3.8 0.0 0.0 0.0 0.0 0.0 2.3 0.0 0.7 0.0 0.0 0.4 1.5 0.0 0.0 0.0 0.0 0.0 0.0 0.0 0.0 0.0 0.0 0.0 0.0 0.0 0.0 0.0 0.0
0.0 0.0 0.0 0.0 0.0 0.0 0.0 0.0 0.0 0.0 0.0 0.0 0.0 0.0 0.3 0.0 0.0 0.0 0.0 0.3 2.2 1.6 2.2 5.2 2.7 5.4 1.2 1.4 0.5 0.4 0.5 1.4 2.7 0.0 0.0 0.3 0.0 0.0 0.0 0.0 0.0 0.0 0.0 0.0 0.0 0.0 0.0 0.0 0.0 0.0 0.0 0.0 0.0 0.0
0.0 0.0 0.0 0.0 0.0 0.0 0.0 0.0 0.0 0.0 0.0 0.0 0.0 0.0 0.0 0.0 0.0 0.0 3.4 4.2 1.9 2.0 1.2 1.8 2.8 3.0 0.0 3.2 1.6 0.0 3.5 0.9 2.5 1.7 0.3 0.6 0.1 0.0 0.0 0.0 0.0 0.0 0.0 0.0 0.0 0.0 0.0 0.0 0.0 0.0 0.0 0.0 0.0 0.0
0.0 0.0 0.0 0.0 0.0 0.0 0.0 0.0 0.0 0.0 0.0 0.0 0.0 0.0 0.0 0.3 2.4 4.1 4.4 2.4 0.9 0.8 0.6 1.5 0.7 0.3 0.3 0.0 0.5 0.4 1.6 1.0 1.9 0.9 0.9 0.2 0.0 0.0 0.0 0.0 0.0 0.0 0.0 0.0 0.0 0.0 0.0 0.0 0.0 0.0 0.0 0.0 0.0 0.0
0.0 0.0 0.0 0.0 0.0 0.0 0.0 0.0 0.0 0.0 0.0 0.0 0.0 0.0 0.4 0.9 2.6 3.3 3.6 2.2 0.4 0.5 0.6 0.6 0.8 0.0 0.0 0.0 0.0 0.1 0.1 0.1 0.0 0.1 0.0 0.0 0.0 0.0 0.0 0.0 0.0 0.0 0.0 0.0 0.0 0.0 0.0 0.0 0.0 0.0 0.0 0.0 0.0 0.0
0.0 0.0 0.0 0.0 0.0 0.0 0.0 0.0 0.0 0.0 0.0 0.0 0.0 0.0 0.7 1.0 1.4 1.1 1.1 0.9 0.2 0.1 0.0 0.0 0.3 0.6 0.1 0.6 0.2 0.3 0.0 0.0 0.0 0.0 0.0 0.0 0.0 0.0 0.0 0.0 0.0 0.0 0.0 0.0 0.0 0.0 0.0 0.0 0.0 0.0 0.0 0.0 0.0 0.0
0.0 0.0 0.0 0.0 0.0 0.0 0.0 0.0 0.0 0.0 0.0 0.0 0.0 0.0 0.0 0.0 0.1 0.1 0.0 0.1 0.0 0.0 0.1 0.0 0.0 0.1 0.6 0.9 0.2 0.2 0.1 0.0 0.0 0.0 0.0 0.0 0.0 0.0 0.0 0.0 0.0 0.0 0.0 0.0 0.0 0.0 0.0 0.0 0.0 0.0 0.0 0.0 0.0 0.0
0.0 0.0 0.0 0.0 0.0 0.0 0.0 0.0 0.0 0.0 0.0 0.0 0.0 0.0 0.0 0.0 0.0 0.0 0.0 0.0 0.0 0.0 0.2 0.3 0.4 0.7 0.4 0.9 0.5 0.1 0.0 0.0 0.0 0.0 0.0 0.0 0.0 0.0 0.0 0.0 0.0 0.0 0.0 0.0 0.0 0.0 0.0 0.0 0.0 0.0 0.0 0.0 0.0 0.0
0.0 0.0 0.0 0.0 0.0 0.0 0.0 0.0 0.0 0.0 0.0 0.0 0.0 0.0 0.0 0.0 0.0 0.0 0.0 0.0 0.0 0.2 1.3 1.6 2.3 0.1 0.3 0.7 0.1 0.0 0.0 0.0 0.0 0.0 0.0 0.0 0.0 0.0 0.0 0.0 0.0 0.0 0.0 0.0 0.0 0.0 0.0 0.0 0.0 0.0 0.0 0.0 0.0 0.0
0.0 0.0 0.0 0.0 0.0 0.0 0.0 0.0 0.0 0.0 0.0 0.0 0.0 0.0 0.0 0.0 0.0 0.0 0.0 0.0 0.0 0.1 1.7 4.6 2.7 1.8 0.5 0.2 0.0 0.0 0.0 0.0 0.0 0.0 0.0 0.0 0.0 0.0 0.0 0.0 0.0 0.0 0.0 0.0 0.0 0.0 0.0 0.0 0.0 0.0 0.0 0.0 0.0 0.0
0.0 0.0 0.0 0.0 0.0 0.0 0.5 0.3 0.0 0.0 0.0 0.0 0.0 0.0 0.0 0.0 0.0 0.0 0.1 0.0 0.0 0.1 0.9 2.2 2.9 0.7 0.0 0.0 0.0 0.0 0.0 0.0 0.0 0.0 0.0 0.0 0.0 0.0 0.0 0.0 0.0 0.0 0.0 0.0 0.0 0.0 0.0 0.0 0.0 0.0 0.0 0.0 0.0 0.0
0.0 0.0 0.0 0.0 0.0 0.3 1.3 0.1 0.1 0.0 0.0 0.0 0.0 0.0 0.0 0.0 0.1 0.0 0.1 0.0 0.2 0.2 0.2 1.0 0.0 0.1 0.1 0.4 0.5 0.4 0.0 0.0 0.0 0.0 0.0 0.0 0.0 0.0 0.0 0.0 0.0 0.0 0.0 0.0 0.0 0.0 0.0 0.0 0.0 0.0 0.0 0.0 0.0 0.0
0.0 0.0 0.0 0.0 0.9 0.6 0.8 0.0 0.0 0.0 0.0 0.0 0.0 0.0 0.0 0.0 0.0 0.0 0.2 0.1 0.6 0.4 0.0 0.2 0.0 0.0 0.4 0.4 0.2 0.4 0.1 0.1 0.0 0.0 0.0 0.0 0.0 0.0 0.0 0.0 0.0 0.0 0.0 0.0 0.0 0.0 0.0 0.0 0.0 0.0 0.0 0.0 0.0 0.0
0.2 0.0 0.9 1.5 1.7 1.8 1.2 0.0 0.0 0.0 0.0 0.0 0.0 0.0 0.0 0.0 0.0 0.0 0.1 0.4 0.0 0.0 0.2 0.3 0.0 0.0 0.0 0.0 0.6 0.4 0.5 0.0 0.1 0.0 0.0 0.0 0.0 0.0 0.0 0.0 0.0 0.0 0.0 0.0 0.0 0.0 0.0 0.0 0.0 0.0 0.0 0.0 0.0 0.0
0.0 1.4 3.1 2.5 2.6 2.3 0.7 0.1 0.2 0.1 0.0 0.0 0.0 0.0 0.0 0.0 0.0 0.0 0.0 0.0 0.0 0.0 0.0 0.0 0.0 1.0 1.4 1.2 1.4 1.1 0.6 0.1 0.0 0.0 0.1 0.0 0.0 0.0 0.0 0.0 0.0 0.0 0.0 0.0 0.0 0.0 0.0 0.0 0.0 0.0 0.0 0.0 0.0 0.0
0.0 3.1 4.5 3.4 1.8 0.9 0.5 0.1 0.3 0.0 0.0 0.0 0.0 0.0 0.0 0.0 0.0 0.0 0.0 0.0 0.0 0.0 0.0 0.0 0.0 0.0 0.0 0.8 1.2 1.9 2.3 1.6 0.5 0.0 0.6 0.3 0.0 0.0 0.0 0.0 0.0 0.0 0.0 0.0 0.0 0.0 0.0 0.0 0.0 0.0 0.0 0.0 0.0 0.0
8.7 8.3 4.0 3.5 1.1 0.8 0.2 0.3 0.2 0.1 0.0 0.0 0.0 0.0 0.0 0.0 0.0 0.0 0.0 0.0 0.0 0.0 0.0 0.0 0.0 0.0 0.0 0.0 0.7 0.9 1.1 1.5 2.4 2.5 0.3 1.7 0.8 0.2 0.0 0.0 0.2 0.1 0.0 0.0 0.0 0.0 0.0 0.0 0.0 0.0 0.0 0.0 0.0 0.0
9.4 3.7 1.5 0.1 0.0 0.1 0.0 0.0 0.0 0.0 0.0 0.0 0.0 0.0 0.0 0.0 0.1 0.0 0.0 0.0 0.0 0.0 0.0 0.0 0.0 0.0 0.0 0.0 0.0 0.9 1.1 1.2 1.0 1.6 0.3 2.0 1.8 2.4 1.9 1.5 0.9 0.4 0.0 0.0 0.3 0.3 0.1 0.0 0.0 0.0 0.0 0.1 0.0 0.0
4.4 1.5 0.1 0.2 0.1 0.1 0.1 0.0 0.0 0.0 0.0 0.0 0.0 0.0 0.0 0.1 0.0 0.0 0.0 0.0 0.0 0.0 0.0 0.0 0.0 0.0 0.0 0.0 0.0 0.0 0.9 1.3 1.2 0.5 0.3 1.6 1.3 0.9 0.6 1.8 1.4 0.9 0.6 1.1 1.0 0.7 0.6 0.4 0.2 0.2 0.4 0.3 0.3 0.3
0.0 0.0 0.0 0.0 0.1 0.0 0.0 0.0 0.0 0.0 0.0 0.0 0.2 0.3 0.4 0.0 0.0 0.0 0.0 0.0 0.0 0.0 0.0 0.0 0.0 0.0 0.0 0.0 0.0 0.6 0.9 1.2 1.2 0.8 1.7 1.8 1.5 1.2 1.0 1.1 2.3 2.4 2.3 1.7 1.1 1.5 1.8 1.3 0.9 1.3 1.0 0.5 0.8 0.7
0.2 0.0 0.0 0.0 0.0 0.0 0.0 0.0 0.2 0.1 0.0 0.0 0.0 0.0 0.0 0.0 0.0 0.0 0.0 0.0 0.0 0.0 0.0 0.0 0.0 0.0 0.0 0.0 0.0 0.6 0.8 1.3 1.9 1.8 1.3 1.3 1.6 1.8 1.8 3.2 3.9 5.0 4.8 4.5 3.0 2.5 2.1 2.0 2.7 2.6 2.7 2.7 2.3 2.5
0.1 0.0 0.0 0.0 0.0 0.0 0.0 0.0 0.0 0.0 0.0 0.0 0.0 0.0 0.0 0.0 0.0 0.0 0.0 0.0 0.0 0.0 0.0 0.0 0.0 0.0 0.0 0.0 0.0 0.7 0.7 0.7 1.4 1.5 1.5 1.3 1.4 1.7 3.0 3.7 4.9 5.5 5.8 5.2 6.4 7.2 5.0 5.8 6.7 7.0 6.6 6.0 5.5 4.7
0.0 0.0 0.0 0.0 0.0 0.0 0.0 0.0 0.0 0.0 0.0 0.0 0.0 0.0 0.0 0.0 0.0 0.0 0.0 0.0 0.0 0.0 0.0 0.0 0.0 0.2 0.3 0.6 0.9 1.2 1.1 1.1 1.2 1.9 2.1 2.5 2.3 3.1 3.0 4.6 4.7 5.6 6.2 6.4 5.9 5.7 5.3 5.0 4.4 4.3 4.8 4.4 4.2 3.7
0.0 0.0 0.0 0.0 0.0 0.0 0.0 0.0 0.0 0.0 0.0 0.0 0.0 0.0 0.0 0.0 0.0 0.0 0.0 0.0 0.0 0.0 0.0 0.0 0.5 0.8 0.9 1.2 1.6 1.8 2.5 2.8 1.7 2.6 2.6 2.6 3.1 2.8 4.2 4.8 5.7 6.0 6.8 6.9 6.2 5.8 5.6 5.5 6.2 5.9 6.2 6.4 6.1 5.4
0.4 0.0 0.1 0.0 0.0 0.0 0.0 0.0 0.0 0.0 0.0 0.0 0.0 0.0 0.0 0.0 0.0 0.0 0.0 0.0 0.0 0.0 0.0 0.8 1.0 1.3 2.2 2.6 2.4 3.5 3.7 3.1 4.2 4.1 4.7 4.6 4.2 4.7 6.0 6.0 6.5 6.5 6.3 6.7 7.2 7.8 8.1 7.6 7.2 6.8 6.4 6.1 6.0 5.6

GFSWCAN_prec_kuchsnow_036.txt.gz
Snowfall_Accumulation
0.0 0.0 0.0 0.0 0.0 0.0 0.0 0.0 0.0 0.0 0.0 0.0 0.0 0.0 0.0 0.0 0.0 0.0 0.0 0.0 0.0 0.0 0.0 0.0 0.0 0.0 0.0 0.0 0.0 0.0 0.0 0.0 0.0 0.2 0.0 0.0 0.0 0.0 0.0 0.0 0.0 0.0 0.1 0.1 0.3 0.3 0.0 0.0 0.0 0.0 0.0 0.0 0.0 0.0
0.0 0.0 0.0 0.0 0.0 0.0 0.0 0.0 0.0 0.0 0.0 0.0 0.0 0.0 0.0 0.0 0.0 0.0 0.0 0.0 0.0 0.0 0.0 0.0 0.0 0.0 0.0 0.0 0.0 0.0 0.0 0.0 0.0 0.0 0.0 0.0 0.0 0.0 0.0 0.0 0.0 0.0 0.0 0.0 0.0 0.0 0.0 0.0 0.0 0.0 0.0 0.0 0.0 0.0
0.0 0.0 0.0 0.0 0.0 0.0 0.0 0.0 0.0 0.0 0.0 0.0 0.0 0.0 0.0 0.0 0.0 0.0 0.0 0.0 0.0 0.1 0.0 0.0 0.0 0.0 0.0 0.0 0.0 0.0 0.0 0.0 0.0 0.0 0.0 0.0 0.0 0.0 0.0 0.0 0.0 0.0 0.0 0.0 0.0 0.0 0.0 0.0 0.0 0.0 0.0 0.0 0.0 0.0
0.0 0.0 0.0 0.0 0.0 0.0 0.0 0.0 0.0 0.0 0.0 0.0 0.0 0.0 0.0 0.0 0.0 0.0 0.0 0.0 0.0 0.1 0.8 0.1 0.0 0.0 0.0 0.0 0.0 0.0 0.0 0.0 0.0 0.0 0.0 0.0 0.0 0.0 0.0 0.0 0.0 0.0 0.0 0.0 0.0 0.0 0.0 0.0 0.0 0.0 0.0 0.0 0.0 0.0
0.0 0.0 0.0 0.0 0.0 0.0 0.0 0.0 0.0 0.0 0.0 0.0 0.0 0.0 0.0 0.0 0.0 0.0 0.0 0.0 0.0 0.1 1.6 0.2 0.0 0.0 0.0 0.0 0.0 0.0 0.0 0.0 0.2 0.1 0.6 0.3 0.0 0.0 0.0 0.0 0.0 0.0 0.0 0.0 0.0 0.0 0.0 0.0 0.0 0.0 0.0 0.0 0.0 0.0
0.0 0.0 0.0 0.0 0.0 0.0 0.0 0.0 0.0 0.0 0.0 0.0 0.0 0.0 0.0 0.0 0.0 0.0 0.0 0.0 0.0 0.0 2.0 1.7 0.0 0.0 0.0 0.0 0.0 0.0 0.0 0.0 0.0 0.4 1.1 0.0 0.0 0.0 0.4 0.0 0.0 0.0 0.0 0.0 0.0 0.0 0.0 0.0 0.0 0.0 0.0 0.0 0.0 0.0
0.0 0.0 0.0 0.0 0.0 0.0 0.0 0.0 0.0 0.0 0.0 0.0 0.0 0.0 0.0 0.0 0.0 0.0 0.0 0.0 0.0 0.0 0.8 3.6 3.3 0.0 0.0 0.0 0.0 0.0 0.0 0.0 0.4 1.2 0.8 0.0 0.0 0.7 0.8 0.2 0.0 0.0 0.0 0.0 0.0 0.0 0.0 0.0 0.0 0.0 0.0 0.0 0.0 0.0
0.0 0.0 0.0 0.0 0.0 0.0 0.0 0.0 0.0 0.0 0.0 0.0 0.0 0.0 0.0 0.0 0.0 0.0 0.0 0.0 0.0 0.0 1.8 9.6 6.7 1.5 0.0 0.2 0.0 0.0 0.0 0.0 0.1 0.4 0.0 0.0 0.0 0.9 1.1 0.0 0.0 0.0 0.0 0.0 0.0 0.0 0.0 0.0 0.0 0.0 0.0 0.0 0.0 0.0
0.0 0.0 0.0 0.0 0.0 0.0 0.0 0.0 0.0 0.0 0.0 0.0 0.0 0.0 0.0 0.0 0.0 0.0 0.0 0.0 0.0 0.0 6.1 5.6 7.1 4.0 0.0 0.0 0.0 0.0 0.0 2.3 0.0 0.7 0.0 0.0 0.4 2.2 0.0 0.0 0.0 0.0 0.0 0.0 0.0 0.0 0.0 0.0 0.0 0.0 0.0 0.0 0.0 0.0
0.0 0.0 0.0 0.0 0.0 0.0 0.0 0.0 0.0 0.0 0.0 0.0 0.0 0.0 0.3 0.0 0.0 0.0 0.0 0.3 2.2 1.6 2.2 5.2 2.8 5.4 1.2 1.6 0.6 0.5 0.5 1.4 2.9 0.0 0.0 0.3 0.0 0.0 0.0 0.0 0.0 0.0 0.0 0.0 0.0 0.0 0.0 0.0 0.0 0.0 0.0 0.0 0.0 0.0
0.0 0.0 0.0 0.0 0.0 0.0 0.0 0.0 0.0 0.0 0.0 0.0 0.0 0.0 0.0 0.0 0.0 0.0 3.4 4.4 2.0 2.0 1.2 1.8 2.8 3.0 0.0 3.5 1.9 0.1 3.8 1.2 3.3 2.8 0.3 0.9 0.1 0.0 0.0 0.0 0.0 0.0 0.0 0.0 0.0 0.0 0.0 0.0 0.0 0.0 0.0 0.0 0.0 0.0
0.0 0.0 0.0 0.0 0.0 0.0 0.0 0.0 0.0 0.0 0.0 0.0 0.0 0.0 0.0 0.3 2.4 4.1 4.4 2.4 0.9 0.8 0.6 1.5 0.7 0.3 0.3 0.0 0.9 0.8 2.1 1.5 3.1 1.8 1.5 0.5 0.3 0.1 0.0 0.0 0.0 0.0 0.0 0.0 0.0 0.0 0.0 0.0 0.0 0.0 0.0 0.0 0.0 0.0
0.0 0.0 0.0 0.0 0.0 0.0 0.0 0.0 0.0 0.0 0.0 0.0 0.0 0.0 0.4 0.9 2.6 3.3 3.6 2.2 0.4 0.5 0.6 0.6 0.8 0.0 0.0 0.0 0.3 0.4 0.4 0.1 0.0 0.6 0.4 0.1 0.0 0.0 0.0 0.0 0.0 0.0 0.0 0.0 0.0 0.0 0.0 0.0 0.0 0.0 0.0 0.0 0.0 0.0
0.0 0.0 0.0 0.0 0.0 0.0 0.0 0.0 0.0 0.0 0.0 0.0 0.0 0.0 0.7 1.0 1.4 1.1 1.1 0.9 0.2 0.1 0.0 0.0 0.3 0.6 0.1 0.7 0.5 0.7 0.0 0.0 0.1 0.1 0.0 0.0 0.0 0.0 0.0 0.0 0.0 0.0 0.0 0.0 0.0 0.0 0.0 0.0 0.0 0.0 0.0 0.0 0.0 0.0
0.0 0.0 0.0 0.0 0.0 0.0 0.0 0.0 0.0 0.0 0.0 0.0 0.0 0.0 0.0 0.0 0.1 0.1 0.0 0.1 0.0 0.0 0.1 0.0 0.0 0.1 0.6 0.9 0.2 0.5 0.2 0.0 0.1 0.1 0.0 0.0 0.0 0.0 0.0 0.0 0.0 0.0 0.0 0.0 0.0 0.0 0.0 0.0 0.0 0.0 0.0 0.0 0.0 0.0
0.0 0.0 0.0 0.0 0.0 0.0 0.0 0.0 0.0 0.0 0.0 0.0 0.0 0.0 0.0 0.0 0.0 0.0 0.0 0.0 0.0 0.0 0.2 0.3 0.4 0.8 0.4 1.2 0.8 0.4 0.4 0.4 0.3 0.2 0.0 0.0 0.0 0.0 0.0 0.0 0.0 0.0 0.0 0.0 0.0 0.0 0.0 0.0 0.0 0.0 0.0 0.0 0.0 0.0
0.0 0.0 0.0 0.0 0.0 0.0 0.0 0.0 0.0 0.0 0.0 0.0 0.0 0.0 0.0 0.0 0.0 0.0 0.0 0.0 0.0 0.2 1.3 1.6 2.3 0.1 0.3 0.7 0.3 0.1 0.2 0.2 0.2 0.0 0.0 0.0 0.0 0.0 0.0 0.0 0.0 0.0 0.0 0.0 0.0 0.0 0.0 0.0 0.0 0.0 0.0 0.0 0.0 0.0
0.0 0.0 0.0 0.0 0.0 0.0 0.0 0.0 0.0 0.0 0.0 0.0 0.0 0.0 0.0 0.0 0.0 0.0 0.0 0.0 0.0 0.1 1.7 4.6 2.7 1.8 0.5 0.2 0.0 0.1 0.0 0.0 0.0 0.0 0.0 0.0 0.0 0.0 0.0 0.0 0.0 0.0 0.0 0.0 0.1 0.1 0.0 0.0 0.0 0.0 0.0 0.0 0.0 0.0
0.0 0.0 0.0 0.0 0.0 0.0 0.5 0.3 0.0 0.0 0.0 0.0 0.0 0.0 0.0 0.0 0.0 0.0 0.1 0.0 0.0 0.1 0.9 2.2 2.9 0.7 0.0 0.0 0.0 0.0 0.0 0.0 0.0 0.0 0.0 0.0 0.0 0.0 0.1 0.0 0.1 0.0 0.0 0.0 0.0 0.0 0.0 0.0 0.0 0.0 0.0 0.0 0.0 0.0
0.0 0.0 0.0 0.0 0.0 0.3 1.3 0.1 0.1 0.0 0.0 0.0 0.0 0.0 0.0 0.0 0.1 0.0 0.1 0.0 0.2 0.2 0.2 1.0 0.0 0.1 0.1 0.4 0.5 0.4 0.0 0.0 0.0 0.0 0.0 0.0 0.0 0.0 0.0 0.0 0.0 0.0 0.0 0.0 0.0 0.0 0.0 0.0 0.0 0.0 0.0 0.0 0.0 0.0
0.0 0.0 0.0 0.0 0.9 0.6 0.8 0.0 0.0 0.0 0.0 0.0 0.0 0.0 0.0 0.0 0.0 0.0 0.2 0.1 0.6 0.4 0.0 0.2 0.0 0.0 0.4 0.4 0.2 0.4 0.1 0.1 0.0 0.0 0.0 0.0 0.0 0.0 0.0 0.0 0.0 0.0 0.0 0.0 0.0 0.0 0.0 0.0 0.0 0.0 0.0 0.0 0.0 0.0
0.2 0.0 0.9 1.5 1.7 1.8 1.2 0.0 0.0 0.0 0.0 0.0 0.0 0.0 0.0 0.0 0.0 0.0 0.1 0.4 0.0 0.0 0.2 0.3 0.0 0.0 0.0 0.0 0.6 0.4 0.5 0.0 0.1 0.0 0.0 0.0 0.0 0.0 0.0 0.0 0.0 0.0 0.0 0.0 0.0 0.0 0.0 0.0 0.0 0.0 0.0 0.0 0.0 0.0
0.0 1.4 3.1 2.5 2.6 3.3 1.5 0.2 0.3 0.1 0.0 0.0 0.0 0.0 0.0 0.0 0.0 0.0 0.0 0.0 0.0 0.0 0.0 0.0 0.0 1.0 1.4 1.2 1.4 1.1 0.6 0.1 0.0 0.0 0.1 0.0 0.0 0.0 0.0 0.0 0.0 0.0 0.0 0.0 0.0 0.0 0.0 0.0 0.0 0.0 0.0 0.0 0.0 0.0
0.0 3.1 4.7 3.4 2.1 1.3 0.8 0.2 0.3 0.0 0.0 0.0 0.0 0.0 0.0 0.0 0.0 0.0 0.0 0.0 0.0 0.0 0.0 0.0 0.0 0.0 0.0 0.8 1.2 1.9 2.3 1.6 0.5 0.0 0.6 0.3 0.0 0.0 0.0 0.0 0.0 0.0 0.0 0.0 0.0 0.0 0.0 0.0 0.0 0.0 0.0 0.0 0.0 0.0
9.4 9.0 4.5 4.3 1.6 0.9 0.2 0.3 0.2 0.1 0.0 0.0 0.0 0.0 0.0 0.0 0.0 0.0 0.0 0.0 0.0 0.0 0.0 0.0 0.0 0.0 0.0 0.0 0.7 0.9 1.1 1.5 2.4 2.5 0.3 1.7 0.8 0.2 0.0 0.0 0.2 0.1 0.0 0.0 0.0 0.0 0.0 0.0 0.0 0.0 0.0 0.0 0.0 0.0
9.8 3.9 2.1 0.1 0.1 0.1 0.0 0.0 0.0 0.0 0.0 0.0 0.0 0.0 0.0 0.0 0.1 0.0 0.0 0.0 0.0 0.0 0.0 0.0 0.0 0.0 0.0 0.0 0.0 0.9 1.1 1.2 1.0 1.6 0.3 2.0 1.8 2.4 1.9 1.5 0.9 0.4 0.0 0.0 0.3 0.3 0.1 0.0 0.0 0.0 0.0 0.1 0.0 0.0
4.8 1.5 0.1 0.2 0.1 0.1 0.1 0.0 0.0 0.0 0.0 0.0 0.0 0.0 0.0 0.3 0.0 0.0 0.0 0.0 0.0 0.0 0.0 0.0 0.0 0.0 0.0 0.0 0.0 0.0 0.9 1.3 1.2 0.5 0.3 1.6 1.3 0.9 0.6 1.8 1.4 0.9 0.6 1.1 1.0 0.7 0.6 0.4 0.2 0.2 0.4 0.3 0.3 0.3
0.0 0.0 0.0 0.0 0.1 0.0 0.0 0.0 0.0 0.0 0.0 0.0 0.2 0.3 0.4 0.0 0.0 0.0 0.0 0.0 0.0 0.0 0.0 0.0 0.0 0.0 0.0 0.0 0.0 0.6 0.9 1.2 1.2 0.8 1.7 1.8 1.5 1.2 1.0 1.1 2.3 2.4 2.3 1.7 1.1 1.5 1.8 1.3 0.9 1.3 1.0 0.5 0.8 0.7
0.2 0.0 0.0 0.0 0.0 0.0 0.0 0.0 0.2 0.1 0.0 0.0 0.0 0.0 0.0 0.0 0.0 0.0 0.0 0.0 0.0 0.0 0.0 0.0 0.0 0.0 0.0 0.0 0.0 0.6 0.8 1.3 1.9 1.8 1.3 1.3 1.6 1.8 1.8 3.2 3.9 5.0 4.8 4.5 3.0 2.5 2.1 2.0 2.7 2.6 2.7 2.7 2.3 2.5
0.2 0.0 0.0 0.0 0.0 0.0 0.0 0.0 0.0 0.0 0.0 0.0 0.0 0.0 0.0 0.0 0.0 0.0 0.0 0.0 0.0 0.0 0.0 0.0 0.0 0.0 0.0 0.0 0.0 0.7 0.7 0.7 1.4 1.5 1.5 1.3 1.4 1.7 3.0 3.7 4.9 5.5 5.8 5.2 6.4 7.2 5.0 5.8 6.7 7.0 6.6 6.0 5.6 4.7
0.0 0.0 0.0 0.0 0.0 0.0 0.0 0.0 0.0 0.0 0.0 0.0 0.0 0.0 0.0 0.0 0.0 0.0 0.0 0.0 0.0 0.0 0.0 0.0 0.0 0.2 0.3 0.6 0.9 1.2 1.1 1.1 1.2 1.9 2.1 2.5 2.3 3.1 3.0 4.6 4.7 5.6 6.2 6.4 5.9 5.7 5.3 5.0 4.4 4.3 4.8 4.4 4.2 3.7
0.0 0.0 0.0 0.0 0.0 0.0 0.0 0.0 0.0 0.0 0.0 0.0 0.0 0.0 0.0 0.0 0.0 0.0 0.0 0.0 0.0 0.0 0.0 0.0 0.5 0.8 0.9 1.2 1.6 1.8 2.5 2.8 1.7 2.6 2.6 2.6 3.1 2.8 4.2 4.8 5.7 6.0 6.8 6.9 6.2 5.8 5.6 5.5 6.2 5.9 6.2 6.4 6.1 5.4
0.5 0.0 0.1 0.0 0.0 0.0 0.0 0.0 0.0 0.0 0.0 0.0 0.0 0.0 0.0 0.0 0.0 0.0 0.0 0.0 0.0 0.0 0.0 0.8 1.0 1.3 2.2 2.6 2.4 3.5 3.7 3.1 4.2 4.1 4.7 4.6 4.2 4.7 6.0 6.0 6.5 6.5 6.3 6.7 7.2 7.8 8.1 7.6 7.2 6.8 6.4 6.1 6.0 5.6

GFSWCAN_prec_kuchsnow_039.txt.gz
Snowfall_Accumulation
0.0 0.0 0.0 0.0 0.0 0.0 0.0 0.0 0.0 0.0 0.0 0.0 0.0 0.0 0.0 0.0 0.0 0.0 0.0 0.0 0.0 0.0 0.0 0.0 0.0 0.0 0.0 0.0 0.0 0.0 0.0 0.0 0.0 0.2 0.0 0.0 0.0 0.0 0.0 0.0 0.0 0.0 0.1 0.1 0.3 0.3 0.0 0.0 0.0 0.0 0.0 0.0 0.0 0.0
0.0 0.0 0.0 0.0 0.0 0.0 0.0 0.0 0.0 0.0 0.0 0.0 0.0 0.0 0.0 0.0 0.0 0.0 0.0 0.0 0.0 0.0 0.0 0.0 0.0 0.0 0.0 0.0 0.0 0.0 0.0 0.0 0.0 0.0 0.0 0.0 0.0 0.0 0.0 0.0 0.0 0.0 0.0 0.0 0.0 0.0 0.0 0.0 0.0 0.0 0.0 0.0 0.0 0.0
0.0 0.0 0.0 0.0 0.0 0.0 0.0 0.0 0.0 0.0 0.0 0.0 0.0 0.0 0.0 0.0 0.0 0.0 0.0 0.0 0.0 0.1 0.0 0.0 0.0 0.0 0.0 0.0 0.0 0.0 0.0 0.0 0.0 0.0 0.0 0.0 0.0 0.0 0.0 0.0 0.0 0.0 0.0 0.0 0.0 0.0 0.0 0.0 0.0 0.0 0.0 0.0 0.0 0.0
0.0 0.0 0.0 0.0 0.0 0.0 0.0 0.0 0.0 0.0 0.0 0.0 0.0 0.0 0.0 0.0 0.0 0.0 0.0 0.0 0.0 0.1 0.8 0.1 0.0 0.0 0.0 0.0 0.0 0.0 0.0 0.0 0.0 0.0 0.0 0.0 0.0 0.0 0.0 0.0 0.0 0.0 0.0 0.0 0.0 0.0 0.0 0.0 0.0 0.0 0.0 0.0 0.0 0.0
0.0 0.0 0.0 0.0 0.0 0.0 0.0 0.0 0.0 0.0 0.0 0.0 0.0 0.0 0.0 0.0 0.0 0.0 0.0 0.0 0.0 0.1 1.6 0.2 0.0 0.0 0.0 0.0 0.0 0.0 0.0 0.0 0.2 0.1 0.6 0.3 0.0 0.0 0.0 0.0 0.0 0.0 0.0 0.0 0.0 0.0 0.0 0.0 0.0 0.0 0.0 0.0 0.0 0.0
0.0 0.0 0.0 0.0 0.0 0.0 0.0 0.0 0.0 0.0 0.0 0.0 0.0 0.0 0.0 0.0 0.0 0.0 0.0 0.0 0.0 0.0 2.0 1.7 0.0 0.0 0.0 0.0 0.0 0.0 0.0 0.0 0.0 0.4 1.1 0.0 0.0 0.0 0.4 0.0 0.0 0.0 0.0 0.0 0.0 0.0 0.0 0.0 0.0 0.0 0.0 0.0 0.0 0.0
0.0 0.0 0.0 0.0 0.0 0.0 0.0 0.0 0.0 0.0 0.0 0.0 0.0 0.0 0.0 0.0 0.0 0.0 0.0 0.0 0.0 0.0 0.8 3.6 3.3 0.0 0.0 0.0 0.0 0.0 0.0 0.0 0.4 1.2 0.8 0.0 0.0 0.7 0.8 0.2 0.0 0.0 0.0 0.0 0.0 0.0 0.0 0.0 0.0 0.0 0.0 0.0 0.0 0.0
0.0 0.0 0.0 0.0 0.0 0.0 0.0 0.0 0.0 0.0 0.0 0.0 0.0 0.0 0.0 0.0 0.0 0.0 0.0 0.0 0.0 0.0 1.8 9.6 6.7 1.5 0.0 0.2 0.0 0.0 0.0 0.0 0.1 0.4 0.0 0.0 0.0 0.9 1.1 0.0 0.0 0.0 0.0 0.0 0.0 0.0 0.0 0.0 0.0 0.0 0.0 0.0 0.0 0.0
0.0 0.0 0.0 0.0 0.0 0.0 0.0 0.0 0.0 0.0 0.0 0.0 0.0 0.0 0.0 0.0 0.0 0.0 0.0 0.0 0.0 0.0 6.1 5.6 7.1 4.0 0.0 0.0 0.0 0.0 0.0 2.3 0.0 0.7 0.0 0.0 0.4 2.2 0.0 0.0 0.0 0.0 0.0 0.0 0.0 0.0 0.0 0.0 0.0 0.0 0.0 0.0 0.0 0.0
0.0 0.0 0.0 0.0 0.0 0.0 0.0 0.0 0.0 0.0 0.0 0.0 0.0 0.0 0.3 0.0 0.0 0.0 0.0 0.3 2.2 1.6 2.2 5.2 2.8 5.4 1.2 1.6 0.7 0.5 0.6 1.4 3.0 0.0 0.0 0.3 0.0 0.0 0.0 0.0 0.0 0.0 0.0 0.0 0.0 0.0 0.0 0.0 0.0 0.0 0.0 0.0 0.0 0.0
0.0 0.0 0.0 0.0 0.0 0.0 0.0 0.0 0.0 0.0 0.0 0.0 0.0 0.0 0.0 0.0 0.0 0.0 3.4 4.4 2.0 2.0 1.2 1.8 2.8 3.0 0.0 3.6 2.0 0.1 3.8 1.2 3.5 2.8 0.4 1.1 0.9 0.6 0.0 0.0 0.0 0.0 0.0 0.0 0.0 0.0 0.0 0.0 0.0 0.0 0.0 0.0 0.0 0.0
0.0 0.0 0.0 0.0 0.0 0.0 0.0 0.0 0.0 0.0 0.0 0.0 0.0 0.0 0.0 0.3 2.4 4.1 4.4 2.4 0.9 0.8 0.6 1.5 0.7 0.3 0.3 0.0 1.1 0.8 2.5 1.8 3.1 2.2 1.8 1.3 0.3 0.1 0.5 0.6 0.2 0.0 0.0 0.0 0.0 0.0 0.0 0.0 0.0 0.0 0.0 0.0 0.0 0.0
0.0 0.0 0.0 0.0 0.0 0.0 0.0 0.0 0.0 0.0 0.0 0.0 0.0 0.0 0.4 0.9 2.6 3.3 3.6 2.2 0.4 0.5 0.6 0.6 0.8 0.0 0.0 0.0 0.3 0.7 0.9 0.2 0.1 1.0 0.9 0.5 0.0 0.0 0.0 0.1 0.3 0.6 0.4 0.0 0.0 0.0 0.0 0.0 0.0 0.0 0.0 0.0 0.0 0.0
0.0 0.0 0.0 0.0 0.0 0.0 0.0 0.0 0.0 0.0 0.0 0.0 0.0 0.0 0.7 1.0 1.4 1.1 1.1 0.9 0.2 0.1 0.0 0.0 0.3 0.6 0.1 0.7 0.6 1.2 0.1 0.0 0.2 0.3 0.3 0.1 0.1 0.0 0.0 0.0 0.0 0.0 0.1 0.1 0.0 0.0 0.0 0.0 0.0 0.0 0.0 0.0 0.0 0.0
0.0 0.0 0.0 0.0 0.0 0.0 0.0 0.0 0.0 0.0 0.0 0.0 0.0 0.0 0.0 0.0 0.1 0.1 0.0 0.1 0.0 0.0 0.1 0.0 0.0 0.1 0.6 1.0 0.2 0.8 0.4 0.5 0.7 1.1 0.8 0.5 0.2 0.0 0.0 0.0 0.0 0.0 0.0 0.0 0.0 0.0 0.0 0.0 0.0 0.0 0.0 0.0 0.0 0.0
0.0 0.0 0.0 0.0 0.0 0.0 0.0 0.0 0.0 0.0 0.0 0.0 0.0 0.0 0.0 0.0 0.0 0.0 0.0 0.0 0.0 0.0 0.2 0.3 0.4 0.8 0.4 1.4 0.8 0.4 1.2 2.5 2.8 1.0 0.0 0.0 0.0 0.0 0.1 0.0 0.0 0.0 0.0 0.0 0.0 0.0 0.0 0.0 0.0 0.0 0.0 0.0 0.0 0.0
0.0 0.0 0.0 0.0 0.0 0.0 0.0 0.0 0.0 0.0 0.0 0.0 0.0 0.0 0.0 0.0 0.0 0.0 0.0 0.0 0.0 0.2 1.3 1.6 2.3 0.1 0.3 0.7 0.3 0.1 0.2 0.2 0.2 0.0 0.0 0.0 0.0 0.0 0.3 0.0 0.0 0.0 0.0 0.0 0.0 0.0 0.0 0.0 0.0 0.0 0.0 0.0 0.0 0.0
0.0 0.0 0.0 0.0 0.0 0.0 0.0 0.0 0.0 0.0 0.0 0.0 0.0 0.0 0.0 0.0 0.0 0.0 0.0 0.0 0.0 0.1 1.7 4.6 2.7 1.8 0.5 0.2 0.0 0.1 0.0 0.0 0.0 0.0 0.0 0.0 0.0 0.0 0.3 0.0 0.0 0.1 0.2 0.4 0.4 0.3 0.4 0.3 0.2 0.0 0.0 0.0 0.0 0.0
0.0 0.0 0.0 0.0 0.0 0.0 0.5 0.3 0.0 0.0 0.0 0.0 0.0 0.0 0.0 0.0 0.0 0.0 0.1 0.0 0.0 0.1 0.9 2.2 2.9 0.7 0.0 0.0 0.0 0.0 0.0 0.0 0.0 0.0 0.0 0.0 0.0 0.0 0.1 0.6 0.6 0.0 0.4 0.3 0.1 0.0 0.0 0.0 0.0 0.0 0.0 0.0 0.0 0.0
0.0 0.0 0.0 0.0 0.0 0.3 1.3 0.1 0.1 0.0 0.0 0.0 0.0 0.0 0.0 0.0 0.1 0.0 0.1 0.0 0.2 0.2 0.2 1.0 0.0 0.1 0.1 0.4 0.5 0.4 0.0 0.0 0.0 0.0 0.0 0.0 0.0 0.0 0.0 0.0 0.0 0.2 0.0 0.0 0.0 0.0 0.0 0.0 0.0 0.0 0.0 0.0 0.0 0.0
0.0 0.0 0.0 0.0 0.9 0.6 0.8 0.0 0.0 0.0 0.0 0.0 0.0 0.0 0.0 0.0 0.0 0.0 0.2 0.1 0.6 0.4 0.0 0.2 0.0 0.0 0.4 0.4 0.2 0.4 0.1 0.1 0.0 0.0 0.0 0.0 0.0 0.0 0.0 0.0 0.0 0.1 0.0 0.0 0.0 0.0 0.0 0.0 0.0 0.0 0.0 0.0 0.0 0.0
0.2 0.0 0.9 1.5 1.7 1.8 1.2 0.1 0.0 0.0 0.0 0.0 0.0 0.0 0.0 0.0 0.0 0.0 0.1 0.4 0.0 0.0 0.2 0.3 0.0 0.0 0.0 0.0 0.6 0.4 0.5 0.0 0.1 0.0 0.0 0.0 0.0 0.0 0.0 0.0 0.0 0.0 0.0 0.0 0.0 0.0 0.0 0.0 0.0 0.0 0.0 0.0 0.0 0.0
0.0 1.4 3.1 2.5 2.6 3.4 1.6 0.2 0.3 0.1 0.0 0.0 0.0 0.0 0.0 0.0 0.0 0.0 0.0 0.0 0.0 0.0 0.0 0.0 0.0 1.0 1.4 1.2 1.4 1.1 0.6 0.1 0.0 0.0 0.1 0.0 0.0 0.0 0.0 0.0 0.0 0.0 0.0 0.0 0.0 0.0 0.0 0.0 0.0 0.0 0.0 0.0 0.0 0.0
0.0 3.1 4.7 3.4 2.1 1.5 1.0 0.3 0.5 0.0 0.0 0.0 0.0 0.0 0.0 0.0 0.1 0.0 0.0 0.0 0.0 0.0 0.0 0.0 0.0 0.0 0.0 0.8 1.2 1.9 2.3 1.6 0.5 0.0 0.6 0.3 0.0 0.0 0.0 0.0 0.0 0.0 0.0 0.0 0.0 0.0 0.0 0.0 0.0 0.0 0.0 0.0 0.0 0.0
9.4 9.7 4.7 4.9 2.0 1.2 0.3 0.4 0.3 0.2 0.0 0.0 0.0 0.0 0.0 0.0 0.0 0.0 0.0 0.0 0.0 0.0 0.0 0.0 0.0 0.0 0.0 0.0 0.7 0.9 1.1 1.5 2.4 2.5 0.3 1.7 0.8 0.2 0.0 0.0 0.2 0.1 0.0 0.0 0.0 0.0 0.0 0.0 0.0 0.0 0.0 0.0 0.0 0.0
10.2 4.0 2.2 0.1 0.3 0.1 0.0 0.0 0.0 0.0 0.0 0.0 0.0 0.0 0.0 0.0 0.1 0.0 0.0 0.0 0.0 0.0 0.0 0.0 0.0 0.0 0.0 0.0 0.0 0.9 1.1 1.2 1.0 1.6 0.3 2.0 1.8 2.4 1.9 1.5 0.9 0.4 0.0 0.0 0.3 0.3 0.1 0.0 0.0 0.0 0.0 0.1 0.0 0.0
4.8 1.5 0.1 0.2 0.1 0.1 0.1 0.0 0.0 0.0 0.0 0.0 0.0 0.0 0.0 0.3 0.0 0.0 0.0 0.0 0.0 0.0 0.0 0.0 0.0 0.0 0.0 0.0 0.0 0.0 0.9 1.3 1.2 0.5 0.3 1.6 1.3 0.9 0.6 1.8 1.4 0.9 0.6 1.1 1.0 0.7 0.6 0.4 0.2 0.2 0.4 0.3 0.3 0.3
0.0 0.0 0.0 0.0 0.1 0.0 0.0 0.0 0.0 0.0 0.0 0.0 0.2 0.3 0.4 0.0 0.0 0.0 0.0 0.0 0.0 0.0 0.0 0.0 0.0 0.0 0.0 0.0 0.0 0.6 0.9 1.2 1.2 0.8 1.7 1.8 1.5 1.2 1.0 1.1 2.3 2.4 2.3 1.7 1.1 1.5 1.8 1.3 0.9 1.3 1.0 0.5 0.8 0.7
0.2 0.0 0.0 0.0 0.0 0.0 0.0 0.0 0.2 0.1 0.0 0.0 0.0 0.0 0.0 0.0 0.0 0.0 0.0 0.0 0.0 0.0 0.0 0.0 0.0 0.0 0.0 0.0 0.0 0.6 0.8 1.3 1.9 1.8 1.3 1.3 1.6 1.8 1.8 3.2 3.9 5.0 4.8 4.5 3.0 2.5 2.1 2.0 2.7 2.6 2.7 2.7 2.3 2.5
0.2 0.0 0.0 0.0 0.0 0.0 0.0 0.0 0.0 0.0 0.0 0.0 0.0 0.0 0.0 0.0 0.0 0.0 0.0 0.0 0.0 0.0 0.0 0.0 0.0 0.0 0.0 0.0 0.0 0.7 0.7 0.7 1.4 1.5 1.5 1.3 1.4 1.7 3.0 3.7 4.9 5.5 5.8 5.2 6.4 7.2 5.0 5.8 6.7 7.0 6.6 6.0 5.6 4.7
0.0 0.0 0.0 0.0 0.0 0.0 0.0 0.0 0.0 0.0 0.0 0.0 0.0 0.0 0.0 0.0 0.0 0.0 0.0 0.0 0.0 0.0 0.0 0.0 0.0 0.2 0.3 0.6 0.9 1.2 1.1 1.1 1.2 1.9 2.1 2.5 2.3 3.1 3.0 4.6 4.7 5.6 6.2 6.4 5.9 5.7 5.3 5.0 4.4 4.3 4.8 4.4 4.2 3.7
0.0 0.0 0.0 0.0 0.0 0.0 0.0 0.0 0.0 0.0 0.0 0.0 0.0 0.0 0.0 0.0 0.0 0.0 0.0 0.0 0.0 0.0 0.0 0.0 0.5 0.8 0.9 1.2 1.6 1.8 2.5 2.8 1.7 2.6 2.6 2.6 3.1 2.8 4.2 4.8 5.7 6.0 6.8 6.9 6.2 5.8 5.6 5.5 6.2 5.9 6.2 6.4 6.1 5.4
0.5 0.1 0.2 0.0 0.0 0.0 0.0 0.0 0.0 0.0 0.0 0.0 0.0 0.0 0.0 0.0 0.0 0.0 0.0 0.0 0.0 0.0 0.0 0.8 1.0 1.3 2.2 2.6 2.4 3.5 3.7 3.1 4.2 4.1 4.7 4.6 4.2 4.7 6.0 6.0 6.5 6.5 6.3 6.7 7.2 7.8 8.1 7.6 7.2 6.8 6.4 6.1 6.0 5.6

GFSWCAN_prec_kuchsnow_045.txt.gz
Snowfall_Accumulation
0.0 0.0 0.0 0.0 0.0 0.0 0.0 0.0 0.0 0.0 0.0 0.0 0.0 0.0 0.0 0.0 0.0 0.0 0.0 0.0 0.0 0.0 0.0 0.0 0.0 0.0 0.0 0.0 0.0 0.0 0.0 0.0 0.0 0.2 0.0 0.0 0.0 0.0 0.0 0.0 0.0 0.0 0.1 0.1 0.3 0.4 0.0 0.0 0.0 0.0 0.0 0.0 0.0 0.0
0.0 0.0 0.0 0.0 0.0 0.0 0.0 0.0 0.0 0.0 0.0 0.0 0.0 0.0 0.0 0.0 0.0 0.0 0.0 0.0 0.0 0.0 0.0 0.0 0.0 0.0 0.0 0.0 0.0 0.0 0.0 0.0 0.0 0.0 0.0 0.0 0.0 0.0 0.0 0.0 0.0 0.0 0.0 0.0 0.0 0.0 0.0 0.0 0.0 0.0 0.0 0.0 0.0 0.0
0.0 0.0 0.0 0.0 0.0 0.0 0.0 0.0 0.0 0.0 0.0 0.0 0.0 0.0 0.0 0.0 0.0 0.0 0.0 0.0 0.0 0.1 0.0 0.0 0.0 0.0 0.0 0.0 0.0 0.0 0.0 0.0 0.0 0.0 0.0 0.0 0.0 0.0 0.0 0.0 0.0 0.0 0.0 0.0 0.0 0.0 0.0 0.0 0.0 0.0 0.0 0.0 0.0 0.0
0.0 0.0 0.0 0.0 0.0 0.0 0.0 0.0 0.0 0.0 0.0 0.0 0.0 0.0 0.0 0.0 0.0 0.0 0.0 0.0 0.0 0.1 0.8 0.1 0.0 0.0 0.0 0.0 0.0 0.0 0.0 0.0 0.0 0.0 0.0 0.0 0.0 0.0 0.0 0.0 0.0 0.0 0.0 0.0 0.0 0.0 0.0 0.0 0.0 0.0 0.0 0.0 0.0 0.0
0.0 0.0 0.0 0.0 0.0 0.0 0.0 0.0 0.0 0.0 0.0 0.0 0.0 0.0 0.0 0.0 0.0 0.0 0.0 0.0 0.0 0.1 1.6 0.2 0.0 0.0 0.0 0.0 0.0 0.0 0.0 0.0 0.2 0.1 0.6 0.3 0.0 0.0 0.0 0.0 0.0 0.0 0.0 0.0 0.0 0.0 0.0 0.0 0.0 0.0 0.0 0.0 0.0 0.0
0.0 0.0 0.0 0.0 0.0 0.0 0.0 0.0 0.0 0.0 0.0 0.0 0.0 0.0 0.0 0.0 0.0 0.0 0.0 0.0 0.0 0.0 2.0 1.7 0.0 0.0 0.0 0.0 0.0 0.0 0.0 0.0 0.0 0.4 1.1 0.0 0.0 0.0 0.4 0.0 0.0 0.0 0.0 0.0 0.0 0.0 0.0 0.0 0.0 0.0 0.0 0.0 0.0 0.0
0.0 0.0 0.0 0.0 0.0 0.0 0.0 0.0 0.0 0.0 0.0 0.0 0.0 0.0 0.0 0.0 0.0 0.0 0.0 0.0 0.0 0.0 0.8 3.6 3.3 0.0 0.0 0.0 0.0 0.0 0.0 0.0 0.4 1.2 0.8 0.0 0.0 0.7 0.8 0.2 0.0 0.0 0.0 0.0 0.0 0.0 0.0 0.0 0.0 0.0 0.0 0.0 0.0 0.0
0.0 0.0 0.0 0.0 0.0 0.0 0.0 0.0 0.0 0.0 0.0 0.0 0.0 0.0 0.0 0.0 0.0 0.0 0.0 0.0 0.0 0.0 1.8 9.6 6.7 1.5 0.0 0.2 0.0 0.0 0.0 0.0 0.1 0.4 0.0 0.0 0.0 0.9 1.1 0.0 0.0 0.0 0.0 0.0 0.0 0.0 0.0 0.0 0.0 0.0 0.0 0.0 0.0 0.0
0.0 0.0 0.0 0.0 0.0 0.0 0.0 0.0 0.0 0.0 0.0 0.0 0.0 0.0 0.0 0.0 0.0 0.0 0.0 0.0 0.0 0.0 6.1 5.6 7.1 4.0 0.0 0.0 0.0 0.1 0.0 2.3 0.0 0.7 0.0 0.0 0.4 2.2 0.0 0.1 0.1 0.0 0.0 0.0 0.0 0.0 0.0 0.0 0.0 0.0 0.0 0.0 0.0 0.0
0.0 0.0 0.0 0.0 0.0 0.0 0.0 0.0 0.0 0.0 0.0 0.0 0.0 0.0 0.3 0.0 0.0 0.0 0.0 0.3 2.2 1.6 2.2 5.2 2.8 5.4 1.2 1.6 0.7 0.7 0.7 1.4 3.0 0.0 0.0 0.3 0.0 0.0 0.0 0.0 0.0 0.0 0.0 0.0 0.0 1.8 0.9 0.7 0.0 0.0 0.0 0.0 0.0 0.0
0.0 0.0 0.0 0.0 0.0 0.0 0.0 0.0 0.0 0.0 0.0 0.0 0.0 0.0 0.0 0.0 0.0 0.0 3.4 4.4 2.0 2.0 1.2 1.8 2.8 3.0 0.0 3.6 2.1 0.1 4.1 1.5 3.6 2.8 0.4 1.3 1.4 0.6 0.0 0.1 0.0 0.0 0.0 0.0 0.0 0.0 0.0 0.4 0.6 0.0 0.0 0.0 0.0 0.0
0.0 0.0 0.0 0.0 0.0 0.0 0.0 0.0 0.0 0.0 0.0 0.0 0.0 0.0 0.0 0.3 2.4 4.1 4.4 2.4 0.9 0.8 0.6 1.5 0.7 0.3 0.3 0.0 1.3 0.9 2.9 2.2 3.5 2.6 2.7 2.9 0.7 0.1 0.5 0.6 0.3 0.0 0.0 0.1 0.0 0.0 0.0 0.0 0.0 0.0 0.0 0.0 0.0 0.0
0.0 0.0 0.0 0.0 0.0 0.0 0.0 0.0 0.0 0.0 0.0 0.0 0.0 0.0 0.4 0.9 2.6 3.3 3.6 2.2 0.4 0.5 0.6 0.6 0.8 0.0 0.0 0.0 0.3 1.0 1.5 0.5 0.9 2.8 4.2 1.5 0.1 0.1 0.0 0.1 0.3 1.4 1.4 0.7 0.4 0.3 0.4 0.4 0.2 0.1 0.0 0.0 0.0 0.0
0.0 0.0 0.0 0.0 0.0 0.0 0.0 0.0 0.0 0.0 0.0 0.0 0.0 0.0 0.7 1.0 1.4 1.1 1.1 0.9 0.2 0.1 0.0 0.0 0.3 0.6 0.1 0.7 0.6 1.5 0.1 0.4 2.3 2.0 1.9 0.1 0.1 0.0 0.0 0.0 0.0 0.0 0.6 1.2 2.0 1.4 1.3 1.5 1.0 0.6 0.1 0.0 0.0 0.0
0.0 0.0 0.0 0.0 0.0 0.0 0.0 0.0 0.0 0.0 0.0 0.0 0.0 0.0 0.0 0.0 0.1 0.1 0.0 0.1 0.0 0.0 0.1 0.0 0.0 0.1 0.6 1.0 0.2 0.8 0.9 3.6 4.1 2.6 1.2 0.5 0.2 0.0 0.0 0.1 0.0 0.0 0.0 0.0 0.2 0.5 1.7 1.6 1.2 0.3 0.0 0.0 0.0 0.0
0.0 0.0 0.0 0.0 0.0 0.0 0.0 0.0 0.0 0.0 0.0 0.0 0.0 0.0 0.0 0.0 0.0 0.0 0.0 0.0 0.0 0.0 0.2 0.3 0.4 0.8 0.4 1.4 0.8 0.4 1.2 2.5 2.8 1.0 0.0 0.0 0.0 0.0 0.1 0.0 0.1 0.0 0.0 0.0 0.0 0.0 0.4 0.5 0.6 0.4 0.2 0.2 0.0 0.0
0.0 0.0 0.0 0.0 0.0 0.0 0.0 0.0 0.0 0.0 0.0 0.0 0.0 0.0 0.0 0.0 0.0 0.0 0.0 0.0 0.0 0.2 1.3 1.6 2.3 0.1 0.3 0.7 0.3 0.1 0.2 0.2 0.2 0.0 0.0 0.0 0.0 0.0 0.3 0.0 0.0 0.0 0.0 0.0 0.2 0.2 0.7 0.3 1.0 1.2 0.5 0.1 0.0 0.0
0.0 0.0 0.0 0.0 0.0 0.0 0.0 0.0 0.0 0.0 0.0 0.0 0.0 0.0 0.0 0.0 0.0 0.0 0.0 0.0 0.0 0.1 1.7 4.6 2.7 1.8 0.5 0.2 0.0 0.1 0.0 0.0 0.0 0.0 0.0 0.0 0.0 0.0 0.3 0.0 0.0 0.1 0.7 1.7 1.7 1.7 1.4 1.3 1.4 1.1 0.0 0.2 0.0 0.0
0.0 0.0 0.0 0.0 0.0 0.0 0.5 0.3 0.0 0.0 0.0 0.0 0.0 0.0 0.0 0.0 0.0 0.0 0.1 0.0 0.0 0.1 0.9 2.2 2.9 0.7 0.0 0.0 0.0 0.0 0.0 0.0 0.0 0.0 0.0 0.0 0.0 0.0 0.1 0.6 0.6 0.0 0.4 1.2 0.8 1.0 0.6 0.2 0.0 0.2 0.3 0.2 0.1 0.0
0.0 0.0 0.0 0.0 0.0 0.3 1.3 0.1 0.1 0.0 0.0 0.0 0.0 0.0 0.0 0.0 0.1 0.0 0.1 0.0 0.2 0.2 0.2 1.0 0.0 0.1 0.1 0.4 0.5 0.4 0.0 0.0 0.0 0.0 0.0 0.0 0.0 0.0 0.0 0.0 0.0 0.2 0.0 0.4 0.3 0.1 0.6 0.3 0.1 0.0 0.0 0.0 0.0 0.0
0.0 0.0 0.0 0.0 0.9 0.6 0.8 0.0 0.0 0.0 0.0 0.0 0.0 0.0 0.0 0.0 0.0 0.0 0.2 0.1 0.6 0.4 0.0 0.2 0.0 0.0 0.4 0.4 0.2 0.4 0.1 0.1 0.0 0.0 0.0 0.0 0.0 0.0 0.0 0.0 0.0 0.1 0.0 0.0 0.1 0.0 0.3 0.2 0.1 0.0 0.0 0.0 0.0 0.0
0.2 0.0 0.9 1.5 1.7 1.8 1.2 0.1 0.0 0.0 0.0 0.0 0.0 0.0 0.0 0.0 0.0 0.0 0.1 0.4 0.0 0.0 0.2 0.3 0.0 0.0 0.0 0.0 0.6 0.4 0.5 0.0 0.1 0.0 0.0 0.0 0.0 0.0 0.0 0.0 0.0 0.0 0.0 0.0 0.0 0.0 0.0 0.0 0.2 0.0 0.0 0.0 0.0 0.0
0.0 1.4 3.1 2.5 2.6 3.4 1.8 0.2 0.3 0.1 0.0 0.0 0.0 0.0 0.0 0.0 0.0 0.0 0.0 0.0 0.0 0.0 0.0 0.0 0.0 1.0 1.4 1.2 1.4 1.1 0.6 0.1 0.0 0.0 0.1 0.0 0.0 0.0 0.0 0.0 0.0 0.0 0.0 0.0 0.0 0.0 0.0 0.0 0.0 0.0 0.0 0.0 0.0 0.0
0.0 3.1 4.7 3.4 2.1 1.6 1.1 0.4 0.5 0.0 0.0 0.0 0.0 0.0 0.0 0.0 0.1 0.0 0.0 0.0 0.0 0.0 0.0 0.0 0.0 0.0 0.0 0.8 1.2 1.9 2.3 1.6 0.5 0.0 0.6 0.3 0.0 0.0 0.0 0.0 0.0 0.0 0.0 0.0 0.0 0.0 0.0 0.0 0.0 0.0 0.0 0.0 0.0 0.0
9.4 9.7 4.7 4.9 2.0 1.2 0.4 0.5 0.3 0.3 0.0 0.0 0.0 0.0 0.0 0.0 0.0 0.0 0.0 0.0 0.0 0.0 0.0 0.0 0.0 0.0 0.0 0.0 0.7 0.9 1.1 1.5 2.5 2.5 0.3 1.7 0.8 0.2 0.0 0.0 0.2 0.1 0.0 0.0 0.0 0.0 0.0 0.0 0.0 0.0 0.0 0.0 0.0 0.0
10.2 4.0 2.2 0.1 0.3 0.1 0.0 0.0 0.0 0.0 0.0 0.0 0.0 0.0 0.0 0.0 0.1 0.0 0.0 0.0 0.0 0.0 0.0 0.0 0.0 0.0 0.0 0.0 0.0 0.9 1.1 1.2 1.0 1.6 0.3 2.0 1.8 2.4 1.9 1.5 0.9 0.4 0.0 0.0 0.3 0.3 0.1 0.0 0.0 0.0 0.0 0.1 0.0 0.0
4.8 1.5 0.1 0.2 0.1 0.1 0.1 0.0 0.0 0.0 0.0 0.0 0.0 0.0 0.0 0.3 0.0 0.0 0.0 0.0 0.0 0.0 0.0 0.0 0.0 0.0 0.0 0.0 0.0 0.0 0.9 1.3 1.2 0.5 0.3 1.6 1.3 0.9 0.6 1.8 1.4 0.9 0.6 1.1 1.0 0.7 0.6 0.4 0.2 0.2 0.4 0.3 0.3 0.3
0.0 0.0 0.0 0.0 0.1 0.0 0.0 0.0 0.0 0.0 0.0 0.0 0.2 0.3 0.4 0.0 0.0 0.0 0.0 0.0 0.0 0.0 0.0 0.0 0.0 0.0 0.0 0.0 0.0 0.6 0.9 1.2 1.2 0.8 1.7 1.8 1.5 1.2 1.0 1.1 2.3 2.4 2.3 1.7 1.1 1.5 1.8 1.3 0.9 1.3 1.0 0.5 0.8 0.7
0.2 0.0 0.0 0.0 0.0 0.0 0.0 0.0 0.2 0.1 0.0 0.0 0.0 0.0 0.0 0.0 0.0 0.0 0.0 0.0 0.0 0.0 0.0 0.0 0.0 0.0 0.0 0.0 0.0 0.6 0.8 1.3 1.9 1.8 1.3 1.3 1.6 1.8 1.8 3.2 3.9 5.0 4.8 4.5 3.0 2.5 2.1 2.0 2.7 2.6 2.7 2.7 2.3 2.5
0.2 0.0 0.0 0.0 0.0 0.0 0.0 0.0 0.0 0.0 0.0 0.0 0.0 0.0 0.0 0.0 0.0 0.0 0.0 0.0 0.0 0.0 0.0 0.0 0.0 0.0 0.0 0.0 0.0 0.7 0.7 0.7 1.4 1.5 1.5 1.3 1.4 1.7 3.0 3.7 4.9 5.5 5.8 5.2 6.4 7.2 5.0 5.8 6.7 7.0 6.6 6.0 5.6 4.7
0.0 0.0 0.0 0.0 0.0 0.0 0.0 0.0 0.0 0.0 0.0 0.0 0.0 0.0 0.0 0.0 0.0 0.0 0.0 0.0 0.0 0.0 0.0 0.0 0.0 0.2 0.3 0.6 0.9 1.2 1.1 1.1 1.2 1.9 2.1 2.5 2.3 3.1 3.0 4.6 4.7 5.6 6.2 6.4 5.9 5.7 5.3 5.0 4.4 4.3 4.8 4.4 4.2 3.7
0.0 0.0 0.0 0.0 0.0 0.0 0.0 0.0 0.0 0.0 0.0 0.0 0.0 0.0 0.0 0.0 0.0 0.0 0.0 0.0 0.0 0.0 0.0 0.0 0.5 0.8 0.9 1.2 1.6 1.8 2.5 2.8 1.7 2.6 2.6 2.6 3.1 2.8 4.2 4.8 5.7 6.0 6.8 6.9 6.2 5.8 5.6 5.5 6.2 5.9 6.2 6.4 6.1 5.4
0.7 0.3 0.3 0.0 0.0 0.0 0.0 0.0 0.0 0.0 0.0 0.0 0.0 0.0 0.0 0.0 0.0 0.0 0.0 0.0 0.0 0.0 0.0 0.8 1.0 1.3 2.2 2.6 2.4 3.5 3.7 3.1 4.2 4.1 4.7 4.6 4.2 4.7 6.0 6.0 6.5 6.5 6.3 6.7 7.2 7.8 8.1 7.6 7.2 6.8 6.4 6.1 6.0 5.6

GFSWCAN_prec_kuchsnow_048.txt.gz
Snowfall_Accumulation
0.0 0.0 0.0 0.0 0.0 0.0 0.0 0.0 0.0 0.0 0.0 0.0 0.0 0.0 0.0 0.0 0.0 0.0 0.0 0.0 0.0 0.0 0.0 0.0 0.0 0.0 0.0 0.0 0.0 0.0 0.0 0.0 0.0 0.2 0.0 0.0 0.0 0.0 0.0 0.0 0.0 0.0 0.1 0.1 0.3 0.5 0.0 0.0 0.0 0.0 0.0 0.0 0.0 0.0
0.0 0.0 0.0 0.0 0.0 0.0 0.0 0.0 0.0 0.0 0.0 0.0 0.0 0.0 0.0 0.0 0.0 0.0 0.0 0.0 0.0 0.0 0.0 0.0 0.0 0.0 0.0 0.0 0.0 0.0 0.0 0.0 0.0 0.0 0.0 0.0 0.0 0.0 0.0 0.0 0.0 0.0 0.0 0.0 0.0 0.0 0.0 0.0 0.0 0.0 0.0 0.0 0.0 0.0
0.0 0.0 0.0 0.0 0.0 0.0 0.0 0.0 0.0 0.0 0.0 0.0 0.0 0.0 0.0 0.0 0.0 0.0 0.0 0.0 0.0 0.1 0.0 0.0 0.0 0.0 0.0 0.0 0.0 0.0 0.0 0.0 0.0 0.0 0.0 0.0 0.0 0.0 0.0 0.0 0.0 0.0 0.0 0.0 0.0 0.0 0.0 0.0 0.0 0.0 0.0 0.0 0.0 0.0
0.0 0.0 0.0 0.0 0.0 0.0 0.0 0.0 0.0 0.0 0.0 0.0 0.0 0.0 0.0 0.0 0.0 0.0 0.0 0.0 0.0 0.1 0.8 0.1 0.0 0.0 0.0 0.0 0.0 0.0 0.0 0.0 0.0 0.0 0.0 0.0 0.0 0.0 0.0 0.0 0.0 0.0 0.0 0.0 0.0 0.0 0.0 0.0 0.0 0.0 0.0 0.0 0.0 0.0
0.0 0.0 0.0 0.0 0.0 0.0 0.0 0.0 0.0 0.0 0.0 0.0 0.0 0.0 0.0 0.0 0.0 0.0 0.0 0.0 0.0 0.1 1.6 0.2 0.0 0.0 0.0 0.0 0.0 0.0 0.0 0.0 0.2 0.1 0.6 0.3 0.0 0.0 0.0 0.0 0.0 0.0 0.0 0.0 0.0 0.0 0.0 0.0 0.0 0.0 0.0 0.0 0.0 0.0
0.0 0.0 0.0 0.0 0.0 0.0 0.0 0.0 0.0 0.0 0.0 0.0 0.0 0.0 0.0 0.0 0.0 0.0 0.0 0.0 0.0 0.0 2.0 1.7 0.0 0.0 0.0 0.0 0.0 0.0 0.0 0.0 0.0 0.4 1.1 0.0 0.0 0.0 0.4 0.0 0.0 0.0 0.0 0.0 0.0 0.0 0.0 0.0 0.0 0.0 0.0 0.0 0.0 0.0
0.0 0.0 0.0 0.0 0.0 0.0 0.0 0.0 0.0 0.0 0.0 0.0 0.0 0.0 0.0 0.0 0.0 0.0 0.0 0.0 0.0 0.0 0.8 3.6 3.3 0.0 0.0 0.0 0.0 0.0 0.0 0.0 0.4 1.2 0.8 0.0 0.0 0.7 0.8 0.2 0.0 0.0 0.0 0.0 0.0 0.0 0.0 0.0 0.0 0.0 0.0 0.0 0.0 0.0
0.0 0.0 0.0 0.0 0.0 0.0 0.0 0.0 0.0 0.0 0.0 0.0 0.0 0.0 0.0 0.0 0.0 0.0 0.0 0.0 0.0 0.0 1.8 9.6 6.7 1.5 0.0 0.2 0.0 0.0 0.0 0.0 0.1 0.4 0.0 0.0 0.0 0.9 1.1 0.0 0.0 0.0 0.0 0.0 0.0 0.0 0.0 0.0 0.0 0.0 0.0 0.0 0.0 0.0
0.0 0.0 0.0 0.0 0.0 0.0 0.0 0.0 0.0 0.0 0.0 0.0 0.0 0.0 0.0 0.0 0.0 0.0 0.0 0.0 0.0 0.0 6.1 5.6 7.1 4.0 0.0 0.0 0.0 0.1 0.0 2.3 0.0 0.7 0.0 0.0 0.4 2.5 0.0 0.1 0.1 0.0 0.1 0.0 0.0 0.0 0.0 0.0 0.0 0.0 0.0 0.0 0.0 0.0
0.0 0.0 0.0 0.0 0.0 0.0 0.0 0.0 0.0 0.0 0.0 0.0 0.0 0.0 0.3 0.0 0.0 0.0 0.0 0.3 2.2 1.6 2.2 5.2 2.8 5.4 1.2 1.6 0.7 0.7 0.7 1.4 3.0 0.0 0.0 0.5 0.0 0.0 0.0 0.0 0.0 0.0 0.0 0.1 0.0 1.8 0.9 0.7 0.0 0.0 0.0 0.0 0.0 0.0
0.0 0.0 0.0 0.0 0.0 0.0 0.0 0.0 0.0 0.0 0.0 0.0 0.0 0.0 0.0 0.0 0.0 0.0 3.4 4.4 2.0 2.0 1.2 1.8 2.8 3.0 0.0 3.6 2.1 0.1 4.1 1.6 3.6 3.1 0.9 1.9 1.4 0.6 0.0 0.1 0.0 0.0 0.0 0.0 0.0 0.0 0.2 0.7 1.0 0.3 0.2 0.0 0.0 0.0
0.0 0.0 0.0 0.0 0.0 0.0 0.0 0.0 0.0 0.0 0.0 0.0 0.0 0.0 0.0 0.3 2.4 4.1 4.4 2.4 0.9 0.8 0.6 1.5 0.7 0.3 0.3 0.0 1.3 0.9 2.9 2.4 3.8 3.1 3.4 2.9 0.7 0.1 0.5 0.6 0.3 0.0 0.0 0.1 0.0 0.0 0.2 0.0 0.5 0.8 0.4 0.4 0.5 0.3
0.0 0.0 0.0 0.0 0.0 0.0 0.0 0.0 0.0 0.0 0.0 0.0 0.0 0.0 0.4 0.9 2.6 3.3 3.6 2.2 0.4 0.5 0.6 0.6 0.8 0.0 0.0 0.0 0.3 1.0 1.5 0.7 0.9 3.7 4.2 1.5 0.1 0.1 0.0 0.1 0.3 1.4 1.4 0.7 0.4 0.3 0.4 0.4 0.2 0.6 0.6 0.4 0.2 0.0
0.0 0.0 0.0 0.0 0.0 0.0 0.0 0.0 0.0 0.0 0.0 0.0 0.0 0.0 0.7 1.0 1.4 1.1 1.1 0.9 0.2 0.1 0.0 0.0 0.3 0.6 0.1 0.7 0.6 1.5 0.1 0.4 2.8 2.0 1.9 0.1 0.1 0.0 0.0 0.0 0.0 0.0 0.6 1.2 2.0 1.4 1.3 1.5 1.0 1.1 0.7 0.3 0.0 0.0
0.0 0.0 0.0 0.0 0.0 0.0 0.0 0.0 0.0 0.0 0.0 0.0 0.0 0.0 0.0 0.0 0.1 0.1 0.0 0.1 0.0 0.0 0.1 0.0 0.0 0.1 0.6 1.0 0.2 0.8 0.9 3.6 4.1 2.6 1.2 0.5 0.2 0.0 0.0 0.1 0.0 0.0 0.0 0.0 0.2 0.5 1.7 1.6 2.0 1.4 0.7 0.3 0.1 0.0
0.0 0.0 0.0 0.0 0.0 0.0 0.0 0.0 0.0 0.0 0.0 0.0 0.0 0.0 0.0 0.0 0.0 0.0 0.0 0.0 0.0 0.0 0.2 0.3 0.4 0.8 0.4 1.4 0.8 0.4 1.2 2.5 2.8 1.0 0.0 0.0 0.0 0.0 0.1 0.0 0.1 0.0 0.0 0.0 0.0 0.0 0.4 0.5 1.1 1.1 0.2 0.5 0.0 0.0
0.0 0.0 0.0 0.0 0.0 0.0 0.0 0.0 0.0 0.0 0.0 0.0 0.0 0.0 0.0 0.0 0.0 0.0 0.0 0.0 0.0 0.2 1.3 1.6 2.3 0.1 0.3 0.7 0.3 0.1 0.2 0.2 0.2 0.0 0.0 0.0 0.0 0.0 0.3 0.0 0.0 0.0 0.0 0.0 0.2 0.2 0.7 0.3 1.3 1.9 1.2 0.5 0.0 0.3
0.0 0.0 0.0 0.0 0.0 0.0 0.0 0.0 0.0 0.0 0.0 0.0 0.0 0.0 0.0 0.0 0.0 0.0 0.0 0.0 0.0 0.1 1.7 4.6 2.7 1.8 0.5 0.2 0.0 0.1 0.0 0.0 0.0 0.0 0.0 0.0 0.0 0.0 0.3 0.0 0.0 0.1 0.7 1.7 1.7 1.7 1.4 1.3 1.7 1.4 0.3 0.5 0.2 0.1
0.0 0.0 0.0 0.0 0.0 0.0 0.5 0.3 0.0 0.0 0.0 0.0 0.0 0.0 0.0 0.0 0.0 0.0 0.1 0.0 0.0 0.1 0.9 2.2 2.9 0.7 0.0 0.0 0.0 0.0 0.0 0.0 0.0 0.0 0.0 0.0 0.0 0.0 0.1 0.6 0.6 0.0 0.4 1.2 0.8 1.0 0.6 0.2 0.0 0.5 0.6 0.2 0.3 0.1
0.0 0.0 0.0 0.0 0.0 0.3 1.3 0.1 0.1 0.0 0.0 0.0 0.0 0.0 0.0 0.0 0.1 0.0 0.1 0.0 0.2 0.2 0.2 1.0 0.0 0.1 0.1 0.4 0.5 0.4 0.0 0.0 0.0 0.0 0.0 0.0 0.0 0.0 0.0 0.0 0.0 0.2 0.0 0.4 0.3 0.1 0.6 0.3 0.1 0.6 0.5 0.3 0.0 0.2
0.0 0.0 0.0 0.0 0.9 0.6 0.8 0.0 0.0 0.0 0.0 0.0 0.0 0.0 0.0 0.0 0.0 0.0 0.2 0.1 0.6 0.4 0.0 0.2 0.0 0.0 0.4 0.4 0.2 0.4 0.1 0.1 0.0 0.0 0.0 0.0 0.0 0.0 0.0 0.0 0.0 0.1 0.0 0.0 0.1 0.0 0.3 0.2 0.1 0.0 0.4 0.2 0.1 0.1
0.2 0.0 0.9 1.5 1.7 1.8 1.2 0.1 0.0 0.0 0.0 0.0 0.0 0.0 0.0 0.0 0.0 0.0 0.1 0.4 0.0 0.0 0.2 0.3 0.0 0.0 0.0 0.0 0.6 0.4 0.5 0.0 0.1 0.0 0.0 0.0 0.0 0.0 0.0 0.0 0.0 0.0 0.0 0.0 0.0 0.0 0.0 0.0 0.2 0.0 0.4 0.4 0.1 0.1
0.0 1.4 3.1 2.5 2.6 3.4 1.8 0.2 0.3 0.1 0.0 0.0 0.0 0.0 0.0 0.0 0.0 0.0 0.0 0.0 0.0 0.0 0.0 0.0 0.0 1.0 1.4 1.2 1.4 1.1 0.6 0.1 0.0 0.0 0.1 0.0 0.0 0.0 0.0 0.0 0.0 0.0 0.0 0.0 0.0 0.0 0.0 0.0 0.0 0.0 0.0 0.5 0.2 0.1
0.0 3.1 4.7 3.4 2.1 1.6 1.1 0.4 0.5 0.0 0.0 0.0 0.0 0.0 0.0 0.0 0.2 0.0 0.0 0.0 0.0 0.0 0.0 0.0 0.0 0.0 0.0 0.8 1.2 1.9 2.3 1.6 0.5 0.0 0.6 0.3 0.0 0.0 0.0 0.0 0.0 0.0 0.0 0.0 0.0 0.0 0.0 0.0 0.0 0.0 0.0 0.0 0.0 0.1
9.4 9.7 4.7 4.9 2.0 1.2 0.4 0.5 0.3 0.3 0.0 0.0 0.0 0.0 0.0 0.1 0.0 0.0 0.0 0.0 0.0 0.0 0.0 0.0 0.0 0.0 0.0 0.0 0.7 0.9 1.1 1.5 2.5 2.5 0.3 1.7 0.8 0.2 0.0 0.0 0.2 0.1 0.0 0.0 0.0 0.0 0.0 0.0 0.0 0.0 0.0 0.0 0.0 0.0
10.2 4.0 2.2 0.1 0.3 0.1 0.0 0.0 0.0 0.0 0.0 0.0 0.0 0.0 0.0 0.0 0.1 0.0 0.0 0.0 0.0 0.0 0.0 0.0 0.0 0.0 0.0 0.0 0.0 0.9 1.1 1.2 1.0 1.6 0.3 2.0 1.8 2.4 1.9 1.5 0.9 0.4 0.0 0.0 0.3 0.3 0.1 0.0 0.0 0.0 0.0 0.1 0.0 0.0
4.8 1.5 0.1 0.2 0.1 0.1 0.1 0.0 0.0 0.0 0.0 0.0 0.0 0.0 0.0 0.3 0.0 0.0 0.0 0.0 0.0 0.0 0.0 0.0 0.0 0.0 0.0 0.0 0.0 0.0 0.9 1.3 1.2 0.5 0.3 1.6 1.3 0.9 0.6 1.8 1.4 0.9 0.6 1.1 1.0 0.7 0.6 0.4 0.2 0.2 0.4 0.3 0.3 0.3
0.0 0.0 0.0 0.0 0.1 0.0 0.0 0.0 0.0 0.0 0.0 0.0 0.2 0.3 0.4 0.0 0.0 0.0 0.0 0.0 0.0 0.0 0.0 0.0 0.0 0.0 0.0 0.0 0.0 0.6 0.9 1.2 1.2 0.8 1.7 1.8 1.5 1.2 1.0 1.1 2.3 2.4 2.3 1.7 1.1 1.5 1.8 1.3 0.9 1.3 1.0 0.5 0.8 0.7
0.2 0.0 0.0 0.0 0.0 0.0 0.0 0.0 0.2 0.1 0.0 0.0 0.0 0.0 0.0 0.0 0.0 0.0 0.0 0.0 0.0 0.0 0.0 0.0 0.0 0.0 0.0 0.0 0.0 0.6 0.8 1.3 1.9 1.8 1.3 1.3 1.6 1.8 1.8 3.2 3.9 5.0 4.8 4.5 3.0 2.5 2.1 2.0 2.7 2.6 2.7 2.7 2.3 2.5
0.2 0.0 0.0 0.0 0.0 0.0 0.0 0.0 0.0 0.0 0.0 0.0 0.0 0.0 0.0 0.0 0.0 0.0 0.0 0.0 0.0 0.0 0.0 0.0 0.0 0.0 0.0 0.0 0.0 0.7 0.7 0.7 1.4 1.5 1.5 1.3 1.4 1.7 3.0 3.7 4.9 5.5 5.8 5.2 6.4 7.2 5.0 5.8 6.7 7.0 6.6 6.0 5.6 4.7
0.0 0.0 0.0 0.0 0.0 0.0 0.0 0.0 0.0 0.0 0.0 0.0 0.0 0.0 0.0 0.0 0.0 0.0 0.0 0.0 0.0 0.0 0.0 0.0 0.0 0.2 0.3 0.6 0.9 1.2 1.1 1.1 1.2 1.9 2.1 2.5 2.3 3.1 3.0 4.6 4.7 5.6 6.2 6.4 5.9 5.7 5.3 5.0 4.4 4.3 4.8 4.4 4.2 3.7
0.0 0.0 0.0 0.0 0.0 0.0 0.0 0.0 0.0 0.0 0.0 0.0 0.0 0.0 0.0 0.0 0.0 0.0 0.0 0.0 0.0 0.0 0.0 0.0 0.5 0.8 0.9 1.2 1.6 1.8 2.5 2.8 1.7 2.6 2.6 2.6 3.1 2.8 4.2 4.8 5.7 6.0 6.8 6.9 6.2 5.8 5.6 5.5 6.2 5.9 6.2 6.4 6.1 5.4
0.8 0.3 0.3 0.0 0.0 0.0 0.0 0.0 0.0 0.0 0.0 0.0 0.0 0.0 0.0 0.0 0.0 0.0 0.0 0.0 0.0 0.0 0.0 0.8 1.0 1.3 2.2 2.6 2.4 3.5 3.7 3.1 4.2 4.1 4.7 4.6 4.2 4.7 6.0 6.0 6.5 6.5 6.3 6.7 7.2 7.8 8.1 7.6 7.2 6.8 6.4 6.1 6.0 5.6

GFSWCAN_prec_kuchsnow_051.txt.gz
Snowfall_Accumulation
0.0 0.0 0.0 0.0 0.0 0.0 0.0 0.0 0.0 0.0 0.0 0.0 0.0 0.0 0.0 0.0 0.0 0.0 0.0 0.0 0.0 0.0 0.0 0.0 0.0 0.0 0.0 0.0 0.0 0.0 0.0 0.0 0.0 0.2 0.0 0.0 0.0 0.0 0.0 0.0 0.0 0.0 0.1 0.1 0.3 0.5 0.0 0.0 0.0 0.0 0.0 0.0 0.0 0.0
0.0 0.0 0.0 0.0 0.0 0.0 0.0 0.0 0.0 0.0 0.0 0.0 0.0 0.0 0.0 0.0 0.0 0.0 0.0 0.0 0.0 0.0 0.0 0.0 0.0 0.0 0.0 0.0 0.0 0.0 0.0 0.0 0.0 0.0 0.0 0.0 0.0 0.0 0.0 0.0 0.0 0.0 0.0 0.0 0.0 0.0 0.0 0.0 0.0 0.0 0.0 0.0 0.0 0.0
0.0 0.0 0.0 0.0 0.0 0.0 0.0 0.0 0.0 0.0 0.0 0.0 0.0 0.0 0.0 0.0 0.0 0.0 0.0 0.0 0.0 0.1 0.0 0.0 0.0 0.0 0.0 0.0 0.0 0.0 0.0 0.0 0.0 0.0 0.0 0.0 0.0 0.0 0.0 0.0 0.0 0.0 0.0 0.0 0.0 0.0 0.0 0.0 0.0 0.0 0.0 0.0 0.0 0.0
0.0 0.0 0.0 0.0 0.0 0.0 0.0 0.0 0.0 0.0 0.0 0.0 0.0 0.0 0.0 0.0 0.0 0.0 0.0 0.0 0.0 0.1 0.8 0.1 0.0 0.0 0.0 0.0 0.0 0.0 0.0 0.0 0.0 0.0 0.0 0.0 0.0 0.0 0.0 0.0 0.0 0.0 0.0 0.0 0.0 0.0 0.0 0.0 0.0 0.0 0.0 0.0 0.0 0.0
0.0 0.0 0.0 0.0 0.0 0.0 0.0 0.0 0.0 0.0 0.0 0.0 0.0 0.0 0.0 0.0 0.0 0.0 0.0 0.0 0.0 0.1 1.6 0.2 0.0 0.0 0.0 0.0 0.0 0.0 0.0 0.0 0.2 0.1 0.6 0.3 0.0 0.0 0.0 0.0 0.0 0.0 0.0 0.0 0.0 0.0 0.0 0.0 0.0 0.0 0.0 0.0 0.0 0.0
0.0 0.0 0.0 0.0 0.0 0.0 0.0 0.0 0.0 0.0 0.0 0.0 0.0 0.0 0.0 0.0 0.0 0.0 0.0 0.0 0.0 0.0 2.0 1.7 0.0 0.0 0.0 0.0 0.0 0.0 0.0 0.0 0.0 0.4 1.1 0.0 0.0 0.0 0.4 0.0 0.0 0.0 0.0 0.0 0.0 0.0 0.0 0.0 0.0 0.0 0.0 0.0 0.0 0.0
0.0 0.0 0.0 0.0 0.0 0.0 0.0 0.0 0.0 0.0 0.0 0.0 0.0 0.0 0.0 0.0 0.0 0.0 0.0 0.0 0.0 0.0 0.8 3.6 3.3 0.0 0.0 0.0 0.0 0.0 0.0 0.0 0.4 1.2 0.8 0.0 0.0 0.7 0.8 0.2 0.0 0.0 0.0 0.0 0.0 0.0 0.0 0.0 0.0 0.0 0.0 0.0 0.0 0.0
0.0 0.0 0.0 0.0 0.0 0.0 0.0 0.0 0.0 0.0 0.0 0.0 0.0 0.0 0.0 0.0 0.0 0.0 0.0 0.0 0.0 0.0 1.8 9.6 6.7 1.5 0.0 0.2 0.0 0.0 0.0 0.0 0.1 0.4 0.0 0.0 0.0 0.9 1.1 0.0 0.0 0.0 0.0 0.0 0.0 0.0 0.0 0.0 0.0 0.0 0.0 0.0 0.0 0.0
0.0 0.0 0.0 0.0 0.0 0.0 0.0 0.0 0.0 0.0 0.0 0.0 0.0 0.0 0.0 0.0 0.0 0.0 0.0 0.0 0.0 0.0 6.1 5.6 7.1 4.0 0.0 0.0 0.0 0.1 0.0 2.3 0.0 0.7 0.0 0.0 0.4 2.5 0.0 0.1 0.1 0.0 0.1 0.0 0.0 0.0 0.0 0.0 0.0 0.0 0.0 0.0 0.0 0.0
0.0 0.0 0.0 0.0 0.0 0.0 0.0 0.0 0.0 0.0 0.0 0.0 0.0 0.0 0.3 0.0 0.0 0.0 0.0 0.3 2.2 1.6 2.2 5.2 2.8 5.4 1.2 1.6 0.7 0.7 0.7 1.4 3.0 0.0 0.0 0.5 0.0 0.0 0.0 0.0 0.0 0.0 0.0 0.1 0.0 1.8 0.9 0.7 0.0 0.0 0.0 0.0 0.0 0.0
0.0 0.0 0.0 0.0 0.0 0.0 0.0 0.0 0.0 0.0 0.0 0.0 0.0 0.0 0.0 0.0 0.0 0.0 3.4 4.4 2.0 2.0 1.2 1.8 2.8 3.0 0.0 3.6 2.1 0.1 4.1 1.6 3.6 3.1 0.9 1.9 1.4 0.6 0.0 0.1 0.0 0.0 0.0 0.0 0.0 0.0 0.2 0.7 1.0 0.4 0.2 0.1 0.0 0.0
0.0 0.0 0.0 0.0 0.0 0.0 0.0 0.0 0.0 0.0 0.0 0.0 0.0 0.0 0.0 0.3 2.4 4.1 4.4 2.4 0.9 0.8 0.6 1.5 0.7 0.3 0.3 0.0 1.3 0.9 2.9 2.4 3.8 3.1 3.5 2.9 0.7 0.1 0.5 0.6 0.3 0.0 0.0 0.1 0.0 0.0 0.2 0.0 0.5 0.8 0.4 0.8 0.9 0.8
0.0 0.0 0.0 0.0 0.0 0.0 0.0 0.0 0.0 0.0 0.0 0.0 0.0 0.0 0.4 0.9 2.6 3.3 3.6 2.2 0.4 0.5 0.6 0.6 0.8 0.0 0.0 0.0 0.3 1.0 1.5 0.8 0.9 3.9 4.2 1.5 0.1 0.1 0.0 0.1 0.3 1.4 1.4 0.7 0.4 0.3 0.4 0.4 0.2 0.6 0.6 0.4 0.6 0.4
0.0 0.0 0.0 0.0 0.0 0.0 0.0 0.0 0.0 0.0 0.0 0.0 0.0 0.0 0.7 1.0 1.4 1.1 1.1 0.9 0.2 0.1 0.0 0.0 0.3 0.6 0.1 0.7 0.6 1.5 0.1 0.4 2.9 2.1 1.9 0.1 0.1 0.0 0.0 0.0 0.0 0.0 0.6 1.2 2.0 1.4 1.3 1.5 1.0 1.1 0.7 0.3 0.0 0.0
0.0 0.0 0.0 0.0 0.0 0.0 0.0 0.0 0.0 0.0 0.0 0.0 0.0 0.0 0.0 0.0 0.1 0.1 0.0 0.1 0.0 0.0 0.1 0.0 0.0 0.1 0.6 1.0 0.2 0.8 0.9 3.6 4.2 2.6 1.2 0.5 0.2 0.0 0.0 0.1 0.0 0.0 0.0 0.0 0.2 0.5 1.7 1.6 2.0 1.4 0.7 0.6 0.1 0.0
0.0 0.0 0.0 0.0 0.0 0.0 0.0 0.0 0.0 0.0 0.0 0.0 0.0 0.0 0.0 0.0 0.0 0.0 0.0 0.0 0.0 0.0 0.2 0.3 0.4 0.8 0.4 1.4 0.8 0.4 1.2 2.5 2.8 1.0 0.0 0.0 0.0 0.0 0.1 0.0 0.1 0.0 0.0 0.0 0.0 0.0 0.4 0.5 1.1 1.1 0.2 0.5 0.5 0.0
0.0 0.0 0.0 0.0 0.0 0.0 0.0 0.0 0.0 0.0 0.0 0.0 0.0 0.0 0.0 0.0 0.0 0.0 0.0 0.0 0.0 0.2 1.3 1.6 2.3 0.1 0.3 0.7 0.3 0.1 0.2 0.2 0.2 0.0 0.0 0.0 0.0 0.0 0.3 0.0 0.0 0.0 0.0 0.0 0.2 0.2 0.7 0.3 1.3 1.9 1.2 0.5 0.5 0.7
0.0 0.0 0.0 0.0 0.0 0.0 0.0 0.0 0.0 0.0 0.0 0.0 0.0 0.0 0.0 0.0 0.0 0.0 0.0 0.0 0.0 0.1 1.7 4.6 2.7 1.8 0.5 0.2 0.0 0.1 0.0 0.0 0.0 0.0 0.0 0.0 0.0 0.0 0.3 0.0 0.0 0.1 0.7 1.7 1.7 1.7 1.4 1.3 1.7 1.4 0.3 0.5 0.7 0.7
0.0 0.0 0.0 0.0 0.0 0.0 0.5 0.3 0.0 0.0 0.0 0.0 0.0 0.0 0.0 0.0 0.0 0.0 0.1 0.0 0.0 0.1 0.9 2.2 2.9 0.7 0.0 0.0 0.0 0.0 0.0 0.0 0.0 0.0 0.0 0.0 0.0 0.0 0.1 0.6 0.6 0.0 0.4 1.2 0.8 1.0 0.6 0.2 0.0 0.5 0.6 0.2 0.7 0.4
0.0 0.0 0.0 0.0 0.0 0.3 1.3 0.1 0.1 0.0 0.0 0.0 0.0 0.0 0.0 0.0 0.1 0.0 0.1 0.0 0.2 0.2 0.2 1.0 0.0 0.1 0.1 0.4 0.5 0.4 0.0 0.0 0.0 0.0 0.0 0.0 0.0 0.0 0.0 0.0 0.0 0.2 0.0 0.4 0.3 0.1 0.6 0.3 0.1 0.6 0.5 0.3 0.7 0.6
0.0 0.0 0.0 0.0 0.9 0.6 0.8 0.0 0.0 0.0 0.0 0.0 0.0 0.0 0.0 0.0 0.0 0.0 0.2 0.1 0.6 0.4 0.0 0.2 0.0 0.0 0.4 0.4 0.2 0.4 0.1 0.1 0.0 0.0 0.0 0.0 0.0 0.0 0.0 0.0 0.0 0.1 0.0 0.0 0.1 0.0 0.3 0.2 0.1 0.0 0.4 0.2 0.1 0.9
0.2 0.0 0.9 1.5 1.7 1.8 1.2 0.1 0.0 0.0 0.0 0.0 0.0 0.0 0.0 0.0 0.0 0.0 0.1 0.4 0.0 0.0 0.2 0.3 0.0 0.0 0.0 0.0 0.6 0.4 0.5 0.0 0.1 0.0 0.0 0.0 0.0 0.0 0.0 0.0 0.0 0.0 0.0 0.0 0.0 0.0 0.0 0.0 0.2 0.0 0.4 0.4 0.1 1.1
0.0 1.4 3.1 2.5 2.6 3.4 1.8 0.2 0.3 0.1 0.0 0.0 0.0 0.0 0.0 0.0 0.0 0.0 0.0 0.0 0.0 0.0 0.0 0.0 0.0 1.0 1.4 1.2 1.4 1.1 0.6 0.1 0.0 0.0 0.1 0.0 0.0 0.0 0.0 0.0 0.0 0.0 0.0 0.0 0.0 0.0 0.0 0.0 0.0 0.0 0.0 0.5 0.2 0.1
0.0 3.1 4.7 3.4 2.1 1.6 1.1 0.4 0.5 0.0 0.0 0.0 0.0 0.0 0.0 0.0 0.2 0.0 0.0 0.0 0.0 0.0 0.0 0.0 0.0 0.0 0.0 0.8 1.2 1.9 2.3 1.6 0.5 0.0 0.6 0.3 0.0 0.0 0.0 0.0 0.0 0.0 0.0 0.0 0.0 0.0 0.0 0.0 0.0 0.0 0.0 0.0 0.0 0.1
9.4 9.7 4.7 4.9 2.0 1.2 0.4 0.5 0.3 0.3 0.0 0.0 0.0 0.0 0.0 0.1 0.0 0.0 0.0 0.0 0.0 0.0 0.0 0.0 0.0 0.0 0.0 0.0 0.7 0.9 1.1 1.5 2.5 2.5 0.3 1.7 0.8 0.2 0.0 0.0 0.2 0.1 0.0 0.0 0.0 0.0 0.0 0.0 0.0 0.0 0.0 0.0 0.0 0.0
10.2 4.0 2.2 0.1 0.3 0.1 0.0 0.0 0.0 0.0 0.0 0.0 0.0 0.0 0.0 0.0 0.1 0.0 0.0 0.0 0.0 0.0 0.0 0.0 0.0 0.0 0.0 0.0 0.0 0.9 1.1 1.2 1.0 1.6 0.3 2.0 1.8 2.4 1.9 1.5 0.9 0.4 0.0 0.0 0.3 0.3 0.1 0.0 0.0 0.0 0.0 0.1 0.0 0.0
4.8 1.5 0.1 0.2 0.1 0.1 0.1 0.0 0.0 0.0 0.0 0.0 0.0 0.0 0.0 0.3 0.0 0.0 0.0 0.0 0.0 0.0 0.0 0.0 0.0 0.0 0.0 0.0 0.0 0.0 0.9 1.3 1.2 0.5 0.3 1.6 1.3 0.9 0.6 1.8 1.4 0.9 0.6 1.1 1.0 0.7 0.6 0.4 0.2 0.2 0.4 0.3 0.3 0.3
0.0 0.0 0.0 0.0 0.1 0.0 0.0 0.0 0.0 0.0 0.0 0.0 0.2 0.3 0.4 0.0 0.0 0.0 0.0 0.0 0.0 0.0 0.0 0.0 0.0 0.0 0.0 0.0 0.0 0.6 0.9 1.2 1.2 0.8 1.7 1.8 1.5 1.2 1.0 1.1 2.3 2.4 2.3 1.7 1.1 1.5 1.8 1.3 0.9 1.3 1.0 0.5 0.8 0.7
0.2 0.0 0.0 0.0 0.0 0.0 0.0 0.0 0.2 0.1 0.0 0.0 0.0 0.0 0.0 0.0 0.0 0.0 0.0 0.0 0.0 0.0 0.0 0.0 0.0 0.0 0.0 0.0 0.0 0.6 0.8 1.3 1.9 1.8 1.3 1.3 1.6 1.8 1.8 3.2 3.9 5.0 4.8 4.5 3.0 2.5 2.1 2.0 2.7 2.6 2.7 2.7 2.3 2.5
0.2 0.0 0.0 0.0 0.0 0.0 0.0 0.0 0.0 0.0 0.0 0.0 0.0 0.0 0.0 0.0 0.0 0.0 0.0 0.0 0.0 0.0 0.0 0.0 0.0 0.0 0.0 0.0 0.0 0.7 0.7 0.7 1.4 1.5 1.5 1.3 1.4 1.7 3.0 3.7 4.9 5.5 5.8 5.2 6.4 7.2 5.0 5.8 6.7 7.1 6.6 6.0 5.6 4.7
0.0 0.0 0.0 0.0 0.0 0.0 0.0 0.0 0.0 0.0 0.0 0.0 0.0 0.0 0.0 0.0 0.0 0.0 0.0 0.0 0.0 0.0 0.0 0.0 0.0 0.2 0.3 0.6 0.9 1.2 1.1 1.1 1.2 1.9 2.1 2.5 2.3 3.1 3.0 4.6 4.7 5.6 6.2 6.4 5.9 5.7 5.3 5.0 4.4 4.3 4.8 4.4 4.2 3.7
0.0 0.0 0.0 0.0 0.0 0.0 0.0 0.0 0.0 0.0 0.0 0.0 0.0 0.0 0.0 0.0 0.0 0.0 0.0 0.0 0.0 0.0 0.0 0.0 0.5 0.8 0.9 1.2 1.6 1.8 2.5 2.8 1.7 2.6 2.6 2.6 3.1 2.8 4.2 4.8 5.8 6.0 6.8 6.9 6.2 5.8 5.6 5.5 6.2 5.9 6.2 6.4 6.1 5.4
0.9 0.3 0.3 0.0 0.0 0.0 0.0 0.0 0.0 0.0 0.0 0.0 0.0 0.0 0.0 0.0 0.0 0.0 0.0 0.0 0.0 0.0 0.0 0.8 1.0 1.3 2.2 2.6 2.4 3.5 3.7 3.1 4.2 4.1 4.7 4.6 4.2 4.7 6.0 6.0 6.5 6.5 6.4 6.7 7.2 7.8 8.1 7.6 7.2 6.8 6.5 6.2 6.1 5.7

GFSWCAN_prec_kuchsnow_057.txt.gz
Snowfall_Accumulation
0.0 0.0 0.0 0.0 0.0 0.0 0.0 0.0 0.0 0.0 0.0 0.0 0.0 0.0 0.0 0.0 0.0 0.0 0.0 0.0 0.0 0.0 0.0 0.0 0.0 0.0 0.0 0.0 0.0 0.0 0.0 0.0 0.0 0.2 0.0 0.0 0.0 0.0 0.0 0.0 0.0 0.0 0.1 0.1 0.3 0.5 0.0 0.0 0.0 0.0 0.0 0.0 0.0 0.0
0.0 0.0 0.0 0.0 0.0 0.0 0.0 0.0 0.0 0.0 0.0 0.0 0.0 0.0 0.0 0.0 0.0 0.0 0.0 0.0 0.0 0.0 0.0 0.0 0.0 0.0 0.0 0.0 0.0 0.0 0.0 0.0 0.0 0.0 0.0 0.0 0.0 0.0 0.0 0.0 0.0 0.0 0.0 0.0 0.0 0.0 0.0 0.0 0.0 0.0 0.0 0.0 0.0 0.0
0.0 0.0 0.0 0.0 0.0 0.0 0.0 0.0 0.0 0.0 0.0 0.0 0.0 0.0 0.0 0.0 0.0 0.0 0.0 0.0 0.0 0.1 0.0 0.0 0.0 0.0 0.0 0.0 0.0 0.0 0.0 0.0 0.0 0.0 0.0 0.0 0.0 0.0 0.0 0.0 0.0 0.0 0.0 0.0 0.0 0.0 0.0 0.0 0.0 0.0 0.0 0.0 0.0 0.0
0.0 0.0 0.0 0.0 0.0 0.0 0.0 0.0 0.0 0.0 0.0 0.0 0.0 0.0 0.0 0.0 0.0 0.0 0.0 0.0 0.0 0.1 0.8 0.1 0.0 0.0 0.0 0.0 0.0 0.0 0.0 0.0 0.0 0.0 0.0 0.0 0.0 0.0 0.0 0.0 0.0 0.0 0.0 0.0 0.0 0.0 0.0 0.0 0.0 0.0 0.0 0.0 0.0 0.0
0.0 0.0 0.0 0.0 0.0 0.0 0.0 0.0 0.0 0.0 0.0 0.0 0.0 0.0 0.0 0.0 0.0 0.0 0.0 0.0 0.0 0.1 1.6 0.2 0.0 0.0 0.0 0.0 0.0 0.0 0.0 0.0 0.2 0.1 0.6 0.3 0.0 0.0 0.0 0.0 0.0 0.0 0.0 0.0 0.0 0.0 0.0 0.0 0.0 0.0 0.0 0.0 0.0 0.0
0.0 0.0 0.0 0.0 0.0 0.0 0.0 0.0 0.0 0.0 0.0 0.0 0.0 0.0 0.0 0.0 0.0 0.0 0.0 0.0 0.0 0.0 2.0 1.7 0.0 0.0 0.0 0.0 0.0 0.0 0.0 0.0 0.0 0.4 1.1 0.0 0.0 0.0 0.4 0.0 0.0 0.0 0.0 0.0 0.0 0.0 0.0 0.0 0.0 0.0 0.0 0.0 0.0 0.0
0.0 0.0 0.0 0.0 0.0 0.0 0.0 0.0 0.0 0.0 0.0 0.0 0.0 0.0 0.0 0.0 0.0 0.0 0.0 0.0 0.0 0.0 0.8 3.6 3.3 0.0 0.0 0.0 0.0 0.0 0.0 0.0 0.4 1.2 0.8 0.0 0.0 0.7 0.8 0.2 0.0 0.0 0.0 0.0 0.0 0.0 0.0 0.0 0.0 0.0 0.0 0.0 0.0 0.0
0.0 0.0 0.0 0.0 0.0 0.0 0.0 0.0 0.0 0.0 0.0 0.0 0.0 0.0 0.0 0.0 0.0 0.0 0.0 0.0 0.0 0.0 1.8 9.6 6.7 1.5 0.0 0.2 0.0 0.0 0.0 0.0 0.1 0.4 0.0 0.0 0.0 0.9 1.1 0.0 0.0 0.0 0.0 0.0 0.0 0.0 0.0 0.0 0.0 0.0 0.0 0.0 0.0 0.0
0.0 0.0 0.0 0.0 0.0 0.0 0.0 0.0 0.0 0.0 0.0 0.0 0.0 0.0 0.0 0.0 0.0 0.0 0.0 0.0 0.0 0.0 6.1 5.6 7.1 4.0 0.0 0.0 0.0 0.1 0.0 2.3 0.0 0.7 0.0 0.0 0.4 2.5 0.0 0.1 0.1 0.0 0.1 0.0 0.0 0.0 0.0 0.0 0.0 0.0 0.0 0.0 0.0 0.0
0.0 0.0 0.0 0.0 0.0 0.0 0.0 0.0 0.0 0.0 0.0 0.0 0.0 0.0 0.3 0.0 0.0 0.0 0.0 0.3 2.2 1.6 2.2 5.2 2.8 5.4 1.2 1.6 0.7 0.7 0.7 1.4 3.0 0.0 0.0 0.5 0.0 0.0 0.0 0.0 0.0 0.0 0.0 0.1 0.0 1.8 0.9 0.7 0.0 0.0 0.0 0.0 0.0 0.0
0.0 0.0 0.0 0.0 0.0 0.0 0.0 0.0 0.0 0.0 0.0 0.0 0.0 0.0 0.0 0.0 0.0 0.0 3.4 4.4 2.0 2.0 1.2 1.8 2.8 3.0 0.0 3.6 2.1 0.1 4.1 1.6 3.6 3.1 0.9 1.9 1.4 0.6 0.0 0.1 0.0 0.0 0.0 0.0 0.0 0.0 0.2 0.7 1.0 0.4 0.2 0.1 0.0 0.0
0.0 0.0 0.0 0.0 0.0 0.0 0.0 0.0 0.0 0.0 0.0 0.0 0.0 0.0 0.0 0.3 2.4 4.1 4.4 2.4 0.9 0.8 0.6 1.5 0.7 0.3 0.3 0.0 1.3 0.9 2.9 2.4 3.8 3.1 3.5 2.9 0.7 0.1 0.5 0.6 0.3 0.0 0.0 0.1 0.0 0.0 0.2 0.0 0.5 0.8 0.4 0.8 0.9 0.8
0.0 0.0 0.0 0.0 0.0 0.0 0.0 0.0 0.0 0.0 0.0 0.0 0.0 0.0 0.4 0.9 2.6 3.3 3.6 2.2 0.4 0.5 0.6 0.6 0.8 0.0 0.0 0.0 0.3 1.0 1.5 0.8 0.9 4.0 4.2 1.5 0.1 0.1 0.0 0.1 0.3 1.4 1.4 0.7 0.4 0.3 0.4 0.4 0.2 0.6 0.6 0.4 0.6 0.4
0.0 0.0 0.0 0.0 0.0 0.0 0.0 0.0 0.0 0.0 0.0 0.0 0.0 0.0 0.7 1.0 1.4 1.1 1.1 0.9 0.2 0.1 0.0 0.0 0.3 0.6 0.1 0.7 0.6 1.5 0.1 0.4 3.1 2.2 1.9 0.1 0.1 0.0 0.0 0.0 0.0 0.0 0.6 1.2 2.0 1.4 1.3 1.5 1.0 1.1 0.7 0.3 0.0 0.0
0.0 0.0 0.0 0.0 0.0 0.0 0.0 0.0 0.0 0.0 0.0 0.0 0.0 0.0 0.0 0.0 0.1 0.1 0.0 0.1 0.0 0.0 0.1 0.0 0.0 0.1 0.6 1.0 0.2 0.8 0.9 3.6 4.2 2.6 1.2 0.5 0.2 0.0 0.0 0.1 0.0 0.0 0.0 0.0 0.2 0.5 1.7 1.6 2.0 1.4 0.7 0.6 0.1 0.0
0.0 0.0 0.0 0.0 0.0 0.0 0.0 0.0 0.0 0.0 0.0 0.0 0.0 0.0 0.0 0.0 0.0 0.0 0.0 0.0 0.0 0.0 0.2 0.3 0.4 0.8 0.4 1.4 0.8 0.4 1.2 2.5 2.8 1.0 0.0 0.0 0.0 0.0 0.1 0.0 0.1 0.0 0.0 0.0 0.0 0.0 0.4 0.5 1.1 1.1 0.2 0.5 0.5 0.0
0.0 0.0 0.0 0.0 0.0 0.0 0.0 0.0 0.0 0.0 0.0 0.0 0.0 0.0 0.0 0.0 0.0 0.0 0.0 0.0 0.0 0.2 1.3 1.6 2.3 0.1 0.3 0.7 0.3 0.1 0.2 0.2 0.2 0.0 0.0 0.0 0.0 0.0 0.3 0.0 0.0 0.0 0.0 0.0 0.2 0.2 0.7 0.3 1.3 1.9 1.2 0.5 0.5 0.7
0.0 0.0 0.0 0.0 0.0 0.0 0.0 0.0 0.0 0.0 0.0 0.0 0.0 0.0 0.0 0.0 0.0 0.0 0.0 0.0 0.0 0.1 1.7 4.6 2.7 1.8 0.5 0.2 0.0 0.1 0.0 0.0 0.0 0.0 0.0 0.0 0.0 0.0 0.3 0.0 0.0 0.1 0.7 1.7 1.7 1.7 1.4 1.3 1.7 1.4 0.3 0.5 0.7 0.7
0.0 0.0 0.0 0.0 0.0 0.0 0.5 0.3 0.0 0.0 0.0 0.0 0.0 0.0 0.0 0.0 0.0 0.0 0.1 0.0 0.0 0.1 0.9 2.2 2.9 0.7 0.0 0.0 0.0 0.0 0.0 0.0 0.0 0.0 0.0 0.0 0.0 0.0 0.1 0.6 0.6 0.0 0.4 1.2 0.8 1.0 0.6 0.2 0.0 0.5 0.6 0.2 0.7 0.4
0.0 0.0 0.0 0.0 0.0 0.3 1.3 0.1 0.1 0.0 0.0 0.0 0.0 0.0 0.0 0.0 0.1 0.0 0.1 0.0 0.2 0.2 0.2 1.0 0.0 0.1 0.1 0.4 0.5 0.4 0.0 0.0 0.0 0.0 0.0 0.0 0.0 0.0 0.0 0.0 0.0 0.2 0.0 0.4 0.3 0.1 0.6 0.3 0.1 0.6 0.5 0.3 0.7 0.6
0.0 0.0 0.0 0.0 0.9 0.6 0.8 0.0 0.0 0.0 0.0 0.0 0.0 0.0 0.0 0.0 0.0 0.0 0.2 0.1 0.6 0.4 0.0 0.2 0.0 0.0 0.4 0.4 0.2 0.4 0.1 0.1 0.0 0.0 0.0 0.0 0.0 0.0 0.0 0.0 0.0 0.1 0.0 0.0 0.1 0.0 0.3 0.2 0.1 0.0 0.4 0.2 0.1 0.9
0.2 0.0 0.9 1.5 1.7 1.8 1.2 0.1 0.0 0.0 0.0 0.0 0.0 0.0 0.0 0.0 0.0 0.0 0.1 0.4 0.0 0.0 0.2 0.3 0.0 0.0 0.0 0.0 0.6 0.4 0.5 0.0 0.1 0.0 0.0 0.0 0.0 0.0 0.0 0.0 0.0 0.0 0.0 0.0 0.0 0.0 0.0 0.0 0.2 0.0 0.4 0.4 0.1 1.1
0.0 1.4 3.1 2.5 2.6 3.4 2.0 0.3 0.3 0.1 0.0 0.0 0.0 0.0 0.0 0.0 0.0 0.0 0.0 0.0 0.0 0.0 0.0 0.0 0.0 1.0 1.4 1.2 1.4 1.1 0.6 0.1 0.0 0.0 0.1 0.0 0.0 0.0 0.0 0.0 0.0 0.0 0.0 0.0 0.0 0.0 0.0 0.0 0.0 0.0 0.0 0.5 0.2 0.1
0.0 3.2 4.8 3.4 2.3 1.8 1.2 0.5 0.5 0.0 0.0 0.0 0.0 0.0 0.0 0.0 0.2 0.0 0.0 0.0 0.0 0.0 0.0 0.0 0.0 0.0 0.0 0.8 1.2 1.9 2.3 1.6 0.5 0.0 0.6 0.3 0.0 0.0 0.0 0.0 0.0 0.0 0.0 0.0 0.0 0.0 0.0 0.0 0.0 0.0 0.0 0.0 0.0 0.1
9.4 9.9 4.8 5.0 2.1 1.2 0.4 0.5 0.3 0.3 0.0 0.0 0.0 0.0 0.0 0.1 0.0 0.0 0.0 0.0 0.0 0.0 0.0 0.0 0.0 0.0 0.0 0.0 0.7 0.9 1.1 1.5 2.5 2.5 0.3 1.7 0.8 0.2 0.0 0.0 0.2 0.1 0.0 0.0 0.0 0.0 0.0 0.0 0.0 0.0 0.0 0.0 0.0 0.0
10.4 4.1 2.2 0.1 0.3 0.1 0.0 0.0 0.0 0.0 0.0 0.0 0.0 0.0 0.0 0.0 0.1 0.0 0.0 0.0 0.0 0.0 0.0 0.0 0.0 0.0 0.0 0.0 0.0 0.9 1.1 1.2 1.0 1.6 0.3 2.0 1.8 2.4 1.9 1.5 0.9 0.4 0.0 0.0 0.3 0.3 0.1 0.0 0.0 0.0 0.0 0.1 0.0 0.0
5.0 1.5 0.1 0.2 0.1 0.1 0.1 0.0 0.0 0.0 0.0 0.0 0.0 0.0 0.0 0.3 0.0 0.0 0.0 0.0 0.0 0.0 0.0 0.0 0.0 0.0 0.0 0.0 0.0 0.0 0.9 1.3 1.2 0.5 0.3 1.6 1.3 0.9 0.6 1.8 1.4 0.9 0.6 1.1 1.0 0.7 0.6 0.4 0.2 0.2 0.4 0.3 0.3 0.3
0.0 0.0 0.0 0.0 0.1 0.0 0.0 0.0 0.0 0.0 0.0 0.0 0.2 0.3 0.4 0.0 0.0 0.0 0.0 0.0 0.0 0.0 0.0 0.0 0.0 0.0 0.0 0.0 0.0 0.6 0.9 1.2 1.2 0.8 1.7 1.8 1.5 1.2 1.0 1.1 2.3 2.4 2.3 1.7 1.1 1.5 1.8 1.3 0.9 1.3 1.0 0.5 0.8 0.7
0.2 0.0 0.0 0.0 0.0 0.0 0.0 0.0 0.2 0.1 0.0 0.0 0.0 0.0 0.0 0.0 0.0 0.0 0.0 0.0 0.0 0.0 0.0 0.0 0.0 0.0 0.0 0.0 0.0 0.6 0.8 1.3 1.9 1.8 1.3 1.3 1.6 1.8 1.8 3.2 3.9 5.0 4.8 4.5 3.0 2.5 2.1 2.0 2.7 2.8 2.7 2.8 2.4 2.6
0.2 0.0 0.0 0.0 0.0 0.0 0.0 0.0 0.0 0.0 0.0 0.0 0.0 0.0 0.0 0.0 0.0 0.0 0.0 0.0 0.0 0.0 0.0 0.0 0.0 0.0 0.0 0.0 0.0 0.7 0.7 0.7 1.4 1.5 1.5 1.3 1.4 1.7 3.0 3.7 4.9 5.5 5.8 5.2 6.4 7.2 5.0 5.8 6.7 7.1 6.6 6.1 5.6 4.8
0.0 0.0 0.0 0.0 0.0 0.0 0.0 0.0 0.0 0.0 0.0 0.0 0.0 0.0 0.0 0.0 0.0 0.0 0.0 0.0 0.0 0.0 0.0 0.0 0.0 0.2 0.3 0.6 0.9 1.2 1.1 1.1 1.2 1.9 2.1 2.5 2.3 3.1 3.0 4.6 4.7 5.6 6.2 6.4 5.9 5.7 5.3 5.0 4.4 4.3 4.8 4.4 4.2 3.7
0.0 0.0 0.0 0.0 0.0 0.0 0.0 0.0 0.0 0.0 0.0 0.0 0.0 0.0 0.0 0.0 0.0 0.0 0.0 0.0 0.0 0.0 0.0 0.0 0.5 0.8 0.9 1.2 1.6 1.8 2.5 2.8 1.7 2.6 2.6 2.6 3.1 2.8 4.2 4.8 5.8 6.1 6.8 6.9 6.2 5.8 5.6 5.5 6.2 5.9 6.2 6.4 6.1 5.4
0.9 0.3 0.3 0.0 0.0 0.0 0.0 0.0 0.0 0.0 0.0 0.0 0.0 0.0 0.0 0.0 0.0 0.0 0.0 0.0 0.0 0.0 0.0 0.8 1.0 1.3 2.2 2.6 2.4 3.5 3.7 3.1 4.2 4.1 4.7 4.6 4.2 4.7 6.0 6.0 6.6 6.6 6.5 6.7 7.2 7.8 8.1 7.6 7.2 6.8 6.5 6.2 6.1 5.7

GFSWCAN_prec_kuchsnow_063.txt.gz
Snowfall_Accumulation
0.0 0.0 0.0 0.0 0.0 0.0 0.0 0.0 0.0 0.0 0.0 0.0 0.0 0.0 0.0 0.0 0.0 0.0 0.0 0.0 0.0 0.0 0.0 0.0 0.0 0.0 0.0 0.0 0.0 0.0 0.0 0.0 0.0 0.2 0.0 0.0 0.0 0.0 0.0 0.0 0.0 0.0 0.1 0.1 0.3 0.6 0.0 0.0 0.0 0.0 0.0 0.0 0.0 0.0
0.0 0.0 0.0 0.0 0.0 0.0 0.0 0.0 0.0 0.0 0.0 0.0 0.0 0.0 0.0 0.0 0.0 0.0 0.0 0.0 0.0 0.0 0.0 0.0 0.0 0.0 0.0 0.0 0.0 0.0 0.0 0.0 0.0 0.0 0.0 0.0 0.0 0.0 0.0 0.0 0.0 0.0 0.0 0.0 0.0 0.0 0.0 0.0 0.0 0.0 0.0 0.0 0.0 0.0
0.0 0.0 0.0 0.0 0.0 0.0 0.0 0.0 0.0 0.0 0.0 0.0 0.0 0.0 0.0 0.0 0.0 0.0 0.0 0.0 0.0 0.1 0.0 0.0 0.0 0.0 0.0 0.0 0.0 0.0 0.0 0.0 0.0 0.0 0.0 0.0 0.0 0.0 0.0 0.0 0.0 0.0 0.0 0.0 0.0 0.0 0.0 0.0 0.0 0.0 0.0 0.0 0.0 0.0
0.0 0.0 0.0 0.0 0.0 0.0 0.0 0.0 0.0 0.0 0.0 0.0 0.0 0.0 0.0 0.0 0.0 0.0 0.0 0.0 0.0 0.1 0.8 0.1 0.0 0.0 0.0 0.0 0.0 0.0 0.0 0.0 0.0 0.0 0.0 0.0 0.0 0.0 0.0 0.0 0.0 0.0 0.0 0.0 0.0 0.0 0.0 0.0 0.0 0.0 0.0 0.0 0.0 0.0
0.0 0.0 0.0 0.0 0.0 0.0 0.0 0.0 0.0 0.0 0.0 0.0 0.0 0.0 0.0 0.0 0.0 0.0 0.0 0.0 0.0 0.1 1.6 0.2 0.0 0.0 0.0 0.0 0.0 0.0 0.0 0.0 0.2 0.1 0.6 0.3 0.0 0.0 0.0 0.0 0.0 0.0 0.0 0.0 0.0 0.0 0.0 0.0 0.0 0.0 0.0 0.0 0.0 0.0
0.0 0.0 0.0 0.0 0.0 0.0 0.0 0.0 0.0 0.0 0.0 0.0 0.0 0.0 0.0 0.0 0.0 0.0 0.0 0.0 0.0 0.0 2.0 1.7 0.0 0.0 0.0 0.0 0.0 0.0 0.0 0.0 0.0 0.4 1.1 0.0 0.0 0.0 0.4 0.0 0.0 0.0 0.0 0.0 0.0 0.0 0.0 0.0 0.0 0.0 0.0 0.0 0.0 0.0
0.0 0.0 0.0 0.0 0.0 0.0 0.0 0.0 0.0 0.0 0.0 0.0 0.0 0.0 0.0 0.0 0.0 0.0 0.0 0.0 0.0 0.0 0.8 3.6 3.3 0.0 0.0 0.0 0.0 0.0 0.0 0.0 0.4 1.2 0.8 0.0 0.0 0.7 0.8 0.2 0.0 0.0 0.0 0.0 0.0 0.0 0.0 0.0 0.0 0.0 0.0 0.0 0.0 0.0
0.0 0.0 0.0 0.0 0.0 0.0 0.0 0.0 0.0 0.0 0.0 0.0 0.0 0.0 0.0 0.0 0.0 0.0 0.0 0.0 0.0 0.0 1.8 9.6 6.7 1.5 0.0 0.2 0.0 0.0 0.0 0.0 0.1 0.4 0.0 0.0 0.0 0.9 1.1 0.0 0.0 0.0 0.0 0.0 0.0 0.0 0.0 0.0 0.0 0.0 0.0 0.0 0.0 0.0
0.0 0.0 0.0 0.0 0.0 0.0 0.0 0.0 0.0 0.0 0.0 0.0 0.0 0.0 0.0 0.0 0.0 0.0 0.0 0.0 0.0 0.0 6.1 5.6 7.1 4.0 0.0 0.0 0.0 0.1 0.0 2.3 0.0 0.7 0.0 0.0 0.4 2.5 0.0 0.1 0.1 0.0 0.1 0.0 0.0 0.0 0.0 0.0 0.0 0.0 0.0 0.0 0.0 0.0
0.0 0.0 0.0 0.0 0.0 0.0 0.0 0.0 0.0 0.0 0.0 0.0 0.0 0.0 0.3 0.0 0.0 0.0 0.0 0.3 2.2 1.6 2.2 5.2 2.8 5.4 1.2 1.6 0.7 0.7 0.7 1.4 3.0 0.0 0.0 0.5 0.0 0.0 0.0 0.0 0.0 0.0 0.0 0.1 0.0 1.8 0.9 0.7 0.0 0.0 0.0 0.0 0.0 0.0
0.0 0.0 0.0 0.0 0.0 0.0 0.0 0.0 0.0 0.0 0.0 0.0 0.0 0.0 0.0 0.0 0.0 0.0 3.4 4.4 2.0 2.0 1.2 1.8 2.8 3.0 0.0 3.6 2.1 0.1 4.1 1.6 3.6 3.1 0.9 1.9 1.4 0.6 0.0 0.1 0.0 0.0 0.0 0.0 0.0 0.0 0.2 0.7 1.0 0.4 0.2 0.1 0.0 0.0
0.0 0.0 0.0 0.0 0.0 0.0 0.0 0.0 0.0 0.0 0.0 0.0 0.0 0.0 0.0 0.3 2.4 4.1 4.4 2.4 0.9 0.8 0.6 1.5 0.7 0.3 0.3 0.0 1.3 0.9 2.9 2.4 3.8 3.1 3.5 2.9 0.7 0.1 0.5 0.6 0.3 0.0 0.0 0.1 0.0 0.0 0.2 0.0 0.5 0.8 0.4 0.8 0.9 0.8
0.0 0.0 0.0 0.0 0.0 0.0 0.0 0.0 0.0 0.0 0.0 0.0 0.0 0.0 0.4 0.9 2.6 3.3 3.6 2.2 0.4 0.5 0.6 0.6 0.8 0.0 0.0 0.0 0.3 1.0 1.5 0.8 0.9 4.0 4.2 1.5 0.1 0.1 0.0 0.1 0.3 1.4 1.4 0.7 0.4 0.3 0.4 0.4 0.2 0.6 0.6 0.4 0.6 0.4
0.0 0.0 0.0 0.0 0.0 0.0 0.0 0.0 0.0 0.0 0.0 0.0 0.0 0.0 0.7 1.0 1.4 1.1 1.1 0.9 0.2 0.1 0.0 0.0 0.3 0.6 0.1 0.7 0.6 1.5 0.1 0.4 3.1 2.2 1.9 0.1 0.1 0.0 0.0 0.0 0.0 0.0 0.6 1.2 2.0 1.4 1.3 1.5 1.0 1.1 0.7 0.3 0.0 0.0
0.0 0.0 0.0 0.0 0.0 0.0 0.0 0.0 0.0 0.0 0.0 0.0 0.0 0.0 0.0 0.0 0.1 0.1 0.0 0.1 0.0 0.0 0.1 0.0 0.0 0.1 0.6 1.0 0.2 0.8 0.9 3.6 4.2 2.6 1.2 0.5 0.2 0.0 0.0 0.1 0.0 0.0 0.0 0.0 0.2 0.5 1.7 1.6 2.0 1.4 0.7 0.6 0.1 0.0
0.0 0.0 0.0 0.0 0.0 0.0 0.0 0.0 0.0 0.0 0.0 0.0 0.0 0.0 0.0 0.0 0.0 0.0 0.0 0.0 0.0 0.0 0.2 0.3 0.4 0.8 0.4 1.4 0.8 0.4 1.2 2.5 2.8 1.0 0.0 0.0 0.0 0.0 0.1 0.0 0.1 0.0 0.0 0.0 0.0 0.0 0.4 0.5 1.1 1.1 0.2 0.5 0.5 0.0
0.0 0.0 0.0 0.0 0.0 0.0 0.0 0.0 0.0 0.0 0.0 0.0 0.0 0.0 0.0 0.0 0.0 0.0 0.0 0.0 0.0 0.2 1.3 1.6 2.3 0.1 0.3 0.7 0.3 0.1 0.2 0.2 0.2 0.0 0.0 0.0 0.0 0.0 0.3 0.0 0.0 0.0 0.0 0.0 0.2 0.2 0.7 0.3 1.3 1.9 1.2 0.5 0.5 0.7
0.0 0.0 0.0 0.0 0.0 0.0 0.0 0.0 0.0 0.0 0.0 0.0 0.0 0.0 0.0 0.0 0.0 0.0 0.0 0.0 0.0 0.1 1.7 4.6 2.7 1.8 0.5 0.2 0.0 0.1 0.0 0.0 0.0 0.0 0.0 0.0 0.0 0.0 0.3 0.0 0.0 0.1 0.7 1.7 1.7 1.7 1.4 1.3 1.7 1.4 0.3 0.5 0.7 0.7
0.0 0.0 0.0 0.0 0.0 0.0 0.5 0.3 0.0 0.0 0.0 0.0 0.0 0.0 0.0 0.0 0.0 0.0 0.1 0.0 0.0 0.1 0.9 2.2 2.9 0.7 0.0 0.0 0.0 0.0 0.0 0.0 0.0 0.0 0.0 0.0 0.0 0.0 0.1 0.6 0.6 0.0 0.4 1.2 0.8 1.0 0.6 0.2 0.0 0.5 0.6 0.2 0.7 0.4
0.0 0.0 0.0 0.0 0.0 0.3 1.3 0.1 0.1 0.0 0.0 0.0 0.0 0.0 0.0 0.0 0.1 0.0 0.1 0.0 0.2 0.2 0.2 1.0 0.0 0.1 0.1 0.4 0.5 0.4 0.0 0.0 0.0 0.0 0.0 0.0 0.0 0.0 0.0 0.0 0.0 0.2 0.0 0.4 0.3 0.1 0.6 0.3 0.1 0.6 0.5 0.3 0.7 0.6
0.0 0.0 0.0 0.0 0.9 0.6 0.8 0.0 0.0 0.0 0.0 0.0 0.0 0.0 0.0 0.0 0.0 0.0 0.2 0.1 0.6 0.4 0.0 0.2 0.0 0.0 0.4 0.4 0.2 0.4 0.1 0.1 0.0 0.0 0.0 0.0 0.0 0.0 0.0 0.0 0.0 0.1 0.0 0.0 0.1 0.0 0.3 0.2 0.1 0.0 0.4 0.2 0.1 0.9
0.2 0.0 0.9 1.5 1.7 1.8 1.2 0.1 0.0 0.0 0.0 0.0 0.1 0.0 0.0 0.0 0.0 0.0 0.1 0.4 0.0 0.0 0.2 0.3 0.0 0.0 0.0 0.0 0.6 0.4 0.5 0.0 0.1 0.0 0.0 0.0 0.0 0.0 0.0 0.0 0.0 0.0 0.0 0.0 0.0 0.0 0.0 0.0 0.2 0.0 0.4 0.4 0.1 1.1
0.0 1.4 3.1 2.5 2.6 3.4 2.0 0.3 0.3 0.1 0.1 0.1 0.1 0.0 0.0 0.0 0.0 0.0 0.0 0.0 0.0 0.0 0.0 0.0 0.0 1.0 1.4 1.2 1.4 1.1 0.6 0.1 0.0 0.0 0.1 0.0 0.0 0.0 0.0 0.0 0.0 0.0 0.0 0.0 0.0 0.0 0.0 0.0 0.0 0.0 0.0 0.5 0.2 0.1
0.0 3.2 4.9 3.6 2.3 1.8 1.2 0.5 0.5 0.0 0.2 0.2 0.1 0.0 0.0 0.0 0.2 0.0 0.0 0.0 0.0 0.0 0.0 0.0 0.0 0.0 0.0 0.8 1.2 1.9 2.3 1.6 0.5 0.0 0.6 0.3 0.0 0.0 0.0 0.0 0.0 0.0 0.0 0.0 0.0 0.0 0.0 0.0 0.0 0.0 0.0 0.0 0.0 0.1
9.8 10.6 5.0 5.0 2.1 1.2 0.4 0.5 0.3 0.4 0.1 0.3 0.1 0.0 0.0 0.1 0.0 0.0 0.0 0.0 0.0 0.0 0.0 0.0 0.0 0.0 0.0 0.0 0.7 0.9 1.1 1.5 2.5 2.5 0.3 1.7 0.8 0.2 0.0 0.0 0.2 0.1 0.0 0.0 0.0 0.0 0.0 0.0 0.0 0.0 0.0 0.0 0.0 0.0
10.7 4.6 2.2 0.1 0.3 0.1 0.0 0.1 0.1 0.1 0.0 0.2 0.1 0.0 0.0 0.0 0.1 0.0 0.0 0.0 0.0 0.0 0.0 0.0 0.0 0.0 0.0 0.0 0.0 0.9 1.1 1.2 1.0 1.6 0.3 2.0 1.8 2.4 1.9 1.5 0.9 0.4 0.0 0.0 0.3 0.3 0.1 0.0 0.0 0.0 0.0 0.1 0.0 0.0
5.6 1.5 0.1 0.2 0.1 0.1 0.2 0.1 0.1 0.2 0.2 0.1 0.0 0.0 0.0 0.3 0.0 0.0 0.0 0.0 0.0 0.0 0.0 0.0 0.0 0.0 0.0 0.0 0.0 0.0 0.9 1.3 1.2 0.5 0.3 1.6 1.3 0.9 0.6 1.8 1.4 0.9 0.6 1.1 1.0 0.7 0.6 0.4 0.3 0.2 0.4 0.3 0.3 0.3
0.0 0.0 0.0 0.1 0.1 0.1 0.1 0.1 0.3 0.1 0.0 0.0 0.2 0.3 0.4 0.0 0.0 0.0 0.0 0.0 0.0 0.0 0.0 0.0 0.0 0.0 0.0 0.0 0.0 0.6 0.9 1.2 1.2 0.8 1.7 1.8 1.5 1.2 1.0 1.1 2.3 2.4 2.3 1.7 1.1 1.5 1.8 1.4 1.1 1.4 1.3 0.7 0.9 0.7
0.3 0.0 0.0 0.1 0.1 0.0 0.3 0.3 0.3 0.1 0.0 0.0 0.0 0.0 0.0 0.0 0.0 0.0 0.0 0.0 0.0 0.0 0.0 0.0 0.0 0.0 0.0 0.0 0.0 0.6 0.8 1.3 1.9 1.8 1.3 1.3 1.6 1.8 1.8 3.2 3.9 5.0 4.8 4.5 3.0 2.5 2.2 2.2 3.0 3.0 2.9 2.9 2.4 2.6
0.2 0.0 0.0 0.0 0.0 0.2 0.1 0.1 0.0 0.0 0.0 0.0 0.0 0.0 0.0 0.0 0.0 0.0 0.0 0.0 0.0 0.0 0.0 0.0 0.0 0.0 0.0 0.0 0.0 0.7 0.7 0.7 1.4 1.5 1.5 1.3 1.4 1.7 3.0 3.7 4.9 5.5 5.8 5.2 6.4 7.2 5.0 5.8 6.7 7.1 6.6 6.1 5.6 4.8
0.0 0.0 0.1 0.0 0.0 0.0 0.0 0.0 0.0 0.0 0.0 0.0 0.0 0.0 0.0 0.0 0.0 0.0 0.0 0.0 0.0 0.0 0.0 0.0 0.0 0.2 0.3 0.6 0.9 1.2 1.1 1.1 1.2 1.9 2.1 2.5 2.3 3.1 3.0 4.6 4.8 5.6 6.3 6.4 6.1 5.8 5.3 5.0 4.4 4.3 4.8 4.4 4.2 3.7
0.0 0.1 0.0 0.0 0.0 0.0 0.0 0.0 0.0 0.0 0.0 0.0 0.0 0.0 0.0 0.0 0.0 0.0 0.0 0.0 0.0 0.0 0.0 0.0 0.5 0.8 0.9 1.2 1.6 1.8 2.5 2.8 1.7 2.6 2.6 2.6 3.1 2.8 4.2 4.9 5.8 6.1 6.9 7.0 6.3 5.9 5.7 5.5 6.2 5.9 6.2 6.4 6.1 5.4
0.9 0.3 0.3 0.0 0.0 0.0 0.0 0.0 0.0 0.0 0.0 0.0 0.0 0.0 0.0 0.0 0.0 0.0 0.0 0.0 0.0 0.0 0.0 0.8 1.0 1.3 2.2 2.6 2.4 3.5 3.7 3.1 4.2 4.1 4.7 4.6 4.2 4.7 6.0 6.0 6.6 6.7 6.7 6.7 7.2 7.8 8.1 7.6 7.2 6.8 6.5 6.2 6.1 5.8

GFSWCAN_prec_kuchsnow_066.txt.gz
Snowfall_Accumulation
0.0 0.0 0.0 0.0 0.0 0.0 0.0 0.0 0.0 0.0 0.0 0.0 0.0 0.0 0.0 0.0 0.0 0.0 0.0 0.0 0.0 0.0 0.0 0.0 0.0 0.0 0.0 0.0 0.0 0.0 0.0 0.0 0.0 0.2 0.0 0.0 0.0 0.0 0.0 0.0 0.0 0.0 0.1 0.1 0.3 0.6 0.0 0.0 0.0 0.0 0.0 0.0 0.0 0.0
0.0 0.0 0.0 0.0 0.0 0.0 0.0 0.0 0.0 0.0 0.0 0.0 0.0 0.0 0.0 0.0 0.0 0.0 0.0 0.0 0.0 0.0 0.0 0.0 0.0 0.0 0.0 0.0 0.0 0.0 0.0 0.0 0.0 0.0 0.0 0.0 0.0 0.0 0.0 0.0 0.0 0.0 0.0 0.0 0.0 0.0 0.0 0.0 0.0 0.0 0.0 0.0 0.0 0.0
0.0 0.0 0.0 0.0 0.0 0.0 0.0 0.0 0.0 0.0 0.0 0.0 0.0 0.0 0.0 0.0 0.0 0.0 0.0 0.0 0.0 0.1 0.0 0.0 0.0 0.0 0.0 0.0 0.0 0.0 0.0 0.0 0.0 0.0 0.0 0.0 0.0 0.0 0.0 0.0 0.0 0.0 0.0 0.0 0.0 0.0 0.0 0.0 0.0 0.0 0.0 0.0 0.0 0.0
0.0 0.0 0.0 0.0 0.0 0.0 0.0 0.0 0.0 0.0 0.0 0.0 0.0 0.0 0.0 0.0 0.0 0.0 0.0 0.0 0.0 0.1 0.8 0.1 0.0 0.0 0.0 0.0 0.0 0.0 0.0 0.0 0.0 0.0 0.0 0.0 0.0 0.0 0.0 0.0 0.0 0.0 0.0 0.0 0.0 0.0 0.0 0.0 0.0 0.0 0.0 0.0 0.0 0.0
0.0 0.0 0.0 0.0 0.0 0.0 0.0 0.0 0.0 0.0 0.0 0.0 0.0 0.0 0.0 0.0 0.0 0.0 0.0 0.0 0.0 0.1 1.6 0.2 0.0 0.0 0.0 0.0 0.0 0.0 0.0 0.0 0.2 0.1 0.6 0.3 0.0 0.0 0.0 0.0 0.0 0.0 0.0 0.0 0.0 0.0 0.0 0.0 0.0 0.0 0.0 0.0 0.0 0.0
0.0 0.0 0.0 0.0 0.0 0.0 0.0 0.0 0.0 0.0 0.0 0.0 0.0 0.0 0.0 0.0 0.0 0.0 0.0 0.0 0.0 0.0 2.0 1.7 0.0 0.0 0.0 0.0 0.0 0.0 0.0 0.0 0.0 0.4 1.1 0.0 0.0 0.0 0.4 0.0 0.0 0.0 0.0 0.0 0.0 0.0 0.0 0.0 0.0 0.0 0.0 0.0 0.0 0.0
0.0 0.0 0.0 0.0 0.0 0.0 0.0 0.0 0.0 0.0 0.0 0.0 0.0 0.0 0.0 0.0 0.0 0.0 0.0 0.0 0.0 0.0 0.8 3.6 3.3 0.0 0.0 0.0 0.0 0.0 0.0 0.0 0.4 1.2 0.8 0.0 0.0 0.7 0.8 0.2 0.0 0.0 0.0 0.0 0.0 0.0 0.0 0.0 0.0 0.0 0.0 0.0 0.0 0.0
0.0 0.0 0.0 0.0 0.0 0.0 0.0 0.0 0.0 0.0 0.0 0.0 0.0 0.0 0.0 0.0 0.0 0.0 0.0 0.0 0.0 0.0 1.8 9.6 6.7 1.5 0.0 0.2 0.0 0.0 0.0 0.0 0.1 0.4 0.0 0.0 0.0 0.9 1.1 0.0 0.0 0.0 0.0 0.0 0.0 0.0 0.0 0.0 0.0 0.0 0.0 0.0 0.0 0.0
0.0 0.0 0.0 0.0 0.0 0.0 0.0 0.0 0.0 0.0 0.0 0.0 0.0 0.0 0.0 0.0 0.0 0.0 0.0 0.0 0.0 0.0 6.1 5.6 7.1 4.0 0.0 0.0 0.0 0.1 0.0 2.3 0.0 0.7 0.0 0.0 0.4 2.5 0.0 0.1 0.1 0.0 0.1 0.0 0.0 0.0 0.0 0.0 0.0 0.0 0.0 0.0 0.0 0.0
0.0 0.0 0.0 0.0 0.0 0.0 0.0 0.0 0.0 0.0 0.0 0.0 0.0 0.0 0.3 0.0 0.0 0.0 0.0 0.3 2.2 1.6 2.2 5.2 2.8 5.4 1.2 1.6 0.7 0.7 0.7 1.4 3.0 0.0 0.0 0.5 0.0 0.0 0.0 0.0 0.0 0.0 0.0 0.1 0.0 1.8 0.9 0.7 0.0 0.0 0.0 0.0 0.0 0.0
0.0 0.0 0.0 0.0 0.0 0.0 0.0 0.0 0.0 0.0 0.0 0.0 0.0 0.0 0.0 0.0 0.0 0.0 3.4 4.4 2.0 2.0 1.2 1.8 2.8 3.0 0.0 3.6 2.1 0.1 4.1 1.6 3.6 3.1 0.9 1.9 1.4 0.6 0.0 0.1 0.0 0.0 0.0 0.0 0.0 0.0 0.2 0.7 1.0 0.4 0.2 0.1 0.0 0.0
0.0 0.0 0.0 0.0 0.0 0.0 0.0 0.0 0.0 0.0 0.0 0.0 0.0 0.0 0.0 0.3 2.4 4.1 4.4 2.4 0.9 0.8 0.6 1.5 0.7 0.3 0.3 0.0 1.3 0.9 2.9 2.4 3.8 3.1 3.5 2.9 0.7 0.1 0.5 0.6 0.3 0.0 0.0 0.1 0.0 0.0 0.2 0.0 0.5 0.8 0.4 0.8 0.9 0.8
0.0 0.0 0.0 0.0 0.0 0.0 0.0 0.0 0.0 0.0 0.0 0.0 0.0 0.0 0.4 0.9 2.6 3.3 3.6 2.2 0.4 0.5 0.6 0.6 0.8 0.0 0.0 0.0 0.3 1.0 1.5 0.8 0.9 4.0 4.2 1.5 0.1 0.1 0.0 0.1 0.3 1.4 1.4 0.7 0.4 0.3 0.4 0.4 0.2 0.6 0.6 0.4 0.6 0.4
0.0 0.0 0.0 0.0 0.0 0.0 0.0 0.0 0.0 0.0 0.0 0.0 0.0 0.0 0.7 1.0 1.4 1.1 1.1 0.9 0.2 0.1 0.0 0.0 0.3 0.6 0.1 0.7 0.6 1.5 0.1 0.4 3.1 2.2 1.9 0.1 0.1 0.0 0.0 0.0 0.0 0.0 0.6 1.2 2.0 1.4 1.3 1.5 1.0 1.1 0.7 0.3 0.0 0.0
0.0 0.0 0.0 0.0 0.0 0.0 0.0 0.0 0.0 0.0 0.0 0.0 0.0 0.0 0.0 0.0 0.1 0.1 0.0 0.1 0.0 0.0 0.1 0.0 0.0 0.1 0.6 1.0 0.2 0.8 0.9 3.6 4.2 2.6 1.2 0.5 0.2 0.0 0.0 0.1 0.0 0.0 0.0 0.0 0.2 0.5 1.7 1.6 2.0 1.4 0.7 0.6 0.1 0.0
0.0 0.0 0.0 0.0 0.0 0.0 0.0 0.0 0.0 0.0 0.0 0.0 0.0 0.0 0.0 0.0 0.0 0.0 0.0 0.0 0.0 0.0 0.2 0.3 0.4 0.8 0.4 1.4 0.8 0.4 1.2 2.5 2.8 1.0 0.0 0.0 0.0 0.0 0.1 0.0 0.1 0.0 0.0 0.0 0.0 0.0 0.4 0.5 1.1 1.1 0.2 0.5 0.5 0.0
0.0 0.0 0.0 0.0 0.0 0.0 0.0 0.0 0.0 0.0 0.0 0.0 0.0 0.0 0.0 0.0 0.0 0.0 0.0 0.0 0.0 0.2 1.3 1.6 2.3 0.1 0.3 0.7 0.3 0.1 0.2 0.2 0.2 0.0 0.0 0.0 0.0 0.0 0.3 0.0 0.0 0.0 0.0 0.0 0.2 0.2 0.7 0.3 1.3 1.9 1.2 0.5 0.5 0.7
0.0 0.0 0.0 0.0 0.0 0.0 0.0 0.0 0.0 0.0 0.0 0.0 0.0 0.0 0.0 0.0 0.0 0.0 0.0 0.0 0.0 0.1 1.7 4.6 2.7 1.8 0.5 0.2 0.0 0.1 0.0 0.0 0.0 0.0 0.0 0.0 0.0 0.0 0.3 0.0 0.0 0.1 0.7 1.7 1.7 1.7 1.4 1.3 1.7 1.4 0.3 0.5 0.7 0.7
0.0 0.0 0.0 0.0 0.0 0.0 0.5 0.3 0.0 0.0 0.0 0.0 0.0 0.0 0.0 0.0 0.0 0.0 0.1 0.0 0.0 0.1 0.9 2.2 2.9 0.7 0.0 0.0 0.0 0.0 0.0 0.0 0.0 0.0 0.0 0.0 0.0 0.0 0.1 0.6 0.6 0.0 0.4 1.2 0.8 1.0 0.6 0.2 0.0 0.5 0.6 0.2 0.7 0.4
0.0 0.0 0.0 0.0 0.0 0.3 1.3 0.1 0.1 0.0 0.0 0.0 0.0 0.0 0.0 0.0 0.1 0.0 0.1 0.0 0.2 0.2 0.2 1.0 0.0 0.1 0.1 0.4 0.5 0.4 0.0 0.0 0.0 0.0 0.0 0.0 0.0 0.0 0.0 0.0 0.0 0.2 0.0 0.4 0.3 0.1 0.6 0.3 0.1 0.6 0.5 0.3 0.7 0.6
0.0 0.0 0.0 0.0 0.9 0.6 0.8 0.0 0.0 0.0 0.0 0.0 0.0 0.0 0.0 0.0 0.0 0.0 0.2 0.1 0.6 0.4 0.0 0.2 0.0 0.0 0.4 0.4 0.2 0.4 0.1 0.1 0.0 0.0 0.0 0.0 0.0 0.0 0.0 0.0 0.0 0.1 0.0 0.0 0.1 0.0 0.3 0.2 0.1 0.0 0.4 0.2 0.1 0.9
0.2 0.0 0.9 1.5 1.7 1.8 1.2 0.1 0.0 0.0 0.0 0.0 0.1 0.0 0.0 0.0 0.0 0.0 0.1 0.4 0.0 0.0 0.2 0.3 0.0 0.0 0.0 0.0 0.6 0.4 0.5 0.0 0.1 0.0 0.0 0.0 0.0 0.0 0.0 0.0 0.0 0.0 0.0 0.0 0.0 0.0 0.0 0.0 0.2 0.0 0.4 0.4 0.1 1.1
0.0 1.4 3.1 2.5 2.6 3.4 2.0 0.3 0.3 0.1 0.1 0.1 0.1 0.1 0.0 0.0 0.0 0.0 0.0 0.0 0.0 0.0 0.0 0.0 0.0 1.0 1.4 1.2 1.4 1.1 0.6 0.1 0.0 0.0 0.1 0.0 0.0 0.0 0.0 0.0 0.0 0.0 0.0 0.0 0.0 0.0 0.0 0.0 0.0 0.0 0.0 0.5 0.2 0.1
0.0 3.2 5.0 3.6 2.3 1.8 1.2 0.5 0.5 0.0 0.2 0.2 0.1 0.0 0.0 0.0 0.2 0.0 0.0 0.0 0.0 0.0 0.0 0.0 0.0 0.0 0.0 0.8 1.2 1.9 2.3 1.6 0.5 0.0 0.6 0.3 0.0 0.0 0.0 0.0 0.0 0.0 0.0 0.0 0.0 0.0 0.0 0.0 0.0 0.0 0.0 0.0 0.0 0.1
10.2 10.6 5.0 5.0 2.1 1.2 0.4 0.5 0.3 0.4 0.1 0.3 0.1 0.0 0.0 0.1 0.0 0.0 0.0 0.0 0.0 0.0 0.0 0.0 0.0 0.0 0.0 0.0 0.7 0.9 1.1 1.5 2.5 2.5 0.3 1.7 0.8 0.2 0.0 0.0 0.2 0.1 0.0 0.0 0.0 0.0 0.0 0.0 0.0 0.0 0.0 0.0 0.0 0.0
11.0 4.9 2.2 0.1 0.3 0.1 0.0 0.1 0.1 0.1 0.0 0.2 0.3 0.0 0.0 0.0 0.1 0.0 0.0 0.0 0.0 0.0 0.0 0.0 0.0 0.0 0.0 0.0 0.0 0.9 1.1 1.2 1.0 1.6 0.3 2.0 1.8 2.4 1.9 1.5 0.9 0.4 0.0 0.0 0.3 0.3 0.1 0.0 0.0 0.0 0.0 0.1 0.0 0.0
5.8 1.5 0.1 0.2 0.1 0.1 0.2 0.1 0.1 0.2 0.2 0.2 0.1 0.0 0.0 0.3 0.0 0.0 0.0 0.0 0.0 0.0 0.0 0.0 0.0 0.0 0.0 0.0 0.0 0.0 0.9 1.3 1.2 0.5 0.3 1.6 1.3 0.9 0.6 1.8 1.4 0.9 0.6 1.1 1.0 0.8 0.7 0.5 0.3 0.2 0.4 0.3 0.3 0.3
0.3 0.0 0.0 0.1 0.1 0.1 0.1 0.1 0.3 0.1 0.2 0.0 0.2 0.3 0.4 0.0 0.0 0.0 0.0 0.0 0.0 0.0 0.0 0.0 0.0 0.0 0.0 0.0 0.0 0.6 0.9 1.2 1.2 0.8 1.7 1.8 1.5 1.2 1.0 1.1 2.3 2.4 2.3 1.7 1.1 1.6 1.9 1.5 1.2 1.5 1.4 0.7 0.9 0.7
0.3 0.0 0.0 0.1 0.1 0.0 0.3 0.3 0.3 0.2 0.1 0.0 0.0 0.0 0.0 0.0 0.0 0.0 0.0 0.0 0.0 0.0 0.0 0.0 0.0 0.0 0.0 0.0 0.0 0.6 0.8 1.3 1.9 1.8 1.3 1.3 1.6 1.8 1.8 3.2 3.9 5.0 4.8 4.5 3.0 2.5 2.3 2.3 3.3 3.3 2.9 2.9 2.4 2.6
0.2 0.0 0.0 0.0 0.0 0.2 0.1 0.1 0.0 0.1 0.0 0.0 0.0 0.0 0.0 0.0 0.0 0.0 0.0 0.0 0.0 0.0 0.0 0.0 0.0 0.0 0.0 0.0 0.0 0.7 0.7 0.7 1.4 1.5 1.5 1.3 1.4 1.7 3.0 3.7 4.9 5.5 5.8 5.2 6.4 7.2 5.0 5.8 6.7 7.1 6.6 6.1 5.6 4.8
0.0 0.0 0.1 0.0 0.0 0.4 0.4 0.3 0.2 0.0 0.0 0.0 0.0 0.0 0.0 0.0 0.0 0.0 0.0 0.0 0.0 0.0 0.0 0.0 0.0 0.2 0.3 0.6 0.9 1.2 1.1 1.1 1.2 1.9 2.1 2.5 2.3 3.1 3.0 4.6 4.8 5.6 6.3 6.4 6.1 5.8 5.3 5.0 4.4 4.3 4.8 4.4 4.2 3.7
0.0 0.1 0.0 0.5 0.8 0.7 0.3 0.1 0.0 0.0 0.0 0.0 0.0 0.0 0.0 0.0 0.0 0.0 0.0 0.0 0.0 0.0 0.0 0.0 0.5 0.8 0.9 1.2 1.6 1.8 2.5 2.8 1.7 2.6 2.6 2.6 3.1 2.8 4.2 4.9 5.8 6.1 7.0 7.0 6.3 5.9 5.7 5.5 6.2 5.9 6.2 6.4 6.1 5.4
1.4 0.8 0.7 0.4 0.3 0.2 0.1 0.0 0.0 0.0 0.0 0.0 0.0 0.0 0.0 0.0 0.0 0.0 0.0 0.0 0.0 0.0 0.0 0.8 1.0 1.3 2.2 2.6 2.4 3.5 3.7 3.1 4.2 4.1 4.7 4.6 4.2 4.7 6.0 6.0 6.6 6.7 6.7 6.7 7.2 7.8 8.1 7.6 7.2 6.8 6.5 6.2 6.1 5.8

GFSWCAN_prec_kuchsnow_069.txt.gz
Snowfall_Accumulation
0.0 0.0 0.0 0.0 0.0 0.0 0.0 0.0 0.0 0.0 0.0 0.0 0.0 0.0 0.0 0.0 0.0 0.0 0.0 0.0 0.0 0.0 0.0 0.0 0.0 0.0 0.0 0.0 0.0 0.0 0.0 0.0 0.0 0.2 0.0 0.0 0.0 0.0 0.0 0.0 0.0 0.0 0.1 0.1 0.3 0.6 0.0 0.0 0.0 0.0 0.0 0.0 0.0 0.0
0.0 0.0 0.0 0.0 0.0 0.0 0.0 0.0 0.0 0.0 0.0 0.0 0.0 0.0 0.0 0.0 0.0 0.0 0.0 0.0 0.0 0.0 0.0 0.0 0.0 0.0 0.0 0.0 0.0 0.0 0.0 0.0 0.0 0.0 0.0 0.0 0.0 0.0 0.0 0.0 0.0 0.0 0.0 0.0 0.0 0.0 0.0 0.0 0.0 0.0 0.0 0.0 0.0 0.0
0.0 0.0 0.0 0.0 0.0 0.0 0.0 0.0 0.0 0.0 0.0 0.0 0.0 0.0 0.0 0.0 0.0 0.0 0.0 0.0 0.0 0.1 0.0 0.0 0.0 0.0 0.0 0.0 0.0 0.0 0.0 0.0 0.0 0.0 0.0 0.0 0.0 0.0 0.0 0.0 0.0 0.0 0.0 0.0 0.0 0.0 0.0 0.0 0.0 0.0 0.0 0.0 0.0 0.0
0.0 0.0 0.0 0.0 0.0 0.0 0.0 0.0 0.0 0.0 0.0 0.0 0.0 0.0 0.0 0.0 0.0 0.0 0.0 0.0 0.0 0.1 0.8 0.1 0.0 0.0 0.0 0.0 0.0 0.0 0.0 0.0 0.0 0.0 0.0 0.0 0.0 0.0 0.0 0.0 0.0 0.0 0.0 0.0 0.0 0.0 0.0 0.0 0.0 0.0 0.0 0.0 0.0 0.0
0.0 0.0 0.0 0.0 0.0 0.0 0.0 0.0 0.0 0.0 0.0 0.0 0.0 0.0 0.0 0.0 0.0 0.0 0.0 0.0 0.0 0.1 1.6 0.2 0.0 0.0 0.0 0.0 0.0 0.0 0.0 0.0 0.2 0.1 0.6 0.3 0.0 0.0 0.0 0.0 0.0 0.0 0.0 0.0 0.0 0.0 0.0 0.0 0.0 0.0 0.0 0.0 0.0 0.0
0.0 0.0 0.0 0.0 0.0 0.0 0.0 0.0 0.0 0.0 0.0 0.0 0.0 0.0 0.0 0.0 0.0 0.0 0.0 0.0 0.0 0.0 2.0 1.7 0.0 0.0 0.0 0.0 0.0 0.0 0.0 0.0 0.0 0.4 1.1 0.0 0.0 0.0 0.4 0.0 0.0 0.0 0.0 0.0 0.0 0.0 0.0 0.0 0.0 0.0 0.0 0.0 0.0 0.0
0.0 0.0 0.0 0.0 0.0 0.0 0.0 0.0 0.0 0.0 0.0 0.0 0.0 0.0 0.0 0.0 0.0 0.0 0.0 0.0 0.0 0.0 0.8 3.6 3.3 0.0 0.0 0.0 0.0 0.0 0.0 0.0 0.4 1.2 0.8 0.0 0.0 0.7 0.8 0.2 0.0 0.0 0.0 0.0 0.0 0.0 0.0 0.0 0.0 0.0 0.0 0.0 0.0 0.0
0.0 0.0 0.0 0.0 0.0 0.0 0.0 0.0 0.0 0.0 0.0 0.0 0.0 0.0 0.0 0.0 0.0 0.0 0.0 0.0 0.0 0.0 1.8 9.6 6.7 1.5 0.0 0.2 0.0 0.0 0.0 0.0 0.1 0.4 0.0 0.0 0.0 0.9 1.1 0.0 0.0 0.0 0.0 0.0 0.0 0.0 0.0 0.0 0.0 0.0 0.0 0.0 0.0 0.0
0.0 0.0 0.0 0.0 0.0 0.0 0.0 0.0 0.0 0.0 0.0 0.0 0.0 0.0 0.0 0.0 0.0 0.0 0.0 0.0 0.0 0.0 6.1 5.6 7.1 4.0 0.0 0.0 0.0 0.1 0.0 2.3 0.0 0.7 0.0 0.0 0.4 2.5 0.0 0.1 0.1 0.0 0.1 0.0 0.0 0.0 0.0 0.0 0.0 0.0 0.0 0.0 0.0 0.0
0.0 0.0 0.0 0.0 0.0 0.0 0.0 0.0 0.0 0.0 0.0 0.0 0.0 0.0 0.3 0.0 0.0 0.0 0.0 0.3 2.2 1.6 2.2 5.2 2.8 5.4 1.2 1.6 0.7 0.7 0.7 1.4 3.0 0.0 0.0 0.5 0.0 0.0 0.0 0.0 0.0 0.0 0.0 0.1 0.0 1.8 0.9 0.7 0.0 0.0 0.0 0.0 0.0 0.0
0.0 0.0 0.0 0.0 0.0 0.0 0.0 0.0 0.0 0.0 0.0 0.0 0.0 0.0 0.0 0.0 0.0 0.0 3.4 4.4 2.0 2.0 1.2 1.8 2.8 3.0 0.0 3.6 2.1 0.1 4.1 1.6 3.6 3.1 0.9 1.9 1.4 0.6 0.0 0.1 0.0 0.0 0.0 0.0 0.0 0.0 0.2 0.7 1.0 0.4 0.2 0.1 0.0 0.0
0.0 0.0 0.0 0.0 0.0 0.0 0.0 0.0 0.0 0.0 0.0 0.0 0.0 0.0 0.0 0.3 2.4 4.1 4.4 2.4 0.9 0.8 0.6 1.5 0.7 0.3 0.3 0.0 1.3 0.9 2.9 2.4 3.8 3.1 3.5 2.9 0.7 0.1 0.5 0.6 0.3 0.0 0.0 0.1 0.0 0.0 0.2 0.0 0.5 0.8 0.4 0.8 0.9 0.8
0.0 0.0 0.0 0.0 0.0 0.0 0.0 0.0 0.0 0.0 0.0 0.0 0.0 0.0 0.4 0.9 2.6 3.3 3.6 2.2 0.4 0.5 0.6 0.6 0.8 0.0 0.0 0.0 0.3 1.0 1.5 0.8 0.9 4.0 4.2 1.5 0.1 0.1 0.0 0.1 0.3 1.4 1.4 0.7 0.4 0.3 0.4 0.4 0.2 0.6 0.6 0.4 0.6 0.4
0.0 0.0 0.0 0.0 0.0 0.0 0.0 0.0 0.0 0.0 0.0 0.0 0.0 0.0 0.7 1.0 1.4 1.1 1.1 0.9 0.2 0.1 0.0 0.0 0.3 0.6 0.1 0.7 0.6 1.5 0.1 0.4 3.1 2.2 1.9 0.1 0.1 0.0 0.0 0.0 0.0 0.0 0.6 1.2 2.0 1.4 1.3 1.5 1.0 1.1 0.7 0.3 0.0 0.0
0.0 0.0 0.0 0.0 0.0 0.0 0.0 0.0 0.0 0.0 0.0 0.0 0.0 0.0 0.0 0.0 0.1 0.1 0.0 0.1 0.0 0.0 0.1 0.0 0.0 0.1 0.6 1.0 0.2 0.8 0.9 3.6 4.2 2.6 1.2 0.5 0.2 0.0 0.0 0.1 0.0 0.0 0.0 0.0 0.2 0.5 1.7 1.6 2.0 1.4 0.7 0.6 0.1 0.0
0.0 0.0 0.0 0.0 0.0 0.0 0.0 0.0 0.0 0.0 0.0 0.0 0.0 0.0 0.0 0.0 0.0 0.0 0.0 0.0 0.0 0.0 0.2 0.3 0.4 0.8 0.4 1.4 0.8 0.4 1.2 2.5 2.8 1.0 0.0 0.0 0.0 0.0 0.1 0.0 0.1 0.0 0.0 0.0 0.0 0.0 0.4 0.5 1.1 1.1 0.2 0.5 0.5 0.0
0.0 0.0 0.0 0.0 0.0 0.0 0.0 0.0 0.0 0.0 0.0 0.0 0.0 0.0 0.0 0.0 0.0 0.0 0.0 0.0 0.0 0.2 1.3 1.6 2.3 0.1 0.3 0.7 0.3 0.1 0.2 0.2 0.2 0.0 0.0 0.0 0.0 0.0 0.3 0.0 0.0 0.0 0.0 0.0 0.2 0.2 0.7 0.3 1.3 1.9 1.2 0.5 0.5 0.7
0.0 0.0 0.0 0.0 0.0 0.0 0.0 0.0 0.0 0.0 0.0 0.0 0.0 0.0 0.0 0.0 0.0 0.0 0.0 0.0 0.0 0.1 1.7 4.6 2.7 1.8 0.5 0.2 0.0 0.1 0.0 0.0 0.0 0.0 0.0 0.0 0.0 0.0 0.3 0.0 0.0 0.1 0.7 1.7 1.7 1.7 1.4 1.3 1.7 1.4 0.3 0.5 0.7 0.7
0.0 0.0 0.0 0.0 0.0 0.0 0.6 0.3 0.0 0.0 0.0 0.0 0.0 0.0 0.0 0.0 0.0 0.0 0.1 0.0 0.0 0.1 0.9 2.2 2.9 0.7 0.0 0.0 0.0 0.0 0.0 0.0 0.0 0.0 0.0 0.0 0.0 0.0 0.1 0.6 0.6 0.0 0.4 1.2 0.8 1.0 0.6 0.2 0.0 0.5 0.6 0.2 0.7 0.4
0.0 0.0 0.0 0.0 0.0 0.3 1.3 0.1 0.1 0.0 0.0 0.0 0.0 0.0 0.0 0.0 0.1 0.0 0.1 0.0 0.2 0.2 0.2 1.0 0.0 0.1 0.1 0.4 0.5 0.4 0.0 0.0 0.0 0.0 0.0 0.0 0.0 0.0 0.0 0.0 0.0 0.2 0.0 0.4 0.3 0.1 0.6 0.3 0.1 0.6 0.5 0.3 0.7 0.6
0.0 0.0 0.0 0.0 0.9 0.6 0.8 0.0 0.0 0.0 0.0 0.0 0.0 0.0 0.0 0.0 0.0 0.0 0.2 0.1 0.6 0.4 0.0 0.2 0.0 0.0 0.4 0.4 0.2 0.4 0.1 0.1 0.0 0.0 0.0 0.0 0.0 0.0 0.0 0.0 0.0 0.1 0.0 0.0 0.1 0.0 0.3 0.2 0.1 0.0 0.4 0.2 0.1 0.9
0.2 0.0 1.4 1.5 1.7 1.8 1.2 0.1 0.0 0.0 0.0 0.0 0.1 0.0 0.0 0.0 0.0 0.0 0.1 0.4 0.0 0.0 0.2 0.3 0.0 0.0 0.0 0.0 0.6 0.4 0.5 0.0 0.1 0.0 0.0 0.0 0.0 0.0 0.0 0.0 0.0 0.0 0.0 0.0 0.0 0.0 0.0 0.0 0.2 0.0 0.4 0.4 0.1 1.1
0.0 1.4 3.2 2.6 2.7 3.4 2.0 0.3 0.3 0.1 0.1 0.1 0.1 0.1 0.0 0.0 0.0 0.0 0.0 0.0 0.0 0.0 0.0 0.0 0.0 1.0 1.4 1.2 1.4 1.1 0.6 0.1 0.0 0.0 0.1 0.0 0.0 0.0 0.0 0.0 0.0 0.0 0.0 0.0 0.0 0.0 0.0 0.0 0.0 0.0 0.0 0.5 0.2 0.1
0.0 3.7 5.3 3.8 2.3 1.8 1.2 0.5 0.5 0.0 0.2 0.2 0.1 0.0 0.0 0.0 0.2 0.0 0.0 0.0 0.0 0.0 0.0 0.0 0.0 0.0 0.0 0.8 1.2 1.9 2.3 1.6 0.5 0.0 0.6 0.3 0.0 0.0 0.0 0.0 0.0 0.0 0.0 0.0 0.0 0.0 0.0 0.0 0.0 0.0 0.0 0.0 0.0 0.1
10.6 11.1 5.1 5.1 2.1 1.2 0.4 0.5 0.3 0.4 0.1 0.3 0.1 0.0 0.0 0.1 0.0 0.0 0.0 0.0 0.0 0.0 0.0 0.0 0.0 0.0 0.0 0.0 0.7 0.9 1.1 1.5 2.5 2.5 0.3 1.7 0.8 0.2 0.0 0.0 0.2 0.1 0.0 0.0 0.0 0.0 0.0 0.0 0.0 0.0 0.0 0.0 0.0 0.1
11.9 5.5 2.2 0.1 0.3 0.1 0.0 0.1 0.1 0.1 0.0 0.2 0.3 0.0 0.0 0.0 0.1 0.0 0.0 0.0 0.0 0.0 0.0 0.0 0.0 0.0 0.0 0.0 0.0 0.9 1.1 1.2 1.0 1.6 0.3 2.0 1.8 2.4 1.9 1.5 0.9 0.4 0.0 0.0 0.3 0.3 0.1 0.0 0.0 0.0 0.0 0.1 0.0 0.0
6.3 1.6 0.1 0.2 0.1 0.1 0.2 0.1 0.1 0.2 0.2 0.2 0.1 0.1 0.0 0.3 0.0 0.0 0.0 0.0 0.0 0.0 0.0 0.0 0.0 0.0 0.0 0.0 0.0 0.0 0.9 1.3 1.2 0.5 0.3 1.6 1.3 0.9 0.6 1.8 1.4 0.9 0.6 1.1 1.0 0.9 0.8 0.5 0.3 0.2 0.4 0.3 0.3 0.3
0.7 0.0 0.0 0.1 0.1 0.1 0.1 0.1 0.3 0.1 0.2 0.0 0.3 0.3 0.4 0.0 0.0 0.0 0.0 0.0 0.0 0.0 0.0 0.0 0.0 0.0 0.0 0.0 0.0 0.6 0.9 1.2 1.2 0.8 1.7 1.8 1.5 1.2 1.0 1.1 2.3 2.4 2.3 1.7 1.2 1.7 1.9 1.5 1.3 1.7 1.4 0.7 0.9 0.7
0.3 0.0 0.0 0.1 0.1 0.0 0.3 0.3 0.3 0.2 0.1 0.0 0.0 0.0 0.0 0.0 0.0 0.0 0.0 0.0 0.0 0.0 0.0 0.0 0.0 0.0 0.0 0.0 0.0 0.6 0.8 1.3 1.9 1.8 1.3 1.3 1.6 1.8 1.8 3.2 3.9 5.0 4.8 4.5 3.0 2.5 2.3 2.3 3.5 3.3 2.9 2.9 2.4 2.6
0.2 0.0 0.0 0.0 0.0 0.2 0.1 0.1 0.0 0.2 0.2 0.0 0.0 0.0 0.0 0.0 0.0 0.0 0.0 0.0 0.0 0.0 0.0 0.0 0.0 0.0 0.0 0.0 0.0 0.7 0.7 0.7 1.4 1.5 1.5 1.3 1.4 1.7 3.0 3.7 4.9 5.5 5.8 5.2 6.4 7.2 5.0 5.8 6.7 7.1 6.6 6.1 5.6 4.8
0.0 0.0 0.1 0.0 0.0 0.4 0.5 0.3 0.2 0.0 0.0 0.0 0.0 0.0 0.0 0.0 0.0 0.0 0.0 0.0 0.0 0.0 0.0 0.0 0.0 0.2 0.3 0.6 0.9 1.2 1.1 1.1 1.2 1.9 2.1 2.5 2.3 3.1 3.0 4.6 4.8 5.6 6.3 6.4 6.1 5.8 5.3 5.0 4.4 4.3 4.8 4.4 4.2 3.7
0.0 0.1 0.0 0.5 0.8 1.3 1.2 0.7 0.3 0.0 0.0 0.0 0.0 0.0 0.0 0.0 0.0 0.0 0.0 0.0 0.0 0.0 0.0 0.0 0.5 0.8 0.9 1.2 1.6 1.8 2.5 2.8 1.7 2.6 2.6 2.6 3.1 2.8 4.2 4.9 5.8 6.1 7.0 7.0 6.3 5.9 5.7 5.5 6.2 5.9 6.2 6.4 6.1 5.4
1.4 0.8 0.7 0.4 1.5 1.5 1.2 0.6 0.2 0.0 0.0 0.0 0.0 0.0 0.0 0.0 0.0 0.0 0.0 0.0 0.0 0.0 0.0 0.8 1.0 1.3 2.2 2.6 2.4 3.5 3.7 3.1 4.2 4.1 4.7 4.6 4.2 4.7 6.0 6.0 6.6 6.7 6.7 6.7 7.2 7.8 8.1 7.6 7.2 6.8 6.5 6.2 6.1 5.8

GFSWCAN_prec_kuchsnow_072.txt.gz
Snowfall_Accumulation
0.0 0.0 0.0 0.0 0.0 0.0 0.0 0.0 0.0 0.0 0.0 0.0 0.0 0.0 0.0 0.0 0.0 0.0 0.0 0.0 0.0 0.0 0.0 0.0 0.0 0.0 0.0 0.0 0.0 0.0 0.0 0.0 0.0 0.2 0.0 0.0 0.0 0.0 0.0 0.0 0.0 0.0 0.1 0.1 0.3 0.6 0.0 0.0 0.0 0.0 0.0 0.0 0.0 0.0
0.0 0.0 0.0 0.0 0.0 0.0 0.0 0.0 0.0 0.0 0.0 0.0 0.0 0.0 0.0 0.0 0.0 0.0 0.0 0.0 0.0 0.0 0.0 0.0 0.0 0.0 0.0 0.0 0.0 0.0 0.0 0.0 0.0 0.0 0.0 0.0 0.0 0.0 0.0 0.0 0.0 0.0 0.0 0.0 0.0 0.0 0.0 0.0 0.0 0.0 0.0 0.0 0.0 0.0
0.0 0.0 0.0 0.0 0.0 0.0 0.0 0.0 0.0 0.0 0.0 0.0 0.0 0.0 0.0 0.0 0.0 0.0 0.0 0.0 0.0 0.1 0.0 0.0 0.0 0.0 0.0 0.0 0.0 0.0 0.0 0.0 0.0 0.0 0.0 0.0 0.0 0.0 0.0 0.0 0.0 0.0 0.0 0.0 0.0 0.0 0.0 0.0 0.0 0.0 0.0 0.0 0.0 0.0
0.0 0.0 0.0 0.0 0.0 0.0 0.0 0.0 0.0 0.0 0.0 0.0 0.0 0.0 0.0 0.0 0.0 0.0 0.0 0.0 0.0 0.1 0.8 0.1 0.0 0.0 0.0 0.0 0.0 0.0 0.0 0.0 0.0 0.0 0.0 0.0 0.0 0.0 0.0 0.0 0.0 0.0 0.0 0.0 0.0 0.0 0.0 0.0 0.0 0.0 0.0 0.0 0.0 0.0
0.0 0.0 0.0 0.0 0.0 0.0 0.0 0.0 0.0 0.0 0.0 0.0 0.0 0.0 0.0 0.0 0.0 0.0 0.0 0.0 0.0 0.1 1.6 0.2 0.0 0.0 0.0 0.0 0.0 0.0 0.0 0.0 0.2 0.1 0.6 0.3 0.0 0.0 0.0 0.0 0.0 0.0 0.0 0.0 0.0 0.0 0.0 0.0 0.0 0.0 0.0 0.0 0.0 0.0
0.0 0.0 0.0 0.0 0.0 0.0 0.0 0.0 0.0 0.0 0.0 0.0 0.0 0.0 0.0 0.0 0.0 0.0 0.0 0.0 0.0 0.0 2.0 1.7 0.0 0.0 0.0 0.0 0.0 0.0 0.0 0.0 0.0 0.4 1.1 0.0 0.0 0.0 0.4 0.0 0.0 0.0 0.0 0.0 0.0 0.0 0.0 0.0 0.0 0.0 0.0 0.0 0.0 0.0
0.0 0.0 0.0 0.0 0.0 0.0 0.0 0.0 0.0 0.0 0.0 0.0 0.0 0.0 0.0 0.0 0.0 0.0 0.0 0.0 0.0 0.0 0.8 3.6 3.3 0.0 0.0 0.0 0.0 0.0 0.0 0.0 0.4 1.2 0.8 0.0 0.0 0.7 0.8 0.2 0.0 0.0 0.0 0.0 0.0 0.0 0.0 0.0 0.0 0.0 0.0 0.0 0.0 0.0
0.0 0.0 0.0 0.0 0.0 0.0 0.0 0.0 0.0 0.0 0.0 0.0 0.0 0.0 0.0 0.0 0.0 0.0 0.0 0.0 0.0 0.0 1.8 9.6 6.7 1.5 0.0 0.2 0.0 0.0 0.0 0.0 0.1 0.4 0.0 0.0 0.0 0.9 1.1 0.0 0.0 0.0 0.0 0.0 0.0 0.0 0.0 0.0 0.0 0.0 0.0 0.0 0.0 0.0
0.0 0.0 0.0 0.0 0.0 0.0 0.0 0.0 0.0 0.0 0.0 0.0 0.0 0.0 0.0 0.0 0.0 0.0 0.0 0.0 0.0 0.0 6.1 5.6 7.1 4.0 0.0 0.0 0.0 0.1 0.0 2.3 0.0 0.7 0.0 0.0 0.4 2.5 0.0 0.1 0.1 0.0 0.1 0.0 0.0 0.0 0.0 0.0 0.0 0.0 0.0 0.0 0.0 0.0
0.0 0.0 0.0 0.0 0.0 0.0 0.0 0.0 0.0 0.0 0.0 0.0 0.0 0.0 0.3 0.0 0.0 0.0 0.0 0.3 2.2 1.6 2.2 5.2 2.8 5.4 1.2 1.6 0.7 0.7 0.7 1.4 3.0 0.0 0.0 0.5 0.0 0.0 0.0 0.0 0.0 0.0 0.0 0.1 0.0 1.8 0.9 0.7 0.0 0.0 0.0 0.0 0.0 0.0
0.0 0.0 0.0 0.0 0.0 0.0 0.0 0.0 0.0 0.0 0.0 0.0 0.0 0.0 0.0 0.0 0.0 0.0 3.4 4.4 2.0 2.0 1.2 1.8 2.8 3.0 0.0 3.6 2.1 0.1 4.1 1.6 3.6 3.1 0.9 1.9 1.4 0.6 0.0 0.1 0.0 0.0 0.0 0.0 0.0 0.0 0.2 0.7 1.0 0.4 0.2 0.1 0.0 0.0
0.0 0.0 0.0 0.0 0.0 0.0 0.0 0.0 0.0 0.0 0.0 0.0 0.0 0.0 0.0 0.3 2.4 4.1 4.4 2.4 0.9 0.8 0.6 1.5 0.7 0.3 0.3 0.0 1.3 0.9 2.9 2.4 3.8 3.1 3.5 2.9 0.7 0.1 0.5 0.6 0.3 0.0 0.0 0.1 0.0 0.0 0.2 0.0 0.5 0.8 0.4 0.8 0.9 0.8
0.0 0.0 0.0 0.0 0.0 0.0 0.0 0.0 0.0 0.0 0.0 0.0 0.0 0.0 0.4 0.9 2.6 3.3 3.6 2.2 0.4 0.5 0.6 0.6 0.8 0.0 0.0 0.0 0.3 1.0 1.5 0.8 0.9 4.0 4.2 1.5 0.1 0.1 0.0 0.1 0.3 1.4 1.4 0.7 0.4 0.3 0.4 0.4 0.2 0.6 0.6 0.4 0.6 0.4
0.0 0.0 0.0 0.0 0.0 0.0 0.0 0.0 0.0 0.0 0.0 0.0 0.0 0.0 0.7 1.0 1.4 1.1 1.1 0.9 0.2 0.1 0.0 0.0 0.3 0.6 0.1 0.7 0.6 1.5 0.1 0.4 3.1 2.2 1.9 0.1 0.1 0.0 0.0 0.0 0.0 0.0 0.6 1.2 2.0 1.4 1.3 1.5 1.0 1.1 0.7 0.3 0.0 0.0
0.0 0.0 0.0 0.0 0.0 0.0 0.0 0.0 0.0 0.0 0.0 0.0 0.0 0.0 0.0 0.0 0.1 0.1 0.0 0.1 0.0 0.0 0.1 0.0 0.0 0.1 0.6 1.0 0.2 0.8 0.9 3.6 4.2 2.6 1.2 0.5 0.2 0.0 0.0 0.1 0.0 0.0 0.0 0.0 0.2 0.5 1.7 1.6 2.0 1.4 0.7 0.6 0.1 0.0
0.0 0.0 0.0 0.0 0.0 0.0 0.0 0.0 0.0 0.0 0.0 0.0 0.0 0.0 0.0 0.0 0.0 0.0 0.0 0.0 0.0 0.0 0.2 0.3 0.4 0.8 0.4 1.4 0.8 0.4 1.2 2.5 2.8 1.0 0.0 0.0 0.0 0.0 0.1 0.0 0.1 0.0 0.0 0.0 0.0 0.0 0.4 0.5 1.1 1.1 0.2 0.5 0.5 0.0
0.0 0.0 0.0 0.0 0.0 0.0 0.0 0.0 0.0 0.0 0.0 0.0 0.0 0.0 0.0 0.0 0.0 0.0 0.0 0.0 0.0 0.2 1.3 1.6 2.3 0.1 0.3 0.7 0.3 0.1 0.2 0.2 0.2 0.0 0.0 0.0 0.0 0.0 0.3 0.0 0.0 0.0 0.0 0.0 0.2 0.2 0.7 0.3 1.3 1.9 1.2 0.5 0.5 0.7
0.0 0.0 0.0 0.0 0.0 0.0 0.0 0.0 0.0 0.0 0.0 0.0 0.0 0.0 0.0 0.0 0.0 0.0 0.0 0.0 0.0 0.1 1.7 4.6 2.7 1.8 0.5 0.2 0.0 0.1 0.0 0.0 0.0 0.0 0.0 0.0 0.0 0.0 0.3 0.0 0.0 0.1 0.7 1.7 1.7 1.7 1.4 1.3 1.7 1.4 0.3 0.5 0.7 0.7
0.0 0.0 0.0 0.0 0.0 0.0 0.9 0.6 0.0 0.0 0.0 0.0 0.0 0.0 0.0 0.0 0.0 0.0 0.1 0.0 0.0 0.1 0.9 2.2 2.9 0.7 0.0 0.0 0.0 0.0 0.0 0.0 0.0 0.0 0.0 0.0 0.0 0.0 0.1 0.6 0.6 0.0 0.4 1.2 0.8 1.0 0.6 0.2 0.0 0.5 0.6 0.2 0.7 0.4
0.0 0.0 0.0 0.0 0.0 0.3 1.5 0.4 0.1 0.0 0.0 0.0 0.0 0.0 0.0 0.0 0.1 0.0 0.1 0.0 0.2 0.2 0.2 1.0 0.0 0.1 0.1 0.4 0.5 0.4 0.0 0.0 0.0 0.0 0.0 0.0 0.0 0.0 0.0 0.0 0.0 0.2 0.0 0.4 0.3 0.1 0.6 0.3 0.1 0.6 0.5 0.3 0.7 0.6
0.0 0.0 0.0 0.0 0.9 0.9 1.1 0.1 0.0 0.0 0.0 0.0 0.0 0.0 0.0 0.0 0.0 0.0 0.2 0.1 0.6 0.4 0.0 0.2 0.0 0.0 0.4 0.4 0.2 0.4 0.1 0.1 0.0 0.0 0.0 0.0 0.0 0.0 0.0 0.0 0.0 0.1 0.0 0.0 0.1 0.0 0.3 0.2 0.1 0.0 0.4 0.2 0.1 0.9
0.2 0.0 3.8 2.4 2.3 2.2 1.3 0.1 0.0 0.0 0.0 0.0 0.1 0.0 0.0 0.0 0.0 0.0 0.1 0.4 0.0 0.0 0.2 0.3 0.0 0.0 0.0 0.0 0.6 0.4 0.5 0.0 0.1 0.0 0.0 0.0 0.0 0.0 0.0 0.0 0.0 0.0 0.0 0.0 0.0 0.0 0.0 0.0 0.2 0.0 0.4 0.4 0.1 1.1
0.0 1.4 5.4 3.9 3.3 3.6 2.1 0.3 0.3 0.1 0.1 0.1 0.1 0.1 0.0 0.0 0.0 0.0 0.0 0.0 0.0 0.0 0.0 0.0 0.0 1.0 1.4 1.2 1.4 1.1 0.6 0.1 0.0 0.0 0.1 0.0 0.0 0.0 0.0 0.0 0.0 0.0 0.0 0.0 0.0 0.0 0.0 0.0 0.0 0.0 0.0 0.5 0.2 0.1
0.0 5.9 7.6 4.9 2.5 2.0 1.2 0.5 0.5 0.0 0.2 0.2 0.2 0.0 0.0 0.0 0.2 0.0 0.0 0.0 0.0 0.0 0.0 0.0 0.0 0.0 0.0 0.8 1.2 1.9 2.3 1.6 0.5 0.0 0.6 0.3 0.0 0.0 0.0 0.0 0.0 0.0 0.0 0.0 0.0 0.0 0.0 0.0 0.0 0.0 0.0 0.0 0.0 0.1
12.7 14.1 6.7 6.4 2.4 1.2 0.4 0.5 0.3 0.4 0.1 0.3 0.1 0.0 0.0 0.1 0.0 0.0 0.0 0.0 0.0 0.0 0.0 0.0 0.0 0.0 0.0 0.0 0.7 0.9 1.1 1.5 2.5 2.5 0.3 1.7 0.8 0.2 0.0 0.0 0.2 0.1 0.0 0.0 0.0 0.0 0.0 0.0 0.0 0.0 0.0 0.0 0.0 0.2
14.5 8.0 3.5 0.4 0.3 0.1 0.0 0.1 0.1 0.1 0.0 0.2 0.3 0.0 0.0 0.0 0.1 0.0 0.0 0.0 0.0 0.0 0.0 0.0 0.0 0.0 0.0 0.0 0.0 0.9 1.1 1.2 1.0 1.6 0.3 2.0 1.8 2.4 1.9 1.5 0.9 0.4 0.0 0.0 0.3 0.3 0.1 0.0 0.0 0.0 0.0 0.1 0.0 0.0
7.7 2.2 0.1 0.2 0.1 0.1 0.2 0.1 0.1 0.2 0.2 0.2 0.1 0.1 0.0 0.3 0.0 0.0 0.0 0.0 0.0 0.0 0.0 0.0 0.0 0.0 0.0 0.0 0.0 0.0 0.9 1.3 1.2 0.5 0.3 1.6 1.3 0.9 0.6 1.8 1.4 0.9 0.6 1.1 1.0 0.9 0.9 0.5 0.3 0.2 0.5 0.3 0.3 0.3
1.2 0.0 0.0 0.1 0.1 0.1 0.1 0.1 0.4 0.2 0.3 0.0 0.3 0.3 0.4 0.0 0.0 0.0 0.0 0.0 0.0 0.0 0.0 0.0 0.0 0.0 0.0 0.0 0.0 0.6 0.9 1.2 1.2 0.8 1.7 1.8 1.5 1.2 1.0 1.1 2.3 2.4 2.3 1.7 1.2 1.7 1.9 1.5 1.4 1.7 1.4 0.7 0.9 0.7
0.3 0.0 0.0 0.1 0.1 0.0 0.3 0.3 0.3 0.2 0.1 0.0 0.0 0.0 0.0 0.0 0.0 0.0 0.0 0.0 0.0 0.0 0.0 0.0 0.0 0.0 0.0 0.0 0.0 0.6 0.8 1.3 1.9 1.8 1.3 1.3 1.6 1.8 1.8 3.2 3.9 5.0 4.8 4.5 3.0 2.5 2.3 2.3 3.5 3.3 2.9 2.9 2.4 2.6
0.2 0.0 0.0 0.0 0.1 0.2 0.1 0.1 0.0 0.2 0.2 0.0 0.0 0.1 0.1 0.0 0.0 0.0 0.0 0.0 0.0 0.0 0.0 0.0 0.0 0.0 0.0 0.0 0.0 0.7 0.7 0.7 1.4 1.5 1.5 1.3 1.4 1.7 3.0 3.7 4.9 5.5 5.8 5.2 6.4 7.2 5.0 5.8 6.7 7.1 6.6 6.1 5.6 4.8
0.0 0.0 0.1 0.1 0.1 0.5 0.5 0.3 0.2 0.0 0.2 0.1 0.0 0.0 0.0 0.0 0.0 0.0 0.0 0.0 0.0 0.0 0.0 0.0 0.0 0.2 0.3 0.6 0.9 1.2 1.1 1.1 1.2 1.9 2.1 2.5 2.3 3.1 3.0 4.6 4.8 5.6 6.3 6.4 6.1 5.8 5.3 5.0 4.4 4.3 4.8 4.4 4.2 3.7
0.0 0.1 0.0 0.5 0.8 1.4 1.2 0.7 0.3 0.0 0.2 0.1 0.0 0.0 0.0 0.0 0.0 0.0 0.0 0.0 0.0 0.0 0.0 0.0 0.5 0.8 0.9 1.2 1.6 1.8 2.5 2.8 1.7 2.6 2.6 2.6 3.1 2.8 4.2 4.9 5.8 6.1 7.0 7.0 6.3 5.9 5.7 5.5 6.2 5.9 6.2 6.4 6.1 5.4
1.4 0.8 0.7 0.4 1.9 2.0 1.7 1.0 0.6 0.3 0.2 0.0 0.0 0.0 0.0 0.0 0.0 0.0 0.0 0.0 0.0 0.0 0.0 0.8 1.0 1.3 2.2 2.6 2.4 3.5 3.7 3.1 4.2 4.1 4.7 4.6 4.2 4.7 6.0 6.0 6.6 6.7 6.7 6.7 7.2 7.8 8.1 7.6 7.2 6.8 6.5 6.2 6.1 5.8

GFSWCAN_prec_kuchsnow_078.txt.gz
Snowfall_Accumulation
0.0 0.0 0.0 0.0 0.0 0.0 0.0 0.0 0.0 0.0 0.0 0.0 0.0 0.0 0.0 0.0 0.0 0.0 0.0 0.0 0.0 0.0 0.0 0.0 0.0 0.0 0.0 0.0 0.0 0.0 0.0 0.0 0.0 0.2 0.0 0.0 0.0 0.0 0.0 0.0 0.0 0.0 0.1 0.1 0.3 0.6 0.0 0.0 0.0 0.0 0.0 0.0 0.0 0.0
0.0 0.0 0.0 0.0 0.0 0.0 0.0 0.0 0.0 0.0 0.0 0.0 0.0 0.0 0.0 0.0 0.0 0.0 0.0 0.0 0.0 0.0 0.0 0.0 0.0 0.0 0.0 0.0 0.0 0.0 0.0 0.0 0.0 0.0 0.0 0.0 0.0 0.0 0.0 0.0 0.0 0.0 0.0 0.0 0.0 0.0 0.0 0.0 0.0 0.0 0.0 0.0 0.0 0.0
0.0 0.0 0.0 0.0 0.0 0.0 0.0 0.0 0.0 0.0 0.0 0.0 0.0 0.0 0.0 0.0 0.0 0.0 0.0 0.0 0.0 0.1 0.0 0.0 0.0 0.0 0.0 0.0 0.0 0.0 0.0 0.0 0.0 0.0 0.0 0.0 0.0 0.0 0.0 0.0 0.0 0.0 0.0 0.0 0.0 0.0 0.0 0.0 0.0 0.0 0.0 0.0 0.0 0.0
0.0 0.0 0.0 0.0 0.0 0.0 0.0 0.0 0.0 0.0 0.0 0.0 0.0 0.0 0.0 0.0 0.0 0.0 0.0 0.0 0.0 0.1 0.8 0.1 0.0 0.0 0.0 0.0 0.0 0.0 0.0 0.0 0.0 0.0 0.0 0.0 0.0 0.0 0.0 0.0 0.0 0.0 0.0 0.0 0.0 0.0 0.0 0.0 0.0 0.0 0.0 0.0 0.0 0.0
0.0 0.0 0.0 0.0 0.0 0.0 0.0 0.0 0.0 0.0 0.0 0.0 0.0 0.0 0.0 0.0 0.0 0.0 0.0 0.0 0.0 0.1 1.6 0.2 0.0 0.0 0.0 0.0 0.0 0.0 0.0 0.0 0.2 0.1 0.6 0.3 0.0 0.0 0.0 0.0 0.0 0.0 0.0 0.0 0.0 0.0 0.0 0.0 0.0 0.0 0.0 0.0 0.0 0.0
0.0 0.0 0.0 0.0 0.0 0.0 0.0 0.0 0.0 0.0 0.0 0.0 0.0 0.0 0.0 0.0 0.0 0.0 0.0 0.0 0.0 0.0 2.0 1.7 0.0 0.0 0.0 0.0 0.0 0.0 0.0 0.0 0.0 0.4 1.1 0.0 0.0 0.0 0.4 0.0 0.0 0.0 0.0 0.0 0.0 0.0 0.0 0.0 0.0 0.0 0.0 0.0 0.0 0.0
0.0 0.0 0.0 0.0 0.0 0.0 0.0 0.0 0.0 0.0 0.0 0.0 0.0 0.0 0.0 0.0 0.0 0.0 0.0 0.0 0.0 0.0 0.8 3.6 3.3 0.0 0.0 0.0 0.0 0.0 0.0 0.0 0.4 1.2 0.8 0.0 0.0 0.7 0.8 0.2 0.0 0.0 0.0 0.0 0.0 0.0 0.0 0.0 0.0 0.0 0.0 0.0 0.0 0.0
0.0 0.0 0.0 0.0 0.0 0.0 0.0 0.0 0.0 0.0 0.0 0.0 0.0 0.0 0.0 0.0 0.0 0.0 0.0 0.0 0.0 0.0 1.8 9.6 6.7 1.5 0.0 0.2 0.0 0.0 0.0 0.0 0.1 0.4 0.0 0.0 0.0 0.9 1.1 0.0 0.0 0.0 0.0 0.0 0.0 0.0 0.0 0.0 0.0 0.0 0.0 0.0 0.0 0.0
0.0 0.0 0.0 0.0 0.0 0.0 0.0 0.0 0.0 0.0 0.0 0.0 0.0 0.0 0.0 0.0 0.0 0.0 0.0 0.0 0.0 0.0 6.1 5.6 7.1 4.0 0.0 0.0 0.0 0.1 0.0 2.3 0.0 0.7 0.0 0.0 0.4 2.5 0.0 0.1 0.1 0.0 0.1 0.0 0.0 0.0 0.0 0.0 0.0 0.0 0.0 0.0 0.0 0.0
0.0 0.0 0.0 0.0 0.0 0.0 0.0 0.0 0.0 0.0 0.0 0.0 0.0 0.0 0.3 0.0 0.0 0.0 0.0 0.3 2.2 1.6 2.2 5.2 2.8 5.4 1.2 1.6 0.7 0.7 0.7 1.4 3.0 0.0 0.0 0.5 0.0 0.0 0.0 0.0 0.0 0.0 0.0 0.1 0.0 1.8 0.9 0.7 0.0 0.0 0.0 0.0 0.0 0.0
0.0 0.0 0.0 0.0 0.0 0.0 0.0 0.0 0.0 0.0 0.0 0.0 0.0 0.0 0.0 0.0 0.0 0.0 3.4 4.4 2.0 2.0 1.2 1.8 2.8 3.0 0.0 3.6 2.1 0.1 4.1 1.6 3.6 3.1 0.9 1.9 1.4 0.6 0.0 0.1 0.0 0.0 0.0 0.0 0.0 0.0 0.2 0.7 1.0 0.4 0.2 0.1 0.0 0.0
0.0 0.0 0.0 0.0 0.0 0.0 0.0 0.0 0.0 0.0 0.0 0.0 0.0 0.0 0.0 0.3 2.4 4.1 4.4 2.4 0.9 0.8 0.6 1.5 0.7 0.3 0.3 0.0 1.3 0.9 2.9 2.4 3.8 3.1 3.5 2.9 0.7 0.1 0.5 0.6 0.3 0.0 0.0 0.1 0.0 0.0 0.2 0.0 0.5 0.8 0.4 0.8 0.9 0.8
0.0 0.0 0.0 0.0 0.0 0.0 0.0 0.0 0.0 0.0 0.0 0.0 0.0 0.0 0.4 0.9 2.6 3.3 3.6 2.2 0.4 0.5 0.6 0.6 0.8 0.0 0.0 0.0 0.3 1.0 1.5 0.8 0.9 4.0 4.2 1.5 0.1 0.1 0.0 0.1 0.3 1.4 1.4 0.7 0.4 0.3 0.4 0.4 0.2 0.6 0.6 0.4 0.6 0.4
0.0 0.0 0.0 0.0 0.0 0.0 0.0 0.0 0.0 0.0 0.0 0.0 0.0 0.0 0.7 1.0 1.4 1.1 1.1 0.9 0.2 0.1 0.0 0.0 0.3 0.6 0.1 0.7 0.6 1.5 0.1 0.4 3.1 2.2 1.9 0.1 0.1 0.0 0.0 0.0 0.0 0.0 0.6 1.2 2.0 1.4 1.3 1.5 1.0 1.1 0.7 0.3 0.0 0.0
0.0 0.0 0.0 0.0 0.0 0.0 0.0 0.0 0.0 0.0 0.0 0.0 0.0 0.0 0.0 0.0 0.1 0.1 0.0 0.1 0.0 0.0 0.1 0.0 0.0 0.1 0.6 1.0 0.2 0.8 1.0 3.6 4.2 2.6 1.2 0.5 0.2 0.0 0.0 0.1 0.0 0.0 0.0 0.0 0.2 0.5 1.7 1.6 2.0 1.4 0.7 0.6 0.1 0.0
0.0 0.0 0.0 0.0 0.0 0.0 0.0 0.0 0.0 0.0 0.0 0.0 0.0 0.0 0.0 0.0 0.0 0.0 0.0 0.0 0.0 0.0 0.2 0.3 0.4 0.8 0.4 1.4 0.8 0.4 1.2 2.5 2.8 1.0 0.0 0.0 0.0 0.0 0.1 0.0 0.1 0.0 0.0 0.0 0.0 0.0 0.4 0.5 1.1 1.1 0.2 0.5 0.5 0.0
0.0 0.0 0.0 0.0 0.0 0.0 0.0 0.0 0.0 0.4 0.3 0.0 0.0 0.0 0.0 0.0 0.0 0.0 0.0 0.0 0.0 0.2 1.3 1.6 2.3 0.1 0.3 0.7 0.3 0.1 0.2 0.2 0.2 0.0 0.0 0.0 0.0 0.0 0.3 0.0 0.0 0.0 0.0 0.0 0.2 0.2 0.7 0.3 1.3 1.9 1.2 0.5 0.5 0.7
0.0 0.0 0.0 0.0 0.0 0.0 0.0 0.0 0.0 1.4 1.0 0.0 0.0 0.0 0.0 0.0 0.0 0.0 0.0 0.0 0.0 0.1 1.7 4.6 2.7 1.8 0.5 0.2 0.0 0.1 0.0 0.0 0.0 0.0 0.0 0.0 0.0 0.0 0.3 0.0 0.0 0.1 0.7 1.7 1.7 1.7 1.4 1.3 1.7 1.4 0.3 0.5 0.7 0.7
0.0 0.0 0.0 0.0 0.0 0.0 0.9 1.6 1.4 1.6 0.0 0.0 0.0 0.0 0.0 0.0 0.0 0.0 0.1 0.0 0.0 0.1 0.9 2.2 2.9 0.7 0.0 0.0 0.0 0.0 0.0 0.0 0.0 0.0 0.0 0.0 0.0 0.0 0.1 0.6 0.6 0.0 0.4 1.2 0.8 1.0 0.6 0.2 0.0 0.5 0.6 0.2 0.7 0.4
0.0 0.0 0.0 0.0 0.0 0.3 1.9 1.4 0.5 0.1 0.0 0.0 0.0 0.0 0.0 0.0 0.1 0.0 0.1 0.0 0.2 0.2 0.2 1.0 0.0 0.1 0.1 0.4 0.5 0.4 0.0 0.0 0.0 0.0 0.0 0.0 0.0 0.0 0.0 0.0 0.0 0.2 0.0 0.4 0.3 0.1 0.6 0.3 0.1 0.6 0.5 0.3 0.7 0.6
0.0 0.0 0.0 0.0 0.9 2.0 1.6 0.5 0.1 0.0 0.0 0.0 0.0 0.0 0.0 0.0 0.0 0.0 0.2 0.1 0.6 0.4 0.0 0.2 0.0 0.0 0.4 0.4 0.2 0.4 0.1 0.1 0.0 0.0 0.0 0.0 0.0 0.0 0.0 0.0 0.0 0.1 0.0 0.0 0.1 0.0 0.3 0.2 0.1 0.0 0.4 0.2 0.1 0.9
0.2 0.0 3.8 2.4 6.4 6.0 3.1 0.8 0.0 0.0 0.0 0.0 0.1 0.0 0.0 0.0 0.0 0.0 0.1 0.4 0.0 0.0 0.2 0.3 0.0 0.0 0.0 0.0 0.6 0.4 0.5 0.0 0.1 0.0 0.0 0.0 0.0 0.0 0.0 0.0 0.0 0.0 0.0 0.0 0.0 0.0 0.0 0.0 0.2 0.0 0.4 0.4 0.1 1.1
0.0 1.4 8.2 8.9 9.6 8.0 5.1 0.9 0.5 0.2 0.1 0.1 0.1 0.1 0.0 0.0 0.0 0.0 0.0 0.0 0.0 0.0 0.0 0.0 0.0 1.0 1.4 1.2 1.4 1.1 0.6 0.1 0.0 0.0 0.1 0.0 0.0 0.0 0.0 0.0 0.0 0.0 0.0 0.0 0.0 0.0 0.0 0.0 0.0 0.0 0.0 0.5 0.2 0.1
0.0 8.1 12.5 11.4 7.0 5.9 3.8 2.7 1.2 0.2 0.2 0.2 0.2 0.1 0.0 0.0 0.2 0.0 0.1 0.0 0.0 0.0 0.0 0.0 0.0 0.0 0.0 0.8 1.2 1.9 2.3 1.6 0.5 0.0 0.6 0.3 0.0 0.0 0.0 0.0 0.0 0.0 0.0 0.0 0.0 0.0 0.0 0.0 0.0 0.0 0.0 0.0 0.0 0.1
16.0 19.4 11.4 12.2 6.6 3.5 2.2 1.9 1.1 0.7 0.1 0.4 0.2 0.0 0.0 0.1 0.0 0.0 0.1 0.0 0.0 0.0 0.0 0.0 0.0 0.0 0.0 0.0 0.7 0.9 1.1 1.5 2.5 2.5 0.3 1.7 0.8 0.2 0.0 0.0 0.2 0.1 0.0 0.0 0.0 0.0 0.0 0.0 0.0 0.0 0.0 0.0 0.1 0.2
19.1 13.3 7.7 3.7 2.5 1.0 0.5 0.5 0.4 0.1 0.0 0.2 0.4 0.0 0.0 0.0 0.1 0.0 0.0 0.0 0.0 0.0 0.0 0.0 0.0 0.0 0.0 0.0 0.0 0.9 1.1 1.2 1.0 1.6 0.3 2.0 1.8 2.4 1.9 1.5 0.9 0.4 0.0 0.0 0.3 0.3 0.1 0.0 0.0 0.0 0.0 0.1 0.0 0.0
12.1 6.7 2.0 0.8 0.1 0.4 0.3 0.1 0.1 0.2 0.2 0.4 0.1 0.2 0.1 0.4 0.0 0.0 0.0 0.0 0.0 0.0 0.0 0.0 0.0 0.0 0.0 0.0 0.0 0.0 0.9 1.3 1.2 0.5 0.3 1.6 1.3 0.9 0.6 1.8 1.4 0.9 0.6 1.1 1.0 0.9 0.9 0.5 0.3 0.2 0.5 0.3 0.3 0.3
3.8 0.9 0.0 0.1 0.1 0.1 0.1 0.1 0.4 0.2 0.3 0.1 0.3 0.4 0.6 0.1 0.0 0.0 0.0 0.0 0.0 0.0 0.0 0.0 0.0 0.0 0.0 0.0 0.0 0.6 0.9 1.2 1.2 0.8 1.7 1.8 1.5 1.2 1.0 1.1 2.3 2.4 2.3 1.7 1.2 1.7 1.9 1.5 1.4 1.7 1.4 0.7 0.9 0.7
0.6 0.1 0.0 0.1 0.1 0.0 0.3 0.3 0.3 0.2 0.1 0.0 0.0 0.0 0.0 0.0 0.0 0.0 0.0 0.0 0.0 0.0 0.0 0.0 0.0 0.0 0.0 0.0 0.0 0.6 0.8 1.3 1.9 1.8 1.3 1.3 1.6 1.8 1.8 3.2 3.9 5.0 4.8 4.5 3.0 2.5 2.3 2.4 3.5 3.3 2.9 2.9 2.4 2.6
0.2 0.0 0.0 0.0 0.1 0.2 0.1 0.1 0.0 0.2 0.2 0.0 0.0 0.2 0.1 0.0 0.0 0.0 0.0 0.0 0.0 0.0 0.0 0.0 0.0 0.0 0.0 0.0 0.0 0.7 0.7 0.7 1.4 1.5 1.5 1.3 1.4 1.7 3.0 3.7 4.9 5.5 5.8 5.2 6.4 7.2 5.0 5.8 6.7 7.1 6.6 6.1 5.6 4.8
0.0 0.0 0.1 0.1 0.1 0.5 0.5 0.3 0.2 0.0 0.2 0.1 0.1 0.1 0.1 0.1 0.0 0.0 0.0 0.0 0.0 0.0 0.0 0.0 0.0 0.2 0.3 0.6 0.9 1.2 1.1 1.1 1.2 1.9 2.1 2.5 2.3 3.1 3.0 4.6 4.8 5.6 6.3 6.4 6.1 5.8 5.3 5.0 4.4 4.3 4.8 4.4 4.2 3.7
0.0 0.1 0.0 0.5 0.8 1.6 1.4 0.7 0.3 0.0 0.2 0.2 0.1 0.1 0.1 0.0 0.0 0.0 0.0 0.0 0.0 0.0 0.0 0.0 0.5 0.8 0.9 1.2 1.6 1.8 2.5 2.8 1.7 2.6 2.6 2.6 3.1 2.8 4.2 4.9 5.8 6.1 7.0 7.0 6.3 5.9 5.7 5.5 6.2 5.9 6.2 6.4 6.1 5.4
1.4 0.8 0.7 0.4 2.2 2.1 1.7 1.0 1.0 0.7 0.6 0.3 0.1 0.1 0.0 0.0 0.0 0.0 0.0 0.0 0.0 0.0 0.0 0.8 1.0 1.3 2.2 2.6 2.4 3.5 3.7 3.1 4.2 4.1 4.7 4.6 4.2 4.7 6.0 6.0 6.6 6.7 6.7 6.7 7.2 7.8 8.1 7.6 7.2 6.8 6.5 6.2 6.1 5.8

GFSWCAN_prec_kuchsnow_084.txt.gz
Snowfall_Accumulation
0.0 0.0 0.0 0.0 0.0 0.0 0.0 0.0 0.0 0.0 0.0 0.0 0.0 0.0 0.0 0.0 0.0 0.0 0.0 0.0 0.0 0.0 0.0 0.0 0.0 0.0 0.0 0.0 0.0 0.0 0.0 0.0 0.0 0.2 0.0 0.0 0.0 0.0 0.0 0.0 0.0 0.0 0.1 0.1 0.3 0.6 0.0 0.0 0.0 0.0 0.0 0.0 0.0 0.0
0.0 0.0 0.0 0.0 0.0 0.0 0.0 0.0 0.0 0.0 0.0 0.0 0.0 0.0 0.0 0.0 0.0 0.0 0.0 0.0 0.0 0.0 0.0 0.0 0.0 0.0 0.0 0.0 0.0 0.0 0.0 0.0 0.0 0.0 0.0 0.0 0.0 0.0 0.0 0.0 0.0 0.0 0.0 0.0 0.0 0.0 0.0 0.0 0.0 0.0 0.0 0.0 0.0 0.0
0.0 0.0 0.0 0.0 0.0 0.0 0.0 0.0 0.0 0.0 0.0 0.0 0.0 0.0 0.0 0.0 0.0 0.0 0.0 0.0 0.0 0.1 0.0 0.0 0.0 0.0 0.0 0.0 0.0 0.0 0.0 0.0 0.0 0.0 0.0 0.0 0.0 0.0 0.0 0.0 0.0 0.0 0.0 0.0 0.0 0.0 0.0 0.0 0.0 0.0 0.0 0.0 0.0 0.0
0.0 0.0 0.0 0.0 0.0 0.0 0.0 0.0 0.0 0.0 0.0 0.0 0.0 0.0 0.0 0.0 0.0 0.0 0.0 0.0 0.0 0.1 0.8 0.1 0.0 0.0 0.0 0.0 0.0 0.0 0.0 0.0 0.0 0.0 0.0 0.0 0.0 0.0 0.0 0.0 0.0 0.0 0.0 0.0 0.0 0.0 0.0 0.0 0.0 0.0 0.0 0.0 0.0 0.0
0.0 0.0 0.0 0.0 0.0 0.0 0.0 0.0 0.0 0.0 0.0 0.0 0.0 0.0 0.0 0.0 0.0 0.0 0.0 0.0 0.0 0.1 1.6 0.2 0.0 0.0 0.0 0.0 0.0 0.0 0.0 0.0 0.2 0.1 0.6 0.3 0.0 0.0 0.0 0.0 0.0 0.0 0.0 0.0 0.0 0.0 0.0 0.0 0.0 0.0 0.0 0.0 0.0 0.0
0.0 0.0 0.0 0.0 0.0 0.0 0.0 0.0 0.0 0.0 0.0 0.0 0.0 0.0 0.0 0.0 0.0 0.0 0.0 0.0 0.0 0.0 2.0 1.7 0.0 0.0 0.0 0.0 0.0 0.0 0.0 0.0 0.0 0.4 1.1 0.0 0.0 0.0 0.4 0.0 0.0 0.0 0.0 0.0 0.0 0.0 0.0 0.0 0.0 0.0 0.0 0.0 0.0 0.0
0.0 0.0 0.0 0.0 0.0 0.0 0.0 0.0 0.0 0.0 0.0 0.0 0.0 0.0 0.0 0.0 0.0 0.0 0.0 0.0 0.0 0.0 0.8 3.6 3.3 0.0 0.0 0.0 0.0 0.0 0.0 0.0 0.4 1.2 0.8 0.0 0.0 0.7 0.8 0.2 0.0 0.0 0.0 0.0 0.0 0.0 0.0 0.0 0.0 0.0 0.0 0.0 0.0 0.0
0.0 0.0 0.0 0.0 0.0 0.0 0.0 0.0 0.0 0.0 0.0 0.0 0.0 0.0 0.0 0.0 0.0 0.0 0.0 0.0 0.0 0.0 1.8 9.6 6.7 1.5 0.0 0.2 0.0 0.0 0.0 0.0 0.1 0.4 0.0 0.0 0.0 0.9 1.1 0.0 0.0 0.0 0.0 0.0 0.0 0.0 0.0 0.0 0.0 0.0 0.0 0.0 0.0 0.0
0.0 0.0 0.0 0.0 0.0 0.0 0.0 0.0 0.0 0.0 0.0 0.0 0.0 0.0 0.0 0.0 0.0 0.0 0.0 0.0 0.0 0.0 6.1 5.6 7.1 4.0 0.0 0.0 0.0 0.1 0.0 2.3 0.0 0.7 0.0 0.0 0.4 2.5 0.0 0.1 0.1 0.0 0.1 0.0 0.0 0.0 0.0 0.0 0.0 0.0 0.0 0.0 0.0 0.0
0.0 0.0 0.0 0.0 0.0 0.0 0.0 0.0 0.0 0.0 0.0 0.0 0.0 0.0 0.3 0.0 0.0 0.0 0.0 0.3 2.2 1.6 2.2 5.2 2.8 5.4 1.2 1.6 0.7 0.7 0.7 1.4 3.0 0.0 0.0 0.5 0.0 0.0 0.0 0.0 0.0 0.0 0.0 0.1 0.0 1.8 0.9 0.7 0.0 0.0 0.0 0.0 0.0 0.0
0.0 0.0 0.0 0.0 0.0 0.0 0.0 0.0 0.0 0.0 0.0 0.0 0.0 0.0 0.0 0.0 0.0 0.0 3.4 4.4 2.0 2.0 1.2 1.8 2.8 3.0 0.0 3.6 2.1 0.1 4.1 1.6 3.6 3.1 0.9 1.9 1.4 0.6 0.0 0.1 0.0 0.0 0.0 0.0 0.0 0.0 0.2 0.7 1.0 0.4 0.2 0.1 0.0 0.0
0.0 0.0 0.0 0.0 0.0 0.0 0.0 0.0 0.0 0.0 0.0 0.0 0.0 0.0 0.0 0.3 2.4 4.1 4.4 2.4 0.9 0.8 0.6 1.5 0.7 0.3 0.3 0.0 1.3 0.9 2.9 2.4 3.8 3.1 3.5 2.9 0.7 0.1 0.5 0.6 0.3 0.0 0.0 0.1 0.0 0.0 0.2 0.0 0.5 0.8 0.4 0.8 0.9 0.8
0.0 0.0 0.0 0.0 0.0 0.0 0.0 0.0 0.0 0.0 0.0 0.0 0.0 0.0 0.4 0.9 2.6 3.3 3.6 2.2 0.4 0.5 0.6 0.6 0.8 0.0 0.0 0.0 0.3 1.0 1.5 0.8 0.9 4.0 4.2 1.5 0.1 0.1 0.0 0.1 0.3 1.4 1.4 0.7 0.4 0.3 0.4 0.4 0.2 0.6 0.6 0.4 0.6 0.4
0.0 0.0 0.0 0.0 0.0 0.0 0.0 0.0 0.0 0.0 0.0 0.0 0.0 0.0 0.7 1.0 1.4 1.1 1.1 0.9 0.2 0.1 0.0 0.0 0.3 0.6 0.1 0.7 0.6 1.5 0.1 0.4 3.1 2.2 1.9 0.1 0.1 0.0 0.0 0.0 0.0 0.0 0.6 1.2 2.0 1.4 1.3 1.5 1.0 1.1 0.7 0.3 0.0 0.0
0.0 0.0 0.0 0.0 0.0 0.0 0.0 0.0 0.0 0.0 0.0 0.0 0.0 0.0 0.0 0.0 0.1 0.1 0.0 0.1 0.0 0.0 0.1 0.0 0.0 0.1 0.6 1.0 0.2 0.8 1.0 3.6 4.2 2.6 1.2 0.5 0.2 0.0 0.0 0.1 0.0 0.0 0.0 0.0 0.2 0.5 1.7 1.6 2.0 1.4 0.7 0.6 0.1 0.0
0.0 0.0 0.0 0.0 0.0 0.0 0.0 0.0 0.0 0.0 0.0 0.0 0.0 0.0 0.0 0.0 0.0 0.0 0.0 0.0 0.0 0.0 0.2 0.3 0.4 0.8 0.4 1.4 0.8 0.4 1.2 2.5 2.8 1.0 0.0 0.0 0.0 0.0 0.1 0.0 0.1 0.0 0.0 0.0 0.0 0.0 0.4 0.5 1.1 1.1 0.2 0.5 0.5 0.0
0.0 0.0 0.0 0.0 0.0 0.0 0.0 0.0 0.0 0.4 0.3 0.0 0.0 0.0 0.0 0.0 0.0 0.0 0.0 0.0 0.0 0.2 1.3 1.6 2.3 0.1 0.3 0.7 0.3 0.1 0.2 0.2 0.2 0.0 0.0 0.0 0.0 0.0 0.3 0.0 0.0 0.0 0.0 0.0 0.2 0.2 0.7 0.3 1.3 1.9 1.2 0.5 0.5 0.7
0.0 0.0 0.0 0.0 0.0 0.0 0.0 0.0 0.0 2.1 1.6 0.1 0.0 0.0 0.0 0.0 0.0 0.0 0.0 0.0 0.0 0.1 1.7 4.6 2.7 1.8 0.5 0.2 0.0 0.1 0.0 0.0 0.0 0.0 0.0 0.0 0.0 0.0 0.3 0.0 0.0 0.1 0.7 1.7 1.7 1.7 1.4 1.3 1.7 1.4 0.3 0.5 0.7 0.7
0.0 0.0 0.0 0.0 0.0 0.0 0.9 1.6 1.4 2.7 0.0 0.0 0.0 0.0 0.0 0.0 0.0 0.0 0.1 0.0 0.0 0.1 0.9 2.2 2.9 0.7 0.0 0.0 0.0 0.0 0.0 0.0 0.0 0.0 0.0 0.0 0.0 0.0 0.1 0.6 0.6 0.0 0.4 1.2 0.8 1.0 0.6 0.2 0.0 0.5 0.6 0.2 0.7 0.4
0.0 0.0 0.0 0.0 0.0 0.3 2.2 1.7 0.6 0.3 0.3 0.0 0.0 0.0 0.0 0.0 0.1 0.0 0.1 0.0 0.2 0.2 0.2 1.0 0.0 0.1 0.1 0.4 0.5 0.4 0.0 0.0 0.0 0.0 0.0 0.0 0.0 0.0 0.0 0.0 0.0 0.2 0.0 0.4 0.3 0.1 0.6 0.3 0.1 0.6 0.5 0.3 0.7 0.6
0.0 0.0 0.0 0.0 0.9 2.0 1.6 0.6 0.1 0.0 0.0 0.0 0.0 0.0 0.0 0.0 0.0 0.0 0.2 0.1 0.6 0.4 0.0 0.2 0.0 0.0 0.4 0.4 0.2 0.4 0.1 0.1 0.0 0.0 0.0 0.0 0.0 0.0 0.0 0.0 0.0 0.1 0.0 0.0 0.1 0.0 0.3 0.2 0.1 0.0 0.4 0.2 0.1 0.9
0.2 0.0 3.8 2.4 8.1 7.1 3.6 0.9 0.0 0.0 0.0 0.0 0.1 0.0 0.0 0.0 0.0 0.0 0.1 0.4 0.0 0.0 0.2 0.3 0.0 0.0 0.0 0.0 0.6 0.4 0.5 0.0 0.1 0.0 0.0 0.0 0.0 0.0 0.0 0.0 0.0 0.0 0.0 0.0 0.0 0.0 0.0 0.0 0.2 0.0 0.4 0.4 0.1 1.1
0.0 1.4 12.2 12.9 13.1 11.0 6.9 0.9 0.5 0.2 0.1 0.1 0.1 0.1 0.0 0.0 0.0 0.0 0.0 0.0 0.0 0.0 0.0 0.0 0.0 1.0 1.4 1.2 1.4 1.1 0.6 0.1 0.0 0.0 0.1 0.0 0.0 0.0 0.0 0.0 0.0 0.0 0.0 0.0 0.0 0.0 0.0 0.0 0.0 0.0 0.0 0.5 0.2 0.1
0.0 11.8 16.8 16.1 9.6 7.9 5.1 4.0 2.1 0.2 0.8 0.2 0.2 0.1 0.0 0.0 0.2 0.0 0.1 0.0 0.0 0.0 0.0 0.0 0.0 0.0 0.0 0.8 1.2 1.9 2.3 1.6 0.5 0.0 0.6 0.3 0.0 0.0 0.0 0.0 0.0 0.0 0.0 0.0 0.0 0.0 0.0 0.0 0.0 0.0 0.0 0.0 0.0 0.1
21.9 25.7 16.3 17.1 9.2 4.7 2.8 2.5 1.2 1.1 0.6 0.6 0.2 0.0 0.0 0.1 0.0 0.0 0.1 0.0 0.0 0.0 0.0 0.0 0.0 0.0 0.0 0.0 0.7 0.9 1.1 1.5 2.5 2.5 0.3 1.7 0.8 0.2 0.0 0.0 0.2 0.1 0.0 0.0 0.0 0.0 0.0 0.0 0.0 0.0 0.0 0.0 0.1 0.2
25.5 17.0 9.9 4.7 2.7 1.0 0.5 0.5 0.5 0.2 0.0 0.2 0.4 0.0 0.0 0.0 0.1 0.0 0.0 0.0 0.0 0.0 0.0 0.0 0.0 0.0 0.0 0.0 0.0 0.9 1.1 1.2 1.0 1.6 0.3 2.0 1.8 2.4 1.9 1.5 0.9 0.4 0.0 0.0 0.3 0.3 0.1 0.0 0.0 0.0 0.0 0.1 0.0 0.0
16.7 9.8 3.7 0.8 0.1 0.4 0.3 0.1 0.1 0.2 0.2 0.4 0.1 0.2 0.1 0.4 0.0 0.0 0.0 0.0 0.0 0.0 0.0 0.0 0.0 0.0 0.0 0.0 0.0 0.0 0.9 1.3 1.2 0.5 0.3 1.6 1.3 0.9 0.6 1.8 1.4 0.9 0.6 1.1 1.0 0.9 0.9 0.5 0.3 0.2 0.5 0.3 0.3 0.3
5.4 1.4 0.0 0.2 0.1 0.1 0.1 0.1 0.4 0.2 0.3 0.1 0.3 0.4 0.6 0.1 0.0 0.0 0.0 0.0 0.0 0.0 0.0 0.0 0.0 0.0 0.0 0.0 0.0 0.6 0.9 1.2 1.2 0.8 1.7 1.8 1.5 1.2 1.0 1.1 2.3 2.4 2.3 1.7 1.2 1.7 1.9 1.5 1.4 1.7 1.4 0.7 0.9 0.7
1.1 0.1 0.0 0.1 0.1 0.0 0.3 0.3 0.3 0.2 0.1 0.0 0.0 0.0 0.0 0.0 0.0 0.0 0.0 0.0 0.0 0.0 0.0 0.0 0.0 0.0 0.0 0.0 0.0 0.6 0.8 1.3 1.9 1.8 1.3 1.3 1.6 1.8 1.8 3.2 3.9 5.0 4.8 4.5 3.0 2.5 2.3 2.4 3.5 3.3 2.9 2.9 2.4 2.6
0.4 0.0 0.0 0.0 0.1 0.2 0.1 0.1 0.0 0.2 0.2 0.0 0.0 0.2 0.1 0.0 0.0 0.0 0.0 0.0 0.0 0.0 0.0 0.0 0.0 0.0 0.0 0.0 0.0 0.9 0.7 0.7 1.4 1.5 1.5 1.3 1.4 1.7 3.1 3.7 4.9 5.5 5.8 5.2 6.4 7.2 5.0 5.8 6.7 7.1 6.6 6.1 5.6 4.8
0.0 0.0 0.1 0.1 0.1 0.5 0.5 0.3 0.2 0.0 0.2 0.1 0.1 0.1 0.1 0.1 0.0 0.0 0.0 0.0 0.0 0.0 0.0 0.0 0.0 0.2 0.3 0.6 0.9 1.2 1.1 1.1 1.2 1.9 2.1 2.5 2.3 3.1 3.0 4.6 4.8 5.6 6.3 6.4 6.1 5.8 5.3 5.0 4.4 4.3 4.8 4.4 4.2 3.7
0.0 0.1 0.0 0.5 0.8 1.6 1.4 0.7 0.3 0.0 0.2 0.2 0.1 0.1 0.1 0.0 0.0 0.0 0.0 0.0 0.0 0.0 0.0 0.0 0.5 0.8 0.9 1.2 1.6 1.8 2.5 2.8 1.7 2.6 2.6 2.6 3.1 2.8 4.2 4.9 5.8 6.1 7.0 7.0 6.3 5.9 5.7 5.5 6.2 5.9 6.2 6.4 6.1 5.4
1.4 0.8 0.7 0.4 2.2 2.1 1.7 1.0 1.0 0.7 0.6 0.3 0.1 0.1 0.0 0.0 0.0 0.0 0.0 0.0 0.0 0.0 0.0 0.8 1.0 1.3 2.2 2.6 2.4 3.5 3.7 3.2 4.3 4.2 4.7 4.6 4.2 4.7 6.0 6.0 6.6 6.7 6.7 6.7 7.2 7.8 8.1 7.6 7.2 6.8 6.5 6.2 6.1 5.8

GFSWCAN_prec_kuchsnow_087.txt.gz
Snowfall_Accumulation
0.0 0.0 0.0 0.0 0.0 0.0 0.0 0.0 0.0 0.0 0.0 0.0 0.0 0.0 0.0 0.0 0.0 0.0 0.0 0.0 0.0 0.0 0.0 0.0 0.0 0.0 0.0 0.0 0.0 0.0 0.0 0.0 0.0 0.2 0.0 0.0 0.0 0.0 0.0 0.0 0.0 0.0 0.1 0.1 0.3 0.6 0.0 0.0 0.0 0.0 0.0 0.0 0.0 0.0
0.0 0.0 0.0 0.0 0.0 0.0 0.0 0.0 0.0 0.0 0.0 0.0 0.0 0.0 0.0 0.0 0.0 0.0 0.0 0.0 0.0 0.0 0.0 0.0 0.0 0.0 0.0 0.0 0.0 0.0 0.0 0.0 0.0 0.0 0.0 0.0 0.0 0.0 0.0 0.0 0.0 0.0 0.0 0.0 0.0 0.0 0.0 0.0 0.0 0.0 0.0 0.0 0.0 0.0
0.0 0.0 0.0 0.0 0.0 0.0 0.0 0.0 0.0 0.0 0.0 0.0 0.0 0.0 0.0 0.0 0.0 0.0 0.0 0.0 0.0 0.1 0.0 0.0 0.0 0.0 0.0 0.0 0.0 0.0 0.0 0.0 0.0 0.0 0.0 0.0 0.0 0.0 0.0 0.0 0.0 0.0 0.0 0.0 0.0 0.0 0.0 0.0 0.0 0.0 0.0 0.0 0.0 0.0
0.0 0.0 0.0 0.0 0.0 0.0 0.0 0.0 0.0 0.0 0.0 0.0 0.0 0.0 0.0 0.0 0.0 0.0 0.0 0.0 0.0 0.1 0.8 0.1 0.0 0.0 0.0 0.0 0.0 0.0 0.0 0.0 0.0 0.0 0.0 0.0 0.0 0.0 0.0 0.0 0.0 0.0 0.0 0.0 0.0 0.0 0.0 0.0 0.0 0.0 0.0 0.0 0.0 0.0
0.0 0.0 0.0 0.0 0.0 0.0 0.0 0.0 0.0 0.0 0.0 0.0 0.0 0.0 0.0 0.0 0.0 0.0 0.0 0.0 0.0 0.1 1.6 0.2 0.0 0.0 0.0 0.0 0.0 0.0 0.0 0.0 0.2 0.1 0.6 0.3 0.0 0.0 0.0 0.0 0.0 0.0 0.0 0.0 0.0 0.0 0.0 0.0 0.0 0.0 0.0 0.0 0.0 0.0
0.0 0.0 0.0 0.0 0.0 0.0 0.0 0.0 0.0 0.0 0.0 0.0 0.0 0.0 0.0 0.0 0.0 0.0 0.0 0.0 0.0 0.0 2.0 1.7 0.0 0.0 0.0 0.0 0.0 0.0 0.0 0.0 0.0 0.4 1.1 0.0 0.0 0.0 0.4 0.0 0.0 0.0 0.0 0.0 0.0 0.0 0.0 0.0 0.0 0.0 0.0 0.0 0.0 0.0
0.0 0.0 0.0 0.0 0.0 0.0 0.0 0.0 0.0 0.0 0.0 0.0 0.0 0.0 0.0 0.0 0.0 0.0 0.0 0.0 0.0 0.0 0.8 3.6 3.3 0.0 0.0 0.0 0.0 0.0 0.0 0.0 0.4 1.2 0.8 0.0 0.0 0.7 0.8 0.2 0.0 0.0 0.0 0.0 0.0 0.0 0.0 0.0 0.0 0.0 0.0 0.0 0.0 0.0
0.0 0.0 0.0 0.0 0.0 0.0 0.0 0.0 0.0 0.0 0.0 0.0 0.0 0.0 0.0 0.0 0.0 0.0 0.0 0.0 0.0 0.0 1.8 9.6 6.7 1.5 0.0 0.2 0.0 0.0 0.0 0.0 0.1 0.4 0.0 0.0 0.0 0.9 1.1 0.0 0.0 0.0 0.0 0.0 0.0 0.0 0.0 0.0 0.0 0.0 0.0 0.0 0.0 0.0
0.0 0.0 0.0 0.0 0.0 0.0 0.0 0.0 0.0 0.0 0.0 0.0 0.0 0.0 0.0 0.0 0.0 0.0 0.0 0.0 0.0 0.0 6.1 5.6 7.1 4.0 0.0 0.0 0.0 0.1 0.0 2.3 0.0 0.7 0.0 0.0 0.4 2.5 0.0 0.1 0.1 0.0 0.1 0.0 0.0 0.0 0.0 0.0 0.0 0.0 0.0 0.0 0.0 0.0
0.0 0.0 0.0 0.0 0.0 0.0 0.0 0.0 0.0 0.0 0.0 0.0 0.0 0.0 0.3 0.0 0.0 0.0 0.0 0.3 2.2 1.6 2.2 5.2 2.8 5.4 1.2 1.6 0.7 0.7 0.7 1.4 3.0 0.0 0.0 0.5 0.0 0.0 0.0 0.0 0.0 0.0 0.0 0.1 0.0 1.8 0.9 0.7 0.0 0.0 0.0 0.0 0.0 0.0
0.0 0.0 0.0 0.0 0.0 0.0 0.0 0.0 0.0 0.0 0.0 0.0 0.0 0.0 0.0 0.0 0.0 0.0 3.4 4.4 2.0 2.0 1.2 1.8 2.8 3.0 0.0 3.6 2.1 0.1 4.1 1.6 3.6 3.1 0.9 1.9 1.4 0.6 0.0 0.1 0.0 0.0 0.0 0.0 0.0 0.0 0.2 0.7 1.0 0.4 0.2 0.1 0.0 0.0
0.0 0.0 0.0 0.0 0.0 0.0 0.0 0.0 0.0 0.0 0.0 0.0 0.0 0.0 0.0 0.3 2.4 4.1 4.4 2.4 0.9 0.8 0.6 1.5 0.7 0.3 0.3 0.0 1.3 0.9 2.9 2.4 3.8 3.1 3.5 2.9 0.7 0.1 0.5 0.6 0.3 0.0 0.0 0.1 0.0 0.0 0.2 0.0 0.5 0.8 0.4 0.8 0.9 0.8
0.0 0.0 0.0 0.0 0.0 0.0 0.0 0.0 0.0 0.0 0.0 0.0 0.0 0.0 0.4 0.9 2.6 3.3 3.6 2.2 0.4 0.5 0.6 0.6 0.8 0.0 0.0 0.0 0.3 1.0 1.5 0.8 0.9 4.0 4.2 1.5 0.1 0.1 0.0 0.1 0.3 1.4 1.4 0.7 0.4 0.3 0.4 0.4 0.2 0.6 0.6 0.4 0.6 0.4
0.0 0.0 0.0 0.0 0.0 0.0 0.0 0.0 0.0 0.0 0.0 0.0 0.0 0.0 0.7 1.0 1.4 1.1 1.1 0.9 0.2 0.1 0.0 0.0 0.3 0.6 0.1 0.7 0.6 1.5 0.1 0.4 3.1 2.2 1.9 0.1 0.1 0.0 0.0 0.0 0.0 0.0 0.6 1.2 2.0 1.4 1.3 1.5 1.0 1.1 0.7 0.3 0.0 0.0
0.0 0.0 0.0 0.0 0.0 0.0 0.0 0.0 0.0 0.0 0.0 0.0 0.0 0.0 0.0 0.0 0.1 0.1 0.0 0.1 0.0 0.0 0.1 0.0 0.0 0.1 0.6 1.0 0.2 0.8 1.0 3.6 4.2 2.6 1.2 0.5 0.2 0.0 0.0 0.1 0.0 0.0 0.0 0.0 0.2 0.5 1.7 1.6 2.0 1.4 0.7 0.6 0.1 0.0
0.0 0.0 0.0 0.0 0.0 0.0 0.0 0.0 0.0 0.0 0.0 0.0 0.0 0.0 0.0 0.0 0.0 0.0 0.0 0.0 0.0 0.0 0.2 0.3 0.4 0.8 0.4 1.4 0.8 0.4 1.2 2.5 2.8 1.0 0.0 0.0 0.0 0.0 0.1 0.0 0.1 0.0 0.0 0.0 0.0 0.0 0.4 0.5 1.1 1.1 0.2 0.5 0.5 0.0
0.0 0.0 0.0 0.0 0.0 0.0 0.0 0.0 0.0 0.4 0.3 0.0 0.0 0.0 0.0 0.0 0.0 0.0 0.0 0.0 0.0 0.2 1.3 1.6 2.3 0.1 0.3 0.7 0.3 0.1 0.2 0.2 0.2 0.0 0.0 0.0 0.0 0.0 0.3 0.0 0.0 0.0 0.0 0.0 0.2 0.2 0.7 0.3 1.3 1.9 1.2 0.5 0.5 0.7
0.0 0.0 0.0 0.0 0.0 0.0 0.0 0.0 0.0 2.1 2.0 0.1 0.0 0.0 0.0 0.0 0.0 0.0 0.0 0.0 0.0 0.1 1.7 4.6 2.7 1.8 0.5 0.2 0.0 0.1 0.0 0.0 0.0 0.0 0.0 0.0 0.0 0.0 0.3 0.0 0.0 0.1 0.7 1.7 1.7 1.7 1.4 1.3 1.7 1.4 0.3 0.5 0.7 0.7
0.0 0.0 0.0 0.0 0.0 0.0 0.9 1.6 1.4 3.3 0.2 0.0 0.0 0.0 0.0 0.0 0.0 0.0 0.1 0.0 0.0 0.1 0.9 2.2 2.9 0.7 0.0 0.0 0.0 0.0 0.0 0.0 0.0 0.0 0.0 0.0 0.0 0.0 0.1 0.6 0.6 0.0 0.4 1.2 0.8 1.0 0.6 0.2 0.0 0.5 0.6 0.2 0.7 0.4
0.0 0.0 0.0 0.0 0.0 2.0 3.9 2.6 0.6 0.6 0.6 0.0 0.0 0.0 0.0 0.0 0.1 0.0 0.1 0.0 0.2 0.2 0.2 1.0 0.0 0.1 0.1 0.4 0.5 0.4 0.0 0.0 0.0 0.0 0.0 0.0 0.0 0.0 0.0 0.0 0.0 0.2 0.0 0.4 0.3 0.1 0.6 0.3 0.1 0.6 0.5 0.3 0.7 0.6
0.0 0.0 0.0 0.0 0.9 3.8 2.5 1.1 0.3 0.0 0.0 0.0 0.0 0.0 0.0 0.0 0.0 0.0 0.2 0.1 0.6 0.4 0.0 0.2 0.0 0.0 0.4 0.4 0.2 0.4 0.1 0.1 0.0 0.0 0.0 0.0 0.0 0.0 0.0 0.0 0.0 0.1 0.0 0.0 0.1 0.0 0.3 0.2 0.1 0.0 0.4 0.2 0.1 0.9
0.2 0.0 3.8 2.4 12.1 9.4 4.5 1.1 0.0 0.0 0.0 0.1 0.1 0.0 0.0 0.0 0.0 0.0 0.1 0.4 0.0 0.0 0.2 0.3 0.0 0.0 0.0 0.0 0.6 0.4 0.5 0.0 0.1 0.0 0.0 0.0 0.0 0.0 0.0 0.0 0.0 0.0 0.0 0.0 0.0 0.0 0.0 0.0 0.2 0.0 0.4 0.4 0.1 1.1
0.0 1.4 16.2 16.2 15.8 12.5 7.5 1.0 0.5 0.2 0.1 0.1 0.1 0.1 0.0 0.0 0.0 0.0 0.0 0.0 0.0 0.0 0.0 0.0 0.0 1.0 1.4 1.2 1.4 1.1 0.6 0.1 0.0 0.0 0.1 0.0 0.0 0.0 0.0 0.0 0.0 0.0 0.0 0.0 0.0 0.0 0.0 0.0 0.0 0.0 0.0 0.5 0.2 0.1
0.0 15.7 21.1 19.5 11.3 9.0 5.7 4.7 2.6 0.5 1.1 0.3 0.2 0.1 0.0 0.0 0.2 0.0 0.1 0.0 0.0 0.0 0.0 0.0 0.0 0.0 0.0 0.8 1.2 1.9 2.3 1.6 0.5 0.0 0.6 0.3 0.0 0.0 0.0 0.0 0.0 0.0 0.0 0.0 0.0 0.0 0.0 0.0 0.0 0.0 0.0 0.0 0.0 0.1
27.5 32.4 20.4 20.2 10.2 5.1 3.0 2.8 1.5 1.3 0.9 0.7 0.2 0.0 0.0 0.1 0.0 0.0 0.1 0.0 0.0 0.0 0.0 0.0 0.0 0.0 0.0 0.0 0.7 0.9 1.1 1.5 2.5 2.5 0.3 1.7 0.8 0.2 0.0 0.0 0.2 0.1 0.0 0.0 0.0 0.0 0.0 0.0 0.0 0.0 0.0 0.0 0.1 0.2
30.7 20.7 11.9 5.4 3.0 1.0 0.5 0.5 0.5 0.3 0.0 0.3 0.4 0.0 0.0 0.0 0.1 0.0 0.0 0.0 0.0 0.0 0.0 0.0 0.0 0.0 0.0 0.0 0.0 0.9 1.1 1.2 1.0 1.6 0.3 2.0 1.8 2.4 1.9 1.5 0.9 0.4 0.0 0.0 0.3 0.3 0.1 0.0 0.0 0.0 0.0 0.1 0.0 0.0
21.0 12.2 4.3 0.9 0.1 0.4 0.3 0.1 0.1 0.2 0.2 0.4 0.1 0.2 0.1 0.4 0.0 0.0 0.0 0.0 0.0 0.0 0.0 0.0 0.0 0.0 0.0 0.0 0.0 0.0 0.9 1.3 1.2 0.5 0.3 1.6 1.3 0.9 0.6 1.8 1.4 0.9 0.6 1.1 1.0 0.9 0.9 0.5 0.3 0.2 0.5 0.3 0.3 0.3
7.0 1.9 0.0 0.3 0.1 0.1 0.1 0.1 0.4 0.2 0.3 0.1 0.3 0.4 0.6 0.1 0.0 0.0 0.0 0.0 0.0 0.0 0.0 0.0 0.0 0.0 0.0 0.0 0.0 0.6 0.9 1.2 1.2 0.8 1.7 1.8 1.5 1.2 1.0 1.1 2.3 2.4 2.3 1.7 1.2 1.7 1.9 1.5 1.4 1.7 1.4 0.7 0.9 0.7
1.6 0.1 0.0 0.1 0.1 0.0 0.3 0.3 0.3 0.2 0.1 0.0 0.0 0.0 0.0 0.0 0.0 0.0 0.0 0.0 0.0 0.0 0.0 0.0 0.0 0.0 0.0 0.0 0.0 0.6 0.8 1.3 1.9 1.8 1.3 1.3 1.6 1.8 1.8 3.2 3.9 5.0 4.9 4.5 3.0 2.5 2.3 2.4 3.5 3.3 2.9 2.9 2.4 2.6
0.4 0.0 0.0 0.0 0.1 0.2 0.1 0.1 0.0 0.2 0.2 0.0 0.0 0.2 0.1 0.0 0.0 0.0 0.0 0.0 0.0 0.0 0.0 0.0 0.0 0.0 0.0 0.0 0.0 0.9 0.7 0.7 1.4 1.5 1.5 1.3 1.4 1.7 3.1 3.7 4.9 5.5 5.8 5.2 6.4 7.2 5.0 5.8 6.7 7.1 6.6 6.1 5.6 4.8
0.0 0.0 0.1 0.1 0.1 0.5 0.5 0.3 0.2 0.0 0.2 0.1 0.1 0.1 0.1 0.1 0.0 0.0 0.0 0.0 0.0 0.0 0.0 0.0 0.0 0.2 0.3 0.6 0.9 1.2 1.1 1.1 1.2 2.0 2.1 2.5 2.3 3.1 3.0 4.6 4.8 5.7 6.3 6.5 6.1 5.8 5.3 5.0 4.4 4.3 4.8 4.4 4.2 3.7
0.0 0.1 0.0 0.5 0.8 1.6 1.4 0.7 0.3 0.0 0.2 0.2 0.1 0.1 0.1 0.0 0.0 0.0 0.0 0.0 0.0 0.0 0.0 0.0 0.5 0.8 0.9 1.2 1.6 1.8 2.5 2.8 1.8 2.7 2.6 2.7 3.1 2.8 4.2 4.9 5.8 6.1 7.0 7.0 6.3 5.9 5.7 5.5 6.2 5.9 6.2 6.4 6.1 5.4
1.5 0.8 0.7 0.4 2.2 2.1 1.7 1.0 1.0 0.7 0.6 0.3 0.1 0.1 0.0 0.0 0.0 0.0 0.0 0.0 0.0 0.0 0.0 0.8 1.0 1.3 2.2 2.6 2.4 3.5 3.7 3.2 4.3 4.2 4.7 4.6 4.2 4.7 6.0 6.0 6.6 6.7 6.7 6.7 7.2 7.8 8.1 7.6 7.2 6.8 6.5 6.2 6.1 5.8

GFSWCAN_prec_kuchsnow_090.txt.gz
Snowfall_Accumulation
0.0 0.0 0.0 0.0 0.0 0.0 0.0 0.0 0.0 0.0 0.0 0.0 0.0 0.0 0.0 0.0 0.0 0.0 0.0 0.0 0.0 0.0 0.0 0.0 0.0 0.0 0.0 0.0 0.0 0.0 0.0 0.0 0.0 0.2 0.0 0.0 0.0 0.0 0.0 0.0 0.0 0.0 0.1 0.1 0.3 0.6 0.0 0.0 0.0 0.0 0.0 0.0 0.0 0.0
0.0 0.0 0.0 0.0 0.0 0.0 0.0 0.0 0.0 0.0 0.0 0.0 0.0 0.0 0.0 0.0 0.0 0.0 0.0 0.0 0.0 0.0 0.0 0.0 0.0 0.0 0.0 0.0 0.0 0.0 0.0 0.0 0.0 0.0 0.0 0.0 0.0 0.0 0.0 0.0 0.0 0.0 0.0 0.0 0.0 0.0 0.0 0.0 0.0 0.0 0.0 0.0 0.0 0.0
0.0 0.0 0.0 0.0 0.0 0.0 0.0 0.0 0.0 0.0 0.0 0.0 0.0 0.0 0.0 0.0 0.0 0.0 0.0 0.0 0.0 0.1 0.0 0.0 0.0 0.0 0.0 0.0 0.0 0.0 0.0 0.0 0.0 0.0 0.0 0.0 0.0 0.0 0.0 0.0 0.0 0.0 0.0 0.0 0.0 0.0 0.0 0.0 0.0 0.0 0.0 0.0 0.0 0.0
0.0 0.0 0.0 0.0 0.0 0.0 0.0 0.0 0.0 0.0 0.0 0.0 0.0 0.0 0.0 0.0 0.0 0.0 0.0 0.0 0.0 0.1 0.8 0.1 0.0 0.0 0.0 0.0 0.0 0.0 0.0 0.0 0.0 0.0 0.0 0.0 0.0 0.0 0.0 0.0 0.0 0.0 0.0 0.0 0.0 0.0 0.0 0.0 0.0 0.0 0.0 0.0 0.0 0.0
0.0 0.0 0.0 0.0 0.0 0.0 0.0 0.0 0.0 0.0 0.0 0.0 0.0 0.0 0.0 0.0 0.0 0.0 0.0 0.0 0.0 0.1 1.6 0.2 0.0 0.0 0.0 0.0 0.0 0.0 0.0 0.0 0.2 0.1 0.6 0.3 0.0 0.0 0.0 0.0 0.0 0.0 0.0 0.0 0.0 0.0 0.0 0.0 0.0 0.0 0.0 0.0 0.0 0.0
0.0 0.0 0.0 0.0 0.0 0.0 0.0 0.0 0.0 0.0 0.0 0.0 0.0 0.0 0.0 0.0 0.0 0.0 0.0 0.0 0.0 0.0 2.0 1.7 0.0 0.0 0.0 0.0 0.0 0.0 0.0 0.0 0.0 0.4 1.1 0.0 0.0 0.0 0.4 0.0 0.0 0.0 0.0 0.0 0.0 0.0 0.0 0.0 0.0 0.0 0.0 0.0 0.0 0.0
0.0 0.0 0.0 0.0 0.0 0.0 0.0 0.0 0.0 0.0 0.0 0.0 0.0 0.0 0.0 0.0 0.0 0.0 0.0 0.0 0.0 0.0 0.8 3.6 3.3 0.0 0.0 0.0 0.0 0.0 0.0 0.0 0.4 1.2 0.8 0.0 0.0 0.7 0.8 0.2 0.0 0.0 0.0 0.0 0.0 0.0 0.0 0.0 0.0 0.0 0.0 0.0 0.0 0.0
0.0 0.0 0.0 0.0 0.0 0.0 0.0 0.0 0.0 0.0 0.0 0.0 0.0 0.0 0.0 0.0 0.0 0.0 0.0 0.0 0.0 0.0 1.8 9.6 6.7 1.5 0.0 0.2 0.0 0.0 0.0 0.0 0.1 0.4 0.0 0.0 0.0 0.9 1.1 0.0 0.0 0.0 0.0 0.0 0.0 0.0 0.0 0.0 0.0 0.0 0.0 0.0 0.0 0.0
0.0 0.0 0.0 0.0 0.0 0.0 0.0 0.0 0.0 0.0 0.0 0.0 0.0 0.0 0.0 0.0 0.0 0.0 0.0 0.0 0.0 0.0 6.1 5.6 7.1 4.0 0.0 0.0 0.0 0.1 0.0 2.3 0.0 0.7 0.0 0.0 0.4 2.5 0.0 0.1 0.1 0.0 0.1 0.0 0.0 0.0 0.0 0.0 0.0 0.0 0.0 0.0 0.0 0.0
0.0 0.0 0.0 0.0 0.0 0.0 0.0 0.0 0.0 0.0 0.0 0.0 0.0 0.0 0.3 0.0 0.0 0.0 0.0 0.3 2.2 1.6 2.2 5.2 2.8 5.4 1.2 1.6 0.7 0.7 0.7 1.4 3.0 0.0 0.0 0.5 0.0 0.0 0.0 0.0 0.0 0.0 0.0 0.1 0.0 1.8 0.9 0.7 0.0 0.0 0.0 0.0 0.0 0.0
0.0 0.0 0.0 0.0 0.0 0.0 0.0 0.0 0.0 0.0 0.0 0.0 0.0 0.0 0.0 0.0 0.0 0.0 3.4 4.4 2.0 2.0 1.2 1.8 2.8 3.0 0.0 3.6 2.1 0.1 4.1 1.6 3.6 3.1 0.9 1.9 1.4 0.6 0.0 0.1 0.0 0.0 0.0 0.0 0.0 0.0 0.2 0.7 1.0 0.4 0.2 0.1 0.0 0.0
0.0 0.0 0.0 0.0 0.0 0.0 0.0 0.0 0.0 0.0 0.0 0.0 0.0 0.0 0.0 0.3 2.4 4.1 4.4 2.4 0.9 0.8 0.6 1.5 0.7 0.3 0.3 0.0 1.3 0.9 2.9 2.4 3.8 3.1 3.5 2.9 0.7 0.1 0.5 0.6 0.3 0.0 0.0 0.1 0.0 0.0 0.2 0.0 0.5 0.8 0.4 0.8 0.9 0.8
0.0 0.0 0.0 0.0 0.0 0.0 0.0 0.0 0.0 0.0 0.0 0.0 0.0 0.0 0.4 0.9 2.6 3.3 3.6 2.2 0.4 0.5 0.6 0.6 0.8 0.0 0.0 0.0 0.3 1.0 1.5 0.8 0.9 4.0 4.2 1.5 0.1 0.1 0.0 0.1 0.3 1.4 1.4 0.7 0.4 0.3 0.4 0.4 0.2 0.6 0.6 0.4 0.6 0.4
0.0 0.0 0.0 0.0 0.0 0.0 0.0 0.0 0.0 0.0 0.0 0.0 0.0 0.0 0.7 1.0 1.4 1.1 1.1 0.9 0.2 0.1 0.0 0.0 0.3 0.6 0.1 0.7 0.6 1.5 0.1 0.4 3.1 2.2 1.9 0.1 0.1 0.0 0.0 0.0 0.0 0.0 0.6 1.2 2.0 1.4 1.3 1.5 1.0 1.1 0.7 0.3 0.0 0.0
0.0 0.0 0.0 0.0 0.0 0.0 0.0 0.0 0.0 0.0 0.0 0.0 0.0 0.0 0.0 0.0 0.1 0.1 0.0 0.1 0.0 0.0 0.1 0.0 0.0 0.1 0.6 1.0 0.2 0.8 1.0 3.6 4.2 2.6 1.2 0.5 0.2 0.0 0.0 0.1 0.0 0.0 0.0 0.0 0.2 0.5 1.7 1.6 2.0 1.4 0.7 0.6 0.1 0.0
0.0 0.0 0.0 0.0 0.0 0.0 0.0 0.0 0.0 0.0 0.0 0.0 0.0 0.0 0.0 0.0 0.0 0.0 0.0 0.0 0.0 0.0 0.2 0.3 0.4 0.8 0.4 1.4 0.8 0.4 1.2 2.5 2.8 1.0 0.0 0.0 0.0 0.0 0.1 0.0 0.1 0.0 0.0 0.0 0.0 0.0 0.4 0.5 1.1 1.1 0.2 0.5 0.5 0.0
0.0 0.0 0.0 0.0 0.0 0.0 0.0 0.0 0.0 0.4 0.3 0.0 0.0 0.0 0.0 0.0 0.0 0.0 0.0 0.0 0.0 0.2 1.3 1.6 2.3 0.1 0.3 0.7 0.3 0.1 0.2 0.2 0.2 0.0 0.0 0.0 0.0 0.0 0.3 0.0 0.0 0.0 0.0 0.0 0.2 0.2 0.7 0.3 1.3 1.9 1.2 0.5 0.5 0.7
0.0 0.0 0.0 0.0 0.0 0.0 0.0 0.0 0.0 2.9 2.8 0.2 0.0 0.0 0.0 0.0 0.0 0.0 0.0 0.0 0.0 0.1 1.7 4.6 2.7 1.8 0.5 0.2 0.0 0.1 0.0 0.0 0.0 0.0 0.0 0.0 0.0 0.0 0.3 0.0 0.0 0.1 0.7 1.7 1.7 1.7 1.4 1.3 1.7 1.4 0.3 0.5 0.7 0.7
0.0 0.0 0.0 0.0 0.0 0.0 3.8 1.6 1.4 3.9 0.2 0.0 0.0 0.0 0.0 0.0 0.0 0.0 0.1 0.0 0.0 0.1 0.9 2.2 2.9 0.7 0.0 0.0 0.0 0.0 0.0 0.0 0.0 0.0 0.0 0.0 0.0 0.0 0.1 0.6 0.6 0.0 0.4 1.2 0.8 1.0 0.6 0.2 0.0 0.5 0.6 0.2 0.7 0.4
0.0 0.0 0.0 0.0 0.0 4.8 7.8 4.9 0.6 1.2 0.9 0.0 0.0 0.0 0.0 0.0 0.1 0.0 0.1 0.0 0.2 0.2 0.2 1.0 0.0 0.1 0.1 0.4 0.5 0.4 0.0 0.0 0.0 0.0 0.0 0.0 0.0 0.0 0.0 0.0 0.0 0.2 0.0 0.4 0.3 0.1 0.6 0.3 0.1 0.6 0.5 0.3 0.7 0.6
0.0 0.0 0.0 0.0 0.9 8.1 4.8 2.5 0.7 0.1 0.2 0.1 0.0 0.0 0.0 0.0 0.0 0.0 0.2 0.1 0.6 0.4 0.0 0.2 0.0 0.0 0.4 0.4 0.2 0.4 0.1 0.1 0.0 0.0 0.0 0.0 0.0 0.0 0.0 0.0 0.0 0.1 0.0 0.0 0.1 0.0 0.3 0.2 0.1 0.0 0.4 0.2 0.1 0.9
0.2 0.0 3.8 2.4 16.9 13.7 6.8 2.1 0.2 0.1 0.1 0.4 0.2 0.0 0.0 0.0 0.0 0.0 0.1 0.4 0.0 0.0 0.2 0.3 0.0 0.0 0.0 0.0 0.6 0.4 0.5 0.0 0.1 0.0 0.0 0.0 0.0 0.0 0.0 0.0 0.0 0.0 0.0 0.0 0.0 0.0 0.0 0.0 0.2 0.0 0.4 0.4 0.1 1.1
0.0 1.4 20.4 19.7 19.7 15.4 9.4 1.6 0.6 0.3 0.1 0.3 0.3 0.2 0.0 0.0 0.0 0.0 0.0 0.0 0.0 0.0 0.0 0.0 0.0 1.0 1.4 1.2 1.4 1.1 0.6 0.1 0.0 0.0 0.1 0.0 0.0 0.0 0.0 0.0 0.0 0.0 0.0 0.0 0.0 0.0 0.0 0.0 0.0 0.0 0.0 0.5 0.2 0.1
0.0 19.3 25.4 24.0 14.1 11.2 7.0 5.6 3.1 0.9 1.5 0.6 0.5 0.3 0.1 0.0 0.2 0.0 0.1 0.0 0.0 0.0 0.0 0.0 0.0 0.0 0.0 0.8 1.2 1.9 2.3 1.6 0.5 0.0 0.6 0.3 0.0 0.0 0.0 0.0 0.0 0.0 0.0 0.0 0.0 0.0 0.0 0.0 0.0 0.0 0.0 0.0 0.0 0.1
32.3 38.6 24.8 24.6 12.6 6.0 3.3 3.1 1.8 1.5 1.1 0.9 0.2 0.0 0.0 0.1 0.0 0.0 0.1 0.0 0.0 0.0 0.0 0.0 0.0 0.0 0.0 0.0 0.7 0.9 1.1 1.5 2.5 2.5 0.3 1.7 0.8 0.2 0.0 0.0 0.2 0.1 0.0 0.0 0.0 0.0 0.0 0.0 0.0 0.0 0.0 0.0 0.1 0.2
35.8 24.5 14.4 6.7 3.7 1.2 0.6 0.5 0.5 0.3 0.0 0.4 0.4 0.0 0.0 0.0 0.1 0.0 0.0 0.0 0.0 0.0 0.0 0.0 0.0 0.0 0.0 0.0 0.0 0.9 1.1 1.2 1.0 1.6 0.3 2.0 1.8 2.4 1.9 1.5 0.9 0.4 0.0 0.0 0.3 0.3 0.1 0.0 0.0 0.0 0.0 0.1 0.0 0.0
25.7 15.5 5.2 1.0 0.1 0.4 0.3 0.1 0.1 0.2 0.2 0.4 0.1 0.2 0.1 0.4 0.0 0.0 0.0 0.0 0.0 0.0 0.0 0.0 0.0 0.0 0.0 0.0 0.0 0.0 0.9 1.3 1.2 0.5 0.3 1.6 1.3 0.9 0.6 1.8 1.4 0.9 0.6 1.1 1.0 0.9 0.9 0.5 0.3 0.2 0.5 0.3 0.3 0.3
8.8 2.6 0.0 0.5 0.1 0.1 0.1 0.1 0.4 0.2 0.3 0.1 0.3 0.4 0.6 0.1 0.0 0.0 0.0 0.0 0.0 0.0 0.0 0.0 0.0 0.0 0.0 0.0 0.0 0.6 0.9 1.2 1.2 0.8 1.7 1.8 1.5 1.2 1.0 1.1 2.3 2.4 2.3 1.7 1.2 1.7 1.9 1.5 1.4 1.7 1.4 0.7 0.9 0.7
1.9 0.1 0.0 0.1 0.1 0.0 0.3 0.3 0.3 0.2 0.1 0.0 0.0 0.0 0.0 0.0 0.0 0.0 0.0 0.0 0.0 0.0 0.0 0.0 0.0 0.0 0.0 0.0 0.0 0.6 0.8 1.3 1.9 1.8 1.3 1.3 1.6 1.8 1.8 3.2 3.9 5.0 4.9 4.5 3.0 2.5 2.3 2.4 3.5 3.3 2.9 2.9 2.4 2.6
0.5 0.0 0.0 0.0 0.1 0.2 0.1 0.1 0.0 0.2 0.2 0.0 0.0 0.2 0.1 0.0 0.0 0.0 0.0 0.0 0.0 0.0 0.0 0.0 0.0 0.0 0.0 0.0 0.0 0.9 0.7 0.7 1.4 1.5 1.5 1.3 1.4 1.7 3.1 3.7 4.9 5.5 5.8 5.2 6.4 7.2 5.0 5.8 6.7 7.1 6.6 6.1 5.6 4.8
0.0 0.0 0.1 0.1 0.1 0.5 0.5 0.3 0.2 0.0 0.2 0.1 0.1 0.1 0.1 0.1 0.0 0.0 0.0 0.0 0.0 0.0 0.0 0.0 0.0 0.2 0.3 0.6 0.9 1.2 1.1 1.1 1.2 2.0 2.1 2.5 2.3 3.1 3.0 4.6 4.8 5.7 6.3 6.5 6.1 5.8 5.3 5.0 4.4 4.3 4.8 4.4 4.2 3.7
0.0 0.1 0.0 0.5 0.8 1.6 1.4 0.7 0.3 0.0 0.2 0.2 0.1 0.1 0.1 0.0 0.0 0.0 0.0 0.0 0.0 0.0 0.0 0.0 0.5 0.8 0.9 1.2 1.6 1.8 2.5 2.8 1.8 2.7 2.6 2.7 3.1 2.8 4.2 4.9 5.8 6.1 7.0 7.0 6.3 5.9 5.7 5.5 6.2 5.9 6.2 6.4 6.1 5.4
1.7 0.8 0.7 0.4 2.2 2.1 1.7 1.0 1.0 0.8 0.7 0.4 0.1 0.1 0.0 0.0 0.0 0.0 0.0 0.0 0.0 0.0 0.0 0.8 1.0 1.3 2.2 2.6 2.4 3.5 3.7 3.2 4.3 4.2 4.7 4.6 4.2 4.7 6.0 6.0 6.6 6.7 6.7 6.7 7.2 7.8 8.1 7.6 7.2 6.8 6.5 6.2 6.1 5.8

GFSWCAN_prec_kuchsnow_093.txt.gz
Snowfall_Accumulation
0.0 0.0 0.0 0.0 0.0 0.0 0.0 0.0 0.0 0.0 0.0 0.0 0.0 0.0 0.0 0.0 0.0 0.0 0.0 0.0 0.0 0.0 0.0 0.0 0.0 0.0 0.0 0.0 0.0 0.0 0.0 0.0 0.0 0.2 0.0 0.0 0.0 0.0 0.0 0.0 0.0 0.0 0.1 0.1 0.3 0.6 0.0 0.0 0.0 0.0 0.0 0.0 0.0 0.0
0.0 0.0 0.0 0.0 0.0 0.0 0.0 0.0 0.0 0.0 0.0 0.0 0.0 0.0 0.0 0.0 0.0 0.0 0.0 0.0 0.0 0.0 0.0 0.0 0.0 0.0 0.0 0.0 0.0 0.0 0.0 0.0 0.0 0.0 0.0 0.0 0.0 0.0 0.0 0.0 0.0 0.0 0.0 0.0 0.0 0.0 0.0 0.0 0.0 0.0 0.0 0.0 0.0 0.0
0.0 0.0 0.0 0.0 0.0 0.0 0.0 0.0 0.0 0.0 0.0 0.0 0.0 0.0 0.0 0.0 0.0 0.0 0.0 0.0 0.0 0.1 0.0 0.0 0.0 0.0 0.0 0.0 0.0 0.0 0.0 0.0 0.0 0.0 0.0 0.0 0.0 0.0 0.0 0.0 0.0 0.0 0.0 0.0 0.0 0.0 0.0 0.0 0.0 0.0 0.0 0.0 0.0 0.0
0.0 0.0 0.0 0.0 0.0 0.0 0.0 0.0 0.0 0.0 0.0 0.0 0.0 0.0 0.0 0.0 0.0 0.0 0.0 0.0 0.0 0.1 0.8 0.1 0.0 0.0 0.0 0.0 0.0 0.0 0.0 0.0 0.0 0.0 0.0 0.0 0.0 0.0 0.0 0.0 0.0 0.0 0.0 0.0 0.0 0.0 0.0 0.0 0.0 0.0 0.0 0.0 0.0 0.0
0.0 0.0 0.0 0.0 0.0 0.0 0.0 0.0 0.0 0.0 0.0 0.0 0.0 0.0 0.0 0.0 0.0 0.0 0.0 0.0 0.0 0.1 1.6 0.2 0.0 0.0 0.0 0.0 0.0 0.0 0.0 0.0 0.2 0.1 0.6 0.3 0.0 0.0 0.0 0.0 0.0 0.0 0.0 0.0 0.0 0.0 0.0 0.0 0.0 0.0 0.0 0.0 0.0 0.0
0.0 0.0 0.0 0.0 0.0 0.0 0.0 0.0 0.0 0.0 0.0 0.0 0.0 0.0 0.0 0.0 0.0 0.0 0.0 0.0 0.0 0.0 2.0 1.7 0.0 0.0 0.0 0.0 0.0 0.0 0.0 0.0 0.0 0.4 1.1 0.0 0.0 0.0 0.4 0.0 0.0 0.0 0.0 0.0 0.0 0.0 0.0 0.0 0.0 0.0 0.0 0.0 0.0 0.0
0.0 0.0 0.0 0.0 0.0 0.0 0.0 0.0 0.0 0.0 0.0 0.0 0.0 0.0 0.0 0.0 0.0 0.0 0.0 0.0 0.0 0.0 0.8 3.6 3.3 0.0 0.0 0.0 0.0 0.0 0.0 0.0 0.4 1.2 0.8 0.0 0.0 0.7 0.8 0.2 0.0 0.0 0.0 0.0 0.0 0.0 0.0 0.0 0.0 0.0 0.0 0.0 0.0 0.0
0.0 0.0 0.0 0.0 0.0 0.0 0.0 0.0 0.0 0.0 0.0 0.0 0.0 0.0 0.0 0.0 0.0 0.0 0.0 0.0 0.0 0.0 1.8 9.6 6.7 1.5 0.0 0.2 0.0 0.0 0.0 0.0 0.1 0.4 0.0 0.0 0.0 0.9 1.1 0.0 0.0 0.0 0.0 0.0 0.0 0.0 0.0 0.0 0.0 0.0 0.0 0.0 0.0 0.0
0.0 0.0 0.0 0.0 0.0 0.0 0.0 0.0 0.0 0.0 0.0 0.0 0.0 0.0 0.0 0.0 0.0 0.0 0.0 0.0 0.0 0.0 6.1 5.6 7.1 4.0 0.0 0.0 0.0 0.1 0.0 2.3 0.0 0.7 0.0 0.0 0.4 2.5 0.0 0.1 0.1 0.0 0.1 0.0 0.0 0.0 0.0 0.0 0.0 0.0 0.0 0.0 0.0 0.0
0.0 0.0 0.0 0.0 0.0 0.0 0.0 0.0 0.0 0.0 0.0 0.0 0.0 0.0 0.3 0.0 0.0 0.0 0.0 0.3 2.2 1.6 2.2 5.2 2.8 5.4 1.2 1.6 0.7 0.7 0.7 1.4 3.0 0.0 0.0 0.5 0.0 0.0 0.0 0.0 0.0 0.0 0.0 0.1 0.0 1.8 0.9 0.7 0.0 0.0 0.0 0.0 0.0 0.0
0.0 0.0 0.0 0.0 0.0 0.0 0.0 0.0 0.0 0.0 0.0 0.0 0.0 0.0 0.0 0.0 0.0 0.0 3.4 4.4 2.0 2.0 1.2 1.8 2.8 3.0 0.0 3.6 2.1 0.1 4.1 1.6 3.6 3.1 0.9 1.9 1.4 0.6 0.0 0.1 0.0 0.0 0.0 0.0 0.0 0.0 0.2 0.7 1.0 0.4 0.2 0.1 0.0 0.0
0.0 0.0 0.0 0.0 0.0 0.0 0.0 0.0 0.0 0.0 0.0 0.0 0.0 0.0 0.0 0.3 2.4 4.1 4.4 2.4 0.9 0.8 0.6 1.5 0.7 0.3 0.3 0.0 1.3 0.9 2.9 2.4 3.8 3.1 3.5 2.9 0.7 0.1 0.5 0.6 0.3 0.0 0.0 0.1 0.0 0.0 0.2 0.0 0.5 0.8 0.4 0.8 0.9 0.8
0.0 0.0 0.0 0.0 0.0 0.0 0.0 0.0 0.0 0.0 0.0 0.0 0.0 0.0 0.4 0.9 2.6 3.3 3.6 2.2 0.4 0.5 0.6 0.6 0.8 0.0 0.0 0.0 0.3 1.0 1.5 0.8 0.9 4.0 4.2 1.5 0.1 0.1 0.0 0.1 0.3 1.4 1.4 0.7 0.4 0.3 0.4 0.4 0.2 0.6 0.6 0.4 0.6 0.4
0.0 0.0 0.0 0.0 0.0 0.0 0.0 0.0 0.0 0.0 0.0 0.0 0.0 0.0 0.7 1.0 1.4 1.1 1.1 0.9 0.2 0.1 0.0 0.0 0.3 0.6 0.1 0.7 0.6 1.5 0.1 0.4 3.1 2.2 1.9 0.1 0.1 0.0 0.0 0.0 0.0 0.0 0.6 1.2 2.0 1.4 1.3 1.5 1.0 1.1 0.7 0.3 0.0 0.0
0.0 0.0 0.0 0.0 0.0 0.0 0.0 0.0 0.0 0.0 0.0 0.0 0.0 0.0 0.0 0.0 0.1 0.1 0.0 0.1 0.0 0.0 0.1 0.0 0.0 0.1 0.6 1.0 0.2 0.8 1.0 3.6 4.2 2.6 1.2 0.5 0.2 0.0 0.0 0.1 0.0 0.0 0.0 0.0 0.2 0.5 1.7 1.6 2.0 1.4 0.7 0.6 0.1 0.0
0.0 0.0 0.0 0.0 0.0 0.0 0.0 0.0 0.0 0.0 0.0 0.0 0.0 0.0 0.0 0.0 0.0 0.0 0.0 0.0 0.0 0.0 0.2 0.3 0.4 0.8 0.4 1.4 0.8 0.4 1.2 2.5 2.8 1.0 0.0 0.0 0.0 0.0 0.1 0.0 0.1 0.0 0.0 0.0 0.0 0.0 0.4 0.5 1.1 1.1 0.2 0.5 0.5 0.0
0.0 0.0 0.0 0.0 0.0 0.0 0.0 0.0 0.0 1.4 1.1 0.2 0.0 0.0 0.0 0.0 0.0 0.0 0.0 0.0 0.0 0.2 1.3 1.6 2.3 0.1 0.3 0.7 0.3 0.1 0.2 0.2 0.2 0.0 0.0 0.0 0.0 0.0 0.3 0.0 0.0 0.0 0.0 0.0 0.2 0.2 0.7 0.3 1.3 1.9 1.2 0.5 0.5 0.7
0.0 0.0 0.0 0.0 0.0 0.0 0.0 0.0 0.0 5.2 4.0 0.4 0.0 0.0 0.0 0.0 0.0 0.0 0.0 0.0 0.0 0.1 1.7 4.6 2.7 1.8 0.5 0.2 0.0 0.1 0.0 0.0 0.0 0.0 0.0 0.0 0.0 0.0 0.3 0.0 0.0 0.1 0.7 1.7 1.7 1.7 1.4 1.3 1.7 1.4 0.3 0.5 0.7 0.7
0.0 0.0 0.0 0.0 0.0 0.0 8.3 5.1 3.4 5.6 0.2 0.0 0.0 0.0 0.0 0.0 0.0 0.0 0.1 0.0 0.0 0.1 0.9 2.2 2.9 0.7 0.0 0.0 0.0 0.0 0.0 0.0 0.0 0.0 0.0 0.0 0.0 0.0 0.1 0.6 0.6 0.0 0.4 1.2 0.8 1.0 0.6 0.2 0.0 0.5 0.6 0.2 0.7 0.4
0.0 0.0 0.0 0.0 0.0 9.1 13.3 7.9 1.8 1.9 1.0 0.0 0.0 0.0 0.0 0.0 0.1 0.0 0.1 0.0 0.2 0.2 0.2 1.0 0.0 0.1 0.1 0.4 0.5 0.4 0.0 0.0 0.0 0.0 0.0 0.0 0.0 0.0 0.0 0.0 0.0 0.2 0.0 0.4 0.3 0.1 0.6 0.3 0.1 0.6 0.5 0.3 0.7 0.6
0.0 0.0 0.0 0.0 0.9 13.2 9.5 5.5 2.0 0.4 0.2 0.1 0.0 0.0 0.0 0.0 0.0 0.0 0.2 0.1 0.7 0.4 0.0 0.2 0.0 0.0 0.4 0.4 0.2 0.4 0.1 0.1 0.0 0.0 0.0 0.0 0.0 0.0 0.0 0.0 0.0 0.1 0.0 0.0 0.1 0.0 0.3 0.2 0.1 0.0 0.4 0.2 0.1 0.9
0.2 0.0 3.8 2.4 21.1 18.4 10.8 4.2 0.7 0.2 0.1 0.4 0.2 0.0 0.0 0.0 0.0 0.0 0.2 0.9 0.0 0.0 0.2 0.3 0.0 0.0 0.0 0.0 0.6 0.4 0.5 0.0 0.1 0.0 0.0 0.0 0.0 0.0 0.0 0.0 0.0 0.0 0.0 0.0 0.0 0.0 0.0 0.0 0.2 0.0 0.4 0.4 0.1 1.1
0.0 1.4 23.7 22.8 23.4 19.5 12.6 2.9 1.3 0.5 0.1 0.3 0.5 0.5 0.1 0.0 0.0 0.0 0.0 0.0 0.0 0.0 0.0 0.0 0.0 1.0 1.4 1.2 1.4 1.1 0.6 0.1 0.0 0.0 0.1 0.0 0.0 0.0 0.0 0.0 0.0 0.0 0.0 0.0 0.0 0.0 0.0 0.0 0.0 0.0 0.0 0.5 0.2 0.1
0.0 21.6 28.5 27.8 17.1 14.7 9.4 7.2 4.0 1.4 1.7 0.8 0.9 0.7 0.4 0.0 0.2 0.0 0.1 0.0 0.0 0.0 0.0 0.0 0.0 0.0 0.0 0.8 1.2 1.9 2.3 1.6 0.5 0.0 0.6 0.3 0.0 0.0 0.0 0.0 0.0 0.0 0.0 0.0 0.0 0.0 0.0 0.0 0.0 0.0 0.0 0.0 0.0 0.1
34.7 42.7 28.9 28.8 15.1 7.5 4.0 3.5 2.0 1.7 1.2 1.0 0.2 0.1 0.1 0.2 0.0 0.0 0.1 0.0 0.0 0.0 0.0 0.0 0.0 0.0 0.0 0.0 0.7 0.9 1.1 1.5 2.5 2.5 0.3 1.7 0.8 0.2 0.0 0.0 0.2 0.1 0.0 0.0 0.0 0.0 0.0 0.0 0.0 0.0 0.0 0.0 0.1 0.2
40.2 27.2 16.6 7.9 4.4 1.2 0.6 0.5 0.5 0.3 0.0 0.4 0.4 0.0 0.0 0.2 0.2 0.0 0.0 0.0 0.0 0.0 0.0 0.0 0.0 0.0 0.0 0.0 0.0 0.9 1.1 1.2 1.0 1.6 0.3 2.0 1.8 2.4 1.9 1.5 0.9 0.4 0.0 0.0 0.3 0.3 0.1 0.0 0.0 0.0 0.0 0.1 0.0 0.0
28.9 18.4 6.7 1.4 0.1 0.4 0.3 0.1 0.1 0.2 0.2 0.4 0.1 0.2 0.1 0.4 0.0 0.0 0.0 0.0 0.0 0.0 0.0 0.0 0.0 0.0 0.0 0.0 0.0 0.0 0.9 1.3 1.2 0.5 0.3 1.6 1.3 0.9 0.6 1.8 1.4 0.9 0.6 1.1 1.0 0.9 0.9 0.5 0.3 0.2 0.5 0.3 0.3 0.3
8.8 3.2 0.0 0.5 0.1 0.1 0.1 0.1 0.4 0.2 0.3 0.1 0.3 0.4 0.6 0.1 0.0 0.0 0.0 0.0 0.0 0.0 0.0 0.0 0.0 0.0 0.0 0.0 0.0 0.6 0.9 1.2 1.2 0.8 1.7 1.8 1.5 1.2 1.0 1.1 2.3 2.4 2.3 1.7 1.2 1.7 1.9 1.5 1.4 1.7 1.4 0.7 0.9 0.7
1.9 0.1 0.0 0.2 0.1 0.0 0.3 0.3 0.3 0.2 0.1 0.0 0.0 0.0 0.0 0.0 0.0 0.0 0.0 0.0 0.0 0.0 0.0 0.0 0.0 0.0 0.0 0.0 0.0 0.6 0.8 1.3 1.9 1.8 1.3 1.3 1.6 1.8 1.8 3.2 3.9 5.0 4.9 4.5 3.0 2.5 2.3 2.4 3.5 3.3 2.9 2.9 2.4 2.6
0.5 0.0 0.0 0.0 0.2 0.2 0.1 0.1 0.0 0.2 0.2 0.0 0.0 0.2 0.1 0.0 0.0 0.0 0.0 0.0 0.0 0.0 0.0 0.0 0.0 0.0 0.0 0.0 0.0 0.9 0.7 0.7 1.4 1.5 1.5 1.3 1.4 1.7 3.1 3.7 4.9 5.5 5.8 5.2 6.4 7.2 5.0 5.8 6.7 7.1 6.6 6.1 5.6 4.8
0.0 0.0 0.1 0.1 0.1 0.5 0.5 0.3 0.2 0.0 0.2 0.1 0.1 0.1 0.1 0.1 0.0 0.0 0.0 0.0 0.0 0.0 0.0 0.0 0.0 0.2 0.3 0.6 0.9 1.2 1.1 1.1 1.2 2.0 2.1 2.5 2.3 3.1 3.0 4.6 4.8 5.7 6.3 6.5 6.1 5.8 5.3 5.0 4.4 4.3 4.8 4.4 4.2 3.7
0.0 0.1 0.0 0.5 0.8 1.6 1.4 0.7 0.3 0.0 0.2 0.2 0.1 0.1 0.1 0.0 0.0 0.0 0.0 0.0 0.0 0.0 0.0 0.0 0.5 0.8 0.9 1.2 1.6 1.8 2.5 2.8 1.8 2.7 2.6 2.7 3.1 2.8 4.2 4.9 5.8 6.1 7.0 7.0 6.3 5.9 5.7 5.5 6.2 5.9 6.2 6.4 6.1 5.4
1.9 1.0 0.7 0.4 2.2 2.1 1.7 1.0 1.0 0.8 0.7 0.4 0.1 0.1 0.0 0.0 0.0 0.0 0.0 0.0 0.0 0.0 0.0 0.8 1.0 1.3 2.2 2.6 2.4 3.5 3.7 3.2 4.3 4.2 4.7 4.6 4.2 4.7 6.0 6.0 6.6 6.7 6.7 6.7 7.2 7.8 8.1 7.6 7.2 6.8 6.5 6.2 6.1 5.8

GFSWCAN_prec_kuchsnow_096.txt.gz
Snowfall_Accumulation
0.0 0.0 0.0 0.0 0.0 0.0 0.0 0.0 0.0 0.0 0.0 0.0 0.0 0.0 0.0 0.0 0.0 0.0 0.0 0.0 0.0 0.0 0.0 0.0 0.0 0.0 0.0 0.0 0.0 0.0 0.0 0.0 0.0 0.2 0.0 0.0 0.0 0.0 0.0 0.0 0.0 0.0 0.1 0.1 0.3 0.6 0.0 0.0 0.0 0.0 0.0 0.0 0.0 0.0
0.0 0.0 0.0 0.0 0.0 0.0 0.0 0.0 0.0 0.0 0.0 0.0 0.0 0.0 0.0 0.0 0.0 0.0 0.0 0.0 0.0 0.0 0.0 0.0 0.0 0.0 0.0 0.0 0.0 0.0 0.0 0.0 0.0 0.0 0.0 0.0 0.0 0.0 0.0 0.0 0.0 0.0 0.0 0.0 0.0 0.0 0.0 0.0 0.0 0.0 0.0 0.0 0.0 0.0
0.0 0.0 0.0 0.0 0.0 0.0 0.0 0.0 0.0 0.0 0.0 0.0 0.0 0.0 0.0 0.0 0.0 0.0 0.0 0.0 0.0 0.1 0.0 0.0 0.0 0.0 0.0 0.0 0.0 0.0 0.0 0.0 0.0 0.0 0.0 0.0 0.0 0.0 0.0 0.0 0.0 0.0 0.0 0.0 0.0 0.0 0.0 0.0 0.0 0.0 0.0 0.0 0.0 0.0
0.0 0.0 0.0 0.0 0.0 0.0 0.0 0.0 0.0 0.0 0.0 0.0 0.0 0.0 0.0 0.0 0.0 0.0 0.0 0.0 0.0 0.1 0.8 0.1 0.0 0.0 0.0 0.0 0.0 0.0 0.0 0.0 0.0 0.0 0.0 0.0 0.0 0.0 0.0 0.0 0.0 0.0 0.0 0.0 0.0 0.0 0.0 0.0 0.0 0.0 0.0 0.0 0.0 0.0
0.0 0.0 0.0 0.0 0.0 0.0 0.0 0.0 0.0 0.0 0.0 0.0 0.0 0.0 0.0 0.0 0.0 0.0 0.0 0.0 0.0 0.1 1.6 0.2 0.0 0.0 0.0 0.0 0.0 0.0 0.0 0.0 0.2 0.1 0.6 0.3 0.0 0.0 0.0 0.0 0.0 0.0 0.0 0.0 0.0 0.0 0.0 0.0 0.0 0.0 0.0 0.0 0.0 0.0
0.0 0.0 0.0 0.0 0.0 0.0 0.0 0.0 0.0 0.0 0.0 0.0 0.0 0.0 0.0 0.0 0.0 0.0 0.0 0.0 0.0 0.0 2.0 1.7 0.0 0.0 0.0 0.0 0.0 0.0 0.0 0.0 0.0 0.4 1.1 0.0 0.0 0.0 0.4 0.0 0.0 0.0 0.0 0.0 0.0 0.0 0.0 0.0 0.0 0.0 0.0 0.0 0.0 0.0
0.0 0.0 0.0 0.0 0.0 0.0 0.0 0.0 0.0 0.0 0.0 0.0 0.0 0.0 0.0 0.0 0.0 0.0 0.0 0.0 0.0 0.0 0.8 3.6 3.3 0.0 0.0 0.0 0.0 0.0 0.0 0.0 0.4 1.2 0.8 0.0 0.0 0.7 0.8 0.2 0.0 0.0 0.0 0.0 0.0 0.0 0.0 0.0 0.0 0.0 0.0 0.0 0.0 0.0
0.0 0.0 0.0 0.0 0.0 0.0 0.0 0.0 0.0 0.0 0.0 0.0 0.0 0.0 0.0 0.0 0.0 0.0 0.0 0.0 0.0 0.0 1.8 9.6 6.7 1.5 0.0 0.2 0.0 0.0 0.0 0.0 0.1 0.4 0.0 0.0 0.0 0.9 1.1 0.0 0.0 0.0 0.0 0.0 0.0 0.0 0.0 0.0 0.0 0.0 0.0 0.0 0.0 0.0
0.0 0.0 0.0 0.0 0.0 0.0 0.0 0.0 0.0 0.0 0.0 0.0 0.0 0.0 0.0 0.0 0.0 0.0 0.0 0.0 0.0 0.0 6.1 5.6 7.1 4.0 0.0 0.0 0.0 0.1 0.0 2.3 0.0 0.7 0.0 0.0 0.4 2.5 0.0 0.1 0.1 0.0 0.1 0.0 0.0 0.0 0.0 0.0 0.0 0.0 0.0 0.0 0.0 0.0
0.0 0.0 0.0 0.0 0.0 0.0 0.0 0.0 0.0 0.0 0.0 0.0 0.0 0.0 0.3 0.0 0.0 0.0 0.0 0.3 2.2 1.6 2.2 5.2 2.8 5.4 1.2 1.6 0.7 0.7 0.7 1.4 3.0 0.0 0.0 0.5 0.0 0.0 0.0 0.0 0.0 0.0 0.0 0.1 0.0 1.8 0.9 0.7 0.0 0.0 0.0 0.0 0.0 0.0
0.0 0.0 0.0 0.0 0.0 0.0 0.0 0.0 0.0 0.0 0.0 0.0 0.0 0.0 0.0 0.0 0.0 0.0 3.4 4.4 2.0 2.0 1.2 1.8 2.8 3.0 0.0 3.6 2.1 0.1 4.1 1.6 3.6 3.1 0.9 1.9 1.4 0.6 0.0 0.1 0.0 0.0 0.0 0.0 0.0 0.0 0.2 0.7 1.0 0.4 0.2 0.1 0.0 0.0
0.0 0.0 0.0 0.0 0.0 0.0 0.0 0.0 0.0 0.0 0.0 0.0 0.0 0.0 0.0 0.3 2.4 4.1 4.4 2.4 0.9 0.8 0.6 1.5 0.7 0.3 0.3 0.0 1.3 0.9 2.9 2.4 3.8 3.1 3.5 2.9 0.7 0.1 0.5 0.6 0.3 0.0 0.0 0.1 0.0 0.0 0.2 0.0 0.5 0.8 0.4 0.8 0.9 0.8
0.0 0.0 0.0 0.0 0.0 0.0 0.0 0.0 0.0 0.0 0.0 0.0 0.0 0.0 0.4 0.9 2.6 3.3 3.6 2.2 0.4 0.5 0.6 0.6 0.8 0.0 0.0 0.0 0.3 1.0 1.5 0.8 0.9 4.0 4.2 1.5 0.1 0.1 0.0 0.1 0.3 1.4 1.4 0.7 0.4 0.3 0.4 0.4 0.2 0.6 0.6 0.4 0.6 0.4
0.0 0.0 0.0 0.0 0.0 0.0 0.0 0.0 0.0 0.0 0.0 0.0 0.0 0.0 0.7 1.0 1.4 1.1 1.1 0.9 0.2 0.1 0.0 0.0 0.3 0.6 0.1 0.7 0.6 1.5 0.1 0.4 3.1 2.2 1.9 0.1 0.1 0.0 0.0 0.0 0.0 0.0 0.6 1.2 2.0 1.4 1.3 1.5 1.0 1.1 0.7 0.3 0.0 0.0
0.0 0.0 0.0 0.0 0.0 0.0 0.0 0.0 0.0 0.0 0.0 0.4 0.0 0.0 0.0 0.0 0.1 0.1 0.0 0.1 0.0 0.0 0.1 0.0 0.0 0.1 0.6 1.0 0.2 0.8 1.0 3.6 4.2 2.6 1.2 0.5 0.2 0.0 0.0 0.1 0.0 0.0 0.0 0.0 0.2 0.5 1.7 1.6 2.0 1.4 0.7 0.6 0.1 0.0
0.0 0.0 0.0 0.0 0.0 0.0 0.0 0.0 0.0 0.0 1.6 0.8 0.1 0.0 0.0 0.0 0.0 0.0 0.0 0.0 0.0 0.0 0.2 0.3 0.4 0.8 0.4 1.4 0.8 0.4 1.2 2.5 2.8 1.0 0.0 0.0 0.0 0.0 0.1 0.0 0.1 0.0 0.0 0.0 0.0 0.0 0.4 0.5 1.1 1.1 0.2 0.5 0.5 0.0
0.0 0.0 0.0 0.0 0.0 0.0 0.0 0.0 0.0 4.8 3.4 1.4 0.0 0.0 0.0 0.0 0.0 0.0 0.0 0.0 0.0 0.2 1.3 1.6 2.3 0.1 0.3 0.7 0.3 0.1 0.2 0.2 0.2 0.0 0.0 0.0 0.0 0.0 0.3 0.0 0.0 0.0 0.0 0.0 0.2 0.2 0.7 0.3 1.3 1.9 1.2 0.5 0.5 0.7
0.0 0.0 0.0 0.0 0.0 0.0 0.0 0.0 3.6 9.1 7.2 0.4 0.0 0.0 0.0 0.0 0.0 0.0 0.0 0.0 0.0 0.1 1.7 4.6 2.7 1.8 0.5 0.2 0.0 0.1 0.0 0.0 0.0 0.0 0.0 0.0 0.0 0.0 0.3 0.0 0.0 0.1 0.7 1.7 1.7 1.7 1.4 1.3 1.7 1.4 0.3 0.5 0.7 0.7
0.0 0.0 0.0 0.0 0.0 0.0 13.1 9.4 6.7 8.9 0.9 0.0 0.0 0.0 0.0 0.0 0.0 0.0 0.1 0.0 0.0 0.1 0.9 2.2 2.9 0.7 0.0 0.0 0.0 0.0 0.0 0.0 0.0 0.0 0.0 0.0 0.0 0.0 0.1 0.6 0.6 0.0 0.4 1.2 0.8 1.0 0.6 0.2 0.0 0.5 0.6 0.2 0.7 0.4
0.0 0.0 0.0 0.0 0.0 9.1 18.3 12.1 4.1 3.3 1.4 0.0 0.0 0.0 0.0 0.0 0.1 0.0 0.1 0.0 0.2 0.2 0.3 1.0 0.0 0.1 0.1 0.4 0.5 0.4 0.0 0.0 0.0 0.0 0.0 0.0 0.0 0.0 0.0 0.0 0.0 0.2 0.0 0.4 0.3 0.1 0.6 0.3 0.1 0.6 0.5 0.3 0.7 0.6
0.0 0.0 0.0 0.0 0.9 13.2 12.7 8.5 3.7 0.9 0.2 0.2 0.0 0.0 0.0 0.0 0.0 0.0 0.2 0.1 1.1 0.8 0.0 0.2 0.0 0.0 0.4 0.4 0.2 0.4 0.1 0.1 0.0 0.0 0.0 0.0 0.0 0.0 0.0 0.0 0.0 0.1 0.0 0.0 0.1 0.0 0.3 0.2 0.1 0.0 0.4 0.2 0.1 0.9
0.2 0.0 3.8 2.4 21.1 20.9 14.1 6.6 1.7 0.4 0.1 0.4 0.2 0.0 0.2 0.1 0.0 0.0 0.2 0.9 0.7 0.0 0.2 0.3 0.0 0.0 0.0 0.0 0.6 0.4 0.5 0.0 0.1 0.0 0.0 0.0 0.0 0.0 0.0 0.0 0.0 0.0 0.0 0.0 0.0 0.0 0.0 0.0 0.2 0.0 0.4 0.4 0.1 1.1
0.0 1.4 23.7 24.0 25.8 22.9 15.0 4.1 2.2 0.9 0.1 0.3 0.7 0.8 0.5 0.1 0.0 0.0 0.0 0.0 0.0 0.0 0.0 0.0 0.0 1.0 1.4 1.2 1.4 1.1 0.6 0.1 0.0 0.0 0.1 0.0 0.0 0.0 0.0 0.0 0.0 0.0 0.0 0.0 0.0 0.0 0.0 0.0 0.0 0.0 0.0 0.5 0.2 0.1
0.0 21.6 30.1 29.7 19.0 17.4 11.2 8.7 4.9 1.9 2.2 1.1 1.2 1.1 0.5 0.0 0.3 0.2 0.1 0.0 0.0 0.0 0.0 0.0 0.0 0.0 0.0 0.8 1.2 1.9 2.3 1.6 0.5 0.0 0.6 0.3 0.0 0.0 0.0 0.0 0.0 0.0 0.0 0.0 0.0 0.0 0.0 0.0 0.0 0.0 0.0 0.0 0.0 0.1
36.8 45.5 31.2 31.7 17.1 8.8 4.0 3.5 2.0 1.8 1.2 1.1 0.3 0.1 0.2 0.5 0.5 0.3 0.1 0.0 0.0 0.0 0.0 0.0 0.0 0.0 0.0 0.0 0.7 0.9 1.1 1.5 2.5 2.5 0.3 1.7 0.8 0.2 0.0 0.0 0.2 0.1 0.0 0.0 0.0 0.0 0.0 0.0 0.0 0.0 0.0 0.0 0.1 0.2
42.9 28.3 17.3 7.9 4.4 1.3 0.7 0.5 0.5 0.3 0.0 0.4 0.4 0.0 0.0 0.7 0.8 0.1 0.0 0.0 0.0 0.0 0.0 0.0 0.0 0.0 0.0 0.0 0.0 0.9 1.1 1.2 1.0 1.6 0.3 2.0 1.8 2.4 1.9 1.5 0.9 0.4 0.0 0.0 0.3 0.3 0.1 0.0 0.0 0.0 0.0 0.1 0.0 0.0
31.0 19.5 6.7 1.4 0.1 0.4 0.3 0.1 0.1 0.2 0.2 0.4 0.1 0.2 0.1 0.8 0.1 0.0 0.0 0.0 0.0 0.0 0.0 0.0 0.0 0.0 0.0 0.0 0.0 0.0 0.9 1.3 1.2 0.5 0.3 1.6 1.3 0.9 0.6 1.8 1.4 0.9 0.6 1.1 1.0 0.9 0.9 0.5 0.3 0.2 0.5 0.3 0.3 0.3
9.1 3.3 0.1 0.5 0.1 0.1 0.1 0.1 0.4 0.2 0.3 0.1 0.3 0.4 0.6 0.1 0.0 0.0 0.0 0.0 0.0 0.0 0.0 0.0 0.0 0.0 0.0 0.0 0.0 0.6 0.9 1.2 1.2 0.8 1.7 1.8 1.5 1.2 1.0 1.1 2.3 2.4 2.3 1.7 1.2 1.7 1.9 1.5 1.4 1.7 1.4 0.7 0.9 0.7
1.9 0.1 0.0 0.2 0.1 0.0 0.3 0.3 0.3 0.2 0.1 0.0 0.0 0.0 0.0 0.0 0.0 0.0 0.0 0.0 0.0 0.0 0.0 0.0 0.0 0.0 0.0 0.0 0.0 0.6 0.8 1.3 1.9 1.8 1.3 1.3 1.6 1.8 1.8 3.2 3.9 5.0 4.9 4.5 3.0 2.5 2.3 2.4 3.5 3.3 2.9 2.9 2.4 2.6
0.5 0.0 0.0 0.0 0.2 0.2 0.1 0.1 0.0 0.2 0.2 0.0 0.0 0.2 0.1 0.0 0.0 0.0 0.0 0.0 0.0 0.0 0.0 0.0 0.0 0.0 0.0 0.0 0.0 0.9 0.7 0.7 1.4 1.5 1.5 1.3 1.4 1.7 3.1 3.7 4.9 5.5 5.8 5.2 6.4 7.2 5.0 5.8 6.7 7.1 6.6 6.1 5.6 4.8
0.0 0.0 0.1 0.1 0.1 0.5 0.5 0.3 0.2 0.0 0.2 0.1 0.1 0.1 0.1 0.1 0.0 0.0 0.0 0.0 0.0 0.0 0.0 0.0 0.0 0.2 0.3 0.6 0.9 1.2 1.1 1.1 1.2 2.0 2.1 2.5 2.3 3.1 3.0 4.6 4.8 5.7 6.3 6.5 6.1 5.8 5.3 5.0 4.4 4.3 4.8 4.4 4.2 3.7
0.0 0.1 0.0 0.5 0.8 1.6 1.4 0.7 0.3 0.0 0.2 0.2 0.1 0.1 0.1 0.0 0.0 0.0 0.0 0.0 0.0 0.0 0.0 0.0 0.5 0.8 0.9 1.2 1.6 1.8 2.5 2.8 1.8 2.7 2.6 2.7 3.1 2.8 4.2 4.9 5.8 6.1 7.0 7.0 6.3 5.9 5.7 5.5 6.2 5.9 6.2 6.4 6.1 5.4
2.1 1.0 0.7 0.4 2.2 2.1 1.7 1.0 1.0 0.8 0.7 0.4 0.1 0.1 0.0 0.0 0.0 0.0 0.0 0.0 0.0 0.0 0.0 0.8 1.0 1.3 2.2 2.6 2.4 3.5 3.7 3.2 4.3 4.2 4.7 4.6 4.2 4.7 6.0 6.0 6.6 6.7 6.7 6.7 7.2 7.8 8.1 7.6 7.2 6.8 6.5 6.2 6.1 5.8

GFSWCAN_prec_kuchsnow_099.txt.gz
Snowfall_Accumulation
0.0 0.0 0.0 0.0 0.0 0.0 0.0 0.0 0.0 0.0 0.0 0.0 0.0 0.0 0.0 0.0 0.0 0.0 0.0 0.0 0.0 0.0 0.0 0.0 0.0 0.0 0.0 0.0 0.0 0.0 0.0 0.0 0.0 0.2 0.0 0.0 0.0 0.0 0.0 0.0 0.0 0.0 0.1 0.1 0.3 0.6 0.0 0.0 0.0 0.0 0.0 0.0 0.0 0.0
0.0 0.0 0.0 0.0 0.0 0.0 0.0 0.0 0.0 0.0 0.0 0.0 0.0 0.0 0.0 0.0 0.0 0.0 0.0 0.0 0.0 0.0 0.0 0.0 0.0 0.0 0.0 0.0 0.0 0.0 0.0 0.0 0.0 0.0 0.0 0.0 0.0 0.0 0.0 0.0 0.0 0.0 0.0 0.0 0.0 0.0 0.0 0.0 0.0 0.0 0.0 0.0 0.0 0.0
0.0 0.0 0.0 0.0 0.0 0.0 0.0 0.0 0.0 0.0 0.0 0.0 0.0 0.0 0.0 0.0 0.0 0.0 0.0 0.0 0.0 0.1 0.0 0.0 0.0 0.0 0.0 0.0 0.0 0.0 0.0 0.0 0.0 0.0 0.0 0.0 0.0 0.0 0.0 0.0 0.0 0.0 0.0 0.0 0.0 0.0 0.0 0.0 0.0 0.0 0.0 0.0 0.0 0.0
0.0 0.0 0.0 0.0 0.0 0.0 0.0 0.0 0.0 0.0 0.0 0.0 0.0 0.0 0.0 0.0 0.0 0.0 0.0 0.0 0.0 0.1 0.8 0.1 0.0 0.0 0.0 0.0 0.0 0.0 0.0 0.0 0.0 0.0 0.0 0.0 0.0 0.0 0.0 0.0 0.0 0.0 0.0 0.0 0.0 0.0 0.0 0.0 0.0 0.0 0.0 0.0 0.0 0.0
0.0 0.0 0.0 0.0 0.0 0.0 0.0 0.0 0.0 0.0 0.0 0.0 0.0 0.0 0.0 0.0 0.0 0.0 0.0 0.0 0.0 0.1 1.6 0.2 0.0 0.0 0.0 0.0 0.0 0.0 0.0 0.0 0.2 0.1 0.6 0.3 0.0 0.0 0.0 0.0 0.0 0.0 0.0 0.0 0.0 0.0 0.0 0.0 0.0 0.0 0.0 0.0 0.0 0.0
0.0 0.0 0.0 0.0 0.0 0.0 0.0 0.0 0.0 0.0 0.0 0.0 0.0 0.0 0.0 0.0 0.0 0.0 0.0 0.0 0.0 0.0 2.0 1.7 0.0 0.0 0.0 0.0 0.0 0.0 0.0 0.0 0.0 0.4 1.1 0.0 0.0 0.0 0.4 0.0 0.0 0.0 0.0 0.0 0.0 0.0 0.0 0.0 0.0 0.0 0.0 0.0 0.0 0.0
0.0 0.0 0.0 0.0 0.0 0.0 0.0 0.0 0.0 0.0 0.0 0.0 0.0 0.0 0.0 0.0 0.0 0.0 0.0 0.0 0.0 0.0 0.8 3.6 3.3 0.0 0.0 0.0 0.0 0.0 0.0 0.0 0.4 1.2 0.8 0.0 0.0 0.7 0.8 0.2 0.0 0.0 0.0 0.0 0.0 0.0 0.0 0.0 0.0 0.0 0.0 0.0 0.0 0.0
0.0 0.0 0.0 0.0 0.0 0.0 0.0 0.0 0.0 0.0 0.0 0.0 0.0 0.0 0.0 0.0 0.0 0.0 0.0 0.0 0.0 0.0 1.8 9.6 6.7 1.5 0.0 0.2 0.0 0.0 0.0 0.0 0.1 0.4 0.0 0.0 0.0 0.9 1.1 0.0 0.0 0.0 0.0 0.0 0.0 0.0 0.0 0.0 0.0 0.0 0.0 0.0 0.0 0.0
0.0 0.0 0.0 0.0 0.0 0.0 0.0 0.0 0.0 0.0 0.0 0.0 0.0 0.0 0.0 0.0 0.0 0.0 0.0 0.0 0.0 0.0 6.1 5.6 7.1 4.0 0.0 0.0 0.0 0.1 0.0 2.3 0.0 0.7 0.0 0.0 0.4 2.5 0.0 0.1 0.1 0.0 0.1 0.0 0.0 0.0 0.0 0.0 0.0 0.0 0.0 0.0 0.0 0.0
0.0 0.0 0.0 0.0 0.0 0.0 0.0 0.0 0.0 0.0 0.0 0.0 0.0 0.0 0.3 0.0 0.0 0.0 0.0 0.3 2.2 1.6 2.2 5.2 2.8 5.4 1.2 1.6 0.7 0.7 0.7 1.4 3.0 0.0 0.0 0.5 0.0 0.0 0.0 0.0 0.0 0.0 0.0 0.1 0.0 1.8 0.9 0.7 0.0 0.0 0.0 0.0 0.0 0.0
0.0 0.0 0.0 0.0 0.0 0.0 0.0 0.0 0.0 0.0 0.0 0.0 0.0 0.0 0.0 0.0 0.0 0.0 3.4 4.4 2.0 2.0 1.2 1.8 2.8 3.0 0.0 3.6 2.1 0.1 4.1 1.6 3.6 3.1 0.9 1.9 1.4 0.6 0.0 0.1 0.0 0.0 0.0 0.0 0.0 0.0 0.2 0.7 1.0 0.4 0.2 0.1 0.0 0.0
0.0 0.0 0.0 0.0 0.0 0.0 0.0 0.0 0.0 0.0 0.0 0.0 0.0 0.0 0.0 0.3 2.4 4.1 4.4 2.4 0.9 0.8 0.6 1.5 0.7 0.3 0.3 0.0 1.3 0.9 2.9 2.4 3.8 3.1 3.5 2.9 0.7 0.1 0.5 0.6 0.3 0.0 0.0 0.1 0.0 0.0 0.2 0.0 0.5 0.8 0.4 0.8 0.9 0.8
0.0 0.0 0.0 0.0 0.0 0.0 0.0 0.0 0.0 0.0 0.0 0.0 0.0 0.0 0.4 0.9 2.6 3.3 3.6 2.2 0.4 0.5 0.6 0.6 0.8 0.0 0.0 0.0 0.3 1.0 1.5 0.8 0.9 4.0 4.2 1.5 0.1 0.1 0.0 0.1 0.3 1.4 1.4 0.7 0.4 0.3 0.4 0.4 0.2 0.6 0.6 0.4 0.6 0.4
0.0 0.0 0.0 0.0 0.0 0.0 0.0 0.0 0.0 0.0 0.0 0.0 0.8 0.6 0.7 1.0 1.4 1.1 1.1 0.9 0.2 0.1 0.0 0.0 0.3 0.6 0.1 0.7 0.6 1.5 0.1 0.4 3.1 2.2 1.9 0.1 0.1 0.0 0.0 0.0 0.0 0.0 0.6 1.2 2.0 1.4 1.3 1.5 1.0 1.1 0.7 0.3 0.0 0.0
0.0 0.0 0.0 0.0 0.0 0.0 0.0 0.0 0.0 0.0 0.0 2.2 0.9 0.2 0.0 0.0 0.1 0.1 0.0 0.1 0.0 0.0 0.1 0.0 0.0 0.1 0.6 1.0 0.2 0.8 1.0 3.6 4.2 2.6 1.2 0.5 0.2 0.0 0.0 0.1 0.0 0.0 0.0 0.0 0.2 0.5 1.7 1.6 2.0 1.4 0.7 0.6 0.1 0.0
0.0 0.0 0.0 0.0 0.0 0.0 0.0 0.0 0.0 0.0 4.2 3.3 1.3 0.1 0.0 0.0 0.0 0.0 0.0 0.0 0.0 0.0 0.2 0.3 0.4 0.8 0.4 1.4 0.8 0.4 1.2 2.5 2.8 1.0 0.0 0.0 0.0 0.0 0.1 0.0 0.1 0.0 0.0 0.0 0.0 0.0 0.4 0.5 1.1 1.1 0.2 0.5 0.5 0.0
0.0 0.0 0.0 0.0 0.0 0.0 0.0 0.0 0.0 8.4 6.5 4.2 0.6 0.0 0.0 0.0 0.0 0.0 0.0 0.0 0.0 0.2 1.3 1.6 2.4 0.1 0.3 0.7 0.3 0.1 0.2 0.2 0.2 0.0 0.0 0.0 0.0 0.0 0.3 0.0 0.0 0.0 0.0 0.0 0.2 0.2 0.7 0.3 1.3 1.9 1.2 0.5 0.5 0.7
0.0 0.0 0.0 0.0 0.0 0.0 0.0 0.0 3.6 12.4 10.9 1.4 0.0 0.0 0.0 0.0 0.0 0.0 0.0 0.0 0.0 0.1 1.7 4.7 2.7 1.8 0.5 0.2 0.0 0.1 0.0 0.0 0.0 0.0 0.0 0.0 0.0 0.0 0.3 0.0 0.0 0.1 0.7 1.7 1.7 1.7 1.4 1.3 1.7 1.4 0.3 0.5 0.7 0.7
0.0 0.0 0.0 0.0 0.0 0.0 13.1 12.2 9.5 12.7 2.2 0.0 0.0 0.0 0.0 0.0 0.0 0.0 0.1 0.1 0.0 0.1 0.9 2.3 2.9 0.7 0.0 0.0 0.0 0.0 0.0 0.0 0.0 0.0 0.0 0.0 0.0 0.0 0.1 0.6 0.6 0.0 0.4 1.2 0.8 1.0 0.6 0.2 0.0 0.5 0.6 0.2 0.7 0.4
0.0 0.0 0.0 0.0 0.0 9.1 20.2 14.8 6.3 5.0 2.1 0.1 0.0 0.0 0.0 0.0 0.1 0.0 0.1 0.1 0.4 0.7 1.3 1.6 0.0 0.1 0.1 0.4 0.5 0.4 0.0 0.0 0.0 0.0 0.0 0.0 0.0 0.0 0.0 0.0 0.0 0.2 0.0 0.4 0.3 0.1 0.6 0.3 0.1 0.6 0.5 0.3 0.7 0.6
0.0 0.0 0.0 0.0 0.9 13.2 12.7 10.8 3.7 1.6 0.4 0.2 0.0 0.0 0.0 0.0 0.0 0.0 0.2 0.2 2.0 2.5 0.8 0.2 0.0 0.0 0.4 0.4 0.2 0.4 0.1 0.1 0.0 0.0 0.0 0.0 0.0 0.0 0.0 0.0 0.0 0.1 0.0 0.0 0.1 0.0 0.3 0.2 0.1 0.0 0.4 0.2 0.1 0.9
0.2 0.0 3.8 2.4 21.1 21.4 14.7 7.1 2.6 0.4 0.1 0.4 0.2 0.0 0.2 0.1 0.0 0.0 0.2 1.7 2.1 0.2 0.2 0.3 0.0 0.0 0.0 0.0 0.6 0.4 0.5 0.0 0.1 0.0 0.0 0.0 0.0 0.0 0.0 0.0 0.0 0.0 0.0 0.0 0.0 0.0 0.0 0.0 0.2 0.0 0.4 0.4 0.1 1.1
0.0 1.4 23.7 24.5 26.6 23.9 15.0 4.1 2.2 0.9 0.3 0.3 0.7 1.1 0.7 0.1 0.0 0.0 0.2 0.3 0.0 0.0 0.0 0.0 0.0 1.0 1.4 1.2 1.4 1.1 0.6 0.1 0.0 0.0 0.1 0.0 0.0 0.0 0.0 0.0 0.0 0.0 0.0 0.0 0.0 0.0 0.0 0.0 0.0 0.0 0.0 0.5 0.2 0.1
0.0 22.4 31.6 32.0 20.3 18.5 11.7 9.2 5.3 2.3 2.7 1.3 1.4 1.1 0.5 0.0 0.4 0.6 0.4 0.0 0.0 0.0 0.0 0.0 0.0 0.0 0.0 0.8 1.2 1.9 2.3 1.6 0.5 0.0 0.6 0.3 0.0 0.0 0.0 0.0 0.0 0.0 0.0 0.0 0.0 0.0 0.0 0.0 0.0 0.0 0.0 0.0 0.0 0.1
39.0 48.2 33.1 33.9 18.0 9.2 4.0 3.7 2.1 1.9 1.2 1.1 0.4 0.1 0.2 0.6 1.0 1.0 0.2 0.0 0.0 0.0 0.0 0.0 0.0 0.0 0.0 0.0 0.7 0.9 1.1 1.5 2.5 2.5 0.3 1.7 0.8 0.2 0.0 0.0 0.2 0.1 0.0 0.0 0.0 0.0 0.0 0.0 0.0 0.0 0.0 0.0 0.1 0.2
45.6 29.4 19.1 7.9 4.4 1.3 0.7 0.5 0.5 0.3 0.0 0.4 0.4 0.0 0.0 1.0 1.8 0.7 0.0 0.0 0.0 0.0 0.0 0.0 0.0 0.0 0.0 0.0 0.0 0.9 1.1 1.2 1.0 1.6 0.3 2.0 1.8 2.4 1.9 1.5 0.9 0.4 0.0 0.0 0.3 0.3 0.1 0.0 0.0 0.0 0.0 0.1 0.0 0.0
33.1 20.2 6.7 1.5 0.5 0.7 0.3 0.1 0.1 0.2 0.2 0.4 0.1 0.2 0.1 1.4 0.1 0.0 0.0 0.0 0.0 0.0 0.0 0.0 0.0 0.0 0.0 0.0 0.0 0.0 0.9 1.3 1.2 0.5 0.3 1.6 1.3 0.9 0.6 1.8 1.4 0.9 0.6 1.1 1.0 0.9 0.9 0.5 0.3 0.2 0.5 0.3 0.3 0.3
9.8 3.4 0.1 0.5 0.1 0.1 0.1 0.1 0.4 0.2 0.3 0.1 0.3 0.4 0.6 0.1 0.0 0.0 0.0 0.0 0.0 0.0 0.0 0.0 0.0 0.0 0.0 0.0 0.0 0.6 0.9 1.2 1.2 0.8 1.7 1.8 1.5 1.2 1.0 1.1 2.3 2.4 2.3 1.7 1.2 1.7 1.9 1.5 1.4 1.7 1.4 0.7 0.9 0.7
1.9 0.3 0.0 0.2 0.1 0.0 0.4 0.3 0.3 0.2 0.1 0.0 0.0 0.0 0.0 0.0 0.0 0.0 0.0 0.0 0.0 0.0 0.0 0.0 0.0 0.0 0.0 0.0 0.0 0.6 0.8 1.3 1.9 1.8 1.3 1.3 1.6 1.8 1.8 3.2 3.9 5.0 4.9 4.5 3.0 2.5 2.3 2.4 3.5 3.3 2.9 2.9 2.4 2.6
0.5 0.0 0.0 0.0 0.2 0.3 0.1 0.1 0.0 0.2 0.2 0.0 0.0 0.2 0.1 0.0 0.0 0.0 0.0 0.0 0.0 0.0 0.0 0.0 0.0 0.0 0.0 0.0 0.0 0.9 0.7 0.7 1.4 1.5 1.5 1.3 1.4 1.7 3.1 3.7 4.9 5.5 5.8 5.2 6.4 7.2 5.0 5.8 6.7 7.1 6.6 6.1 5.6 4.8
0.0 0.0 0.1 0.1 0.1 0.5 0.5 0.3 0.2 0.0 0.2 0.1 0.1 0.1 0.1 0.1 0.0 0.0 0.0 0.0 0.0 0.0 0.0 0.0 0.0 0.2 0.3 0.6 0.9 1.2 1.1 1.1 1.2 2.0 2.1 2.5 2.3 3.1 3.0 4.6 4.8 5.7 6.3 6.5 6.1 5.8 5.3 5.0 4.4 4.3 4.8 4.4 4.2 3.7
0.0 0.1 0.0 0.5 0.8 1.6 1.4 0.7 0.3 0.0 0.2 0.2 0.1 0.1 0.1 0.0 0.0 0.0 0.0 0.0 0.0 0.0 0.0 0.0 0.5 0.8 0.9 1.2 1.6 1.8 2.5 2.8 1.8 2.7 2.6 2.7 3.1 2.8 4.2 4.9 5.8 6.1 7.0 7.0 6.3 5.9 5.7 5.5 6.2 5.9 6.2 6.4 6.1 5.4
2.1 1.0 0.7 0.4 2.2 2.1 1.7 1.0 1.0 0.8 0.7 0.4 0.1 0.1 0.0 0.0 0.0 0.0 0.0 0.0 0.0 0.0 0.0 0.8 1.0 1.3 2.2 2.6 2.4 3.5 3.7 3.2 4.3 4.2 4.7 4.6 4.2 4.7 6.0 6.0 6.6 6.7 6.7 6.7 7.2 7.8 8.1 7.6 7.2 6.8 6.5 6.2 6.1 5.8

GFSWCAN_prec_kuchsnow_102.txt.gz
Snowfall_Accumulation
0.0 0.0 0.0 0.0 0.0 0.0 0.0 0.0 0.0 0.0 0.0 0.0 0.0 0.0 0.0 0.0 0.0 0.0 0.0 0.0 0.0 0.0 0.0 0.0 0.0 0.0 0.0 0.0 0.0 0.0 0.0 0.0 0.0 0.2 0.0 0.0 0.0 0.0 0.0 0.0 0.0 0.0 0.1 0.1 0.3 0.6 0.0 0.0 0.0 0.0 0.0 0.0 0.0 0.0
0.0 0.0 0.0 0.0 0.0 0.0 0.0 0.0 0.0 0.0 0.0 0.0 0.0 0.0 0.0 0.0 0.0 0.0 0.0 0.0 0.0 0.0 0.0 0.0 0.0 0.0 0.0 0.0 0.0 0.0 0.0 0.0 0.0 0.0 0.0 0.0 0.0 0.0 0.0 0.0 0.0 0.0 0.0 0.0 0.0 0.0 0.0 0.0 0.0 0.0 0.0 0.0 0.0 0.0
0.0 0.0 0.0 0.0 0.0 0.0 0.0 0.0 0.0 0.0 0.0 0.0 0.0 0.0 0.0 0.0 0.0 0.0 0.0 0.0 0.0 0.1 0.0 0.0 0.0 0.0 0.0 0.0 0.0 0.0 0.0 0.0 0.0 0.0 0.0 0.0 0.0 0.0 0.0 0.0 0.0 0.0 0.0 0.0 0.0 0.0 0.0 0.0 0.0 0.0 0.0 0.0 0.0 0.0
0.0 0.0 0.0 0.0 0.0 0.0 0.0 0.0 0.0 0.0 0.0 0.0 0.0 0.0 0.0 0.0 0.0 0.0 0.0 0.0 0.0 0.1 0.8 0.1 0.0 0.0 0.0 0.0 0.0 0.0 0.0 0.0 0.0 0.0 0.0 0.0 0.0 0.0 0.0 0.0 0.0 0.0 0.0 0.0 0.0 0.0 0.0 0.0 0.0 0.0 0.0 0.0 0.0 0.0
0.0 0.0 0.0 0.0 0.0 0.0 0.0 0.0 0.0 0.0 0.0 0.0 0.0 0.0 0.0 0.0 0.0 0.0 0.0 0.0 0.0 0.1 1.6 0.2 0.0 0.0 0.0 0.0 0.0 0.0 0.0 0.0 0.2 0.1 0.6 0.3 0.0 0.0 0.0 0.0 0.0 0.0 0.0 0.0 0.0 0.0 0.0 0.0 0.0 0.0 0.0 0.0 0.0 0.0
0.0 0.0 0.0 0.0 0.0 0.0 0.0 0.0 0.0 0.0 0.0 0.0 0.0 0.0 0.0 0.0 0.0 0.0 0.0 0.0 0.0 0.0 2.0 1.7 0.0 0.0 0.0 0.0 0.0 0.0 0.0 0.0 0.0 0.4 1.1 0.0 0.0 0.0 0.4 0.0 0.0 0.0 0.0 0.0 0.0 0.0 0.0 0.0 0.0 0.0 0.0 0.0 0.0 0.0
0.0 0.0 0.0 0.0 0.0 0.0 0.0 0.0 0.0 0.0 0.0 0.0 0.0 0.0 0.0 0.0 0.0 0.0 0.0 0.0 0.0 0.0 0.8 3.6 3.3 0.0 0.0 0.0 0.0 0.0 0.0 0.0 0.4 1.2 0.8 0.0 0.0 0.7 0.8 0.2 0.0 0.0 0.0 0.0 0.0 0.0 0.0 0.0 0.0 0.0 0.0 0.0 0.0 0.0
0.0 0.0 0.0 0.0 0.0 0.0 0.0 0.0 0.0 0.0 0.0 0.0 0.0 0.0 0.0 0.0 0.0 0.0 0.0 0.0 0.0 0.0 1.8 9.6 6.7 1.5 0.0 0.2 0.0 0.0 0.0 0.0 0.1 0.4 0.0 0.0 0.0 0.9 1.1 0.0 0.0 0.0 0.0 0.0 0.0 0.0 0.0 0.0 0.0 0.0 0.0 0.0 0.0 0.0
0.0 0.0 0.0 0.0 0.0 0.0 0.0 0.0 0.0 0.0 0.0 0.0 0.0 0.0 0.0 0.0 0.0 0.0 0.0 0.0 0.0 0.0 6.1 5.6 7.1 4.0 0.0 0.0 0.0 0.1 0.0 2.3 0.0 0.7 0.0 0.0 0.4 2.5 0.0 0.1 0.1 0.0 0.1 0.0 0.0 0.0 0.0 0.0 0.0 0.0 0.0 0.0 0.0 0.0
0.0 0.0 0.0 0.0 0.0 0.0 0.0 0.0 0.0 0.0 0.0 0.0 0.0 0.0 0.3 0.0 0.0 0.0 0.0 0.3 2.2 1.6 2.2 5.2 2.8 5.4 1.2 1.6 0.7 0.7 0.7 1.4 3.0 0.0 0.0 0.5 0.0 0.0 0.0 0.0 0.0 0.0 0.0 0.1 0.0 1.8 0.9 0.7 0.0 0.0 0.0 0.0 0.0 0.0
0.0 0.0 0.0 0.0 0.0 0.0 0.0 0.0 0.0 0.0 0.0 0.0 0.0 0.0 0.0 0.0 0.0 0.0 3.4 4.4 2.0 2.0 1.2 1.8 2.8 3.0 0.0 3.6 2.1 0.1 4.1 1.6 3.6 3.1 0.9 1.9 1.4 0.6 0.0 0.1 0.0 0.0 0.0 0.0 0.0 0.0 0.2 0.7 1.0 0.4 0.2 0.1 0.0 0.0
0.0 0.0 0.0 0.0 0.0 0.0 0.0 0.0 0.0 0.0 0.0 0.0 0.0 0.0 0.0 0.3 2.4 4.1 4.4 2.4 0.9 0.8 0.6 1.5 0.7 0.3 0.3 0.0 1.3 0.9 2.9 2.4 3.8 3.1 3.5 2.9 0.7 0.1 0.5 0.6 0.3 0.0 0.0 0.1 0.0 0.0 0.2 0.0 0.5 0.8 0.4 0.8 0.9 0.8
0.0 0.0 0.0 0.0 0.0 0.0 0.0 0.0 0.0 0.0 0.0 0.0 0.0 0.6 0.5 0.9 2.6 3.3 3.6 2.2 0.4 0.5 0.6 0.6 0.8 0.0 0.0 0.0 0.3 1.0 1.5 0.8 0.9 4.0 4.2 1.5 0.1 0.1 0.0 0.1 0.3 1.4 1.4 0.7 0.4 0.3 0.4 0.4 0.2 0.6 0.6 0.4 0.6 0.4
0.0 0.0 0.0 0.0 0.0 0.0 0.0 0.0 0.0 0.0 0.0 0.0 2.3 1.8 0.9 1.0 1.4 1.1 1.1 0.9 0.2 0.1 0.0 0.0 0.3 0.6 0.1 0.7 0.6 1.5 0.1 0.4 3.1 2.2 1.9 0.1 0.1 0.0 0.0 0.0 0.0 0.0 0.6 1.2 2.0 1.4 1.3 1.5 1.0 1.1 0.7 0.3 0.0 0.0
0.0 0.0 0.0 0.0 0.0 0.0 0.0 0.0 0.0 0.0 0.0 3.8 2.4 0.9 0.0 0.0 0.1 0.1 0.0 0.1 0.0 0.0 0.1 0.0 0.0 0.1 0.6 1.0 0.2 0.8 1.0 3.6 4.2 2.6 1.2 0.5 0.2 0.0 0.0 0.1 0.0 0.0 0.0 0.0 0.2 0.5 1.7 1.6 2.0 1.4 0.7 0.6 0.1 0.0
0.0 0.0 0.0 0.0 0.0 0.0 0.0 0.0 0.0 0.0 4.2 4.9 3.5 0.5 0.0 0.0 0.0 0.0 0.0 0.0 0.0 0.0 0.2 0.3 0.4 0.8 0.4 1.4 0.8 0.4 1.2 2.5 2.8 1.0 0.0 0.0 0.0 0.0 0.1 0.0 0.1 0.0 0.0 0.0 0.0 0.0 0.4 0.5 1.1 1.1 0.2 0.5 0.5 0.0
0.0 0.0 0.0 0.0 0.0 0.0 0.0 0.0 0.0 10.7 8.5 6.8 1.7 0.0 0.0 0.0 0.0 0.0 0.0 0.0 0.0 0.2 1.3 1.6 2.5 0.1 0.3 0.7 0.3 0.1 0.2 0.2 0.2 0.0 0.0 0.0 0.0 0.0 0.3 0.0 0.0 0.0 0.0 0.0 0.2 0.2 0.7 0.3 1.3 1.9 1.2 0.5 0.5 0.7
0.0 0.0 0.0 0.0 0.0 0.0 0.0 0.0 3.6 14.9 13.6 2.3 0.0 0.0 0.0 0.0 0.0 0.0 0.0 0.0 0.0 0.1 1.7 4.8 2.8 1.9 0.5 0.2 0.0 0.1 0.0 0.0 0.0 0.0 0.0 0.0 0.0 0.0 0.3 0.0 0.0 0.1 0.7 1.7 1.7 1.7 1.4 1.3 1.7 1.4 0.3 0.5 0.7 0.7
0.0 0.0 0.0 0.0 0.0 0.0 13.1 12.2 9.5 15.0 3.4 0.3 0.0 0.0 0.0 0.0 0.0 0.0 0.1 0.1 0.0 0.1 0.9 2.8 3.5 0.9 0.0 0.0 0.0 0.0 0.0 0.0 0.0 0.0 0.0 0.0 0.0 0.0 0.1 0.6 0.6 0.0 0.4 1.2 0.8 1.0 0.6 0.2 0.0 0.5 0.6 0.2 0.7 0.4
0.0 0.0 0.0 0.0 0.0 9.1 21.6 16.1 6.8 5.0 2.1 0.1 0.0 0.0 0.0 0.0 0.1 0.0 0.1 0.1 0.4 0.7 3.3 3.2 0.0 0.1 0.1 0.4 0.5 0.4 0.0 0.0 0.0 0.0 0.0 0.0 0.0 0.0 0.0 0.0 0.0 0.2 0.0 0.4 0.3 0.1 0.6 0.3 0.1 0.6 0.5 0.3 0.7 0.6
0.0 0.0 0.0 0.0 0.9 13.2 13.8 11.6 4.2 1.8 0.4 0.2 0.0 0.0 0.0 0.0 0.1 0.1 0.2 0.2 2.7 4.0 1.5 0.2 0.0 0.0 0.4 0.4 0.2 0.4 0.1 0.1 0.0 0.0 0.0 0.0 0.0 0.0 0.0 0.0 0.0 0.1 0.0 0.0 0.1 0.0 0.3 0.2 0.1 0.0 0.4 0.2 0.1 0.9
0.2 0.0 3.8 2.4 21.1 22.0 15.7 7.1 3.3 0.8 0.4 0.4 0.2 0.0 0.4 0.1 0.0 0.0 0.2 2.5 3.4 0.4 0.2 0.3 0.0 0.0 0.0 0.0 0.6 0.4 0.5 0.0 0.1 0.0 0.0 0.0 0.0 0.0 0.0 0.0 0.0 0.0 0.0 0.0 0.0 0.0 0.0 0.0 0.2 0.0 0.4 0.4 0.1 1.1
0.0 1.4 23.9 25.1 27.6 24.8 15.0 4.1 2.2 0.9 0.3 0.3 0.7 1.1 0.7 0.1 0.0 0.0 0.5 0.3 0.0 0.0 0.0 0.0 0.0 1.0 1.4 1.2 1.4 1.1 0.6 0.1 0.0 0.0 0.1 0.0 0.0 0.0 0.0 0.0 0.0 0.0 0.0 0.0 0.0 0.0 0.0 0.0 0.0 0.0 0.0 0.5 0.2 0.1
0.0 23.1 32.7 33.4 21.9 19.7 11.9 9.2 5.3 2.3 2.7 1.3 1.4 1.1 0.5 0.0 0.4 1.0 0.7 0.0 0.0 0.0 0.0 0.0 0.0 0.0 0.0 0.8 1.2 1.9 2.3 1.6 0.5 0.0 0.6 0.3 0.0 0.0 0.0 0.0 0.0 0.0 0.0 0.0 0.0 0.0 0.0 0.0 0.0 0.0 0.0 0.0 0.0 0.1
40.3 50.1 34.9 35.4 18.9 10.6 5.0 4.2 2.3 2.0 1.2 1.1 0.4 0.1 0.2 0.7 1.4 1.5 0.3 0.0 0.0 0.0 0.0 0.0 0.0 0.0 0.0 0.0 0.7 0.9 1.1 1.5 2.5 2.5 0.3 1.7 0.8 0.2 0.0 0.0 0.2 0.1 0.0 0.0 0.0 0.0 0.0 0.0 0.0 0.0 0.0 0.0 0.1 0.2
48.2 29.4 20.5 8.6 4.8 1.6 0.7 0.5 0.5 0.3 0.0 0.4 0.4 0.0 0.0 1.3 2.3 0.9 0.0 0.0 0.0 0.0 0.0 0.0 0.0 0.0 0.0 0.0 0.0 0.9 1.1 1.2 1.0 1.6 0.3 2.0 1.8 2.4 1.9 1.5 0.9 0.4 0.0 0.0 0.3 0.3 0.1 0.0 0.0 0.0 0.0 0.1 0.0 0.0
35.6 20.2 7.1 1.5 0.5 0.7 0.3 0.1 0.1 0.2 0.2 0.4 0.1 0.2 0.1 2.1 0.1 0.0 0.0 0.0 0.0 0.0 0.0 0.0 0.0 0.0 0.0 0.0 0.0 0.0 0.9 1.3 1.2 0.5 0.3 1.6 1.3 0.9 0.6 1.8 1.4 0.9 0.6 1.1 1.0 0.9 0.9 0.5 0.3 0.2 0.5 0.3 0.3 0.3
9.8 3.4 0.9 0.8 0.2 0.1 0.3 0.3 0.4 0.2 0.3 0.1 0.3 0.4 0.9 0.2 0.0 0.0 0.0 0.0 0.0 0.0 0.0 0.0 0.0 0.0 0.0 0.0 0.0 0.6 0.9 1.2 1.2 0.8 1.7 1.8 1.5 1.2 1.0 1.1 2.3 2.4 2.3 1.7 1.2 1.7 1.9 1.5 1.4 1.7 1.4 0.7 0.9 0.7
1.9 0.3 0.0 0.2 0.3 0.2 0.5 0.3 0.3 0.2 0.1 0.0 0.0 0.0 0.0 0.0 0.0 0.0 0.0 0.0 0.0 0.0 0.0 0.0 0.0 0.0 0.0 0.0 0.0 0.6 0.8 1.3 1.9 1.8 1.3 1.3 1.6 1.8 1.8 3.2 3.9 5.0 4.9 4.5 3.0 2.5 2.3 2.4 3.5 3.3 2.9 2.9 2.4 2.6
0.5 0.0 0.0 0.0 0.6 0.6 0.1 0.1 0.0 0.2 0.2 0.0 0.0 0.2 0.1 0.0 0.0 0.0 0.0 0.0 0.0 0.0 0.0 0.0 0.0 0.0 0.0 0.0 0.0 0.9 0.7 0.7 1.4 1.5 1.5 1.3 1.4 1.7 3.1 3.7 4.9 5.5 5.8 5.2 6.4 7.2 5.0 5.8 6.7 7.1 6.6 6.1 5.6 4.8
0.0 0.0 0.1 0.1 0.1 0.5 0.5 0.3 0.2 0.0 0.2 0.1 0.2 0.2 0.1 0.1 0.0 0.0 0.0 0.0 0.0 0.0 0.0 0.0 0.0 0.2 0.3 0.6 0.9 1.2 1.1 1.1 1.2 2.0 2.1 2.5 2.3 3.1 3.0 4.6 4.8 5.7 6.3 6.5 6.1 5.8 5.3 5.0 4.4 4.3 4.8 4.4 4.2 3.7
0.0 0.1 0.0 0.5 0.8 1.6 1.4 0.7 0.3 0.0 0.2 0.2 0.1 0.1 0.1 0.0 0.0 0.0 0.0 0.0 0.0 0.0 0.0 0.0 0.5 0.8 0.9 1.2 1.6 1.8 2.5 2.8 1.8 2.7 2.6 2.7 3.1 2.8 4.2 4.9 5.8 6.1 7.0 7.0 6.3 5.9 5.7 5.5 6.2 5.9 6.2 6.4 6.1 5.4
2.1 1.0 0.7 0.4 2.2 2.1 1.7 1.0 1.0 0.8 0.7 0.4 0.1 0.1 0.0 0.0 0.0 0.0 0.0 0.0 0.0 0.0 0.0 0.8 1.0 1.3 2.2 2.6 2.4 3.5 3.7 3.2 4.3 4.2 4.7 4.6 4.2 4.7 6.0 6.0 6.6 6.7 6.7 6.7 7.2 7.8 8.1 7.6 7.2 6.8 6.5 6.2 6.1 5.8

GFSWCAN_prec_kuchsnow_105.txt.gz
Snowfall_Accumulation
0.0 0.0 0.0 0.0 0.0 0.0 0.0 0.0 0.0 0.0 0.0 0.0 0.0 0.0 0.0 0.0 0.0 0.0 0.0 0.0 0.0 0.0 0.0 0.0 0.0 0.0 0.0 0.0 0.0 0.0 0.0 0.0 0.0 0.2 0.0 0.0 0.0 0.0 0.0 0.0 0.0 0.0 0.1 0.1 0.3 0.6 0.0 0.0 0.0 0.0 0.0 0.0 0.0 0.0
0.0 0.0 0.0 0.0 0.0 0.0 0.0 0.0 0.0 0.0 0.0 0.0 0.0 0.0 0.0 0.0 0.0 0.0 0.0 0.0 0.0 0.0 0.0 0.0 0.0 0.0 0.0 0.0 0.0 0.0 0.0 0.0 0.0 0.0 0.0 0.0 0.0 0.0 0.0 0.0 0.0 0.0 0.0 0.0 0.0 0.0 0.0 0.0 0.0 0.0 0.0 0.0 0.0 0.0
0.0 0.0 0.0 0.0 0.0 0.0 0.0 0.0 0.0 0.0 0.0 0.0 0.0 0.0 0.0 0.0 0.0 0.0 0.0 0.0 0.0 0.1 0.0 0.0 0.0 0.0 0.0 0.0 0.0 0.0 0.0 0.0 0.0 0.0 0.0 0.0 0.0 0.0 0.0 0.0 0.0 0.0 0.0 0.0 0.0 0.0 0.0 0.0 0.0 0.0 0.0 0.0 0.0 0.0
0.0 0.0 0.0 0.0 0.0 0.0 0.0 0.0 0.0 0.0 0.0 0.0 0.0 0.0 0.0 0.0 0.0 0.0 0.0 0.0 0.0 0.1 0.8 0.1 0.0 0.0 0.0 0.0 0.0 0.0 0.0 0.0 0.0 0.0 0.0 0.0 0.0 0.0 0.0 0.0 0.0 0.0 0.0 0.0 0.0 0.0 0.0 0.0 0.0 0.0 0.0 0.0 0.0 0.0
0.0 0.0 0.0 0.0 0.0 0.0 0.0 0.0 0.0 0.0 0.0 0.0 0.0 0.0 0.0 0.0 0.0 0.0 0.0 0.0 0.0 0.1 1.6 0.2 0.0 0.0 0.0 0.0 0.0 0.0 0.0 0.0 0.2 0.1 0.6 0.3 0.0 0.0 0.0 0.0 0.0 0.0 0.0 0.0 0.0 0.0 0.0 0.0 0.0 0.0 0.0 0.0 0.0 0.0
0.0 0.0 0.0 0.0 0.0 0.0 0.0 0.0 0.0 0.0 0.0 0.0 0.0 0.0 0.0 0.0 0.0 0.0 0.0 0.0 0.0 0.0 2.0 1.7 0.0 0.0 0.0 0.0 0.0 0.0 0.0 0.0 0.0 0.4 1.1 0.0 0.0 0.0 0.4 0.0 0.0 0.0 0.0 0.0 0.0 0.0 0.0 0.0 0.0 0.0 0.0 0.0 0.0 0.0
0.0 0.0 0.0 0.0 0.0 0.0 0.0 0.0 0.0 0.0 0.0 0.0 0.0 0.0 0.0 0.0 0.0 0.0 0.0 0.0 0.0 0.0 0.8 3.6 3.3 0.0 0.0 0.0 0.0 0.0 0.0 0.0 0.4 1.2 0.8 0.0 0.0 0.7 0.8 0.2 0.0 0.0 0.0 0.0 0.0 0.0 0.0 0.0 0.0 0.0 0.0 0.0 0.0 0.0
0.0 0.0 0.0 0.0 0.0 0.0 0.0 0.0 0.0 0.0 0.0 0.0 0.0 0.0 0.0 0.0 0.0 0.0 0.0 0.0 0.0 0.0 1.8 9.6 6.7 1.5 0.0 0.2 0.0 0.0 0.0 0.0 0.1 0.4 0.0 0.0 0.0 0.9 1.1 0.0 0.0 0.0 0.0 0.0 0.0 0.0 0.0 0.0 0.0 0.0 0.0 0.0 0.0 0.0
0.0 0.0 0.0 0.0 0.0 0.0 0.0 0.0 0.0 0.0 0.0 0.0 0.0 0.0 0.0 0.0 0.0 0.0 0.0 0.0 0.0 0.0 6.1 5.6 7.1 4.0 0.0 0.0 0.0 0.1 0.0 2.3 0.0 0.7 0.0 0.0 0.4 2.5 0.0 0.1 0.1 0.0 0.1 0.0 0.0 0.0 0.0 0.0 0.0 0.0 0.0 0.0 0.0 0.0
0.0 0.0 0.0 0.0 0.0 0.0 0.0 0.0 0.0 0.0 0.0 0.0 0.0 0.0 0.3 0.0 0.0 0.0 0.0 0.3 2.2 1.6 2.2 5.2 2.8 5.4 1.2 1.6 0.7 0.7 0.7 1.4 3.0 0.0 0.0 0.5 0.0 0.0 0.0 0.0 0.0 0.0 0.0 0.1 0.0 1.8 0.9 0.7 0.0 0.0 0.0 0.0 0.0 0.0
0.0 0.0 0.0 0.0 0.0 0.0 0.0 0.0 0.0 0.0 0.0 0.0 0.0 0.0 0.0 0.0 0.0 0.0 3.4 4.4 2.0 2.0 1.2 1.8 2.8 3.0 0.0 3.6 2.1 0.1 4.1 1.6 3.6 3.1 0.9 1.9 1.4 0.6 0.0 0.1 0.0 0.0 0.0 0.0 0.0 0.0 0.2 0.7 1.0 0.4 0.2 0.1 0.0 0.0
0.0 0.0 0.0 0.0 0.0 0.0 0.0 0.0 0.0 0.0 0.0 0.0 0.0 0.0 0.0 0.3 2.4 4.1 4.4 2.4 0.9 0.8 0.6 1.5 0.7 0.3 0.3 0.0 1.3 0.9 2.9 2.4 3.8 3.1 3.5 2.9 0.7 0.1 0.5 0.6 0.3 0.0 0.0 0.1 0.0 0.0 0.2 0.0 0.5 0.8 0.4 0.8 0.9 0.8
0.0 0.0 0.0 0.0 0.0 0.0 0.0 0.0 0.0 0.0 0.0 0.0 0.0 0.6 0.5 0.9 2.6 3.4 3.6 2.2 0.4 0.5 0.6 0.6 0.8 0.0 0.0 0.0 0.3 1.0 1.5 0.8 0.9 4.0 4.2 1.5 0.1 0.1 0.0 0.1 0.3 1.4 1.4 0.7 0.4 0.3 0.4 0.4 0.2 0.6 0.6 0.4 0.6 0.4
0.0 0.0 0.0 0.0 0.0 0.0 0.0 0.0 0.0 0.0 0.0 0.0 3.0 2.6 0.9 1.0 1.4 1.1 1.1 0.9 0.2 0.1 0.0 0.0 0.3 0.6 0.1 0.7 0.6 1.5 0.1 0.4 3.1 2.2 1.9 0.1 0.1 0.0 0.0 0.0 0.0 0.0 0.6 1.2 2.0 1.4 1.3 1.5 1.0 1.1 0.7 0.3 0.0 0.0
0.0 0.0 0.0 0.0 0.0 0.0 0.0 0.0 0.0 0.0 0.0 4.7 3.4 1.4 0.0 0.0 0.1 0.1 0.0 0.1 0.0 0.0 0.1 0.0 0.0 0.1 0.6 1.0 0.2 0.8 1.0 3.6 4.2 2.6 1.2 0.5 0.2 0.0 0.0 0.1 0.0 0.0 0.0 0.0 0.2 0.5 1.7 1.6 2.0 1.4 0.7 0.6 0.1 0.0
0.0 0.0 0.0 0.0 0.0 0.0 0.0 0.0 0.0 0.0 4.2 5.6 4.4 0.5 0.0 0.0 0.0 0.0 0.0 0.0 0.0 0.0 0.2 0.3 0.5 0.9 0.4 1.4 0.8 0.4 1.2 2.5 2.8 1.0 0.0 0.0 0.0 0.0 0.1 0.0 0.1 0.0 0.0 0.0 0.0 0.0 0.4 0.5 1.1 1.1 0.2 0.5 0.5 0.0
0.0 0.0 0.0 0.0 0.0 0.0 0.0 0.0 0.0 10.7 9.5 8.4 2.2 0.0 0.0 0.0 0.0 0.0 0.0 0.0 0.0 0.2 1.3 1.8 2.9 0.1 0.3 0.7 0.3 0.1 0.2 0.2 0.2 0.0 0.0 0.0 0.0 0.0 0.3 0.0 0.0 0.0 0.0 0.0 0.2 0.2 0.7 0.3 1.3 1.9 1.2 0.5 0.5 0.7
0.0 0.0 0.0 0.0 0.0 0.0 0.0 0.0 3.6 15.8 15.0 2.3 0.0 0.0 0.0 0.0 0.0 0.0 0.0 0.0 0.0 0.1 1.7 5.1 3.0 2.5 0.6 0.2 0.0 0.1 0.0 0.0 0.0 0.0 0.0 0.0 0.0 0.0 0.3 0.0 0.0 0.1 0.7 1.7 1.7 1.7 1.4 1.3 1.7 1.4 0.3 0.5 0.7 0.7
0.0 0.0 0.0 0.0 0.0 0.0 13.1 12.2 9.5 15.2 3.5 0.3 0.0 0.0 0.0 0.0 0.0 0.0 0.1 0.1 0.0 0.1 0.9 3.3 4.2 1.5 0.0 0.0 0.0 0.0 0.0 0.0 0.0 0.0 0.0 0.0 0.0 0.0 0.1 0.6 0.6 0.0 0.4 1.2 0.8 1.0 0.6 0.2 0.0 0.5 0.6 0.2 0.7 0.4
0.0 0.0 0.0 0.0 0.0 9.2 21.8 16.4 7.0 5.1 2.1 0.1 0.0 0.0 0.0 0.0 0.1 0.0 0.1 0.1 0.4 0.7 4.4 4.4 0.0 0.1 0.1 0.4 0.5 0.4 0.0 0.0 0.0 0.0 0.0 0.0 0.0 0.0 0.0 0.0 0.0 0.2 0.0 0.4 0.3 0.1 0.6 0.3 0.1 0.6 0.5 0.3 0.7 0.6
0.0 0.0 0.0 0.0 0.9 13.2 14.6 11.9 4.5 1.8 0.4 0.2 0.0 0.0 0.0 0.0 0.1 0.1 0.2 0.2 4.0 6.0 2.4 0.2 0.0 0.0 0.4 0.4 0.2 0.4 0.1 0.1 0.0 0.0 0.0 0.0 0.0 0.0 0.0 0.0 0.0 0.1 0.0 0.0 0.1 0.0 0.3 0.2 0.1 0.0 0.4 0.2 0.1 0.9
0.2 0.0 3.8 2.4 21.3 22.4 15.7 7.1 3.6 0.8 0.4 0.4 0.3 0.1 0.5 0.1 0.0 0.0 0.2 2.5 4.1 0.4 0.2 0.3 0.0 0.0 0.0 0.0 0.6 0.4 0.5 0.0 0.1 0.0 0.0 0.0 0.0 0.0 0.0 0.0 0.0 0.0 0.0 0.0 0.0 0.0 0.0 0.0 0.2 0.0 0.4 0.4 0.1 1.1
0.0 1.4 24.2 25.3 28.0 25.4 15.0 4.1 2.2 1.0 0.6 0.6 1.0 1.5 0.9 0.1 0.0 0.0 0.6 0.3 0.0 0.0 0.0 0.0 0.0 1.0 1.4 1.2 1.4 1.1 0.6 0.1 0.0 0.0 0.1 0.0 0.0 0.0 0.0 0.0 0.0 0.0 0.0 0.0 0.0 0.0 0.0 0.0 0.0 0.0 0.0 0.5 0.2 0.1
0.0 24.1 33.6 34.0 22.4 20.3 11.9 9.2 5.4 2.4 2.8 1.5 1.5 1.1 0.5 0.0 0.4 1.0 0.8 0.0 0.0 0.0 0.0 0.0 0.0 0.0 0.0 0.8 1.2 1.9 2.3 1.6 0.5 0.0 0.6 0.3 0.0 0.0 0.0 0.0 0.0 0.0 0.0 0.0 0.0 0.0 0.0 0.0 0.0 0.0 0.0 0.0 0.0 0.1
42.2 52.5 35.8 36.1 19.1 11.1 5.5 4.2 2.8 2.4 1.4 1.1 0.4 0.1 0.2 0.7 1.4 1.7 0.3 0.0 0.0 0.0 0.0 0.0 0.0 0.0 0.0 0.0 0.7 0.9 1.1 1.5 2.5 2.5 0.3 1.7 0.8 0.2 0.0 0.0 0.2 0.1 0.0 0.0 0.0 0.0 0.0 0.0 0.0 0.0 0.0 0.0 0.1 0.2
50.4 29.4 21.0 8.7 4.8 1.8 0.7 0.5 0.5 0.3 0.0 0.4 0.4 0.0 0.0 1.3 2.9 1.0 0.0 0.0 0.0 0.0 0.0 0.0 0.0 0.0 0.0 0.0 0.0 0.9 1.1 1.2 1.0 1.6 0.3 2.0 1.8 2.4 1.9 1.5 0.9 0.4 0.0 0.0 0.3 0.3 0.1 0.0 0.0 0.0 0.0 0.1 0.0 0.0
37.4 20.8 7.3 1.5 0.5 0.7 0.3 0.1 0.1 0.4 0.4 0.7 0.1 0.2 0.1 3.0 0.5 0.0 0.0 0.0 0.0 0.0 0.0 0.0 0.0 0.0 0.0 0.0 0.0 0.0 0.9 1.3 1.2 0.5 0.3 1.6 1.3 0.9 0.6 1.8 1.4 0.9 0.6 1.1 1.0 0.9 0.9 0.5 0.3 0.2 0.5 0.3 0.3 0.3
9.8 3.4 1.0 0.8 0.5 0.2 0.3 0.3 0.4 0.2 0.8 0.2 0.4 0.7 1.6 0.6 0.0 0.0 0.0 0.0 0.0 0.0 0.0 0.0 0.0 0.0 0.0 0.0 0.0 0.6 0.9 1.2 1.2 0.8 1.7 1.8 1.5 1.2 1.0 1.1 2.3 2.4 2.3 1.7 1.2 1.7 1.9 1.5 1.4 1.7 1.4 0.7 0.9 0.7
1.9 0.3 0.0 0.2 0.3 0.2 0.5 0.3 0.5 0.2 0.1 0.0 0.2 0.2 0.0 0.0 0.0 0.0 0.0 0.0 0.0 0.0 0.0 0.0 0.0 0.0 0.0 0.0 0.0 0.6 0.8 1.3 1.9 1.8 1.3 1.3 1.6 1.8 1.8 3.2 3.9 5.0 4.9 4.5 3.0 2.5 2.3 2.4 3.5 3.3 2.9 2.9 2.4 2.6
0.5 0.0 0.0 0.0 0.6 0.6 0.1 0.1 0.0 0.2 0.2 0.0 0.0 0.2 0.1 0.0 0.0 0.0 0.0 0.0 0.0 0.0 0.0 0.0 0.0 0.0 0.0 0.0 0.0 0.9 0.7 0.7 1.4 1.5 1.5 1.3 1.4 1.7 3.1 3.7 4.9 5.5 5.8 5.2 6.4 7.2 5.0 5.8 6.7 7.1 6.6 6.1 5.6 4.8
0.0 0.0 0.1 0.1 0.1 0.5 0.5 0.3 0.2 0.0 0.2 0.1 0.2 0.2 0.1 0.1 0.0 0.0 0.0 0.0 0.0 0.0 0.0 0.0 0.0 0.2 0.3 0.6 0.9 1.2 1.1 1.1 1.2 2.0 2.1 2.5 2.3 3.1 3.0 4.6 4.8 5.7 6.3 6.5 6.1 5.8 5.3 5.0 4.4 4.3 4.8 4.4 4.2 3.7
0.0 0.1 0.0 0.5 0.8 1.6 1.4 0.7 0.3 0.0 0.2 0.2 0.1 0.1 0.1 0.0 0.0 0.0 0.0 0.0 0.0 0.0 0.0 0.0 0.5 0.8 0.9 1.2 1.6 1.8 2.5 2.8 1.8 2.7 2.6 2.7 3.1 2.8 4.2 4.9 5.8 6.1 7.0 7.0 6.3 5.9 5.7 5.5 6.2 5.9 6.2 6.4 6.1 5.4
2.1 1.0 0.7 0.4 2.2 2.1 1.7 1.0 1.0 0.8 0.7 0.4 0.1 0.1 0.0 0.0 0.0 0.0 0.0 0.0 0.0 0.0 0.0 0.8 1.0 1.3 2.2 2.6 2.4 3.5 3.7 3.2 4.3 4.2 4.7 4.6 4.2 4.7 6.0 6.0 6.6 6.7 6.7 6.7 7.2 7.8 8.1 7.6 7.2 6.8 6.5 6.2 6.1 5.8

GFSWCAN_prec_kuchsnow_108.txt.gz
Snowfall_Accumulation
0.0 0.0 0.0 0.0 0.0 0.0 0.0 0.0 0.0 0.0 0.0 0.0 0.0 0.0 0.0 0.0 0.0 0.0 0.0 0.0 0.0 0.0 0.0 0.0 0.0 0.0 0.0 0.0 0.0 0.0 0.0 0.0 0.0 0.2 0.0 0.0 0.0 0.0 0.0 0.0 0.0 0.0 0.1 0.1 0.3 0.6 0.0 0.0 0.0 0.0 0.0 0.0 0.0 0.0
0.0 0.0 0.0 0.0 0.0 0.0 0.0 0.0 0.0 0.0 0.0 0.0 0.0 0.0 0.0 0.0 0.0 0.0 0.0 0.0 0.0 0.0 0.0 0.0 0.0 0.0 0.0 0.0 0.0 0.0 0.0 0.0 0.0 0.0 0.0 0.0 0.0 0.0 0.0 0.0 0.0 0.0 0.0 0.0 0.0 0.0 0.0 0.0 0.0 0.0 0.0 0.0 0.0 0.0
0.0 0.0 0.0 0.0 0.0 0.0 0.0 0.0 0.0 0.0 0.0 0.0 0.0 0.0 0.0 0.0 0.0 0.0 0.0 0.0 0.0 0.1 0.0 0.0 0.0 0.0 0.0 0.0 0.0 0.0 0.0 0.0 0.0 0.0 0.0 0.0 0.0 0.0 0.0 0.0 0.0 0.0 0.0 0.0 0.0 0.0 0.0 0.0 0.0 0.0 0.0 0.0 0.0 0.0
0.0 0.0 0.0 0.0 0.0 0.0 0.0 0.0 0.0 0.0 0.0 0.0 0.0 0.0 0.0 0.0 0.0 0.0 0.0 0.0 0.0 0.1 0.8 0.1 0.0 0.0 0.0 0.0 0.0 0.0 0.0 0.0 0.0 0.0 0.0 0.0 0.0 0.0 0.0 0.0 0.0 0.0 0.0 0.0 0.0 0.0 0.0 0.0 0.0 0.0 0.0 0.0 0.0 0.0
0.0 0.0 0.0 0.0 0.0 0.0 0.0 0.0 0.0 0.0 0.0 0.0 0.0 0.0 0.0 0.0 0.0 0.0 0.0 0.0 0.0 0.1 1.6 0.2 0.0 0.0 0.0 0.0 0.0 0.0 0.0 0.0 0.2 0.1 0.6 0.3 0.0 0.0 0.0 0.0 0.0 0.0 0.0 0.0 0.0 0.0 0.0 0.0 0.0 0.0 0.0 0.0 0.0 0.0
0.0 0.0 0.0 0.0 0.0 0.0 0.0 0.0 0.0 0.0 0.0 0.0 0.0 0.0 0.0 0.0 0.0 0.0 0.0 0.0 0.0 0.0 2.0 1.7 0.0 0.0 0.0 0.0 0.0 0.0 0.0 0.0 0.0 0.4 1.1 0.0 0.0 0.0 0.4 0.0 0.0 0.0 0.0 0.0 0.0 0.0 0.0 0.0 0.0 0.0 0.0 0.0 0.0 0.0
0.0 0.0 0.0 0.0 0.0 0.0 0.0 0.0 0.0 0.0 0.0 0.0 0.0 0.0 0.0 0.0 0.0 0.0 0.0 0.0 0.0 0.0 0.8 3.6 3.3 0.0 0.0 0.0 0.0 0.0 0.0 0.0 0.4 1.2 0.8 0.0 0.0 0.7 0.8 0.2 0.0 0.0 0.0 0.0 0.0 0.0 0.0 0.0 0.0 0.0 0.0 0.0 0.0 0.0
0.0 0.0 0.0 0.0 0.0 0.0 0.0 0.0 0.0 0.0 0.0 0.0 0.0 0.0 0.0 0.0 0.0 0.0 0.0 0.0 0.0 0.0 1.8 9.6 6.7 1.5 0.0 0.2 0.0 0.0 0.0 0.0 0.1 0.4 0.0 0.0 0.0 0.9 1.1 0.0 0.0 0.0 0.0 0.0 0.0 0.0 0.0 0.0 0.0 0.0 0.0 0.0 0.0 0.0
0.0 0.0 0.0 0.0 0.0 0.0 0.0 0.0 0.0 0.0 0.0 0.0 0.0 0.0 0.0 0.0 0.0 0.0 0.0 0.0 0.0 0.0 6.1 5.6 7.1 4.0 0.0 0.0 0.0 0.1 0.0 2.3 0.0 0.7 0.0 0.0 0.4 2.5 0.0 0.1 0.1 0.0 0.1 0.0 0.0 0.0 0.0 0.0 0.0 0.0 0.0 0.0 0.0 0.0
0.0 0.0 0.0 0.0 0.0 0.0 0.0 0.0 0.0 0.0 0.0 0.0 0.0 0.0 0.3 0.0 0.0 0.0 0.0 0.3 2.2 1.6 2.2 5.2 2.8 5.4 1.2 1.6 0.7 0.7 0.7 1.4 3.0 0.0 0.0 0.5 0.0 0.0 0.0 0.0 0.0 0.0 0.0 0.1 0.0 1.8 0.9 0.7 0.0 0.0 0.0 0.0 0.0 0.0
0.0 0.0 0.0 0.0 0.0 0.0 0.0 0.0 0.0 0.0 0.0 0.0 0.0 0.0 0.0 0.0 0.0 0.0 3.4 4.4 2.0 2.0 1.2 1.8 2.8 3.0 0.0 3.6 2.1 0.1 4.1 1.6 3.6 3.1 0.9 1.9 1.4 0.6 0.0 0.1 0.0 0.0 0.0 0.0 0.0 0.0 0.2 0.7 1.0 0.4 0.2 0.1 0.0 0.0
0.0 0.0 0.0 0.0 0.0 0.0 0.0 0.0 0.0 0.0 0.0 0.0 0.0 0.0 0.0 0.3 2.4 4.1 4.4 2.4 0.9 0.8 0.6 1.5 0.7 0.3 0.3 0.0 1.3 0.9 2.9 2.4 3.8 3.1 3.5 2.9 0.7 0.1 0.5 0.6 0.3 0.0 0.0 0.1 0.0 0.0 0.2 0.0 0.5 0.8 0.4 0.8 0.9 0.8
0.0 0.0 0.0 0.0 0.0 0.0 0.0 0.0 0.0 0.0 0.0 0.0 0.0 0.6 0.5 0.9 2.6 3.6 3.6 2.2 0.4 0.5 0.6 0.6 0.8 0.0 0.0 0.0 0.3 1.0 1.5 0.8 0.9 4.0 4.2 1.5 0.1 0.1 0.0 0.1 0.3 1.4 1.4 0.7 0.4 0.3 0.4 0.4 0.2 0.6 0.6 0.4 0.6 0.4
0.0 0.0 0.0 0.0 0.0 0.0 0.0 0.0 0.0 0.0 0.0 0.0 3.0 2.6 0.9 1.0 1.4 1.1 1.1 0.9 0.2 0.1 0.0 0.0 0.3 0.6 0.1 0.7 0.6 1.5 0.1 0.4 3.1 2.2 1.9 0.1 0.1 0.0 0.0 0.0 0.0 0.0 0.6 1.2 2.0 1.4 1.3 1.5 1.0 1.1 0.7 0.3 0.0 0.0
0.0 0.0 0.0 0.0 0.0 0.0 0.0 0.0 0.0 0.0 0.0 4.7 3.9 1.4 0.0 0.0 0.1 0.1 0.0 0.1 0.0 0.0 0.1 0.0 0.0 0.1 0.6 1.1 0.2 0.8 1.0 3.6 4.2 2.6 1.2 0.5 0.2 0.0 0.0 0.1 0.0 0.0 0.0 0.0 0.2 0.5 1.7 1.6 2.0 1.4 0.7 0.6 0.1 0.0
0.0 0.0 0.0 0.0 0.0 0.0 0.0 0.0 0.0 0.0 4.2 6.0 4.8 0.5 0.0 0.0 0.0 0.0 0.0 0.0 0.0 0.0 0.2 0.3 0.5 0.9 0.4 1.4 0.9 0.4 1.2 2.5 2.8 1.0 0.0 0.0 0.0 0.0 0.1 0.0 0.1 0.0 0.0 0.0 0.0 0.0 0.4 0.5 1.1 1.1 0.2 0.5 0.5 0.0
0.0 0.0 0.0 0.0 0.0 0.0 0.0 0.0 0.0 10.7 9.5 8.4 2.2 0.0 0.0 0.0 0.0 0.0 0.0 0.0 0.0 0.2 1.3 1.8 2.9 0.1 0.6 1.1 0.4 0.1 0.2 0.2 0.2 0.0 0.0 0.0 0.0 0.0 0.3 0.0 0.0 0.0 0.0 0.0 0.2 0.2 0.7 0.3 1.3 1.9 1.2 0.5 0.5 0.7
0.0 0.0 0.0 0.0 0.0 0.0 0.0 0.0 3.6 15.8 15.3 2.3 0.0 0.0 0.0 0.0 0.0 0.0 0.0 0.0 0.0 0.1 1.7 5.3 3.3 3.4 1.3 0.2 0.0 0.1 0.0 0.0 0.0 0.0 0.0 0.0 0.0 0.0 0.3 0.0 0.0 0.1 0.7 1.7 1.7 1.7 1.4 1.3 1.7 1.4 0.3 0.5 0.7 0.7
0.0 0.0 0.0 0.0 0.0 0.0 13.1 12.2 9.5 15.3 3.5 0.3 0.0 0.0 0.0 0.0 0.0 0.0 0.1 0.1 0.0 0.1 0.9 4.4 5.3 2.1 0.0 0.0 0.0 0.0 0.0 0.0 0.0 0.0 0.0 0.0 0.0 0.0 0.1 0.6 0.6 0.0 0.4 1.2 0.8 1.0 0.6 0.2 0.0 0.5 0.6 0.2 0.7 0.4
0.0 0.0 0.0 0.0 0.0 9.3 22.1 16.5 7.0 5.1 2.1 0.1 0.0 0.0 0.0 0.0 0.1 0.0 0.1 0.1 0.4 0.7 5.1 5.6 0.0 0.1 0.1 0.4 0.5 0.4 0.0 0.0 0.0 0.0 0.0 0.0 0.0 0.0 0.0 0.0 0.0 0.2 0.0 0.4 0.3 0.1 0.6 0.3 0.1 0.6 0.5 0.3 0.7 0.6
0.0 0.0 0.0 0.0 0.9 13.4 14.8 11.9 4.8 1.9 0.4 0.2 0.0 0.0 0.0 0.0 0.1 0.1 0.2 0.2 4.1 6.3 2.4 0.2 0.0 0.0 0.4 0.4 0.2 0.4 0.1 0.1 0.0 0.0 0.0 0.0 0.0 0.0 0.0 0.0 0.0 0.1 0.0 0.0 0.1 0.0 0.3 0.2 0.1 0.0 0.4 0.2 0.1 0.9
0.2 0.0 3.8 2.4 22.2 23.4 16.3 7.1 3.6 0.8 0.4 0.4 0.3 0.1 0.5 0.1 0.0 0.0 0.2 2.6 4.3 0.4 0.2 0.3 0.0 0.0 0.0 0.0 0.6 0.4 0.5 0.0 0.1 0.0 0.0 0.0 0.0 0.0 0.0 0.0 0.0 0.0 0.0 0.0 0.0 0.0 0.0 0.0 0.2 0.0 0.4 0.4 0.1 1.1
0.0 1.4 24.7 26.0 29.2 26.8 15.5 4.1 2.2 1.0 0.6 0.6 1.0 2.0 0.9 0.1 0.1 0.0 1.0 0.4 0.0 0.0 0.0 0.0 0.0 1.0 1.4 1.2 1.4 1.1 0.6 0.1 0.0 0.0 0.1 0.0 0.0 0.0 0.0 0.0 0.0 0.0 0.0 0.0 0.0 0.0 0.0 0.0 0.0 0.0 0.0 0.5 0.2 0.1
0.0 25.1 35.6 36.2 23.6 20.9 12.1 9.3 5.4 2.4 2.8 1.5 1.5 1.1 0.5 0.0 0.4 1.0 1.1 0.0 0.0 0.0 0.0 0.0 0.0 0.0 0.0 0.8 1.2 1.9 2.3 1.6 0.5 0.0 0.6 0.3 0.0 0.0 0.0 0.0 0.0 0.0 0.0 0.0 0.0 0.0 0.0 0.0 0.0 0.0 0.0 0.0 0.0 0.1
43.4 54.0 37.5 38.2 20.2 11.7 6.0 4.3 2.8 2.4 1.4 1.1 0.4 0.3 0.2 0.7 1.6 2.1 0.5 0.0 0.0 0.0 0.0 0.0 0.0 0.0 0.0 0.0 0.7 0.9 1.1 1.5 2.5 2.5 0.3 1.7 0.8 0.2 0.0 0.0 0.2 0.1 0.0 0.0 0.0 0.0 0.0 0.0 0.0 0.0 0.0 0.0 0.1 0.2
51.4 29.4 21.8 9.6 5.5 1.8 0.7 0.5 0.5 0.3 0.0 0.4 0.4 0.0 0.0 1.7 3.8 1.7 0.1 0.0 0.0 0.0 0.0 0.0 0.0 0.0 0.0 0.0 0.0 0.9 1.1 1.2 1.0 1.6 0.3 2.0 1.8 2.4 1.9 1.5 0.9 0.4 0.0 0.0 0.3 0.3 0.1 0.0 0.0 0.0 0.0 0.1 0.0 0.0
38.4 20.8 7.3 1.5 0.5 0.7 0.3 0.1 0.1 0.4 0.6 0.8 0.1 0.2 0.1 4.0 0.5 0.0 0.0 0.0 0.0 0.0 0.0 0.0 0.0 0.0 0.0 0.0 0.0 0.0 0.9 1.3 1.2 0.5 0.3 1.6 1.3 0.9 0.6 1.8 1.4 0.9 0.6 1.1 1.0 0.9 0.9 0.5 0.3 0.2 0.5 0.3 0.3 0.3
9.8 3.4 1.0 0.8 0.5 0.2 0.3 0.3 0.4 0.2 0.8 0.2 1.2 1.9 3.3 2.1 0.6 0.0 0.0 0.0 0.0 0.0 0.0 0.0 0.0 0.0 0.0 0.0 0.0 0.6 0.9 1.2 1.2 0.8 1.7 1.8 1.5 1.2 1.0 1.1 2.3 2.4 2.3 1.7 1.2 1.7 1.9 1.5 1.4 1.7 1.4 0.7 0.9 0.7
1.9 0.3 0.0 0.2 0.3 0.2 0.5 0.3 0.5 0.2 0.1 0.0 0.2 0.2 0.0 0.0 0.0 0.0 0.0 0.0 0.0 0.0 0.0 0.0 0.0 0.0 0.0 0.0 0.0 0.6 0.8 1.3 1.9 1.8 1.3 1.3 1.6 1.8 1.8 3.2 3.9 5.0 4.9 4.5 3.0 2.5 2.3 2.4 3.5 3.3 2.9 2.9 2.4 2.6
0.5 0.0 0.0 0.0 0.6 0.6 0.1 0.1 0.0 0.2 0.2 0.0 0.0 0.2 0.1 0.0 0.0 0.0 0.0 0.0 0.0 0.0 0.0 0.0 0.0 0.0 0.0 0.0 0.0 0.9 0.7 0.7 1.4 1.5 1.5 1.3 1.4 1.7 3.1 3.7 4.9 5.5 5.8 5.2 6.4 7.2 5.0 5.8 6.7 7.1 6.6 6.1 5.6 4.8
0.0 0.0 0.1 0.1 0.1 0.5 0.5 0.3 0.2 0.0 0.2 0.1 0.2 0.2 0.1 0.1 0.0 0.0 0.0 0.0 0.0 0.0 0.0 0.0 0.0 0.2 0.3 0.6 0.9 1.2 1.1 1.1 1.2 2.0 2.1 2.5 2.3 3.1 3.0 4.6 4.8 5.7 6.3 6.5 6.1 5.8 5.3 5.0 4.4 4.3 4.8 4.4 4.2 3.7
0.0 0.1 0.0 0.5 0.8 1.6 1.4 0.7 0.3 0.0 0.2 0.2 0.1 0.1 0.1 0.0 0.0 0.0 0.0 0.0 0.0 0.0 0.0 0.0 0.5 0.8 0.9 1.2 1.6 1.8 2.5 2.8 1.8 2.7 2.6 2.7 3.1 2.8 4.2 4.9 5.8 6.1 7.0 7.0 6.3 5.9 5.7 5.5 6.2 5.9 6.2 6.4 6.1 5.4
2.1 1.0 0.7 0.4 2.2 2.1 1.7 1.0 1.0 0.8 0.7 0.4 0.1 0.1 0.0 0.0 0.0 0.0 0.0 0.0 0.0 0.0 0.0 0.8 1.0 1.3 2.2 2.6 2.4 3.5 3.7 3.2 4.3 4.2 4.7 4.6 4.2 4.7 6.0 6.0 6.6 6.7 6.7 6.7 7.2 7.8 8.1 7.7 7.3 6.8 6.5 6.2 6.1 5.8

GFSWCAN_prec_kuchsnow_111.txt.gz
Snowfall_Accumulation
0.0 0.0 0.0 0.0 0.0 0.0 0.0 0.0 0.0 0.0 0.0 0.0 0.0 0.0 0.0 0.0 0.0 0.0 0.0 0.0 0.0 0.0 0.0 0.0 0.0 0.0 0.0 0.0 0.0 0.0 0.0 0.0 0.0 0.2 0.0 0.0 0.0 0.0 0.0 0.0 0.0 0.0 0.1 0.1 0.3 0.6 0.0 0.0 0.0 0.0 0.0 0.0 0.0 0.0
0.0 0.0 0.0 0.0 0.0 0.0 0.0 0.0 0.0 0.0 0.0 0.0 0.0 0.0 0.0 0.0 0.0 0.0 0.0 0.0 0.0 0.0 0.0 0.0 0.0 0.0 0.0 0.0 0.0 0.0 0.0 0.0 0.0 0.0 0.0 0.0 0.0 0.0 0.0 0.0 0.0 0.0 0.0 0.0 0.0 0.0 0.0 0.0 0.0 0.0 0.0 0.0 0.0 0.0
0.0 0.0 0.0 0.0 0.0 0.0 0.0 0.0 0.0 0.0 0.0 0.0 0.0 0.0 0.0 0.0 0.0 0.0 0.0 0.0 0.0 0.1 0.0 0.0 0.0 0.0 0.0 0.0 0.0 0.0 0.0 0.0 0.0 0.0 0.0 0.0 0.0 0.0 0.0 0.0 0.0 0.0 0.0 0.0 0.0 0.0 0.0 0.0 0.0 0.0 0.0 0.0 0.0 0.0
0.0 0.0 0.0 0.0 0.0 0.0 0.0 0.0 0.0 0.0 0.0 0.0 0.0 0.0 0.0 0.0 0.0 0.0 0.0 0.0 0.0 0.1 0.8 0.1 0.0 0.0 0.0 0.0 0.0 0.0 0.0 0.0 0.0 0.0 0.0 0.0 0.0 0.0 0.0 0.0 0.0 0.0 0.0 0.0 0.0 0.0 0.0 0.0 0.0 0.0 0.0 0.0 0.0 0.0
0.0 0.0 0.0 0.0 0.0 0.0 0.0 0.0 0.0 0.0 0.0 0.0 0.0 0.0 0.0 0.0 0.0 0.0 0.0 0.0 0.0 0.1 1.6 0.2 0.0 0.0 0.0 0.0 0.0 0.0 0.0 0.0 0.2 0.1 0.6 0.3 0.0 0.0 0.0 0.0 0.0 0.0 0.0 0.0 0.0 0.0 0.0 0.0 0.0 0.0 0.0 0.0 0.0 0.0
0.0 0.0 0.0 0.0 0.0 0.0 0.0 0.0 0.0 0.0 0.0 0.0 0.0 0.0 0.0 0.0 0.0 0.0 0.0 0.0 0.0 0.0 2.0 1.7 0.0 0.0 0.0 0.0 0.0 0.0 0.0 0.0 0.0 0.4 1.1 0.0 0.0 0.0 0.4 0.0 0.0 0.0 0.0 0.0 0.0 0.0 0.0 0.0 0.0 0.0 0.0 0.0 0.0 0.0
0.0 0.0 0.0 0.0 0.0 0.0 0.0 0.0 0.0 0.0 0.0 0.0 0.0 0.0 0.0 0.0 0.0 0.0 0.0 0.0 0.0 0.0 0.8 3.6 3.3 0.0 0.0 0.0 0.0 0.0 0.0 0.0 0.4 1.2 0.8 0.0 0.0 0.7 0.8 0.2 0.0 0.0 0.0 0.0 0.0 0.0 0.0 0.0 0.0 0.0 0.0 0.0 0.0 0.0
0.0 0.0 0.0 0.0 0.0 0.0 0.0 0.0 0.0 0.0 0.0 0.0 0.0 0.0 0.0 0.0 0.0 0.0 0.0 0.0 0.0 0.0 1.8 9.6 6.7 1.5 0.0 0.2 0.0 0.0 0.0 0.0 0.1 0.4 0.0 0.0 0.0 0.9 1.1 0.0 0.0 0.0 0.0 0.0 0.0 0.0 0.0 0.0 0.0 0.0 0.0 0.0 0.0 0.0
0.0 0.0 0.0 0.0 0.0 0.0 0.0 0.0 0.0 0.0 0.0 0.0 0.0 0.0 0.0 0.0 0.0 0.0 0.0 0.0 0.0 0.0 6.1 5.6 7.1 4.0 0.0 0.0 0.0 0.1 0.0 2.3 0.0 0.7 0.0 0.0 0.4 2.5 0.0 0.1 0.1 0.0 0.1 0.0 0.0 0.0 0.0 0.0 0.0 0.0 0.0 0.0 0.0 0.0
0.0 0.0 0.0 0.0 0.0 0.0 0.0 0.0 0.0 0.0 0.0 0.0 0.0 0.0 0.3 0.0 0.0 0.0 0.0 0.3 2.2 1.6 2.2 5.2 2.8 5.4 1.2 1.6 0.7 0.7 0.7 1.4 3.0 0.0 0.0 0.5 0.0 0.0 0.0 0.0 0.0 0.0 0.0 0.1 0.0 1.8 0.9 0.7 0.0 0.0 0.0 0.0 0.0 0.0
0.0 0.0 0.0 0.0 0.0 0.0 0.0 0.0 0.0 0.0 0.0 0.0 0.0 0.0 0.0 0.0 0.0 0.0 3.4 4.4 2.0 2.0 1.2 1.8 2.8 3.0 0.0 3.6 2.1 0.1 4.1 1.6 3.6 3.1 0.9 1.9 1.4 0.6 0.0 0.1 0.0 0.0 0.0 0.0 0.0 0.0 0.2 0.7 1.0 0.4 0.2 0.1 0.0 0.0
0.0 0.0 0.0 0.0 0.0 0.0 0.0 0.0 0.0 0.0 0.0 0.0 0.0 0.0 0.0 0.3 2.4 4.1 4.5 2.4 0.9 0.8 0.6 1.5 0.7 0.3 0.3 0.0 1.3 0.9 2.9 2.4 3.8 3.1 3.5 2.9 0.7 0.1 0.5 0.6 0.3 0.0 0.0 0.1 0.0 0.0 0.2 0.0 0.5 0.8 0.4 0.8 0.9 0.8
0.0 0.0 0.0 0.0 0.0 0.0 0.0 0.0 0.0 0.0 0.0 0.0 0.0 0.6 0.5 0.9 2.6 3.7 3.6 2.2 0.4 0.5 0.6 0.6 0.8 0.0 0.0 0.0 0.3 1.0 1.5 0.8 0.9 4.0 4.2 1.5 0.1 0.1 0.0 0.1 0.3 1.4 1.4 0.7 0.4 0.3 0.4 0.4 0.2 0.6 0.6 0.4 0.6 0.4
0.0 0.0 0.0 0.0 0.0 0.0 0.0 0.0 0.0 0.0 0.0 0.0 3.0 2.6 0.9 1.0 1.4 1.1 1.1 0.9 0.2 0.1 0.0 0.0 0.3 0.6 0.1 0.7 0.6 1.5 0.1 0.4 3.1 2.2 1.9 0.1 0.1 0.0 0.0 0.0 0.0 0.0 0.6 1.2 2.0 1.4 1.3 1.5 1.0 1.1 0.7 0.3 0.0 0.0
0.0 0.0 0.0 0.0 0.0 0.0 0.0 0.0 0.0 0.0 0.0 4.7 3.9 1.4 0.0 0.0 0.1 0.1 0.0 0.1 0.0 0.0 0.1 0.0 0.0 0.1 0.6 1.1 0.2 0.8 1.0 3.6 4.2 2.6 1.2 0.5 0.2 0.0 0.0 0.1 0.0 0.0 0.0 0.0 0.2 0.5 1.7 1.6 2.0 1.4 0.7 0.6 0.1 0.0
0.0 0.0 0.0 0.0 0.0 0.0 0.0 0.0 0.0 0.0 4.2 6.0 4.8 0.5 0.0 0.0 0.0 0.0 0.0 0.0 0.0 0.0 0.2 0.3 0.5 0.9 0.4 1.4 1.1 0.4 1.2 2.5 2.8 1.0 0.0 0.0 0.0 0.0 0.1 0.0 0.1 0.0 0.0 0.0 0.0 0.0 0.4 0.5 1.1 1.1 0.2 0.5 0.5 0.0
0.0 0.0 0.0 0.0 0.0 0.0 0.0 0.0 0.0 10.7 9.5 8.5 2.2 0.0 0.0 0.0 0.0 0.0 0.0 0.0 0.0 0.2 1.3 1.8 3.0 0.1 0.6 1.4 0.5 0.1 0.2 0.2 0.2 0.0 0.0 0.0 0.0 0.0 0.3 0.0 0.0 0.0 0.0 0.0 0.2 0.2 0.7 0.3 1.3 1.9 1.2 0.5 0.5 0.7
0.0 0.0 0.0 0.0 0.0 0.0 0.0 0.0 3.6 15.8 15.4 2.3 0.0 0.0 0.0 0.0 0.0 0.0 0.0 0.0 0.0 0.1 1.7 5.3 3.3 3.4 1.3 0.2 0.0 0.1 0.0 0.0 0.0 0.0 0.0 0.0 0.0 0.0 0.3 0.0 0.0 0.1 0.7 1.7 1.7 1.7 1.4 1.3 1.7 1.4 0.3 0.5 0.7 0.7
0.0 0.0 0.0 0.0 0.0 0.0 13.1 12.2 9.5 15.3 3.5 0.3 0.0 0.0 0.0 0.0 0.0 0.0 0.1 0.1 0.0 0.1 0.9 5.0 6.0 2.1 0.0 0.0 0.0 0.0 0.0 0.0 0.0 0.0 0.0 0.0 0.0 0.0 0.1 0.6 0.6 0.0 0.4 1.2 0.8 1.0 0.6 0.2 0.0 0.5 0.6 0.2 0.7 0.4
0.0 0.0 0.0 0.0 0.0 9.6 22.3 16.5 7.0 5.1 2.1 0.1 0.0 0.0 0.0 0.0 0.1 0.0 0.1 0.1 0.4 0.7 5.5 6.0 0.0 0.1 0.1 0.4 0.5 0.4 0.0 0.0 0.0 0.0 0.0 0.0 0.0 0.0 0.0 0.0 0.0 0.2 0.0 0.4 0.3 0.1 0.6 0.3 0.1 0.6 0.5 0.3 0.7 0.6
0.0 0.0 0.0 0.0 0.9 14.0 15.4 12.0 4.9 1.9 0.4 0.2 0.0 0.0 0.0 0.0 0.1 0.1 0.2 0.2 4.1 6.4 2.5 0.2 0.0 0.0 0.4 0.4 0.2 0.4 0.1 0.1 0.0 0.0 0.0 0.0 0.0 0.0 0.0 0.0 0.0 0.1 0.0 0.0 0.1 0.0 0.3 0.2 0.1 0.0 0.4 0.2 0.1 0.9
0.2 0.0 3.8 2.4 22.7 24.7 18.3 7.5 3.6 0.8 0.4 0.4 0.3 0.1 0.5 0.1 0.0 0.0 0.2 2.6 4.4 0.4 0.2 0.3 0.0 0.0 0.0 0.0 0.6 0.4 0.5 0.0 0.1 0.0 0.0 0.0 0.0 0.0 0.0 0.0 0.0 0.0 0.0 0.0 0.0 0.0 0.0 0.0 0.2 0.0 0.4 0.4 0.1 1.1
0.0 1.4 25.0 26.0 30.1 28.4 16.8 4.2 2.3 1.1 0.7 0.6 1.0 2.0 0.9 0.1 0.1 0.0 1.0 0.4 0.0 0.0 0.0 0.0 0.0 1.0 1.4 1.2 1.4 1.1 0.6 0.1 0.0 0.0 0.1 0.0 0.0 0.0 0.0 0.0 0.0 0.0 0.0 0.0 0.0 0.0 0.0 0.0 0.0 0.0 0.0 0.5 0.2 0.1
0.0 25.5 36.5 37.9 25.0 22.1 12.1 9.8 5.6 2.4 2.8 1.5 1.5 1.1 0.5 0.0 0.4 1.0 1.1 0.0 0.0 0.0 0.0 0.0 0.0 0.0 0.0 0.8 1.2 1.9 2.3 1.6 0.5 0.0 0.6 0.3 0.0 0.0 0.0 0.0 0.0 0.0 0.0 0.0 0.0 0.0 0.0 0.0 0.0 0.0 0.0 0.0 0.0 0.1
44.9 55.4 38.4 39.3 21.2 12.9 7.0 4.8 2.9 2.4 1.4 1.1 0.4 0.3 0.2 0.7 1.6 2.1 0.5 0.0 0.0 0.0 0.0 0.0 0.0 0.0 0.0 0.0 0.7 0.9 1.1 1.5 2.5 2.5 0.3 1.7 0.8 0.2 0.0 0.0 0.2 0.1 0.0 0.0 0.0 0.0 0.0 0.0 0.0 0.0 0.0 0.0 0.1 0.2
53.1 29.6 22.2 9.8 5.5 1.8 0.7 0.5 0.6 0.3 0.0 0.4 0.4 0.0 0.0 1.7 3.8 2.0 0.1 0.0 0.0 0.0 0.0 0.0 0.0 0.0 0.0 0.0 0.0 0.9 1.1 1.2 1.0 1.6 0.3 2.0 1.8 2.4 1.9 1.5 0.9 0.4 0.0 0.0 0.3 0.3 0.1 0.0 0.0 0.0 0.0 0.1 0.0 0.4
39.8 21.0 7.3 1.5 0.5 0.7 0.3 0.1 0.1 0.5 0.7 0.9 0.1 0.2 0.1 4.0 0.5 0.0 0.0 0.0 0.0 0.0 0.0 0.0 0.0 0.0 0.0 0.0 0.0 0.0 0.9 1.3 1.2 0.5 0.3 1.6 1.3 0.9 0.6 1.8 1.4 0.9 0.6 1.1 1.0 0.9 0.9 0.5 0.3 0.2 0.5 0.3 0.3 0.3
10.1 3.4 1.0 0.8 0.5 0.2 0.3 0.3 0.4 0.2 0.8 0.2 1.2 1.9 3.3 2.1 0.6 0.0 0.0 0.0 0.0 0.0 0.0 0.0 0.0 0.0 0.0 0.0 0.0 0.6 0.9 1.2 1.2 0.8 1.7 1.8 1.5 1.2 1.0 1.1 2.3 2.4 2.3 1.7 1.2 1.7 1.9 1.5 1.4 1.7 1.4 0.7 0.9 0.7
1.9 0.3 0.0 0.2 0.3 0.2 0.5 0.3 0.5 0.2 0.1 0.0 0.2 0.2 0.0 0.0 0.0 0.0 0.0 0.0 0.0 0.0 0.0 0.0 0.0 0.0 0.0 0.0 0.0 0.6 0.8 1.3 1.9 1.8 1.3 1.3 1.6 1.8 1.8 3.2 3.9 5.0 4.9 4.5 3.0 2.5 2.3 2.4 3.5 3.3 2.9 2.9 2.4 2.6
0.5 0.0 0.0 0.0 0.6 0.6 0.1 0.1 0.0 0.2 0.2 0.0 0.0 0.2 0.1 0.0 0.0 0.0 0.0 0.0 0.0 0.0 0.0 0.0 0.0 0.0 0.0 0.0 0.0 0.9 0.7 0.7 1.4 1.5 1.5 1.3 1.4 1.7 3.1 3.7 4.9 5.5 5.8 5.2 6.4 7.2 5.0 5.8 6.7 7.1 6.6 6.1 5.6 4.8
0.0 0.0 0.1 0.1 0.1 0.5 0.5 0.3 0.2 0.0 0.2 0.1 0.2 0.2 0.1 0.1 0.0 0.0 0.0 0.0 0.0 0.0 0.0 0.0 0.0 0.2 0.3 0.6 0.9 1.2 1.1 1.1 1.2 2.0 2.1 2.5 2.3 3.1 3.0 4.6 4.8 5.7 6.3 6.5 6.1 5.8 5.3 5.0 4.4 4.3 4.8 4.4 4.2 3.7
0.0 0.1 0.0 0.5 0.8 1.6 1.4 0.7 0.3 0.0 0.2 0.2 0.1 0.1 0.1 0.0 0.0 0.0 0.0 0.0 0.0 0.0 0.0 0.0 0.5 0.8 0.9 1.2 1.6 1.8 2.5 2.8 1.8 2.7 2.6 2.7 3.1 2.8 4.2 4.9 5.8 6.1 7.0 7.0 6.3 5.9 5.7 5.5 6.2 5.9 6.3 6.4 6.1 5.4
2.1 1.0 0.7 0.4 2.2 2.1 1.7 1.0 1.0 0.8 0.7 0.4 0.1 0.1 0.0 0.0 0.0 0.0 0.0 0.0 0.0 0.0 0.0 0.8 1.0 1.3 2.2 2.6 2.4 3.5 3.7 3.2 4.3 4.2 4.7 4.6 4.2 4.7 6.0 6.0 6.6 6.7 6.7 6.7 7.2 7.8 8.1 7.7 7.3 6.8 6.5 6.2 6.1 5.8

GFSWCAN_prec_kuchsnow_114.txt.gz
Snowfall_Accumulation
0.0 0.0 0.0 0.0 0.0 0.0 0.0 0.0 0.0 0.0 0.0 0.0 0.0 0.0 0.0 0.0 0.0 0.0 0.0 0.0 0.0 0.0 0.0 0.0 0.0 0.0 0.0 0.0 0.0 0.0 0.0 0.0 0.0 0.2 0.0 0.0 0.0 0.0 0.0 0.0 0.0 0.0 0.1 0.1 0.3 0.6 0.0 0.0 0.0 0.0 0.0 0.0 0.0 0.0
0.0 0.0 0.0 0.0 0.0 0.0 0.0 0.0 0.0 0.0 0.0 0.0 0.0 0.0 0.0 0.0 0.0 0.0 0.0 0.0 0.0 0.0 0.0 0.0 0.0 0.0 0.0 0.0 0.0 0.0 0.0 0.0 0.0 0.0 0.0 0.0 0.0 0.0 0.0 0.0 0.0 0.0 0.0 0.0 0.0 0.0 0.0 0.0 0.0 0.0 0.0 0.0 0.0 0.0
0.0 0.0 0.0 0.0 0.0 0.0 0.0 0.0 0.0 0.0 0.0 0.0 0.0 0.0 0.0 0.0 0.0 0.0 0.0 0.0 0.0 0.1 0.0 0.0 0.0 0.0 0.0 0.0 0.0 0.0 0.0 0.0 0.0 0.0 0.0 0.0 0.0 0.0 0.0 0.0 0.0 0.0 0.0 0.0 0.0 0.0 0.0 0.0 0.0 0.0 0.0 0.0 0.0 0.0
0.0 0.0 0.0 0.0 0.0 0.0 0.0 0.0 0.0 0.0 0.0 0.0 0.0 0.0 0.0 0.0 0.0 0.0 0.0 0.0 0.0 0.1 0.8 0.1 0.0 0.0 0.0 0.0 0.0 0.0 0.0 0.0 0.0 0.0 0.0 0.0 0.0 0.0 0.0 0.0 0.0 0.0 0.0 0.0 0.0 0.0 0.0 0.0 0.0 0.0 0.0 0.0 0.0 0.0
0.0 0.0 0.0 0.0 0.0 0.0 0.0 0.0 0.0 0.0 0.0 0.0 0.0 0.0 0.0 0.0 0.0 0.0 0.0 0.0 0.0 0.1 1.6 0.2 0.0 0.0 0.0 0.0 0.0 0.0 0.0 0.0 0.2 0.1 0.6 0.3 0.0 0.0 0.0 0.0 0.0 0.0 0.0 0.0 0.0 0.0 0.0 0.0 0.0 0.0 0.0 0.0 0.0 0.0
0.0 0.0 0.0 0.0 0.0 0.0 0.0 0.0 0.0 0.0 0.0 0.0 0.0 0.0 0.0 0.0 0.0 0.0 0.0 0.0 0.0 0.0 2.0 1.7 0.0 0.0 0.0 0.0 0.0 0.0 0.0 0.0 0.0 0.4 1.1 0.0 0.0 0.0 0.4 0.0 0.0 0.0 0.0 0.0 0.0 0.0 0.0 0.0 0.0 0.0 0.0 0.0 0.0 0.0
0.0 0.0 0.0 0.0 0.0 0.0 0.0 0.0 0.0 0.0 0.0 0.0 0.0 0.0 0.0 0.0 0.0 0.0 0.0 0.0 0.0 0.0 0.8 3.6 3.3 0.0 0.0 0.0 0.0 0.0 0.0 0.0 0.4 1.2 0.8 0.0 0.0 0.7 0.8 0.2 0.0 0.0 0.0 0.0 0.0 0.0 0.0 0.0 0.0 0.0 0.0 0.0 0.0 0.0
0.0 0.0 0.0 0.0 0.0 0.0 0.0 0.0 0.0 0.0 0.0 0.0 0.0 0.0 0.0 0.0 0.0 0.0 0.0 0.0 0.0 0.0 1.8 9.6 6.7 1.5 0.0 0.2 0.0 0.0 0.0 0.0 0.1 0.4 0.0 0.0 0.0 0.9 1.1 0.0 0.0 0.0 0.0 0.0 0.0 0.0 0.0 0.0 0.0 0.0 0.0 0.0 0.0 0.0
0.0 0.0 0.0 0.0 0.0 0.0 0.0 0.0 0.0 0.0 0.0 0.0 0.0 0.0 0.0 0.0 0.0 0.0 0.0 0.0 0.0 0.0 6.1 5.6 7.1 4.0 0.0 0.0 0.0 0.1 0.0 2.3 0.0 0.7 0.0 0.0 0.4 2.5 0.0 0.1 0.1 0.0 0.1 0.0 0.0 0.0 0.0 0.0 0.0 0.0 0.0 0.0 0.0 0.0
0.0 0.0 0.0 0.0 0.0 0.0 0.0 0.0 0.0 0.0 0.0 0.0 0.0 0.0 0.3 0.0 0.0 0.0 0.0 0.3 2.2 1.6 2.2 5.2 2.8 5.4 1.2 1.6 0.7 0.7 0.7 1.4 3.0 0.0 0.0 0.5 0.0 0.0 0.0 0.0 0.0 0.0 0.0 0.1 0.0 1.8 0.9 0.7 0.0 0.0 0.0 0.0 0.0 0.0
0.0 0.0 0.0 0.0 0.0 0.0 0.0 0.0 0.0 0.0 0.0 0.0 0.0 0.0 0.0 0.0 0.0 0.0 3.4 4.4 2.0 2.0 1.2 1.8 2.8 3.0 0.0 3.6 2.1 0.1 4.1 1.6 3.6 3.1 0.9 1.9 1.4 0.6 0.0 0.1 0.0 0.0 0.0 0.0 0.0 0.0 0.2 0.7 1.0 0.4 0.2 0.1 0.0 0.0
0.0 0.0 0.0 0.0 0.0 0.0 0.0 0.0 0.0 0.0 0.0 0.0 0.0 0.0 0.0 0.3 2.4 4.1 4.5 2.4 0.9 0.8 0.6 1.5 0.7 0.3 0.3 0.0 1.3 0.9 2.9 2.4 3.8 3.1 3.5 2.9 0.7 0.1 0.5 0.6 0.3 0.0 0.0 0.1 0.0 0.0 0.2 0.0 0.5 0.8 0.4 0.8 0.9 0.8
0.0 0.0 0.0 0.0 0.0 0.0 0.0 0.0 0.0 0.0 0.0 0.0 0.0 0.6 0.5 0.9 2.6 3.7 3.6 2.2 0.4 0.5 0.6 0.6 0.8 0.0 0.0 0.0 0.3 1.0 1.5 0.8 0.9 4.0 4.2 1.5 0.1 0.1 0.0 0.1 0.3 1.4 1.4 0.7 0.4 0.3 0.4 0.4 0.2 0.6 0.6 0.4 0.6 0.4
0.0 0.0 0.0 0.0 0.0 0.0 0.0 0.0 0.0 0.0 0.0 0.0 3.0 2.6 0.9 1.0 1.4 1.1 1.1 0.9 0.2 0.1 0.0 0.0 0.3 0.6 0.1 0.7 0.6 1.5 0.1 0.4 3.1 2.2 1.9 0.1 0.1 0.0 0.0 0.0 0.0 0.0 0.6 1.2 2.0 1.4 1.3 1.5 1.0 1.1 0.7 0.3 0.0 0.0
0.0 0.0 0.0 0.0 0.0 0.0 0.0 0.0 0.0 0.0 0.0 4.7 3.9 1.4 0.0 0.0 0.1 0.1 0.0 0.1 0.0 0.0 0.1 0.0 0.0 0.1 0.6 1.1 0.2 0.8 1.0 3.6 4.2 2.6 1.2 0.5 0.2 0.0 0.0 0.1 0.0 0.0 0.0 0.0 0.2 0.5 1.7 1.6 2.0 1.4 0.7 0.6 0.1 0.0
0.0 0.0 0.0 0.0 0.0 0.0 0.0 0.0 0.0 0.0 4.2 6.0 4.8 0.5 0.0 0.0 0.0 0.0 0.0 0.0 0.0 0.0 0.2 0.3 0.5 0.9 0.4 1.4 1.2 0.4 1.3 2.5 2.8 1.0 0.0 0.0 0.0 0.0 0.1 0.0 0.1 0.0 0.0 0.0 0.0 0.0 0.4 0.5 1.1 1.1 0.2 0.5 0.5 0.0
0.0 0.0 0.0 0.0 0.0 0.0 0.0 0.0 0.0 10.7 9.5 8.5 2.2 0.0 0.0 0.0 0.0 0.0 0.0 0.0 0.0 0.2 1.3 1.8 3.1 0.1 0.6 1.5 0.6 0.1 0.2 0.2 0.2 0.0 0.0 0.0 0.0 0.0 0.3 0.0 0.0 0.0 0.0 0.0 0.2 0.2 0.7 0.3 1.3 1.9 1.2 0.5 0.5 0.7
0.0 0.0 0.0 0.0 0.0 0.0 0.0 0.0 3.6 15.8 15.4 2.3 0.0 0.0 0.0 0.0 0.0 0.0 0.0 0.0 0.0 0.1 1.7 5.3 3.3 3.4 1.3 0.2 0.0 0.1 0.0 0.0 0.0 0.0 0.0 0.0 0.0 0.0 0.3 0.0 0.0 0.1 0.7 1.7 1.7 1.7 1.4 1.3 1.7 1.4 0.3 0.5 0.7 0.7
0.0 0.0 0.0 0.0 0.0 0.0 13.1 12.2 9.5 15.3 3.5 0.3 0.0 0.0 0.0 0.0 0.0 0.0 0.1 0.1 0.0 0.1 0.9 5.0 6.3 2.1 0.0 0.0 0.0 0.0 0.0 0.0 0.0 0.0 0.0 0.0 0.0 0.0 0.1 0.6 0.6 0.0 0.4 1.2 0.8 1.0 0.6 0.2 0.0 0.5 0.6 0.2 0.7 0.4
0.0 0.0 0.0 0.0 0.0 9.6 22.5 16.5 7.0 5.1 2.1 0.1 0.0 0.0 0.0 0.0 0.1 0.0 0.1 0.1 0.4 0.7 5.7 6.2 0.0 0.1 0.1 0.4 0.5 0.4 0.0 0.0 0.0 0.0 0.0 0.0 0.0 0.0 0.0 0.0 0.0 0.2 0.0 0.4 0.3 0.1 0.6 0.3 0.1 0.6 0.5 0.3 0.7 0.6
0.0 0.0 0.0 0.0 0.9 14.0 15.4 12.5 4.9 1.9 0.4 0.2 0.0 0.0 0.0 0.0 0.1 0.1 0.2 0.2 4.1 6.5 2.5 0.2 0.0 0.0 0.4 0.4 0.2 0.4 0.1 0.1 0.0 0.0 0.0 0.0 0.0 0.0 0.0 0.0 0.0 0.1 0.0 0.0 0.1 0.0 0.3 0.2 0.1 0.0 0.4 0.2 0.1 0.9
0.2 0.0 3.8 2.4 22.7 24.9 18.6 7.5 3.6 1.0 0.5 0.4 0.3 0.1 0.5 0.1 0.0 0.0 0.2 2.6 4.4 0.4 0.2 0.3 0.0 0.0 0.0 0.0 0.6 0.4 0.5 0.0 0.1 0.0 0.0 0.0 0.0 0.0 0.0 0.0 0.0 0.0 0.0 0.0 0.0 0.0 0.0 0.0 0.2 0.0 0.4 0.4 0.1 1.1
0.0 1.4 25.1 26.0 30.4 29.1 16.8 4.2 2.3 1.1 0.9 0.6 1.0 2.0 0.9 0.1 0.1 0.0 1.0 0.4 0.0 0.0 0.0 0.0 0.0 1.0 1.4 1.2 1.4 1.1 0.6 0.1 0.0 0.0 0.1 0.0 0.0 0.0 0.0 0.0 0.0 0.0 0.0 0.0 0.0 0.0 0.0 0.0 0.0 0.0 0.0 0.5 0.2 0.1
0.0 25.9 37.1 38.6 25.7 22.7 12.1 10.0 5.8 2.4 2.9 1.5 1.5 1.1 0.5 0.0 0.4 1.0 1.1 0.0 0.0 0.0 0.0 0.0 0.0 0.0 0.0 0.8 1.2 1.9 2.3 1.6 0.5 0.0 0.6 0.3 0.0 0.0 0.0 0.0 0.0 0.0 0.0 0.0 0.0 0.0 0.0 0.0 0.0 0.0 0.0 0.0 0.0 0.1
47.0 57.9 39.5 40.2 21.4 13.1 7.3 5.0 3.1 2.5 1.4 1.1 0.4 0.3 0.2 0.7 1.6 2.1 0.5 0.0 0.0 0.0 0.0 0.0 0.0 0.0 0.0 0.0 0.7 0.9 1.1 1.5 2.5 2.5 0.3 1.7 0.8 0.2 0.0 0.0 0.2 0.1 0.0 0.0 0.0 0.0 0.0 0.0 0.0 0.0 0.0 0.0 0.1 0.2
55.4 30.4 23.0 9.8 5.5 1.8 0.7 0.5 0.6 0.3 0.0 0.4 0.4 0.0 0.0 1.7 3.8 2.1 0.1 0.0 0.0 0.0 0.0 0.0 0.0 0.0 0.0 0.0 0.0 0.9 1.1 1.2 1.0 1.6 0.3 2.0 1.8 2.4 1.9 1.5 0.9 0.4 0.0 0.0 0.3 0.3 0.1 0.0 0.0 0.0 0.0 0.1 0.0 0.4
41.6 21.5 7.3 1.5 0.5 0.7 0.3 0.1 0.1 0.5 0.7 0.9 0.1 0.2 0.1 4.1 0.5 0.0 0.0 0.0 0.0 0.0 0.0 0.0 0.0 0.0 0.0 0.0 0.0 0.0 0.9 1.3 1.2 0.5 0.3 1.6 1.3 0.9 0.6 1.8 1.4 0.9 0.6 1.1 1.0 0.9 0.9 0.5 0.3 0.2 0.5 0.3 0.3 0.3
10.1 3.4 1.0 0.8 0.5 0.2 0.3 0.3 0.4 0.2 0.8 0.2 1.2 1.9 3.3 2.1 0.6 0.0 0.0 0.0 0.0 0.0 0.0 0.0 0.0 0.0 0.0 0.0 0.0 0.6 0.9 1.2 1.2 0.8 1.7 1.8 1.5 1.2 1.0 1.1 2.3 2.4 2.3 1.7 1.2 1.7 1.9 1.5 1.4 1.7 1.4 0.7 0.9 0.7
1.9 0.3 0.0 0.2 0.3 0.2 0.5 0.3 0.5 0.2 0.1 0.0 0.2 0.2 0.0 0.0 0.0 0.0 0.0 0.0 0.0 0.0 0.0 0.0 0.0 0.0 0.0 0.0 0.0 0.6 0.8 1.3 1.9 1.8 1.3 1.3 1.6 1.8 1.8 3.2 3.9 5.0 4.9 4.5 3.0 2.5 2.3 2.4 3.5 3.3 2.9 2.9 2.4 2.6
0.5 0.0 0.0 0.0 0.6 0.6 0.1 0.1 0.0 0.2 0.2 0.0 0.0 0.2 0.1 0.0 0.0 0.0 0.0 0.0 0.0 0.0 0.0 0.0 0.0 0.0 0.0 0.0 0.0 0.9 0.7 0.7 1.4 1.5 1.5 1.3 1.4 1.7 3.1 3.7 4.9 5.5 5.8 5.2 6.4 7.2 5.0 5.8 6.7 7.1 6.6 6.1 5.6 4.8
0.0 0.0 0.1 0.1 0.1 0.5 0.5 0.3 0.2 0.0 0.2 0.1 0.2 0.2 0.1 0.1 0.0 0.0 0.0 0.0 0.0 0.0 0.0 0.0 0.0 0.2 0.3 0.6 0.9 1.2 1.1 1.1 1.2 2.0 2.1 2.5 2.3 3.1 3.0 4.6 4.8 5.7 6.3 6.5 6.1 5.8 5.3 5.0 4.4 4.3 4.8 4.4 4.2 3.7
0.0 0.1 0.0 0.5 0.8 1.6 1.4 0.7 0.3 0.0 0.2 0.2 0.1 0.1 0.1 0.0 0.0 0.0 0.0 0.0 0.0 0.0 0.0 0.0 0.5 0.8 0.9 1.2 1.6 1.8 2.5 2.8 1.8 2.7 2.6 2.7 3.1 2.8 4.2 4.9 5.8 6.1 7.0 7.0 6.3 5.9 5.7 5.5 6.2 5.9 6.3 6.4 6.1 5.4
2.1 1.0 0.7 0.4 2.2 2.1 1.7 1.0 1.0 0.8 0.7 0.4 0.1 0.1 0.0 0.0 0.0 0.0 0.0 0.0 0.0 0.0 0.0 0.8 1.0 1.3 2.2 2.6 2.4 3.5 3.7 3.2 4.3 4.2 4.7 4.6 4.2 4.7 6.0 6.0 6.6 6.7 6.7 6.7 7.2 7.8 8.1 7.7 7.3 6.8 6.5 6.2 6.1 6.0

GFSWCAN_prec_kuchsnow_117.txt.gz
Snowfall_Accumulation
0.0 0.0 0.0 0.0 0.0 0.0 0.0 0.0 0.0 0.0 0.0 0.0 0.0 0.0 0.0 0.0 0.0 0.0 0.0 0.0 0.0 0.0 0.0 0.0 0.0 0.0 0.0 0.0 0.0 0.0 0.0 0.0 0.0 0.2 0.0 0.0 0.0 0.0 0.0 0.0 0.0 0.0 0.1 0.1 0.3 0.6 0.0 0.0 0.0 0.0 0.0 0.0 0.0 0.0
0.0 0.0 0.0 0.0 0.0 0.0 0.0 0.0 0.0 0.0 0.0 0.0 0.0 0.0 0.0 0.0 0.0 0.0 0.0 0.0 0.0 0.0 0.0 0.0 0.0 0.0 0.0 0.0 0.0 0.0 0.0 0.0 0.0 0.0 0.0 0.0 0.0 0.0 0.0 0.0 0.0 0.0 0.0 0.0 0.0 0.0 0.0 0.0 0.0 0.0 0.0 0.0 0.0 0.0
0.0 0.0 0.0 0.0 0.0 0.0 0.0 0.0 0.0 0.0 0.0 0.0 0.0 0.0 0.0 0.0 0.0 0.0 0.0 0.0 0.0 0.1 0.0 0.0 0.0 0.0 0.0 0.0 0.0 0.0 0.0 0.0 0.0 0.0 0.0 0.0 0.0 0.0 0.0 0.0 0.0 0.0 0.0 0.0 0.0 0.0 0.0 0.0 0.0 0.0 0.0 0.0 0.0 0.0
0.0 0.0 0.0 0.0 0.0 0.0 0.0 0.0 0.0 0.0 0.0 0.0 0.0 0.0 0.0 0.0 0.0 0.0 0.0 0.0 0.0 0.1 0.8 0.1 0.0 0.0 0.0 0.0 0.0 0.0 0.0 0.0 0.0 0.0 0.0 0.0 0.0 0.0 0.0 0.0 0.0 0.0 0.0 0.0 0.0 0.0 0.0 0.0 0.0 0.0 0.0 0.0 0.0 0.0
0.0 0.0 0.0 0.0 0.0 0.0 0.0 0.0 0.0 0.0 0.0 0.0 0.0 0.0 0.0 0.0 0.0 0.0 0.0 0.0 0.0 0.1 1.6 0.2 0.0 0.0 0.0 0.0 0.0 0.0 0.0 0.0 0.2 0.1 0.6 0.3 0.0 0.0 0.0 0.0 0.0 0.0 0.0 0.0 0.0 0.0 0.0 0.0 0.0 0.0 0.0 0.0 0.0 0.0
0.0 0.0 0.0 0.0 0.0 0.0 0.0 0.0 0.0 0.0 0.0 0.0 0.0 0.0 0.0 0.0 0.0 0.0 0.0 0.0 0.0 0.0 2.0 1.7 0.0 0.0 0.0 0.0 0.0 0.0 0.0 0.0 0.0 0.4 1.1 0.0 0.0 0.0 0.4 0.0 0.0 0.0 0.0 0.0 0.0 0.0 0.0 0.0 0.0 0.0 0.0 0.0 0.0 0.0
0.0 0.0 0.0 0.0 0.0 0.0 0.0 0.0 0.0 0.0 0.0 0.0 0.0 0.0 0.0 0.0 0.0 0.0 0.0 0.0 0.0 0.0 0.8 3.6 3.3 0.0 0.0 0.0 0.0 0.0 0.0 0.0 0.4 1.2 0.8 0.0 0.0 0.7 0.8 0.2 0.0 0.0 0.0 0.0 0.0 0.0 0.0 0.0 0.0 0.0 0.0 0.0 0.0 0.0
0.0 0.0 0.0 0.0 0.0 0.0 0.0 0.0 0.0 0.0 0.0 0.0 0.0 0.0 0.0 0.0 0.0 0.0 0.0 0.0 0.0 0.0 1.8 9.6 6.7 1.5 0.0 0.2 0.0 0.0 0.0 0.0 0.1 0.4 0.0 0.0 0.0 0.9 1.1 0.0 0.0 0.0 0.0 0.0 0.0 0.0 0.0 0.0 0.0 0.0 0.0 0.0 0.0 0.0
0.0 0.0 0.0 0.0 0.0 0.0 0.0 0.0 0.0 0.0 0.0 0.0 0.0 0.0 0.0 0.0 0.0 0.0 0.0 0.0 0.0 0.0 6.1 5.6 7.1 4.0 0.0 0.0 0.0 0.1 0.0 2.3 0.0 0.7 0.0 0.0 0.4 2.5 0.0 0.1 0.1 0.0 0.1 0.0 0.0 0.0 0.0 0.0 0.0 0.0 0.0 0.0 0.0 0.0
0.0 0.0 0.0 0.0 0.0 0.0 0.0 0.0 0.0 0.0 0.0 0.0 0.0 0.0 0.3 0.0 0.0 0.0 0.0 0.3 2.2 1.6 2.2 5.2 2.8 5.4 1.2 1.6 0.7 0.7 0.7 1.4 3.0 0.0 0.0 0.5 0.0 0.0 0.0 0.0 0.0 0.0 0.0 0.1 0.0 1.8 0.9 0.7 0.0 0.0 0.0 0.0 0.0 0.0
0.0 0.0 0.0 0.0 0.0 0.0 0.0 0.0 0.0 0.0 0.0 0.0 0.0 0.0 0.0 0.0 0.0 0.0 3.4 4.4 2.0 2.0 1.2 1.8 2.8 3.0 0.0 3.6 2.1 0.1 4.1 1.6 3.6 3.1 0.9 1.9 1.4 0.6 0.0 0.1 0.0 0.0 0.0 0.0 0.0 0.0 0.2 0.7 1.0 0.4 0.2 0.1 0.0 0.0
0.0 0.0 0.0 0.0 0.0 0.0 0.0 0.0 0.0 0.0 0.0 0.0 0.0 0.0 0.0 0.3 2.4 4.1 4.5 2.4 0.9 0.8 0.6 1.5 0.7 0.3 0.3 0.0 1.3 0.9 2.9 2.4 3.8 3.1 3.5 2.9 0.7 0.1 0.5 0.6 0.3 0.0 0.0 0.1 0.0 0.0 0.2 0.0 0.5 0.8 0.4 0.8 0.9 0.8
0.0 0.0 0.0 0.0 0.0 0.0 0.0 0.0 0.0 0.0 0.0 0.0 0.0 0.6 0.5 0.9 2.6 3.7 3.6 2.2 0.4 0.5 0.6 0.6 0.8 0.0 0.0 0.0 0.3 1.0 1.5 0.8 0.9 4.0 4.2 1.5 0.1 0.1 0.0 0.1 0.3 1.4 1.4 0.7 0.4 0.3 0.4 0.4 0.2 0.6 0.6 0.4 0.6 0.4
0.0 0.0 0.0 0.0 0.0 0.0 0.0 0.0 0.0 0.0 0.0 0.0 3.0 2.6 0.9 1.0 1.4 1.1 1.1 0.9 0.2 0.1 0.0 0.0 0.3 0.6 0.1 0.7 0.6 1.5 0.1 0.4 3.1 2.2 1.9 0.1 0.1 0.0 0.0 0.0 0.0 0.0 0.6 1.2 2.0 1.4 1.3 1.5 1.0 1.1 0.7 0.3 0.0 0.0
0.0 0.0 0.0 0.0 0.0 0.0 0.0 0.0 0.0 0.0 0.0 4.7 3.9 1.4 0.0 0.0 0.1 0.1 0.0 0.1 0.0 0.0 0.1 0.0 0.0 0.1 0.6 1.1 0.2 0.8 1.0 3.6 4.2 2.6 1.2 0.5 0.2 0.0 0.0 0.1 0.0 0.0 0.0 0.0 0.2 0.5 1.7 1.6 2.0 1.4 0.7 0.6 0.1 0.0
0.0 0.0 0.0 0.0 0.0 0.0 0.0 0.0 0.0 0.0 4.2 6.0 4.8 0.5 0.0 0.0 0.0 0.0 0.0 0.0 0.0 0.0 0.2 0.3 0.5 0.9 0.4 1.4 1.2 0.4 1.3 2.5 2.8 1.0 0.0 0.0 0.0 0.0 0.1 0.0 0.1 0.0 0.0 0.0 0.0 0.0 0.4 0.5 1.1 1.1 0.2 0.5 0.5 0.0
0.0 0.0 0.0 0.0 0.0 0.0 0.0 0.0 0.0 10.7 9.5 8.5 2.2 0.0 0.0 0.0 0.0 0.0 0.0 0.0 0.0 0.2 1.3 1.8 3.1 0.1 0.6 1.5 0.7 0.1 0.2 0.2 0.2 0.0 0.0 0.0 0.0 0.0 0.3 0.0 0.0 0.0 0.0 0.0 0.2 0.2 0.7 0.3 1.3 1.9 1.2 0.5 0.5 0.7
0.0 0.0 0.0 0.0 0.0 0.0 0.0 0.0 3.6 15.8 15.4 2.3 0.0 0.0 0.0 0.0 0.0 0.0 0.0 0.0 0.0 0.1 1.7 5.3 3.3 3.4 1.3 0.2 0.0 0.1 0.0 0.0 0.0 0.0 0.0 0.0 0.0 0.0 0.3 0.0 0.0 0.1 0.7 1.7 1.7 1.7 1.4 1.3 1.7 1.4 0.3 0.5 0.7 0.7
0.0 0.0 0.0 0.0 0.0 0.0 13.1 12.2 9.5 15.3 3.5 0.3 0.0 0.0 0.0 0.0 0.0 0.0 0.1 0.1 0.0 0.1 0.9 5.0 6.6 2.1 0.0 0.0 0.0 0.0 0.0 0.0 0.0 0.0 0.0 0.0 0.0 0.0 0.1 0.6 0.6 0.0 0.4 1.2 0.8 1.0 0.6 0.2 0.0 0.5 0.6 0.2 0.7 0.4
0.0 0.0 0.0 0.0 0.0 9.6 22.5 16.5 7.0 5.1 2.1 0.1 0.0 0.0 0.0 0.0 0.1 0.0 0.1 0.1 0.4 0.7 5.9 6.4 0.0 0.1 0.1 0.4 0.5 0.4 0.0 0.0 0.0 0.0 0.0 0.0 0.0 0.0 0.0 0.0 0.0 0.2 0.0 0.4 0.3 0.1 0.6 0.3 0.1 0.6 0.5 0.3 0.7 0.6
0.0 0.0 0.0 0.0 0.9 14.0 15.4 12.5 4.9 1.9 0.4 0.2 0.0 0.0 0.0 0.0 0.1 0.1 0.2 0.2 4.1 6.5 2.5 0.2 0.0 0.0 0.4 0.4 0.2 0.4 0.1 0.1 0.0 0.0 0.0 0.0 0.0 0.0 0.0 0.0 0.0 0.1 0.0 0.0 0.1 0.0 0.3 0.2 0.1 0.0 0.4 0.2 0.1 0.9
0.2 0.0 3.8 2.4 22.7 24.9 18.6 7.5 3.6 1.0 0.5 0.4 0.3 0.1 0.5 0.1 0.0 0.0 0.2 2.6 4.4 0.4 0.2 0.3 0.0 0.0 0.0 0.0 0.6 0.4 0.5 0.0 0.1 0.0 0.0 0.0 0.0 0.0 0.0 0.0 0.0 0.0 0.0 0.0 0.0 0.0 0.0 0.0 0.2 0.0 0.4 0.4 0.1 1.1
0.0 1.4 25.2 26.0 30.6 29.3 16.8 4.2 2.3 1.1 0.9 0.6 1.0 2.0 0.9 0.1 0.1 0.0 1.0 0.4 0.0 0.0 0.0 0.0 0.0 1.0 1.4 1.2 1.4 1.1 0.6 0.1 0.0 0.0 0.1 0.0 0.0 0.0 0.0 0.0 0.0 0.0 0.0 0.0 0.0 0.0 0.0 0.0 0.0 0.0 0.0 0.5 0.2 0.1
0.0 26.1 37.6 39.2 26.0 22.9 12.1 10.1 5.9 2.4 2.9 1.5 1.5 1.1 0.5 0.0 0.4 1.0 1.1 0.0 0.0 0.0 0.0 0.0 0.0 0.0 0.0 0.8 1.2 1.9 2.3 1.6 0.5 0.0 0.6 0.3 0.0 0.0 0.0 0.0 0.0 0.0 0.0 0.0 0.0 0.0 0.0 0.0 0.0 0.0 0.0 0.0 0.0 0.1
48.9 60.6 40.5 41.4 21.8 13.1 7.3 5.1 3.1 2.6 1.4 1.1 0.4 0.3 0.2 0.7 1.6 2.1 0.5 0.0 0.0 0.0 0.0 0.0 0.0 0.0 0.0 0.0 0.7 0.9 1.1 1.5 2.5 2.5 0.3 1.7 0.8 0.2 0.0 0.0 0.2 0.1 0.0 0.0 0.0 0.0 0.0 0.0 0.0 0.0 0.0 0.0 0.1 0.2
58.0 31.6 23.9 9.8 5.5 1.9 0.7 0.5 0.6 0.3 0.0 0.4 0.4 0.0 0.0 1.7 3.8 2.2 0.1 0.0 0.0 0.0 0.0 0.0 0.0 0.0 0.0 0.0 0.0 0.9 1.1 1.2 1.0 1.6 0.3 2.0 1.8 2.4 1.9 1.5 0.9 0.4 0.0 0.0 0.3 0.3 0.1 0.0 0.0 0.0 0.0 0.1 0.0 0.4
43.4 22.3 7.6 1.5 0.5 0.7 0.3 0.1 0.1 0.5 0.7 0.9 0.1 0.2 0.1 4.2 0.5 0.0 0.0 0.0 0.0 0.0 0.0 0.0 0.0 0.0 0.0 0.0 0.0 0.0 0.9 1.3 1.2 0.5 0.3 1.6 1.3 0.9 0.6 1.8 1.4 0.9 0.6 1.1 1.0 0.9 0.9 0.5 0.3 0.2 0.5 0.3 0.3 0.3
10.1 3.4 1.0 0.8 0.5 0.2 0.3 0.3 0.4 0.2 0.8 0.2 1.2 1.9 3.3 2.1 0.6 0.0 0.0 0.0 0.0 0.0 0.0 0.0 0.0 0.0 0.0 0.0 0.0 0.6 0.9 1.2 1.2 0.8 1.7 1.8 1.5 1.2 1.0 1.1 2.3 2.4 2.3 1.7 1.2 1.7 1.9 1.5 1.4 1.7 1.4 0.7 0.9 0.7
1.9 0.3 0.0 0.2 0.3 0.2 0.5 0.3 0.5 0.2 0.1 0.0 0.2 0.2 0.0 0.0 0.0 0.0 0.0 0.0 0.0 0.0 0.0 0.0 0.0 0.0 0.0 0.0 0.0 0.6 0.8 1.3 1.9 1.8 1.3 1.3 1.6 1.8 1.8 3.2 3.9 5.0 4.9 4.5 3.0 2.5 2.3 2.4 3.5 3.3 2.9 2.9 2.4 2.6
0.5 0.0 0.0 0.0 0.6 0.6 0.1 0.1 0.0 0.2 0.2 0.0 0.0 0.2 0.1 0.0 0.0 0.0 0.0 0.0 0.0 0.0 0.0 0.0 0.0 0.0 0.0 0.0 0.0 0.9 0.7 0.7 1.4 1.5 1.5 1.3 1.4 1.7 3.1 3.7 4.9 5.5 5.8 5.2 6.4 7.2 5.0 5.8 6.7 7.1 6.6 6.1 5.6 4.8
0.0 0.0 0.1 0.1 0.1 0.5 0.5 0.3 0.2 0.0 0.2 0.1 0.2 0.2 0.1 0.1 0.0 0.0 0.0 0.0 0.0 0.0 0.0 0.0 0.0 0.2 0.3 0.6 0.9 1.2 1.1 1.1 1.2 2.0 2.1 2.5 2.3 3.1 3.0 4.6 4.8 5.7 6.3 6.5 6.1 5.8 5.3 5.0 4.4 4.3 4.8 4.4 4.2 3.7
0.0 0.1 0.0 0.5 0.8 1.6 1.4 0.7 0.3 0.0 0.2 0.2 0.1 0.1 0.1 0.0 0.0 0.0 0.0 0.0 0.0 0.0 0.0 0.0 0.5 0.8 0.9 1.2 1.6 1.8 2.5 2.8 1.8 2.7 2.6 2.7 3.1 2.8 4.2 4.9 5.8 6.1 7.0 7.0 6.3 5.9 5.7 5.5 6.2 5.9 6.3 6.4 6.1 5.4
2.1 1.0 0.7 0.4 2.2 2.1 1.7 1.0 1.0 0.8 0.7 0.4 0.1 0.1 0.0 0.0 0.0 0.0 0.0 0.0 0.0 0.0 0.0 0.8 1.0 1.3 2.2 2.6 2.4 3.5 3.7 3.2 4.3 4.2 4.7 4.6 4.2 4.7 6.0 6.0 6.6 6.7 6.7 6.7 7.2 7.8 8.1 7.7 7.3 6.8 6.5 6.2 6.1 6.0

GFSWCAN_prec_kuchsnow_120.txt.gz
Snowfall_Accumulation
0.0 0.0 0.0 0.0 0.0 0.0 0.0 0.0 0.0 0.0 0.0 0.0 0.0 0.0 0.0 0.0 0.0 0.0 0.0 0.0 0.0 0.0 0.0 0.0 0.0 0.0 0.0 0.0 0.0 0.0 0.0 0.0 0.0 0.2 0.0 0.0 0.0 0.0 0.0 0.0 0.0 0.0 0.1 0.1 0.3 0.6 0.0 0.0 0.0 0.0 0.0 0.0 0.0 0.0
0.0 0.0 0.0 0.0 0.0 0.0 0.0 0.0 0.0 0.0 0.0 0.0 0.0 0.0 0.0 0.0 0.0 0.0 0.0 0.0 0.0 0.0 0.0 0.0 0.0 0.0 0.0 0.0 0.0 0.0 0.0 0.0 0.0 0.0 0.0 0.0 0.0 0.0 0.0 0.0 0.0 0.0 0.0 0.0 0.0 0.0 0.0 0.0 0.0 0.0 0.0 0.0 0.0 0.0
0.0 0.0 0.0 0.0 0.0 0.0 0.0 0.0 0.0 0.0 0.0 0.0 0.0 0.0 0.0 0.0 0.0 0.0 0.0 0.0 0.0 0.1 0.0 0.0 0.0 0.0 0.0 0.0 0.0 0.0 0.0 0.0 0.0 0.0 0.0 0.0 0.0 0.0 0.0 0.0 0.0 0.0 0.0 0.0 0.0 0.0 0.0 0.0 0.0 0.0 0.0 0.0 0.0 0.0
0.0 0.0 0.0 0.0 0.0 0.0 0.0 0.0 0.0 0.0 0.0 0.0 0.0 0.0 0.0 0.0 0.0 0.0 0.0 0.0 0.0 0.1 0.8 0.1 0.0 0.0 0.0 0.0 0.0 0.0 0.0 0.0 0.0 0.0 0.0 0.0 0.0 0.0 0.0 0.0 0.0 0.0 0.0 0.0 0.0 0.0 0.0 0.0 0.0 0.0 0.0 0.0 0.0 0.0
0.0 0.0 0.0 0.0 0.0 0.0 0.0 0.0 0.0 0.0 0.0 0.0 0.0 0.0 0.0 0.0 0.0 0.0 0.0 0.0 0.0 0.1 1.6 0.2 0.0 0.0 0.0 0.0 0.0 0.0 0.0 0.0 0.2 0.1 0.6 0.3 0.0 0.0 0.0 0.0 0.0 0.0 0.0 0.0 0.0 0.0 0.0 0.0 0.0 0.0 0.0 0.0 0.0 0.0
0.0 0.0 0.0 0.0 0.0 0.0 0.0 0.0 0.0 0.0 0.0 0.0 0.0 0.0 0.0 0.0 0.0 0.0 0.0 0.0 0.0 0.0 2.0 1.7 0.0 0.0 0.0 0.0 0.0 0.0 0.0 0.0 0.0 0.4 1.1 0.0 0.0 0.0 0.4 0.0 0.0 0.0 0.0 0.0 0.0 0.0 0.0 0.0 0.0 0.0 0.0 0.0 0.0 0.0
0.0 0.0 0.0 0.0 0.0 0.0 0.0 0.0 0.0 0.0 0.0 0.0 0.0 0.0 0.0 0.0 0.0 0.0 0.0 0.0 0.0 0.0 0.8 3.6 3.3 0.0 0.0 0.0 0.0 0.0 0.0 0.0 0.4 1.2 0.8 0.0 0.0 0.7 0.8 0.2 0.0 0.0 0.0 0.0 0.0 0.0 0.0 0.0 0.0 0.0 0.0 0.0 0.0 0.0
0.0 0.0 0.0 0.0 0.0 0.0 0.0 0.0 0.0 0.0 0.0 0.0 0.0 0.0 0.0 0.0 0.0 0.0 0.0 0.0 0.0 0.0 1.8 9.6 6.7 1.5 0.0 0.2 0.0 0.0 0.0 0.0 0.1 0.4 0.0 0.0 0.0 0.9 1.1 0.0 0.0 0.0 0.0 0.0 0.0 0.0 0.0 0.0 0.0 0.0 0.0 0.0 0.0 0.0
0.0 0.0 0.0 0.0 0.0 0.0 0.0 0.0 0.0 0.0 0.0 0.0 0.0 0.0 0.0 0.0 0.0 0.0 0.0 0.0 0.0 0.0 6.1 5.6 7.1 4.0 0.0 0.0 0.0 0.1 0.0 2.3 0.0 0.7 0.0 0.0 0.4 2.5 0.0 0.1 0.1 0.0 0.1 0.0 0.0 0.0 0.0 0.0 0.0 0.0 0.0 0.0 0.0 0.0
0.0 0.0 0.0 0.0 0.0 0.0 0.0 0.0 0.0 0.0 0.0 0.0 0.0 0.0 0.3 0.0 0.0 0.0 0.0 0.3 2.2 1.6 2.2 5.2 2.8 5.4 1.2 1.6 0.7 0.7 0.7 1.4 3.0 0.0 0.0 0.5 0.0 0.0 0.0 0.0 0.0 0.0 0.0 0.1 0.0 1.8 0.9 0.7 0.0 0.0 0.0 0.0 0.0 0.0
0.0 0.0 0.0 0.0 0.0 0.0 0.0 0.0 0.0 0.0 0.0 0.0 0.0 0.0 0.0 0.0 0.0 0.0 3.4 4.4 2.0 2.0 1.2 1.8 2.8 3.0 0.0 3.6 2.1 0.1 4.1 1.6 3.6 3.1 0.9 1.9 1.4 0.6 0.0 0.1 0.0 0.0 0.0 0.0 0.0 0.0 0.2 0.7 1.0 0.4 0.2 0.1 0.0 0.0
0.0 0.0 0.0 0.0 0.0 0.0 0.0 0.0 0.0 0.0 0.0 0.0 0.0 0.0 0.0 0.3 2.4 4.1 4.5 2.4 0.9 0.8 0.6 1.5 0.7 0.3 0.3 0.0 1.3 0.9 2.9 2.4 3.8 3.1 3.5 2.9 0.7 0.1 0.5 0.6 0.3 0.0 0.0 0.1 0.0 0.0 0.2 0.0 0.5 0.8 0.4 0.8 0.9 0.8
0.0 0.0 0.0 0.0 0.0 0.0 0.0 0.0 0.0 0.0 0.0 0.0 0.0 0.6 0.5 0.9 2.6 3.7 3.6 2.2 0.4 0.5 0.6 0.6 0.8 0.0 0.0 0.0 0.3 1.0 1.5 0.8 0.9 4.0 4.2 1.5 0.1 0.1 0.0 0.1 0.3 1.4 1.4 0.7 0.4 0.3 0.4 0.4 0.2 0.6 0.6 0.4 0.6 0.4
0.0 0.0 0.0 0.0 0.0 0.0 0.0 0.0 0.0 0.0 0.0 0.0 3.0 2.6 0.9 1.0 1.4 1.1 1.1 0.9 0.2 0.1 0.0 0.0 0.3 0.6 0.1 0.7 0.6 1.5 0.1 0.4 3.1 2.2 1.9 0.1 0.1 0.0 0.0 0.0 0.0 0.0 0.6 1.2 2.0 1.4 1.3 1.5 1.0 1.1 0.7 0.3 0.0 0.0
0.0 0.0 0.0 0.0 0.0 0.0 0.0 0.0 0.0 0.0 0.0 4.7 3.9 1.4 0.0 0.0 0.1 0.1 0.0 0.1 0.0 0.0 0.1 0.0 0.0 0.1 0.6 1.1 0.2 0.8 1.0 3.6 4.2 2.6 1.2 0.5 0.2 0.0 0.0 0.1 0.0 0.0 0.0 0.0 0.2 0.5 1.7 1.6 2.0 1.4 0.7 0.6 0.1 0.0
0.0 0.0 0.0 0.0 0.0 0.0 0.0 0.0 0.0 0.0 4.2 6.0 4.8 0.5 0.0 0.0 0.0 0.0 0.0 0.0 0.0 0.0 0.2 0.3 0.5 0.9 0.4 1.4 1.2 0.4 1.3 2.5 2.8 1.0 0.0 0.0 0.0 0.0 0.1 0.0 0.1 0.0 0.0 0.0 0.0 0.0 0.4 0.5 1.1 1.1 0.2 0.5 0.5 0.0
0.0 0.0 0.0 0.0 0.0 0.0 0.0 0.0 0.0 10.7 9.5 8.5 2.2 0.0 0.0 0.0 0.0 0.0 0.0 0.0 0.0 0.2 1.4 1.8 3.1 0.1 0.6 1.5 0.7 0.1 0.2 0.2 0.2 0.0 0.0 0.0 0.0 0.0 0.3 0.0 0.0 0.0 0.0 0.0 0.2 0.2 0.7 0.3 1.3 1.9 1.2 0.5 0.5 0.7
0.0 0.0 0.0 0.0 0.0 0.0 0.0 0.0 3.6 15.8 15.4 2.3 0.0 0.0 0.0 0.0 0.0 0.0 0.0 0.0 0.0 0.1 1.7 5.3 3.3 3.4 1.3 0.2 0.0 0.1 0.0 0.0 0.0 0.0 0.0 0.0 0.0 0.0 0.3 0.0 0.0 0.1 0.7 1.7 1.7 1.7 1.4 1.3 1.7 1.4 0.3 0.5 0.7 0.7
0.0 0.0 0.0 0.0 0.0 0.0 13.1 12.2 9.5 15.3 3.5 0.3 0.0 0.0 0.0 0.0 0.0 0.0 0.1 0.1 0.0 0.1 0.9 5.0 6.6 2.1 0.0 0.0 0.0 0.0 0.0 0.0 0.0 0.0 0.0 0.0 0.0 0.0 0.1 0.6 0.6 0.0 0.4 1.2 0.8 1.0 0.6 0.2 0.0 0.5 0.6 0.2 0.7 0.4
0.0 0.0 0.0 0.0 0.0 9.6 22.5 16.5 7.0 5.1 2.1 0.1 0.0 0.0 0.0 0.0 0.1 0.0 0.1 0.1 0.4 0.7 5.9 6.4 0.0 0.1 0.1 0.4 0.5 0.4 0.0 0.0 0.0 0.0 0.0 0.0 0.0 0.0 0.0 0.0 0.0 0.2 0.0 0.4 0.3 0.1 0.6 0.3 0.1 0.6 0.5 0.3 0.7 0.6
0.0 0.0 0.0 0.0 0.9 14.0 15.4 12.5 4.9 1.9 0.4 0.2 0.0 0.0 0.0 0.0 0.1 0.1 0.2 0.2 4.1 6.5 2.5 0.2 0.0 0.0 0.4 0.4 0.2 0.4 0.1 0.1 0.0 0.0 0.0 0.0 0.0 0.0 0.0 0.0 0.0 0.1 0.0 0.0 0.1 0.0 0.3 0.2 0.1 0.0 0.4 0.2 0.1 0.9
0.2 0.0 3.8 2.4 22.7 24.9 18.6 7.5 3.6 1.0 0.5 0.4 0.3 0.1 0.5 0.1 0.0 0.0 0.2 2.6 4.4 0.4 0.2 0.3 0.0 0.0 0.0 0.0 0.6 0.4 0.5 0.0 0.1 0.0 0.0 0.0 0.0 0.0 0.0 0.0 0.0 0.0 0.0 0.0 0.0 0.0 0.0 0.0 0.2 0.0 0.4 0.4 0.1 1.1
0.0 1.4 25.2 26.0 30.6 29.3 16.8 4.2 2.3 1.1 0.9 0.6 1.0 2.0 0.9 0.1 0.1 0.0 1.0 0.4 0.0 0.0 0.0 0.0 0.0 1.0 1.4 1.2 1.4 1.1 0.6 0.1 0.0 0.0 0.1 0.0 0.0 0.0 0.0 0.0 0.0 0.0 0.0 0.0 0.0 0.0 0.0 0.0 0.0 0.0 0.0 0.5 0.2 0.1
0.0 26.3 38.1 39.6 26.0 22.9 12.2 10.1 6.0 2.5 2.9 1.5 1.5 1.1 0.5 0.0 0.4 1.0 1.1 0.0 0.0 0.0 0.0 0.0 0.0 0.0 0.0 0.8 1.2 1.9 2.3 1.6 0.5 0.0 0.6 0.3 0.0 0.0 0.0 0.0 0.0 0.0 0.0 0.0 0.0 0.0 0.0 0.0 0.0 0.0 0.0 0.0 0.0 0.1
50.9 63.0 42.1 42.9 22.1 13.1 7.3 5.2 3.2 2.7 1.4 1.1 0.4 0.3 0.2 0.7 1.6 2.1 0.5 0.0 0.0 0.0 0.0 0.0 0.0 0.0 0.0 0.0 0.7 0.9 1.1 1.5 2.5 2.5 0.3 1.7 0.8 0.2 0.0 0.0 0.2 0.1 0.0 0.0 0.0 0.0 0.0 0.0 0.0 0.0 0.0 0.0 0.1 0.2
61.1 33.6 24.8 10.0 5.5 1.9 0.7 0.5 0.6 0.3 0.0 0.4 0.4 0.0 0.0 1.7 3.8 2.2 0.1 0.0 0.0 0.0 0.0 0.0 0.0 0.0 0.0 0.0 0.0 0.9 1.1 1.2 1.0 1.6 0.3 2.0 1.8 2.4 1.9 1.5 0.9 0.4 0.0 0.0 0.3 0.3 0.1 0.0 0.0 0.0 0.0 0.1 0.0 0.4
46.8 24.7 8.6 1.5 0.5 0.7 0.3 0.1 0.1 0.5 0.7 0.9 0.1 0.2 0.1 4.2 0.5 0.0 0.0 0.0 0.0 0.0 0.0 0.0 0.0 0.0 0.0 0.0 0.0 0.0 0.9 1.3 1.2 0.5 0.3 1.6 1.3 0.9 0.6 1.8 1.4 0.9 0.6 1.1 1.0 0.9 0.9 0.5 0.3 0.2 0.5 0.3 0.3 0.3
11.5 3.8 1.0 0.8 0.5 0.2 0.3 0.3 0.4 0.2 0.8 0.2 1.2 1.9 3.3 2.1 0.6 0.0 0.0 0.0 0.0 0.0 0.0 0.0 0.0 0.0 0.0 0.0 0.0 0.6 0.9 1.2 1.2 0.8 1.7 1.8 1.5 1.2 1.0 1.1 2.3 2.4 2.3 1.7 1.2 1.7 1.9 1.5 1.4 1.7 1.4 0.7 0.9 0.7
2.2 0.3 0.0 0.2 0.3 0.2 0.5 0.3 0.5 0.2 0.1 0.0 0.2 0.2 0.0 0.0 0.0 0.0 0.0 0.0 0.0 0.0 0.0 0.0 0.0 0.0 0.0 0.0 0.0 0.6 0.8 1.3 1.9 1.8 1.3 1.3 1.6 1.8 1.8 3.2 3.9 5.0 4.9 4.5 3.0 2.5 2.3 2.4 3.5 3.3 2.9 2.9 2.4 2.6
0.5 0.0 0.0 0.0 0.6 0.6 0.1 0.1 0.0 0.2 0.2 0.0 0.0 0.2 0.1 0.0 0.0 0.0 0.0 0.0 0.0 0.0 0.0 0.0 0.0 0.0 0.0 0.0 0.0 0.9 0.7 0.7 1.4 1.5 1.5 1.3 1.4 1.7 3.1 3.7 4.9 5.5 5.8 5.2 6.4 7.2 5.0 5.8 6.7 7.1 6.6 6.1 5.6 4.8
0.0 0.0 0.1 0.1 0.1 0.5 0.5 0.3 0.2 0.0 0.2 0.1 0.2 0.2 0.1 0.1 0.0 0.0 0.0 0.0 0.0 0.0 0.0 0.0 0.0 0.2 0.3 0.6 0.9 1.2 1.1 1.1 1.2 2.0 2.1 2.5 2.3 3.1 3.0 4.6 4.8 5.7 6.3 6.5 6.1 5.8 5.3 5.0 4.4 4.3 4.8 4.4 4.2 3.7
0.0 0.1 0.0 0.5 0.8 1.6 1.4 0.7 0.3 0.0 0.2 0.2 0.1 0.1 0.1 0.0 0.0 0.0 0.0 0.0 0.0 0.0 0.0 0.0 0.5 0.8 0.9 1.2 1.6 1.8 2.5 2.8 1.8 2.7 2.6 2.7 3.1 2.8 4.2 4.9 5.8 6.1 7.0 7.0 6.3 5.9 5.7 5.5 6.2 5.9 6.3 6.4 6.1 5.4
2.1 1.0 0.7 0.4 2.2 2.1 1.7 1.0 1.0 0.8 0.7 0.4 0.1 0.1 0.0 0.0 0.0 0.0 0.0 0.0 0.0 0.0 0.0 0.8 1.0 1.3 2.2 2.6 2.4 3.5 3.7 3.2 4.3 4.2 4.7 4.6 4.2 4.7 6.0 6.0 6.6 6.7 6.7 6.7 7.2 7.8 8.1 7.7 7.3 6.8 6.5 6.2 6.1 6.0

GFSWCAN_prec_kuchsnow_123.txt.gz
Snowfall_Accumulation
0.0 0.0 0.0 0.0 0.0 0.0 0.0 0.0 0.0 0.0 0.0 0.0 0.0 0.0 0.0 0.0 0.0 0.0 0.0 0.0 0.0 0.0 0.0 0.0 0.0 0.0 0.0 0.0 0.0 0.0 0.0 0.0 0.0 0.2 0.0 0.0 0.0 0.0 0.0 0.0 0.0 0.0 0.1 0.1 0.3 0.6 0.0 0.0 0.0 0.0 0.0 0.0 0.0 0.0
0.0 0.0 0.0 0.0 0.0 0.0 0.0 0.0 0.0 0.0 0.0 0.0 0.0 0.0 0.0 0.0 0.0 0.0 0.0 0.0 0.0 0.0 0.0 0.0 0.0 0.0 0.0 0.0 0.0 0.0 0.0 0.0 0.0 0.0 0.0 0.0 0.0 0.0 0.0 0.0 0.0 0.0 0.0 0.0 0.0 0.0 0.0 0.0 0.0 0.0 0.0 0.0 0.0 0.0
0.0 0.0 0.0 0.0 0.0 0.0 0.0 0.0 0.0 0.0 0.0 0.0 0.0 0.0 0.0 0.0 0.0 0.0 0.0 0.0 0.0 0.1 0.0 0.0 0.0 0.0 0.0 0.0 0.0 0.0 0.0 0.0 0.0 0.0 0.0 0.0 0.0 0.0 0.0 0.0 0.0 0.0 0.0 0.0 0.0 0.0 0.0 0.0 0.0 0.0 0.0 0.0 0.0 0.0
0.0 0.0 0.0 0.0 0.0 0.0 0.0 0.0 0.0 0.0 0.0 0.0 0.0 0.0 0.0 0.0 0.0 0.0 0.0 0.0 0.0 0.1 0.8 0.1 0.0 0.0 0.0 0.0 0.0 0.0 0.0 0.0 0.0 0.0 0.0 0.0 0.0 0.0 0.0 0.0 0.0 0.0 0.0 0.0 0.0 0.0 0.0 0.0 0.0 0.0 0.0 0.0 0.0 0.0
0.0 0.0 0.0 0.0 0.0 0.0 0.0 0.0 0.0 0.0 0.0 0.0 0.0 0.0 0.0 0.0 0.0 0.0 0.0 0.0 0.0 0.1 1.6 0.2 0.0 0.0 0.0 0.0 0.0 0.0 0.0 0.0 0.2 0.1 0.6 0.3 0.0 0.0 0.0 0.0 0.0 0.0 0.0 0.0 0.0 0.0 0.0 0.0 0.0 0.0 0.0 0.0 0.0 0.0
0.0 0.0 0.0 0.0 0.0 0.0 0.0 0.0 0.0 0.0 0.0 0.0 0.0 0.0 0.0 0.0 0.0 0.0 0.0 0.0 0.0 0.0 2.0 1.7 0.0 0.0 0.0 0.0 0.0 0.0 0.0 0.0 0.0 0.4 1.1 0.0 0.0 0.0 0.4 0.0 0.0 0.0 0.0 0.0 0.0 0.0 0.0 0.0 0.0 0.0 0.0 0.0 0.0 0.0
0.0 0.0 0.0 0.0 0.0 0.0 0.0 0.0 0.0 0.0 0.0 0.0 0.0 0.0 0.0 0.0 0.0 0.0 0.0 0.0 0.0 0.0 0.8 3.6 3.3 0.0 0.0 0.0 0.0 0.0 0.0 0.0 0.4 1.2 0.8 0.0 0.0 0.7 0.8 0.2 0.0 0.0 0.0 0.0 0.0 0.0 0.0 0.0 0.0 0.0 0.0 0.0 0.0 0.0
0.0 0.0 0.0 0.0 0.0 0.0 0.0 0.0 0.0 0.0 0.0 0.0 0.0 0.0 0.0 0.0 0.0 0.0 0.0 0.0 0.0 0.0 1.8 9.6 6.7 1.5 0.0 0.2 0.0 0.0 0.0 0.0 0.1 0.4 0.0 0.0 0.0 0.9 1.1 0.0 0.0 0.0 0.0 0.0 0.0 0.0 0.0 0.0 0.0 0.0 0.0 0.0 0.0 0.0
0.0 0.0 0.0 0.0 0.0 0.0 0.0 0.0 0.0 0.0 0.0 0.0 0.0 0.0 0.0 0.0 0.0 0.0 0.0 0.0 0.0 0.0 6.1 5.6 7.1 4.0 0.0 0.0 0.0 0.1 0.0 2.3 0.0 0.7 0.0 0.0 0.4 2.5 0.0 0.1 0.1 0.0 0.1 0.0 0.0 0.0 0.0 0.0 0.0 0.0 0.0 0.0 0.0 0.0
0.0 0.0 0.0 0.0 0.0 0.0 0.0 0.0 0.0 0.0 0.0 0.0 0.0 0.0 0.3 0.0 0.0 0.0 0.0 0.3 2.2 1.6 2.2 5.2 2.8 5.4 1.2 1.6 0.7 0.7 0.7 1.4 3.0 0.0 0.0 0.5 0.0 0.0 0.0 0.0 0.0 0.0 0.0 0.1 0.0 1.8 0.9 0.7 0.0 0.0 0.0 0.0 0.0 0.0
0.0 0.0 0.0 0.0 0.0 0.0 0.0 0.0 0.0 0.0 0.0 0.0 0.0 0.0 0.0 0.0 0.0 0.0 3.4 4.4 2.0 2.0 1.2 1.8 2.8 3.0 0.0 3.6 2.1 0.1 4.1 1.6 3.6 3.1 0.9 1.9 1.4 0.6 0.0 0.1 0.0 0.0 0.0 0.0 0.0 0.0 0.2 0.7 1.0 0.4 0.2 0.1 0.0 0.0
0.0 0.0 0.0 0.0 0.0 0.0 0.0 0.0 0.0 0.0 0.0 0.0 0.0 0.0 0.0 0.3 2.4 4.1 4.5 2.4 0.9 0.8 0.6 1.5 0.7 0.3 0.3 0.0 1.3 0.9 2.9 2.4 3.8 3.1 3.5 2.9 0.7 0.1 0.5 0.6 0.3 0.0 0.0 0.1 0.0 0.0 0.2 0.0 0.5 0.8 0.4 0.8 0.9 0.8
0.0 0.0 0.0 0.0 0.0 0.0 0.0 0.0 0.0 0.0 0.0 0.0 0.0 0.6 0.5 0.9 2.6 3.7 3.6 2.2 0.4 0.5 0.6 0.6 0.8 0.0 0.0 0.0 0.3 1.0 1.5 0.8 0.9 4.0 4.2 1.5 0.1 0.1 0.0 0.1 0.3 1.4 1.4 0.7 0.4 0.3 0.4 0.4 0.2 0.6 0.6 0.4 0.6 0.4
0.0 0.0 0.0 0.0 0.0 0.0 0.0 0.0 0.0 0.0 0.0 0.0 3.0 2.6 0.9 1.0 1.4 1.1 1.1 0.9 0.2 0.1 0.0 0.0 0.3 0.6 0.1 0.7 0.6 1.5 0.1 0.4 3.1 2.2 1.9 0.1 0.1 0.0 0.0 0.0 0.0 0.0 0.6 1.2 2.0 1.4 1.3 1.5 1.0 1.1 0.7 0.3 0.0 0.0
0.0 0.0 0.0 0.0 0.0 0.0 0.0 0.0 0.0 0.0 0.0 4.8 3.9 1.5 0.0 0.0 0.1 0.1 0.0 0.1 0.0 0.0 0.1 0.0 0.0 0.1 0.6 1.1 0.2 0.8 1.0 3.6 4.2 2.6 1.2 0.5 0.2 0.0 0.0 0.1 0.0 0.0 0.0 0.0 0.2 0.5 1.7 1.6 2.0 1.4 0.7 0.6 0.1 0.0
0.0 0.0 0.0 0.0 0.0 0.0 0.0 0.0 0.0 0.0 4.2 6.0 4.8 0.6 0.0 0.0 0.0 0.0 0.0 0.0 0.0 0.0 0.2 0.3 0.5 0.9 0.4 1.4 1.2 0.4 1.3 2.5 2.8 1.0 0.0 0.0 0.0 0.0 0.1 0.0 0.1 0.0 0.0 0.0 0.0 0.0 0.4 0.5 1.1 1.1 0.2 0.5 0.5 0.0
0.0 0.0 0.0 0.0 0.0 0.0 0.0 0.0 0.0 10.8 9.5 8.5 2.2 0.0 0.0 0.0 0.0 0.0 0.0 0.0 0.0 0.4 1.7 2.0 3.2 0.1 0.6 1.5 0.7 0.1 0.2 0.2 0.2 0.0 0.0 0.0 0.0 0.0 0.3 0.0 0.0 0.0 0.0 0.0 0.2 0.2 0.7 0.3 1.3 1.9 1.2 0.5 0.5 0.7
0.0 0.0 0.0 0.0 0.0 0.0 0.0 0.0 3.6 15.8 15.4 2.3 0.1 0.1 0.1 0.0 0.0 0.0 0.0 0.0 0.0 0.1 1.7 5.3 3.3 3.4 1.3 0.2 0.0 0.1 0.0 0.0 0.0 0.0 0.0 0.0 0.0 0.0 0.3 0.0 0.0 0.1 0.7 1.7 1.7 1.7 1.4 1.3 1.7 1.4 0.3 0.5 0.7 0.7
0.0 0.0 0.0 0.0 0.0 0.0 13.1 12.2 9.5 15.3 3.5 0.4 0.1 0.0 0.0 0.0 0.0 0.0 0.1 0.1 0.0 0.1 0.9 5.0 6.6 2.1 0.0 0.0 0.0 0.0 0.0 0.0 0.0 0.0 0.0 0.0 0.0 0.0 0.1 0.6 0.6 0.0 0.4 1.2 0.8 1.0 0.6 0.2 0.0 0.5 0.6 0.2 0.7 0.4
0.0 0.0 0.0 0.0 0.0 9.6 22.5 16.5 7.0 5.1 2.1 0.1 0.0 0.0 0.0 0.0 0.1 0.0 0.1 0.1 0.4 0.7 5.9 6.4 0.0 0.1 0.1 0.4 0.5 0.4 0.0 0.0 0.0 0.0 0.0 0.0 0.0 0.0 0.0 0.0 0.0 0.2 0.0 0.4 0.3 0.1 0.6 0.3 0.1 0.6 0.5 0.3 0.7 0.6
0.0 0.0 0.0 0.0 0.9 14.0 15.4 12.5 4.9 1.9 0.4 0.2 0.0 0.0 0.0 0.0 0.1 0.1 0.2 0.2 4.1 6.5 2.5 0.2 0.0 0.0 0.4 0.4 0.2 0.4 0.1 0.1 0.0 0.0 0.0 0.0 0.0 0.0 0.0 0.0 0.0 0.1 0.0 0.0 0.1 0.0 0.3 0.2 0.1 0.0 0.4 0.2 0.1 0.9
0.2 0.0 3.8 2.4 22.7 24.9 18.6 7.5 3.6 1.0 0.5 0.4 0.3 0.1 0.5 0.1 0.0 0.0 0.2 2.6 4.4 0.4 0.2 0.3 0.0 0.0 0.0 0.0 0.6 0.4 0.5 0.0 0.1 0.0 0.0 0.0 0.0 0.0 0.0 0.0 0.0 0.0 0.0 0.0 0.0 0.0 0.0 0.0 0.2 0.0 0.4 0.4 0.1 1.1
0.0 1.4 25.2 26.0 30.6 29.3 16.8 4.2 2.3 1.1 0.9 0.6 1.1 2.0 0.9 0.1 0.1 0.0 1.0 0.4 0.0 0.0 0.0 0.0 0.0 1.0 1.4 1.2 1.4 1.1 0.6 0.1 0.0 0.0 0.1 0.0 0.0 0.0 0.0 0.0 0.0 0.0 0.0 0.0 0.0 0.0 0.0 0.0 0.0 0.0 0.0 0.5 0.2 0.1
0.0 26.3 38.1 39.6 26.0 22.9 12.3 10.3 6.1 2.5 2.9 1.6 1.5 1.1 0.5 0.0 0.4 1.0 1.1 0.0 0.0 0.0 0.0 0.0 0.0 0.0 0.0 0.8 1.2 1.9 2.3 1.6 0.5 0.0 0.6 0.3 0.0 0.0 0.0 0.0 0.0 0.0 0.0 0.0 0.0 0.0 0.0 0.0 0.0 0.0 0.0 0.0 0.0 0.1
51.9 64.6 42.8 42.9 22.1 13.1 7.3 5.3 3.3 2.8 1.4 1.2 0.4 0.3 0.2 0.7 1.6 2.1 0.5 0.0 0.0 0.0 0.0 0.0 0.0 0.0 0.0 0.0 0.7 0.9 1.1 1.5 2.5 2.5 0.3 1.7 0.8 0.2 0.0 0.0 0.2 0.1 0.0 0.0 0.0 0.0 0.0 0.0 0.0 0.0 0.0 0.0 0.1 0.2
63.6 35.1 25.3 10.0 5.6 1.9 0.7 0.5 0.6 0.4 0.0 0.5 0.4 0.0 0.0 1.7 3.8 2.2 0.1 0.0 0.0 0.0 0.0 0.0 0.0 0.0 0.0 0.0 0.0 0.9 1.1 1.2 1.0 1.6 0.3 2.0 1.8 2.4 1.9 1.5 0.9 0.4 0.0 0.0 0.3 0.3 0.1 0.0 0.0 0.0 0.0 0.1 0.0 0.4
50.9 28.0 9.8 1.5 0.5 0.7 0.3 0.1 0.1 0.5 0.7 0.9 0.1 0.2 0.1 4.2 0.5 0.0 0.0 0.0 0.0 0.0 0.0 0.0 0.0 0.0 0.0 0.0 0.0 0.0 0.9 1.3 1.2 0.5 0.3 1.6 1.3 0.9 0.6 1.8 1.4 0.9 0.6 1.1 1.0 0.9 0.9 0.5 0.3 0.2 0.5 0.3 0.3 0.3
14.3 5.0 1.0 0.8 0.5 0.2 0.3 0.3 0.4 0.2 0.8 0.2 1.2 1.9 3.3 2.1 0.6 0.0 0.0 0.0 0.0 0.0 0.0 0.0 0.0 0.0 0.0 0.0 0.0 0.6 0.9 1.2 1.2 0.8 1.7 1.8 1.5 1.2 1.0 1.1 2.3 2.4 2.3 1.7 1.2 1.7 1.9 1.5 1.4 1.7 1.4 0.7 0.9 0.7
3.0 0.5 0.0 0.3 0.3 0.2 0.5 0.3 0.5 0.2 0.1 0.0 0.2 0.2 0.0 0.0 0.0 0.0 0.0 0.0 0.0 0.0 0.0 0.0 0.0 0.0 0.0 0.0 0.0 0.6 0.8 1.3 1.9 1.8 1.3 1.3 1.6 1.8 1.8 3.2 3.9 5.0 4.9 4.5 3.0 2.5 2.3 2.4 3.5 3.3 2.9 2.9 2.4 2.6
0.5 0.0 0.0 0.0 0.6 0.6 0.1 0.1 0.0 0.2 0.2 0.0 0.0 0.2 0.1 0.0 0.0 0.0 0.0 0.0 0.0 0.0 0.0 0.0 0.0 0.0 0.0 0.0 0.0 0.9 0.7 0.7 1.4 1.5 1.5 1.3 1.4 1.7 3.1 3.7 4.9 5.5 5.8 5.2 6.4 7.2 5.0 5.8 6.7 7.1 6.6 6.1 5.6 4.8
0.0 0.0 0.1 0.2 0.3 0.5 0.5 0.3 0.2 0.0 0.2 0.1 0.2 0.2 0.1 0.1 0.0 0.0 0.0 0.0 0.0 0.0 0.0 0.0 0.0 0.2 0.3 0.6 0.9 1.2 1.1 1.1 1.2 2.0 2.1 2.5 2.3 3.1 3.0 4.6 4.8 5.7 6.3 6.5 6.1 5.8 5.3 5.0 4.4 4.3 4.8 4.4 4.2 3.7
0.0 0.1 0.0 0.5 0.8 1.6 1.4 0.7 0.3 0.0 0.2 0.2 0.1 0.1 0.1 0.0 0.0 0.0 0.0 0.0 0.0 0.0 0.0 0.0 0.5 0.8 0.9 1.2 1.6 1.8 2.5 2.8 1.8 2.7 2.6 2.7 3.1 2.8 4.2 4.9 5.8 6.1 7.0 7.1 6.3 5.9 5.7 5.5 6.2 5.9 6.3 6.4 6.1 5.4
2.1 1.0 0.7 0.4 2.2 2.1 1.7 1.0 1.0 0.8 0.7 0.4 0.1 0.1 0.0 0.0 0.0 0.0 0.0 0.0 0.0 0.0 0.0 0.8 1.0 1.3 2.2 2.6 2.4 3.5 3.7 3.2 4.3 4.2 4.7 4.6 4.2 4.7 6.0 6.0 6.6 6.7 6.7 6.7 7.2 7.8 8.1 7.7 7.3 6.8 6.5 6.2 6.1 6.0

GFSWCAN_prec_kuchsnow_126.txt.gz
Snowfall_Accumulation
0.0 0.0 0.0 0.0 0.0 0.0 0.0 0.0 0.0 0.0 0.0 0.0 0.0 0.0 0.0 0.0 0.0 0.0 0.0 0.0 0.0 0.0 0.0 0.0 0.0 0.0 0.0 0.0 0.0 0.0 0.0 0.0 0.0 0.2 0.0 0.0 0.0 0.0 0.0 0.0 0.0 0.0 0.1 0.1 0.3 0.6 0.0 0.0 0.0 0.0 0.0 0.0 0.0 0.0
0.0 0.0 0.0 0.0 0.0 0.0 0.0 0.0 0.0 0.0 0.0 0.0 0.0 0.0 0.0 0.0 0.0 0.0 0.0 0.0 0.0 0.0 0.0 0.0 0.0 0.0 0.0 0.0 0.0 0.0 0.0 0.0 0.0 0.0 0.0 0.0 0.0 0.0 0.0 0.0 0.0 0.0 0.0 0.0 0.0 0.0 0.0 0.0 0.0 0.0 0.0 0.0 0.0 0.0
0.0 0.0 0.0 0.0 0.0 0.0 0.0 0.0 0.0 0.0 0.0 0.0 0.0 0.0 0.0 0.0 0.0 0.0 0.0 0.0 0.0 0.1 0.0 0.0 0.0 0.0 0.0 0.0 0.0 0.0 0.0 0.0 0.0 0.0 0.0 0.0 0.0 0.0 0.0 0.0 0.0 0.0 0.0 0.0 0.0 0.0 0.0 0.0 0.0 0.0 0.0 0.0 0.0 0.0
0.0 0.0 0.0 0.0 0.0 0.0 0.0 0.0 0.0 0.0 0.0 0.0 0.0 0.0 0.0 0.0 0.0 0.0 0.0 0.0 0.0 0.1 0.8 0.1 0.0 0.0 0.0 0.0 0.0 0.0 0.0 0.0 0.0 0.0 0.0 0.0 0.0 0.0 0.0 0.0 0.0 0.0 0.0 0.0 0.0 0.0 0.0 0.0 0.0 0.0 0.0 0.0 0.0 0.0
0.0 0.0 0.0 0.0 0.0 0.0 0.0 0.0 0.0 0.0 0.0 0.0 0.0 0.0 0.0 0.0 0.0 0.0 0.0 0.0 0.0 0.1 1.6 0.2 0.0 0.0 0.0 0.0 0.0 0.0 0.0 0.0 0.2 0.1 0.6 0.3 0.0 0.0 0.0 0.0 0.0 0.0 0.0 0.0 0.0 0.0 0.0 0.0 0.0 0.0 0.0 0.0 0.0 0.0
0.0 0.0 0.0 0.0 0.0 0.0 0.0 0.0 0.0 0.0 0.0 0.0 0.0 0.0 0.0 0.0 0.0 0.0 0.0 0.0 0.0 0.0 2.0 1.7 0.0 0.0 0.0 0.0 0.0 0.0 0.0 0.0 0.0 0.4 1.1 0.0 0.0 0.0 0.4 0.0 0.0 0.0 0.0 0.0 0.0 0.0 0.0 0.0 0.0 0.0 0.0 0.0 0.0 0.0
0.0 0.0 0.0 0.0 0.0 0.0 0.0 0.0 0.0 0.0 0.0 0.0 0.0 0.0 0.0 0.0 0.0 0.0 0.0 0.0 0.0 0.0 0.8 3.6 3.3 0.0 0.0 0.0 0.0 0.0 0.0 0.0 0.4 1.2 0.8 0.0 0.0 0.7 0.8 0.2 0.0 0.0 0.0 0.0 0.0 0.0 0.0 0.0 0.0 0.0 0.0 0.0 0.0 0.0
0.0 0.0 0.0 0.0 0.0 0.0 0.0 0.0 0.0 0.0 0.0 0.0 0.0 0.0 0.0 0.0 0.0 0.0 0.0 0.0 0.0 0.0 1.8 9.6 6.7 1.5 0.0 0.2 0.0 0.0 0.0 0.0 0.1 0.4 0.0 0.0 0.0 0.9 1.1 0.0 0.0 0.0 0.0 0.0 0.0 0.0 0.0 0.0 0.0 0.0 0.0 0.0 0.0 0.0
0.0 0.0 0.0 0.0 0.0 0.0 0.0 0.0 0.0 0.0 0.0 0.0 0.0 0.0 0.0 0.0 0.0 0.0 0.0 0.0 0.0 0.0 6.1 5.6 7.1 4.0 0.0 0.0 0.0 0.1 0.0 2.3 0.0 0.7 0.0 0.0 0.4 2.5 0.0 0.1 0.1 0.0 0.1 0.0 0.0 0.0 0.0 0.0 0.0 0.0 0.0 0.0 0.0 0.0
0.0 0.0 0.0 0.0 0.0 0.0 0.0 0.0 0.0 0.0 0.0 0.0 0.0 0.0 0.3 0.0 0.0 0.0 0.0 0.3 2.2 1.6 2.2 5.2 2.8 5.4 1.2 1.6 0.7 0.7 0.7 1.4 3.0 0.0 0.0 0.5 0.0 0.0 0.0 0.0 0.0 0.0 0.0 0.1 0.0 1.8 0.9 0.7 0.0 0.0 0.0 0.0 0.0 0.0
0.0 0.0 0.0 0.0 0.0 0.0 0.0 0.0 0.0 0.0 0.0 0.0 0.0 0.0 0.0 0.0 0.0 0.0 3.4 4.4 2.0 2.0 1.2 1.8 2.8 3.0 0.0 3.6 2.1 0.1 4.1 1.6 3.6 3.1 0.9 1.9 1.4 0.6 0.0 0.1 0.0 0.0 0.0 0.0 0.0 0.0 0.2 0.7 1.0 0.4 0.2 0.1 0.0 0.0
0.0 0.0 0.0 0.0 0.0 0.0 0.0 0.0 0.0 0.0 0.0 0.0 0.0 0.0 0.0 0.3 2.4 4.1 4.5 2.4 0.9 0.8 0.6 1.5 0.7 0.3 0.3 0.0 1.3 0.9 2.9 2.4 3.8 3.1 3.5 2.9 0.7 0.1 0.5 0.6 0.3 0.0 0.0 0.1 0.0 0.0 0.2 0.0 0.5 0.8 0.4 0.8 0.9 0.8
0.0 0.0 0.0 0.0 0.0 0.0 0.0 0.0 0.0 0.0 0.0 0.0 0.0 0.6 0.7 1.2 2.8 3.7 3.6 2.2 0.4 0.5 0.6 0.6 0.8 0.0 0.0 0.0 0.3 1.0 1.5 0.8 0.9 4.0 4.2 1.5 0.1 0.1 0.0 0.1 0.3 1.4 1.4 0.7 0.4 0.3 0.4 0.4 0.2 0.6 0.6 0.4 0.6 0.4
0.0 0.0 0.0 0.0 0.0 0.0 0.0 0.0 0.0 0.0 0.0 1.4 4.0 3.7 1.4 1.5 1.4 1.1 1.1 0.9 0.2 0.1 0.0 0.0 0.3 0.6 0.1 0.7 0.6 1.5 0.1 0.4 3.1 2.2 1.9 0.1 0.1 0.0 0.0 0.0 0.0 0.0 0.6 1.2 2.0 1.4 1.3 1.5 1.0 1.1 0.7 0.3 0.0 0.0
0.0 0.0 0.0 0.0 0.0 0.0 0.0 0.0 0.0 0.0 0.0 6.2 4.7 2.4 0.3 0.0 0.1 0.1 0.0 0.1 0.0 0.0 0.1 0.0 0.0 0.1 0.6 1.1 0.2 0.8 1.0 3.6 4.2 2.6 1.2 0.5 0.2 0.0 0.0 0.1 0.0 0.0 0.0 0.0 0.2 0.5 1.7 1.6 2.0 1.4 0.7 0.6 0.1 0.0
0.0 0.0 0.0 0.0 0.0 0.0 0.0 0.0 0.0 0.0 5.4 7.1 5.7 1.2 0.0 0.0 0.0 0.0 0.0 0.0 0.0 0.0 0.2 0.3 0.5 0.9 0.4 1.4 1.3 0.4 1.3 2.5 2.8 1.0 0.0 0.0 0.0 0.0 0.1 0.0 0.1 0.0 0.0 0.0 0.0 0.0 0.4 0.5 1.1 1.1 0.2 0.5 0.5 0.0
0.0 0.0 0.0 0.0 0.0 0.0 0.0 0.0 0.0 11.7 10.2 9.3 2.8 0.1 0.0 0.0 0.0 0.0 0.0 0.0 0.0 0.4 1.7 2.0 3.2 0.1 0.7 1.5 0.7 0.1 0.2 0.2 0.2 0.0 0.0 0.0 0.0 0.0 0.3 0.0 0.0 0.0 0.0 0.0 0.2 0.2 0.7 0.3 1.3 1.9 1.2 0.5 0.5 0.7
0.0 0.0 0.0 0.0 0.0 0.0 0.8 0.6 4.1 16.1 15.8 2.5 0.2 0.2 0.1 0.0 0.0 0.0 0.0 0.0 0.0 0.1 1.8 5.3 3.3 3.4 1.3 0.2 0.0 0.1 0.0 0.0 0.0 0.0 0.0 0.0 0.0 0.0 0.3 0.0 0.0 0.1 0.7 1.7 1.7 1.7 1.4 1.3 1.7 1.4 0.3 0.5 0.7 0.7
0.0 0.0 0.0 0.0 0.0 0.3 13.6 12.7 9.6 15.5 3.6 0.5 0.2 0.1 0.0 0.0 0.0 0.0 0.1 0.1 0.0 0.1 0.9 5.0 6.6 2.1 0.0 0.0 0.0 0.0 0.0 0.0 0.0 0.0 0.0 0.0 0.0 0.0 0.1 0.6 0.6 0.0 0.4 1.2 0.8 1.0 0.6 0.2 0.0 0.5 0.6 0.2 0.7 0.4
0.0 0.0 0.0 0.0 0.0 9.6 22.7 16.7 7.0 5.3 2.2 0.1 0.0 0.0 0.0 0.0 0.1 0.0 0.1 0.1 0.4 0.7 5.9 6.4 0.0 0.1 0.1 0.4 0.5 0.4 0.0 0.0 0.0 0.0 0.0 0.0 0.0 0.0 0.0 0.0 0.0 0.2 0.0 0.4 0.3 0.1 0.6 0.3 0.1 0.6 0.5 0.3 0.7 0.6
0.0 0.0 0.0 0.0 0.9 14.0 15.4 12.6 4.9 1.9 0.4 0.2 0.0 0.0 0.0 0.0 0.1 0.1 0.2 0.2 4.1 6.5 2.5 0.2 0.0 0.0 0.4 0.4 0.2 0.4 0.1 0.1 0.0 0.0 0.0 0.0 0.0 0.0 0.0 0.0 0.0 0.1 0.0 0.0 0.1 0.0 0.3 0.2 0.1 0.0 0.4 0.2 0.1 0.9
0.2 0.0 3.8 2.4 22.7 24.9 18.6 7.5 3.6 1.0 0.5 0.4 0.3 0.1 0.5 0.1 0.0 0.0 0.2 2.6 4.4 0.4 0.2 0.3 0.0 0.0 0.0 0.0 0.6 0.4 0.5 0.0 0.1 0.0 0.0 0.0 0.0 0.0 0.0 0.0 0.0 0.0 0.0 0.0 0.0 0.0 0.0 0.0 0.2 0.0 0.4 0.4 0.1 1.1
0.0 1.4 25.2 26.0 30.6 29.3 16.8 4.2 2.3 1.1 0.9 0.6 1.1 2.0 0.9 0.1 0.1 0.0 1.0 0.4 0.0 0.0 0.0 0.0 0.0 1.0 1.4 1.2 1.4 1.1 0.6 0.1 0.0 0.0 0.1 0.0 0.0 0.0 0.0 0.0 0.0 0.0 0.0 0.0 0.0 0.0 0.0 0.0 0.0 0.0 0.0 0.5 0.2 0.1
0.0 26.3 38.1 39.6 26.0 22.9 12.3 10.3 6.1 2.5 2.9 1.6 1.5 1.1 0.5 0.0 0.4 1.0 1.1 0.0 0.0 0.0 0.0 0.0 0.0 0.0 0.0 0.8 1.2 1.9 2.3 1.6 0.5 0.0 0.6 0.3 0.0 0.0 0.0 0.0 0.0 0.0 0.0 0.0 0.0 0.0 0.0 0.0 0.0 0.0 0.0 0.0 0.0 0.1
51.9 64.6 42.8 42.9 22.1 13.1 7.3 5.4 3.3 2.8 1.4 1.2 0.4 0.3 0.2 0.7 1.6 2.1 0.5 0.0 0.0 0.0 0.0 0.0 0.0 0.0 0.0 0.0 0.7 0.9 1.1 1.5 2.5 2.5 0.3 1.7 0.8 0.2 0.0 0.0 0.2 0.1 0.0 0.0 0.0 0.0 0.0 0.0 0.0 0.0 0.0 0.0 0.1 0.2
64.2 35.1 25.3 10.0 5.6 1.9 0.7 0.5 0.6 0.4 0.0 0.5 0.4 0.0 0.0 1.7 3.8 2.2 0.1 0.0 0.0 0.0 0.0 0.0 0.0 0.0 0.0 0.0 0.0 0.9 1.1 1.2 1.0 1.6 0.3 2.0 1.8 2.4 1.9 1.5 0.9 0.4 0.0 0.0 0.3 0.3 0.1 0.0 0.0 0.0 0.0 0.1 0.0 0.4
52.8 28.0 9.8 1.5 0.5 0.7 0.3 0.1 0.1 0.5 0.7 0.9 0.1 0.2 0.1 4.2 0.5 0.0 0.0 0.0 0.0 0.0 0.0 0.0 0.0 0.0 0.0 0.0 0.0 0.0 0.9 1.3 1.2 0.5 0.3 1.6 1.3 0.9 0.6 1.8 1.4 0.9 0.6 1.1 1.0 0.9 0.9 0.5 0.3 0.2 0.5 0.3 0.3 0.3
16.1 5.5 1.0 0.8 0.5 0.2 0.3 0.3 0.4 0.2 0.8 0.2 1.2 1.9 3.3 2.1 0.6 0.0 0.0 0.0 0.0 0.0 0.0 0.0 0.0 0.0 0.0 0.0 0.0 0.6 0.9 1.2 1.2 0.8 1.7 1.8 1.5 1.2 1.0 1.1 2.3 2.4 2.3 1.7 1.2 1.7 1.9 1.5 1.4 1.7 1.4 0.7 0.9 0.7
3.5 0.7 0.0 0.3 0.3 0.2 0.5 0.3 0.5 0.2 0.1 0.0 0.2 0.2 0.0 0.0 0.0 0.0 0.0 0.0 0.0 0.0 0.0 0.0 0.0 0.0 0.0 0.0 0.0 0.6 0.8 1.3 1.9 1.8 1.3 1.3 1.6 1.8 1.8 3.2 3.9 5.0 4.9 4.5 3.0 2.5 2.3 2.4 3.5 3.3 2.9 2.9 2.4 2.6
0.5 0.0 0.0 0.0 0.7 0.7 0.1 0.1 0.0 0.2 0.2 0.0 0.0 0.2 0.1 0.0 0.0 0.0 0.0 0.0 0.0 0.0 0.0 0.0 0.0 0.0 0.0 0.0 0.0 0.9 0.7 0.7 1.4 1.5 1.5 1.3 1.4 1.7 3.1 3.7 4.9 5.5 5.8 5.2 6.5 7.2 5.0 5.8 6.7 7.1 6.6 6.1 5.6 4.8
0.0 0.0 0.1 0.2 0.3 0.5 0.5 0.3 0.2 0.0 0.2 0.1 0.2 0.2 0.1 0.1 0.0 0.0 0.0 0.0 0.0 0.0 0.0 0.0 0.0 0.2 0.3 0.6 0.9 1.2 1.1 1.1 1.2 2.0 2.1 2.5 2.3 3.1 3.0 4.6 4.8 5.7 6.4 6.8 6.3 5.9 5.4 5.0 4.5 4.4 4.8 4.4 4.2 3.7
0.0 0.1 0.0 0.5 0.8 1.6 1.4 0.7 0.3 0.0 0.2 0.2 0.1 0.1 0.1 0.0 0.0 0.0 0.0 0.0 0.0 0.0 0.0 0.0 0.5 0.8 0.9 1.2 1.6 1.8 2.5 2.8 1.8 2.7 2.6 2.7 3.1 2.8 4.2 4.9 6.0 6.2 7.1 7.2 6.5 6.0 5.8 5.7 6.3 6.0 6.3 6.4 6.1 5.4
2.1 1.0 0.7 0.4 2.2 2.1 1.7 1.0 1.0 0.8 0.7 0.4 0.1 0.1 0.0 0.0 0.0 0.0 0.0 0.0 0.0 0.0 0.0 0.8 1.0 1.3 2.2 2.6 2.4 3.5 3.7 3.2 4.3 4.2 4.7 4.6 4.2 4.7 6.0 6.0 6.9 6.8 6.7 6.7 7.2 7.9 8.1 7.7 7.3 6.8 6.5 6.2 6.1 6.0

GFSWCAN_prec_kuchsnow_132.txt.gz
Snowfall_Accumulation
0.0 0.0 0.0 0.0 0.0 0.0 0.0 0.0 0.0 0.0 0.0 0.0 0.0 0.0 0.0 0.0 0.0 0.0 0.0 0.0 0.0 0.0 0.0 0.0 0.0 0.0 0.0 0.0 0.0 0.0 0.0 0.0 0.0 0.2 0.0 0.0 0.0 0.0 0.0 0.0 0.0 0.0 0.1 0.1 0.3 0.6 0.0 0.0 0.0 0.0 0.0 0.0 0.0 0.0
0.0 0.0 0.0 0.0 0.0 0.0 0.0 0.0 0.0 0.0 0.0 0.0 0.0 0.0 0.0 0.0 0.0 0.0 0.0 0.0 0.0 0.0 0.0 0.0 0.0 0.0 0.0 0.0 0.0 0.0 0.0 0.0 0.0 0.0 0.0 0.0 0.0 0.0 0.0 0.0 0.0 0.0 0.0 0.0 0.0 0.0 0.0 0.0 0.0 0.0 0.0 0.0 0.0 0.0
0.0 0.0 0.0 0.0 0.0 0.0 0.0 0.0 0.0 0.0 0.0 0.0 0.0 0.0 0.0 0.0 0.0 0.0 0.0 0.0 0.0 0.1 0.0 0.0 0.0 0.0 0.0 0.0 0.0 0.0 0.0 0.0 0.0 0.0 0.0 0.0 0.0 0.0 0.0 0.0 0.0 0.0 0.0 0.0 0.0 0.0 0.0 0.0 0.0 0.0 0.0 0.0 0.0 0.0
0.0 0.0 0.0 0.0 0.0 0.0 0.0 0.0 0.0 0.0 0.0 0.0 0.0 0.0 0.0 0.0 0.0 0.0 0.0 0.0 0.0 0.1 0.8 0.1 0.0 0.0 0.0 0.0 0.0 0.0 0.0 0.0 0.0 0.0 0.0 0.0 0.0 0.0 0.0 0.0 0.0 0.0 0.0 0.0 0.0 0.0 0.0 0.0 0.0 0.0 0.0 0.0 0.0 0.0
0.0 0.0 0.0 0.0 0.0 0.0 0.0 0.0 0.0 0.0 0.0 0.0 0.0 0.0 0.0 0.0 0.0 0.0 0.0 0.0 0.0 0.1 1.6 0.2 0.0 0.0 0.0 0.0 0.0 0.0 0.0 0.0 0.2 0.1 0.6 0.3 0.0 0.0 0.0 0.0 0.0 0.0 0.0 0.0 0.0 0.0 0.0 0.0 0.0 0.0 0.0 0.0 0.0 0.0
0.0 0.0 0.0 0.0 0.0 0.0 0.0 0.0 0.0 0.0 0.0 0.0 0.0 0.0 0.0 0.0 0.0 0.0 0.0 0.0 0.0 0.0 2.0 1.7 0.0 0.0 0.0 0.0 0.0 0.0 0.0 0.0 0.0 0.4 1.1 0.0 0.0 0.0 0.4 0.0 0.0 0.0 0.0 0.0 0.0 0.0 0.0 0.0 0.0 0.0 0.0 0.0 0.0 0.0
0.0 0.0 0.0 0.0 0.0 0.0 0.0 0.0 0.0 0.0 0.0 0.0 0.0 0.0 0.0 0.0 0.0 0.0 0.0 0.0 0.0 0.0 0.8 3.6 3.3 0.0 0.0 0.0 0.0 0.0 0.0 0.0 0.4 1.2 0.8 0.0 0.0 0.7 0.8 0.2 0.0 0.0 0.0 0.0 0.0 0.0 0.0 0.0 0.0 0.0 0.0 0.0 0.0 0.0
0.0 0.0 0.0 0.0 0.0 0.0 0.0 0.0 0.0 0.0 0.0 0.0 0.0 0.0 0.0 0.0 0.0 0.0 0.0 0.0 0.0 0.0 1.8 9.6 6.7 1.5 0.0 0.2 0.0 0.0 0.0 0.0 0.1 0.4 0.0 0.0 0.0 0.9 1.1 0.0 0.0 0.0 0.0 0.0 0.0 0.0 0.0 0.0 0.0 0.0 0.0 0.0 0.0 0.0
0.0 0.0 0.0 0.0 0.0 0.0 0.0 0.0 0.0 0.0 0.0 0.0 0.0 0.0 0.0 0.0 0.0 0.0 0.0 0.0 0.0 0.0 6.1 5.6 7.1 4.0 0.0 0.0 0.0 0.1 0.0 2.3 0.0 0.7 0.0 0.0 0.4 2.5 0.0 0.1 0.1 0.0 0.1 0.0 0.0 0.0 0.0 0.0 0.0 0.0 0.0 0.0 0.0 0.0
0.0 0.0 0.0 0.0 0.0 0.0 0.0 0.0 0.0 0.0 0.0 0.0 0.0 0.0 0.3 0.0 0.0 0.0 0.0 0.3 2.2 1.6 2.2 5.2 2.8 5.4 1.2 1.6 0.7 0.7 0.7 1.4 3.0 0.0 0.0 0.5 0.0 0.0 0.0 0.0 0.0 0.0 0.0 0.1 0.0 1.8 0.9 0.7 0.0 0.0 0.0 0.0 0.0 0.0
0.0 0.0 0.0 0.0 0.0 0.0 0.0 0.0 0.0 0.0 0.0 0.0 0.0 0.0 0.0 0.0 0.0 0.0 3.4 4.4 2.0 2.0 1.2 1.8 2.8 3.0 0.0 3.6 2.1 0.1 4.1 1.6 3.6 3.1 0.9 1.9 1.4 0.6 0.0 0.1 0.0 0.0 0.0 0.0 0.0 0.0 0.2 0.7 1.0 0.4 0.2 0.1 0.0 0.0
0.0 0.0 0.0 0.0 0.0 0.0 0.0 0.0 0.0 0.0 0.0 0.0 0.0 0.0 0.0 0.3 2.9 4.4 4.6 2.4 0.9 0.8 0.6 1.5 0.7 0.3 0.3 0.0 1.3 0.9 2.9 2.4 3.8 3.1 3.5 2.9 0.7 0.1 0.5 0.6 0.3 0.0 0.0 0.1 0.0 0.0 0.2 0.0 0.5 0.8 0.4 0.8 0.9 0.8
0.0 0.0 0.0 0.0 0.0 0.0 0.0 0.0 0.0 0.0 0.0 0.0 0.0 2.4 2.5 4.3 5.6 5.0 3.6 2.2 0.4 0.5 0.6 0.6 0.8 0.0 0.0 0.0 0.3 1.0 1.5 0.8 0.9 4.0 4.2 1.5 0.1 0.1 0.0 0.1 0.3 1.4 1.4 0.7 0.4 0.3 0.4 0.4 0.2 0.6 0.6 0.4 0.6 0.4
0.0 0.0 0.0 0.0 0.0 0.0 0.0 0.0 0.0 0.0 0.0 1.4 8.6 9.3 3.7 3.8 1.4 1.1 1.1 0.9 0.2 0.1 0.0 0.0 0.3 0.6 0.1 0.7 0.6 1.5 0.1 0.4 3.1 2.2 1.9 0.1 0.1 0.0 0.0 0.0 0.0 0.0 0.6 1.2 2.0 1.4 1.3 1.5 1.0 1.1 0.7 0.3 0.0 0.0
0.0 0.0 0.0 0.0 0.0 0.0 0.0 0.0 0.0 0.0 0.0 11.8 9.5 5.7 1.7 0.0 0.1 0.1 0.0 0.1 0.0 0.0 0.1 0.0 0.0 0.1 0.6 1.5 0.3 1.0 1.1 3.6 4.2 2.6 1.2 0.5 0.2 0.0 0.0 0.1 0.0 0.0 0.0 0.0 0.2 0.5 1.7 1.6 2.0 1.4 0.7 0.6 0.1 0.0
0.0 0.0 0.0 0.0 0.0 0.0 0.0 0.0 0.0 0.0 8.0 12.1 9.1 2.8 0.0 0.0 0.0 0.0 0.0 0.0 0.0 0.0 0.2 0.3 0.5 1.3 0.9 1.7 1.5 0.4 1.3 2.5 2.8 1.0 0.0 0.0 0.0 0.0 0.1 0.0 0.1 0.0 0.0 0.0 0.0 0.0 0.4 0.5 1.1 1.1 0.2 0.5 0.5 0.0
0.0 0.0 0.0 0.0 0.0 0.0 0.0 0.0 0.0 18.0 16.3 15.0 5.4 0.1 0.0 0.0 0.0 0.0 0.0 0.0 0.0 0.4 1.7 2.1 3.6 0.1 1.0 1.8 0.9 0.1 0.2 0.2 0.2 0.0 0.0 0.0 0.0 0.0 0.3 0.0 0.0 0.0 0.0 0.0 0.2 0.2 0.7 0.3 1.3 1.9 1.2 0.5 0.5 0.7
0.0 0.0 0.0 0.0 0.0 0.0 0.8 3.1 10.1 21.9 21.8 5.1 1.1 0.2 0.1 0.0 0.0 0.0 0.0 0.0 0.0 0.2 1.8 5.3 3.3 3.7 1.4 0.2 0.0 0.1 0.0 0.0 0.0 0.0 0.0 0.0 0.0 0.0 0.3 0.0 0.0 0.1 0.7 1.7 1.7 1.7 1.4 1.3 1.7 1.4 0.3 0.5 0.7 0.7
0.0 0.0 0.0 0.0 0.0 1.4 20.9 20.5 13.6 19.5 5.5 1.0 0.4 0.1 0.0 0.2 0.0 0.0 0.1 0.1 0.0 0.1 0.9 5.3 6.7 2.2 0.0 0.0 0.0 0.0 0.0 0.0 0.0 0.0 0.0 0.0 0.0 0.0 0.1 0.6 0.6 0.0 0.4 1.2 0.8 1.0 0.6 0.2 0.0 0.5 0.6 0.2 0.7 0.4
0.0 0.0 0.0 0.0 0.0 12.8 28.0 21.8 8.6 5.8 2.9 0.7 0.7 1.1 0.4 0.1 0.1 0.0 0.1 0.2 0.9 1.2 6.3 6.5 0.0 0.1 0.1 0.4 0.5 0.4 0.0 0.0 0.0 0.0 0.0 0.0 0.0 0.0 0.0 0.0 0.0 0.2 0.0 0.4 0.3 0.1 0.6 0.3 0.1 0.6 0.5 0.3 0.7 0.6
0.0 3.4 2.4 0.0 4.3 16.7 18.2 14.7 6.4 3.3 1.3 1.0 1.4 0.4 0.9 0.6 0.8 1.0 1.3 0.8 4.6 6.7 2.5 0.2 0.0 0.0 0.4 0.4 0.2 0.4 0.1 0.1 0.0 0.0 0.0 0.0 0.0 0.0 0.0 0.0 0.0 0.1 0.0 0.0 0.1 0.0 0.3 0.2 0.1 0.0 0.4 0.2 0.1 0.9
2.7 1.1 6.6 4.6 25.9 27.5 20.8 8.8 4.6 1.9 1.1 1.4 1.3 0.6 1.2 0.8 0.6 0.6 0.6 2.8 4.4 0.4 0.2 0.3 0.0 0.0 0.0 0.0 0.6 0.4 0.5 0.0 0.1 0.0 0.0 0.0 0.0 0.0 0.0 0.0 0.0 0.0 0.0 0.0 0.0 0.0 0.0 0.0 0.2 0.0 0.4 0.4 0.1 1.1
0.0 2.1 27.0 28.2 33.8 32.1 19.5 5.3 3.4 2.2 2.3 2.0 1.7 2.5 1.4 0.4 0.3 0.1 1.0 0.4 0.0 0.0 0.0 0.0 0.0 1.0 1.4 1.2 1.4 1.1 0.6 0.1 0.0 0.0 0.1 0.0 0.0 0.0 0.0 0.0 0.0 0.0 0.0 0.0 0.0 0.0 0.0 0.0 0.0 0.0 0.0 0.5 0.2 0.1
0.0 26.5 38.9 40.9 27.4 24.7 13.3 11.1 6.7 3.3 4.0 2.4 2.0 1.4 0.6 0.1 0.4 1.0 1.1 0.0 0.0 0.0 0.0 0.0 0.0 0.0 0.0 0.8 1.2 1.9 2.3 1.6 0.5 0.0 0.6 0.3 0.0 0.0 0.0 0.0 0.0 0.0 0.0 0.0 0.0 0.0 0.0 0.0 0.0 0.0 0.0 0.0 0.0 0.1
51.9 64.7 42.8 43.2 22.4 13.4 7.6 5.5 3.5 2.9 1.7 1.4 0.5 0.3 0.2 0.7 1.6 2.1 0.5 0.0 0.0 0.0 0.0 0.0 0.0 0.0 0.0 0.0 0.7 0.9 1.1 1.5 2.5 2.5 0.3 1.7 0.8 0.2 0.0 0.0 0.2 0.1 0.0 0.0 0.0 0.0 0.0 0.0 0.0 0.0 0.0 0.0 0.1 0.2
64.2 35.1 25.3 10.1 5.7 1.9 0.7 0.5 0.6 0.4 0.0 0.5 0.4 0.0 0.0 1.7 3.8 2.2 0.1 0.0 0.0 0.0 0.0 0.0 0.0 0.0 0.0 0.0 0.0 0.9 1.1 1.2 1.0 1.6 0.3 2.0 1.8 2.4 1.9 1.5 0.9 0.4 0.0 0.0 0.3 0.3 0.1 0.0 0.0 0.0 0.0 0.1 0.0 0.4
52.8 28.0 9.9 1.5 0.5 0.7 0.3 0.1 0.1 0.5 0.7 0.9 0.1 0.2 0.1 4.2 0.5 0.0 0.0 0.0 0.0 0.0 0.0 0.0 0.0 0.0 0.0 0.0 0.0 0.0 0.9 1.3 1.2 0.5 0.3 1.6 1.3 0.9 0.6 1.8 1.4 0.9 0.6 1.1 1.0 0.9 0.9 0.5 0.3 0.2 0.5 0.3 0.3 0.3
16.2 5.5 1.0 0.8 0.5 0.2 0.3 0.3 0.4 0.2 0.8 0.2 1.2 1.9 3.3 2.1 0.6 0.0 0.0 0.0 0.0 0.0 0.0 0.0 0.0 0.0 0.0 0.0 0.0 0.6 0.9 1.2 1.2 0.8 1.7 1.8 1.5 1.2 1.0 1.1 2.3 2.4 2.3 1.7 1.2 1.7 1.9 1.5 1.5 1.7 1.4 0.8 0.9 0.7
3.8 0.7 0.0 0.3 0.3 0.2 0.5 0.3 0.5 0.2 0.1 0.0 0.2 0.2 0.0 0.0 0.0 0.0 0.0 0.0 0.0 0.0 0.0 0.0 0.0 0.0 0.0 0.0 0.0 0.6 0.8 1.3 1.9 1.8 1.3 1.3 1.6 1.8 1.8 3.2 3.9 5.0 4.9 4.5 3.0 2.5 2.3 2.4 3.8 4.1 3.6 3.4 2.7 2.8
0.7 0.0 0.0 0.0 0.7 0.7 0.1 0.1 0.0 0.2 0.2 0.0 0.0 0.2 0.1 0.0 0.0 0.0 0.0 0.0 0.0 0.0 0.0 0.0 0.0 0.0 0.0 0.0 0.0 0.9 0.7 0.7 1.4 1.5 1.5 1.3 1.4 1.7 3.1 3.7 4.9 5.5 5.8 5.2 6.5 7.2 5.1 5.8 6.7 7.1 6.8 6.3 5.8 4.9
0.0 0.0 0.1 0.2 0.3 0.5 0.5 0.3 0.2 0.0 0.2 0.1 0.2 0.2 0.1 0.1 0.0 0.0 0.0 0.0 0.0 0.0 0.0 0.0 0.0 0.2 0.3 0.6 0.9 1.2 1.1 1.1 1.2 2.0 2.1 2.5 2.3 3.1 3.0 4.6 4.8 5.7 6.4 6.8 6.3 6.2 5.7 5.3 4.8 4.6 5.0 4.6 4.2 3.9
0.0 0.1 0.0 0.5 0.8 1.6 1.4 0.7 0.3 0.0 0.2 0.2 0.1 0.1 0.1 0.0 0.0 0.0 0.0 0.0 0.0 0.0 0.0 0.0 0.5 0.8 0.9 1.2 1.6 1.8 2.5 2.8 1.8 2.7 2.6 2.7 3.1 2.8 4.2 4.9 6.0 6.3 7.1 7.5 6.8 6.2 6.2 6.1 6.7 6.3 6.5 6.6 6.2 5.6
2.3 1.1 0.9 0.5 2.2 2.1 1.7 1.0 1.0 0.8 0.7 0.4 0.1 0.1 0.0 0.0 0.0 0.0 0.0 0.0 0.0 0.0 0.0 0.8 1.0 1.3 2.2 2.6 2.4 3.5 3.7 3.2 4.3 4.2 4.7 4.6 4.2 4.7 6.0 6.2 7.4 7.3 7.1 7.0 7.5 8.0 8.2 7.9 7.5 6.9 6.6 6.3 6.2 6.1

GFSWCAN_prec_kuchsnow_135.txt.gz
Snowfall_Accumulation
0.0 0.0 0.0 0.0 0.0 0.0 0.0 0.0 0.0 0.0 0.0 0.0 0.0 0.0 0.0 0.0 0.0 0.0 0.0 0.0 0.0 0.0 0.0 0.0 0.0 0.0 0.0 0.0 0.0 0.0 0.0 0.0 0.0 0.2 0.0 0.0 0.0 0.0 0.0 0.0 0.0 0.0 0.1 0.1 0.3 0.6 0.0 0.0 0.0 0.0 0.0 0.0 0.0 0.0
0.0 0.0 0.0 0.0 0.0 0.0 0.0 0.0 0.0 0.0 0.0 0.0 0.0 0.0 0.0 0.0 0.0 0.0 0.0 0.0 0.0 0.0 0.0 0.0 0.0 0.0 0.0 0.0 0.0 0.0 0.0 0.0 0.0 0.0 0.0 0.0 0.0 0.0 0.0 0.0 0.0 0.0 0.0 0.0 0.0 0.0 0.0 0.0 0.0 0.0 0.0 0.0 0.0 0.0
0.0 0.0 0.0 0.0 0.0 0.0 0.0 0.0 0.0 0.0 0.0 0.0 0.0 0.0 0.0 0.0 0.0 0.0 0.0 0.0 0.0 0.1 0.0 0.0 0.0 0.0 0.0 0.0 0.0 0.0 0.0 0.0 0.0 0.0 0.0 0.0 0.0 0.0 0.0 0.0 0.0 0.0 0.0 0.0 0.0 0.0 0.0 0.0 0.0 0.0 0.0 0.0 0.0 0.0
0.0 0.0 0.0 0.0 0.0 0.0 0.0 0.0 0.0 0.0 0.0 0.0 0.0 0.0 0.0 0.0 0.0 0.0 0.0 0.0 0.0 0.1 0.8 0.1 0.0 0.0 0.0 0.0 0.0 0.0 0.0 0.0 0.0 0.0 0.0 0.0 0.0 0.0 0.0 0.0 0.0 0.0 0.0 0.0 0.0 0.0 0.0 0.0 0.0 0.0 0.0 0.0 0.0 0.0
0.0 0.0 0.0 0.0 0.0 0.0 0.0 0.0 0.0 0.0 0.0 0.0 0.0 0.0 0.0 0.0 0.0 0.0 0.0 0.0 0.0 0.1 1.6 0.2 0.0 0.0 0.0 0.0 0.0 0.0 0.0 0.0 0.2 0.1 0.6 0.3 0.0 0.0 0.0 0.0 0.0 0.0 0.0 0.0 0.0 0.0 0.0 0.0 0.0 0.0 0.0 0.0 0.0 0.0
0.0 0.0 0.0 0.0 0.0 0.0 0.0 0.0 0.0 0.0 0.0 0.0 0.0 0.0 0.0 0.0 0.0 0.0 0.0 0.0 0.0 0.0 2.0 1.7 0.0 0.0 0.0 0.0 0.0 0.0 0.0 0.0 0.0 0.4 1.1 0.0 0.0 0.0 0.4 0.0 0.0 0.0 0.0 0.0 0.0 0.0 0.0 0.0 0.0 0.0 0.0 0.0 0.0 0.0
0.0 0.0 0.0 0.0 0.0 0.0 0.0 0.0 0.0 0.0 0.0 0.0 0.0 0.0 0.0 0.0 0.0 0.0 0.0 0.0 0.0 0.0 0.8 3.6 3.3 0.0 0.0 0.0 0.0 0.0 0.0 0.0 0.4 1.2 0.8 0.0 0.0 0.7 0.8 0.2 0.0 0.0 0.0 0.0 0.0 0.0 0.0 0.0 0.0 0.0 0.0 0.0 0.0 0.0
0.0 0.0 0.0 0.0 0.0 0.0 0.0 0.0 0.0 0.0 0.0 0.0 0.0 0.0 0.0 0.0 0.0 0.0 0.0 0.0 0.0 0.0 1.8 9.6 6.7 1.5 0.0 0.2 0.0 0.0 0.0 0.0 0.1 0.4 0.0 0.0 0.0 0.9 1.1 0.0 0.0 0.0 0.0 0.0 0.0 0.0 0.0 0.0 0.0 0.0 0.0 0.0 0.0 0.0
0.0 0.0 0.0 0.0 0.0 0.0 0.0 0.0 0.0 0.0 0.0 0.0 0.0 0.0 0.0 0.0 0.0 0.0 0.0 0.0 0.0 0.0 6.1 5.6 7.1 4.0 0.0 0.0 0.0 0.1 0.0 2.3 0.0 0.7 0.0 0.0 0.4 2.5 0.0 0.1 0.1 0.0 0.1 0.0 0.0 0.0 0.0 0.0 0.0 0.0 0.0 0.0 0.0 0.0
0.0 0.0 0.0 0.0 0.0 0.0 0.0 0.0 0.0 0.0 0.0 0.0 0.0 0.0 0.3 0.0 0.0 0.0 0.0 0.3 2.2 1.6 2.2 5.2 2.8 5.4 1.2 1.6 0.7 0.7 0.7 1.4 3.0 0.0 0.0 0.5 0.0 0.0 0.0 0.0 0.0 0.0 0.0 0.1 0.0 1.8 0.9 0.7 0.0 0.0 0.0 0.0 0.0 0.0
0.0 0.0 0.0 0.0 0.0 0.0 0.0 0.0 0.0 0.0 0.0 0.0 0.0 0.0 0.0 0.0 0.0 0.0 3.4 4.4 2.0 2.0 1.2 1.8 2.8 3.0 0.0 3.6 2.1 0.1 4.1 1.6 3.6 3.1 0.9 1.9 1.4 0.6 0.0 0.1 0.0 0.0 0.0 0.0 0.0 0.0 0.2 0.7 1.0 0.4 0.2 0.1 0.0 0.0
0.0 0.0 0.0 0.0 0.0 0.0 0.0 0.0 0.0 0.0 0.0 0.0 0.0 0.0 0.0 0.3 3.5 5.2 5.0 2.4 0.9 0.8 0.6 1.5 0.7 0.3 0.3 0.0 1.3 0.9 2.9 2.4 3.8 3.1 3.5 2.9 0.7 0.1 0.5 0.6 0.3 0.0 0.0 0.1 0.0 0.0 0.2 0.0 0.5 0.8 0.4 0.8 0.9 0.8
0.0 0.0 0.0 0.0 0.0 0.0 0.0 0.0 0.0 0.0 0.0 0.0 0.0 4.2 4.2 6.2 7.4 5.6 3.7 2.2 0.4 0.5 0.6 0.6 0.8 0.0 0.0 0.0 0.3 1.0 1.5 0.8 0.9 4.0 4.2 1.5 0.1 0.1 0.0 0.1 0.3 1.4 1.4 0.7 0.4 0.3 0.4 0.4 0.2 0.6 0.6 0.4 0.6 0.4
0.0 0.0 0.0 0.0 0.0 0.0 0.0 0.0 0.0 0.0 0.0 1.4 11.2 12.9 5.4 5.7 1.4 1.1 1.1 0.9 0.2 0.1 0.0 0.0 0.3 0.6 0.1 0.7 0.6 1.5 0.1 0.4 3.1 2.3 1.9 0.1 0.1 0.0 0.0 0.0 0.0 0.0 0.6 1.2 2.0 1.4 1.3 1.5 1.0 1.1 0.7 0.3 0.0 0.0
0.0 0.0 0.0 0.0 0.0 0.0 0.0 0.0 0.0 0.0 0.0 14.8 12.5 8.2 2.5 0.0 0.1 0.1 0.0 0.1 0.0 0.0 0.1 0.0 0.0 0.1 0.6 1.5 0.3 1.0 1.1 3.6 4.2 2.6 1.2 0.5 0.2 0.0 0.0 0.1 0.0 0.0 0.0 0.0 0.2 0.5 1.7 1.6 2.0 1.4 0.7 0.6 0.1 0.0
0.0 0.0 0.0 0.0 0.0 0.0 0.0 0.0 0.0 0.0 10.7 15.7 11.9 3.7 0.0 0.0 0.0 0.0 0.0 0.0 0.0 0.0 0.2 0.3 0.5 1.3 0.9 1.7 1.5 0.4 1.3 2.5 2.8 1.0 0.0 0.0 0.0 0.0 0.1 0.0 0.1 0.0 0.0 0.0 0.0 0.0 0.4 0.5 1.1 1.1 0.2 0.5 0.5 0.0
0.0 0.0 0.0 0.0 0.0 0.0 0.0 0.0 0.0 20.4 20.1 19.3 8.2 0.5 0.0 0.0 0.0 0.0 0.0 0.0 0.0 0.4 1.7 2.1 3.6 0.1 1.0 1.8 0.9 0.1 0.2 0.2 0.2 0.0 0.0 0.0 0.0 0.0 0.3 0.0 0.0 0.0 0.0 0.0 0.2 0.2 0.7 0.3 1.3 1.9 1.2 0.5 0.5 0.7
0.0 0.0 0.0 0.0 0.0 0.0 0.8 3.1 10.1 24.6 26.0 7.6 2.3 0.2 0.1 0.0 0.0 0.0 0.0 0.0 0.0 0.2 1.8 5.3 3.3 3.7 1.4 0.2 0.0 0.1 0.0 0.0 0.0 0.0 0.0 0.0 0.0 0.0 0.3 0.0 0.0 0.1 0.7 1.7 1.7 1.7 1.4 1.3 1.7 1.4 0.3 0.5 0.7 0.7
0.0 0.0 0.0 0.0 0.0 1.4 22.4 23.3 15.4 22.8 5.5 1.0 0.4 0.1 0.0 0.2 0.0 0.0 0.1 0.1 0.0 0.1 0.9 5.3 6.7 2.2 0.0 0.0 0.0 0.0 0.0 0.0 0.0 0.0 0.0 0.0 0.0 0.0 0.1 0.6 0.6 0.0 0.4 1.2 0.8 1.0 0.6 0.2 0.0 0.5 0.6 0.2 0.7 0.4
0.0 0.0 0.0 0.0 0.0 13.2 29.5 24.7 10.0 7.3 2.9 0.7 1.0 1.2 0.4 0.1 0.1 0.0 0.1 0.2 0.9 1.2 6.3 6.5 0.0 0.1 0.1 0.4 0.5 0.4 0.0 0.0 0.0 0.0 0.0 0.0 0.0 0.0 0.0 0.0 0.0 0.2 0.0 0.4 0.3 0.1 0.6 0.3 0.1 0.6 0.5 0.3 0.7 0.6
1.4 7.3 2.4 0.0 5.0 17.3 19.2 16.0 7.8 4.1 1.3 1.7 2.0 0.6 1.4 0.9 0.8 1.4 1.7 1.3 5.1 7.3 2.7 0.2 0.0 0.0 0.4 0.4 0.2 0.4 0.1 0.1 0.0 0.0 0.0 0.0 0.0 0.0 0.0 0.0 0.0 0.1 0.0 0.0 0.1 0.0 0.3 0.2 0.1 0.0 0.4 0.2 0.1 0.9
6.7 2.9 9.9 6.1 27.6 29.1 20.8 8.8 4.6 2.9 1.9 2.5 2.2 1.4 2.5 2.4 2.2 2.1 1.7 4.0 5.1 0.5 0.2 0.3 0.0 0.0 0.0 0.0 0.6 0.4 0.5 0.0 0.1 0.0 0.0 0.0 0.0 0.0 0.0 0.0 0.0 0.0 0.0 0.0 0.0 0.0 0.0 0.0 0.2 0.0 0.4 0.4 0.1 1.1
2.0 5.3 30.6 31.9 37.3 34.0 21.3 6.6 3.4 3.6 3.8 3.5 2.6 3.5 3.0 2.3 2.1 1.5 2.2 1.1 0.1 0.0 0.0 0.0 0.0 1.0 1.4 1.2 1.4 1.1 0.6 0.1 0.0 0.0 0.1 0.0 0.0 0.0 0.0 0.0 0.0 0.0 0.0 0.0 0.0 0.0 0.0 0.0 0.0 0.0 0.0 0.5 0.2 0.1
0.0 29.0 42.3 44.5 30.6 27.2 15.1 12.8 8.1 4.8 5.7 3.9 3.4 2.9 2.1 1.5 1.6 1.5 1.3 0.0 0.0 0.0 0.0 0.0 0.0 0.0 0.0 0.8 1.2 1.9 2.3 1.6 0.5 0.0 0.6 0.3 0.0 0.0 0.0 0.0 0.0 0.0 0.0 0.0 0.0 0.0 0.0 0.0 0.0 0.0 0.0 0.0 0.0 0.1
52.2 65.7 43.9 45.1 24.4 15.2 9.5 7.7 5.5 4.6 3.9 3.1 2.0 2.1 1.6 1.5 2.2 2.4 0.7 0.1 0.0 0.0 0.0 0.0 0.0 0.0 0.0 0.0 0.7 0.9 1.1 1.5 2.5 2.5 0.3 1.7 0.8 0.2 0.0 0.0 0.2 0.1 0.0 0.0 0.0 0.0 0.0 0.0 0.0 0.0 0.0 0.0 0.1 0.2
64.5 35.6 25.9 11.0 6.6 2.5 1.5 1.7 2.2 1.8 1.2 1.7 1.6 1.1 0.6 2.0 4.0 2.4 0.1 0.0 0.0 0.0 0.0 0.0 0.0 0.0 0.0 0.0 0.0 0.9 1.1 1.2 1.0 1.6 0.3 2.0 1.8 2.4 1.9 1.5 0.9 0.4 0.0 0.0 0.3 0.3 0.1 0.0 0.0 0.0 0.0 0.1 0.0 0.4
52.9 28.1 9.9 1.5 0.5 0.7 0.3 0.2 0.2 0.5 0.7 1.0 0.2 0.3 0.1 4.2 0.5 0.0 0.0 0.0 0.0 0.0 0.0 0.0 0.0 0.0 0.0 0.0 0.0 0.0 0.9 1.3 1.2 0.5 0.3 1.6 1.3 0.9 0.6 1.8 1.4 0.9 0.6 1.1 1.0 0.9 0.9 0.5 0.3 0.2 0.5 0.3 0.3 0.3
16.2 5.5 1.0 0.8 0.5 0.2 0.3 0.3 0.4 0.2 0.8 0.2 1.2 1.9 3.3 2.1 0.6 0.0 0.0 0.0 0.0 0.0 0.0 0.0 0.0 0.0 0.0 0.0 0.0 0.6 0.9 1.2 1.2 0.8 1.7 1.8 1.5 1.2 1.0 1.1 2.3 2.4 2.3 1.7 1.2 1.7 1.9 1.5 1.5 1.7 1.4 0.8 0.9 0.7
3.8 0.7 0.0 0.3 0.3 0.2 0.5 0.3 0.5 0.2 0.1 0.0 0.2 0.2 0.0 0.0 0.0 0.0 0.0 0.0 0.0 0.0 0.0 0.0 0.0 0.0 0.0 0.0 0.0 0.6 0.8 1.3 1.9 1.8 1.3 1.3 1.6 1.8 1.8 3.2 3.9 5.0 4.9 4.5 3.0 2.5 2.3 2.4 3.8 4.1 3.6 3.4 3.1 3.0
0.7 0.0 0.0 0.0 0.7 0.7 0.1 0.1 0.0 0.2 0.2 0.0 0.0 0.2 0.1 0.0 0.0 0.0 0.0 0.0 0.0 0.0 0.0 0.0 0.0 0.0 0.0 0.0 0.0 0.9 0.7 0.7 1.4 1.5 1.5 1.3 1.4 1.7 3.1 3.7 4.9 5.5 5.8 5.2 6.5 7.2 5.1 5.8 6.7 7.1 7.0 6.5 5.9 5.0
0.0 0.0 0.1 0.2 0.3 0.5 0.5 0.3 0.2 0.0 0.2 0.1 0.2 0.2 0.1 0.1 0.0 0.0 0.0 0.0 0.0 0.0 0.0 0.0 0.0 0.2 0.3 0.6 0.9 1.2 1.1 1.1 1.2 2.0 2.1 2.5 2.3 3.1 3.0 4.6 4.8 5.7 6.4 6.8 6.3 6.2 5.7 5.6 5.2 5.0 5.1 4.6 4.2 3.9
0.0 0.1 0.0 0.5 0.8 1.6 1.4 0.7 0.3 0.0 0.2 0.2 0.1 0.1 0.1 0.0 0.0 0.0 0.0 0.0 0.0 0.0 0.0 0.0 0.5 0.8 0.9 1.2 1.6 1.8 2.5 2.8 1.8 2.7 2.6 2.7 3.1 2.8 4.2 4.9 6.0 6.3 7.1 7.5 6.9 6.4 6.5 6.4 6.9 6.4 6.6 6.6 6.2 5.6
2.3 1.1 0.9 0.5 2.2 2.1 1.7 1.0 1.0 0.8 0.7 0.4 0.1 0.1 0.0 0.0 0.0 0.0 0.0 0.0 0.0 0.0 0.0 0.8 1.0 1.3 2.2 2.6 2.4 3.5 3.7 3.2 4.3 4.2 4.7 4.6 4.2 4.7 6.0 6.2 7.4 7.3 7.1 7.2 7.5 8.1 8.3 8.0 7.5 6.9 6.6 6.4 6.3 6.2

GFSWCAN_prec_kuchsnow_138.txt.gz
Snowfall_Accumulation
0.0 0.0 0.0 0.0 0.0 0.0 0.0 0.0 0.0 0.0 0.0 0.0 0.0 0.0 0.0 0.0 0.0 0.0 0.0 0.0 0.0 0.0 0.0 0.0 0.0 0.0 0.0 0.0 0.0 0.0 0.0 0.0 0.0 0.2 0.0 0.0 0.0 0.0 0.0 0.0 0.0 0.0 0.1 0.1 0.3 0.6 0.0 0.0 0.0 0.0 0.0 0.0 0.0 0.0
0.0 0.0 0.0 0.0 0.0 0.0 0.0 0.0 0.0 0.0 0.0 0.0 0.0 0.0 0.0 0.0 0.0 0.0 0.0 0.0 0.0 0.0 0.0 0.0 0.0 0.0 0.0 0.0 0.0 0.0 0.0 0.0 0.0 0.0 0.0 0.0 0.0 0.0 0.0 0.0 0.0 0.0 0.0 0.0 0.0 0.0 0.0 0.0 0.0 0.0 0.0 0.0 0.0 0.0
0.0 0.0 0.0 0.0 0.0 0.0 0.0 0.0 0.0 0.0 0.0 0.0 0.0 0.0 0.0 0.0 0.0 0.0 0.0 0.0 0.0 0.1 0.0 0.0 0.0 0.0 0.0 0.0 0.0 0.0 0.0 0.0 0.0 0.0 0.0 0.0 0.0 0.0 0.0 0.0 0.0 0.0 0.0 0.0 0.0 0.0 0.0 0.0 0.0 0.0 0.0 0.0 0.0 0.0
0.0 0.0 0.0 0.0 0.0 0.0 0.0 0.0 0.0 0.0 0.0 0.0 0.0 0.0 0.0 0.0 0.0 0.0 0.0 0.0 0.0 0.1 0.8 0.1 0.0 0.0 0.0 0.0 0.0 0.0 0.0 0.0 0.0 0.0 0.0 0.0 0.0 0.0 0.0 0.0 0.0 0.0 0.0 0.0 0.0 0.0 0.0 0.0 0.0 0.0 0.0 0.0 0.0 0.0
0.0 0.0 0.0 0.0 0.0 0.0 0.0 0.0 0.0 0.0 0.0 0.0 0.0 0.0 0.0 0.0 0.0 0.0 0.0 0.0 0.0 0.1 1.6 0.2 0.0 0.0 0.0 0.0 0.0 0.0 0.0 0.0 0.2 0.1 0.6 0.3 0.0 0.0 0.0 0.0 0.0 0.0 0.0 0.0 0.0 0.0 0.0 0.0 0.0 0.0 0.0 0.0 0.0 0.0
0.0 0.0 0.0 0.0 0.0 0.0 0.0 0.0 0.0 0.0 0.0 0.0 0.0 0.0 0.0 0.0 0.0 0.0 0.0 0.0 0.0 0.0 2.0 1.7 0.0 0.0 0.0 0.0 0.0 0.0 0.0 0.0 0.0 0.4 1.1 0.0 0.0 0.0 0.4 0.0 0.0 0.0 0.0 0.0 0.0 0.0 0.0 0.0 0.0 0.0 0.0 0.0 0.0 0.0
0.0 0.0 0.0 0.0 0.0 0.0 0.0 0.0 0.0 0.0 0.0 0.0 0.0 0.0 0.0 0.0 0.0 0.0 0.0 0.0 0.0 0.0 0.8 3.6 3.3 0.0 0.0 0.0 0.0 0.0 0.0 0.0 0.4 1.2 0.8 0.0 0.0 0.7 0.8 0.2 0.0 0.0 0.0 0.0 0.0 0.0 0.0 0.0 0.0 0.0 0.0 0.0 0.0 0.0
0.0 0.0 0.0 0.0 0.0 0.0 0.0 0.0 0.0 0.0 0.0 0.0 0.0 0.0 0.0 0.0 0.0 0.0 0.0 0.0 0.0 0.0 1.8 9.6 6.7 1.5 0.0 0.2 0.0 0.0 0.0 0.0 0.1 0.4 0.0 0.0 0.0 0.9 1.1 0.0 0.0 0.0 0.0 0.0 0.0 0.0 0.0 0.0 0.0 0.0 0.0 0.0 0.0 0.0
0.0 0.0 0.0 0.0 0.0 0.0 0.0 0.0 0.0 0.0 0.0 0.0 0.0 0.0 0.0 0.0 0.0 0.0 0.0 0.0 0.0 0.0 6.1 5.6 7.1 4.0 0.0 0.0 0.0 0.1 0.0 2.3 0.0 0.7 0.0 0.0 0.4 2.5 0.0 0.1 0.1 0.0 0.1 0.0 0.0 0.0 0.0 0.0 0.0 0.0 0.0 0.0 0.0 0.0
0.0 0.0 0.0 0.0 0.0 0.0 0.0 0.0 0.0 0.0 0.0 0.0 0.0 0.0 0.3 0.0 0.0 0.0 0.0 0.3 2.2 1.6 2.2 5.2 2.8 5.4 1.2 1.6 0.7 0.7 0.7 1.4 3.0 0.0 0.0 0.5 0.0 0.0 0.0 0.0 0.0 0.0 0.0 0.1 0.0 1.8 0.9 0.7 0.0 0.0 0.0 0.0 0.0 0.0
0.0 0.0 0.0 0.0 0.0 0.0 0.0 0.0 0.0 0.0 0.0 0.0 0.0 0.0 0.0 0.0 0.0 0.0 3.4 4.4 2.0 2.0 1.2 1.8 2.8 3.0 0.0 3.6 2.1 0.1 4.1 1.6 3.6 3.1 0.9 1.9 1.4 0.6 0.0 0.1 0.0 0.0 0.0 0.0 0.0 0.0 0.2 0.7 1.0 0.4 0.2 0.1 0.0 0.0
0.0 0.0 0.0 0.0 0.0 0.0 0.0 0.0 0.0 0.0 0.0 0.0 0.0 0.0 0.0 0.3 4.0 5.7 5.4 2.5 0.9 0.8 0.6 1.5 0.7 0.3 0.3 0.0 1.3 0.9 2.9 2.4 3.8 3.1 3.5 2.9 0.7 0.1 0.5 0.6 0.3 0.0 0.0 0.1 0.0 0.0 0.2 0.0 0.5 0.8 0.4 0.8 0.9 0.8
0.0 0.0 0.0 0.0 0.0 0.0 0.0 0.0 0.0 0.0 0.0 0.0 0.0 6.2 6.0 8.1 8.8 6.1 3.9 2.2 0.4 0.5 0.6 0.6 0.8 0.0 0.0 0.0 0.3 1.0 1.5 0.8 0.9 4.1 4.2 1.5 0.1 0.1 0.0 0.1 0.3 1.4 1.4 0.7 0.4 0.3 0.4 0.4 0.2 0.6 0.6 0.4 0.6 0.4
0.0 0.0 0.0 0.0 0.0 0.0 0.0 0.0 0.0 0.0 0.0 1.4 14.6 18.0 8.1 7.7 1.4 1.1 1.1 0.9 0.2 0.1 0.0 0.0 0.3 0.6 0.1 0.7 0.6 1.5 0.1 0.4 3.1 2.3 1.9 0.1 0.1 0.0 0.0 0.0 0.0 0.0 0.6 1.2 2.0 1.4 1.3 1.5 1.0 1.1 0.7 0.3 0.0 0.0
0.0 0.0 0.0 0.0 0.0 0.0 0.0 0.0 0.0 0.0 0.0 16.3 15.2 10.9 3.9 0.0 0.1 0.1 0.0 0.1 0.0 0.0 0.1 0.0 0.0 0.1 0.6 1.5 0.3 1.0 1.1 3.6 4.2 2.6 1.2 0.5 0.2 0.0 0.0 0.1 0.0 0.0 0.0 0.0 0.2 0.5 1.7 1.6 2.0 1.4 0.7 0.6 0.1 0.0
0.0 0.0 0.0 0.0 0.0 0.0 0.0 0.0 0.0 0.0 10.7 17.1 13.8 4.7 0.0 0.0 0.0 0.0 0.0 0.0 0.0 0.0 0.2 0.3 0.5 1.3 0.9 1.7 1.5 0.4 1.3 2.5 2.8 1.0 0.0 0.0 0.0 0.0 0.1 0.0 0.1 0.0 0.0 0.0 0.0 0.0 0.4 0.5 1.1 1.1 0.2 0.5 0.5 0.0
0.0 0.0 0.0 0.0 0.0 0.0 0.0 0.0 0.0 20.7 20.5 20.1 8.2 0.5 0.0 0.0 0.0 0.0 0.0 0.0 0.0 0.4 1.7 2.1 3.6 0.1 1.0 1.8 0.9 0.1 0.2 0.2 0.2 0.0 0.0 0.0 0.0 0.0 0.3 0.0 0.0 0.0 0.0 0.0 0.2 0.2 0.7 0.3 1.3 1.9 1.2 0.5 0.5 0.7
0.0 0.0 0.0 0.0 0.0 0.0 0.8 3.1 10.6 25.2 26.6 7.6 2.3 0.2 0.1 0.0 0.0 0.0 0.0 0.0 0.0 0.2 1.8 5.3 3.3 3.7 1.4 0.2 0.0 0.1 0.0 0.0 0.0 0.0 0.0 0.0 0.0 0.0 0.3 0.0 0.0 0.1 0.7 1.7 1.7 1.7 1.4 1.3 1.7 1.4 0.3 0.5 0.7 0.7
0.0 0.0 0.0 0.0 0.0 1.6 23.1 24.0 15.4 23.7 5.5 1.0 0.4 0.1 0.0 0.2 0.0 0.0 0.1 0.1 0.0 0.1 0.9 5.3 6.7 2.2 0.0 0.0 0.0 0.0 0.0 0.0 0.0 0.0 0.0 0.0 0.0 0.0 0.1 0.6 0.6 0.0 0.4 1.2 0.8 1.0 0.6 0.2 0.0 0.5 0.6 0.2 0.7 0.4
0.0 0.0 0.0 0.0 0.0 14.6 31.6 26.3 10.6 7.3 2.9 0.7 1.0 1.2 0.4 0.1 0.1 0.0 0.1 0.2 0.9 1.2 6.3 6.5 0.0 0.1 0.1 0.4 0.5 0.4 0.0 0.0 0.0 0.0 0.0 0.0 0.0 0.0 0.0 0.0 0.0 0.2 0.0 0.4 0.3 0.1 0.6 0.3 0.1 0.6 0.5 0.3 0.7 0.6
1.4 7.3 2.4 0.0 5.0 19.1 20.6 16.9 8.5 4.1 1.3 1.7 2.0 0.6 1.4 0.9 0.8 1.4 1.8 1.4 5.5 7.9 3.1 0.2 0.0 0.0 0.4 0.4 0.2 0.4 0.1 0.1 0.0 0.0 0.0 0.0 0.0 0.0 0.0 0.0 0.0 0.1 0.0 0.0 0.1 0.0 0.3 0.2 0.1 0.0 0.4 0.2 0.1 0.9
7.7 3.9 13.6 9.0 30.5 31.4 22.1 9.4 4.8 3.2 2.0 2.7 2.7 1.4 2.5 3.4 3.2 2.9 2.3 4.9 5.8 0.7 0.2 0.3 0.0 0.0 0.0 0.0 0.6 0.4 0.5 0.0 0.1 0.0 0.0 0.0 0.0 0.0 0.0 0.0 0.0 0.0 0.0 0.0 0.0 0.0 0.0 0.0 0.2 0.0 0.4 0.4 0.1 1.1
3.0 7.8 33.8 35.2 40.6 35.8 22.8 7.4 3.9 4.0 4.1 4.1 3.1 4.1 4.1 3.6 3.2 2.6 3.6 2.4 0.7 0.0 0.0 0.0 0.0 1.0 1.4 1.2 1.4 1.1 0.6 0.1 0.0 0.0 0.1 0.0 0.0 0.0 0.0 0.0 0.0 0.0 0.0 0.0 0.0 0.0 0.0 0.0 0.0 0.0 0.0 0.5 0.2 0.1
0.9 31.8 45.7 47.4 32.6 28.7 16.1 13.8 8.7 5.2 6.4 4.9 4.2 3.4 2.6 1.5 2.8 3.1 2.6 0.4 0.0 0.0 0.0 0.0 0.0 0.0 0.1 0.9 1.2 1.9 2.3 1.6 0.5 0.0 0.6 0.3 0.0 0.0 0.0 0.0 0.0 0.0 0.0 0.0 0.0 0.0 0.0 0.0 0.0 0.0 0.0 0.0 0.0 0.1
53.2 67.2 45.5 46.8 25.6 16.2 10.1 8.3 6.0 4.6 4.2 3.6 2.0 2.9 2.2 2.1 3.0 3.4 1.2 0.3 0.0 0.0 0.6 0.8 0.4 0.1 0.1 0.0 0.7 0.9 1.1 1.5 2.5 2.5 0.3 1.7 0.8 0.2 0.0 0.0 0.2 0.1 0.0 0.0 0.0 0.0 0.0 0.0 0.0 0.0 0.0 0.0 0.1 0.2
65.5 36.6 26.6 11.8 7.3 3.0 2.1 2.3 2.2 1.8 1.2 2.3 1.6 1.1 0.6 3.4 5.3 3.3 0.1 0.0 0.0 0.0 0.4 0.3 0.1 0.0 0.0 0.0 0.0 0.9 1.1 1.2 1.0 1.6 0.3 2.0 1.8 2.4 1.9 1.5 0.9 0.4 0.0 0.0 0.3 0.3 0.1 0.0 0.0 0.0 0.0 0.1 0.0 0.4
53.7 29.4 10.6 1.8 0.7 0.7 0.3 0.8 1.0 1.4 2.0 2.4 1.3 1.3 1.2 5.7 1.7 0.7 0.6 0.4 0.2 0.1 0.0 0.0 0.0 0.0 0.0 0.0 0.0 0.0 0.9 1.3 1.2 0.5 0.3 1.6 1.3 0.9 0.6 1.8 1.4 0.9 0.6 1.1 1.0 0.9 0.9 0.5 0.3 0.2 0.5 0.3 0.3 0.3
16.2 5.5 1.2 1.0 0.6 0.2 0.5 0.5 0.5 0.4 1.0 0.5 1.6 2.5 3.9 2.5 0.8 0.1 0.0 0.0 0.0 0.0 0.0 0.0 0.0 0.0 0.0 0.0 0.0 0.6 0.9 1.2 1.2 0.8 1.7 1.8 1.5 1.2 1.0 1.1 2.3 2.4 2.3 1.7 1.2 1.7 1.9 1.5 1.5 1.7 1.4 0.8 0.9 0.7
3.8 0.7 0.0 0.3 0.3 0.2 0.5 0.3 0.5 0.2 0.1 0.1 0.3 0.3 0.1 0.0 0.0 0.0 0.0 0.0 0.0 0.0 0.0 0.0 0.0 0.0 0.0 0.0 0.0 0.6 0.8 1.3 1.9 1.8 1.3 1.3 1.6 1.8 1.8 3.2 3.9 5.0 4.9 4.5 3.0 2.5 2.3 2.4 3.8 4.1 3.6 3.6 3.4 3.4
0.7 0.0 0.0 0.0 0.7 0.7 0.1 0.1 0.0 0.2 0.2 0.0 0.0 0.2 0.1 0.0 0.0 0.0 0.0 0.0 0.0 0.0 0.0 0.0 0.0 0.0 0.0 0.0 0.0 0.9 0.7 0.7 1.4 1.5 1.5 1.3 1.4 1.7 3.1 3.7 4.9 5.5 5.8 5.2 6.5 7.2 5.1 5.8 6.7 7.1 7.0 6.5 5.9 5.0
0.0 0.0 0.1 0.2 0.3 0.5 0.5 0.3 0.2 0.0 0.2 0.1 0.2 0.2 0.1 0.1 0.0 0.0 0.0 0.0 0.0 0.0 0.0 0.0 0.0 0.2 0.3 0.6 0.9 1.2 1.1 1.1 1.2 2.0 2.1 2.5 2.3 3.1 3.0 4.6 4.8 5.7 6.4 6.8 6.3 6.2 5.7 5.6 5.2 5.0 5.1 4.6 4.2 3.9
0.0 0.1 0.0 0.5 0.8 1.6 1.4 0.7 0.3 0.0 0.2 0.2 0.1 0.1 0.1 0.0 0.0 0.0 0.0 0.0 0.0 0.0 0.0 0.0 0.5 0.8 0.9 1.2 1.6 1.8 2.5 2.8 1.8 2.7 2.6 2.7 3.1 2.8 4.2 4.9 6.0 6.3 7.1 7.5 6.9 6.4 6.5 6.5 7.0 6.4 6.6 6.6 6.2 5.6
2.3 1.1 0.9 0.5 2.2 2.1 1.7 1.0 1.0 0.8 0.7 0.4 0.1 0.1 0.0 0.0 0.0 0.0 0.0 0.0 0.0 0.0 0.0 0.8 1.0 1.3 2.2 2.6 2.4 3.5 3.7 3.2 4.3 4.2 4.7 4.6 4.2 4.7 6.0 6.2 7.4 7.3 7.1 7.2 7.5 8.1 8.4 8.1 7.7 7.0 6.6 6.5 6.3 6.2

GFSWCAN_prec_kuchsnow_141.txt.gz
Snowfall_Accumulation
0.0 0.0 0.0 0.0 0.0 0.0 0.0 0.0 0.0 0.0 0.0 0.0 0.0 0.0 0.0 0.0 0.0 0.0 0.0 0.0 0.0 0.0 0.0 0.0 0.0 0.0 0.0 0.0 0.0 0.0 0.0 0.0 0.0 0.2 0.0 0.0 0.0 0.0 0.0 0.0 0.0 0.0 0.1 0.1 0.3 0.6 0.0 0.0 0.0 0.0 0.0 0.0 0.0 0.0
0.0 0.0 0.0 0.0 0.0 0.0 0.0 0.0 0.0 0.0 0.0 0.0 0.0 0.0 0.0 0.0 0.0 0.0 0.0 0.0 0.0 0.0 0.0 0.0 0.0 0.0 0.0 0.0 0.0 0.0 0.0 0.0 0.0 0.0 0.0 0.0 0.0 0.0 0.0 0.0 0.0 0.0 0.0 0.0 0.0 0.0 0.0 0.0 0.0 0.0 0.0 0.0 0.0 0.0
0.0 0.0 0.0 0.0 0.0 0.0 0.0 0.0 0.0 0.0 0.0 0.0 0.0 0.0 0.0 0.0 0.0 0.0 0.0 0.0 0.0 0.1 0.0 0.0 0.0 0.0 0.0 0.0 0.0 0.0 0.0 0.0 0.0 0.0 0.0 0.0 0.0 0.0 0.0 0.0 0.0 0.0 0.0 0.0 0.0 0.0 0.0 0.0 0.0 0.0 0.0 0.0 0.0 0.0
0.0 0.0 0.0 0.0 0.0 0.0 0.0 0.0 0.0 0.0 0.0 0.0 0.0 0.0 0.0 0.0 0.0 0.0 0.0 0.0 0.0 0.1 0.8 0.1 0.0 0.0 0.0 0.0 0.0 0.0 0.0 0.0 0.0 0.0 0.0 0.0 0.0 0.0 0.0 0.0 0.0 0.0 0.0 0.0 0.0 0.0 0.0 0.0 0.0 0.0 0.0 0.0 0.0 0.0
0.0 0.0 0.0 0.0 0.0 0.0 0.0 0.0 0.0 0.0 0.0 0.0 0.0 0.0 0.0 0.0 0.0 0.0 0.0 0.0 0.0 0.1 1.6 0.2 0.0 0.0 0.0 0.0 0.0 0.0 0.0 0.0 0.2 0.1 0.6 0.3 0.0 0.0 0.0 0.0 0.0 0.0 0.0 0.0 0.0 0.0 0.0 0.0 0.0 0.0 0.0 0.0 0.0 0.0
0.0 0.0 0.0 0.0 0.0 0.0 0.0 0.0 0.0 0.0 0.0 0.0 0.0 0.0 0.0 0.0 0.0 0.0 0.0 0.0 0.0 0.0 2.0 1.7 0.0 0.0 0.0 0.0 0.0 0.0 0.0 0.0 0.0 0.4 1.1 0.0 0.0 0.0 0.4 0.0 0.0 0.0 0.0 0.0 0.0 0.0 0.0 0.0 0.0 0.0 0.0 0.0 0.0 0.0
0.0 0.0 0.0 0.0 0.0 0.0 0.0 0.0 0.0 0.0 0.0 0.0 0.0 0.0 0.0 0.0 0.0 0.0 0.0 0.0 0.0 0.0 0.8 3.6 3.3 0.0 0.0 0.0 0.0 0.0 0.0 0.0 0.4 1.2 0.8 0.0 0.0 0.7 0.8 0.2 0.0 0.0 0.0 0.0 0.0 0.0 0.0 0.0 0.0 0.0 0.0 0.0 0.0 0.0
0.0 0.0 0.0 0.0 0.0 0.0 0.0 0.0 0.0 0.0 0.0 0.0 0.0 0.0 0.0 0.0 0.0 0.0 0.0 0.0 0.0 0.0 1.8 9.6 6.7 1.5 0.0 0.2 0.0 0.0 0.0 0.0 0.1 0.4 0.0 0.0 0.0 0.9 1.1 0.0 0.0 0.0 0.0 0.0 0.0 0.0 0.0 0.0 0.0 0.0 0.0 0.0 0.0 0.0
0.0 0.0 0.0 0.0 0.0 0.0 0.0 0.0 0.0 0.0 0.0 0.0 0.0 0.0 0.0 0.0 0.0 0.0 0.0 0.0 0.0 0.0 6.1 5.6 7.1 4.0 0.0 0.0 0.0 0.1 0.0 2.3 0.0 0.7 0.0 0.0 0.4 2.5 0.0 0.1 0.1 0.0 0.1 0.0 0.0 0.0 0.0 0.0 0.0 0.0 0.0 0.0 0.0 0.0
0.0 0.0 0.0 0.0 0.0 0.0 0.0 0.0 0.0 0.0 0.0 0.0 0.0 0.0 0.3 0.0 0.0 0.0 0.0 0.3 2.2 1.6 2.2 5.2 2.8 5.4 1.2 1.6 0.7 0.7 0.7 1.4 3.0 0.0 0.0 0.5 0.0 0.0 0.0 0.0 0.0 0.0 0.0 0.1 0.0 1.8 0.9 0.7 0.0 0.0 0.0 0.0 0.0 0.0
0.0 0.0 0.0 0.0 0.0 0.0 0.0 0.0 0.0 0.0 0.0 0.0 0.0 0.0 0.0 0.0 0.0 0.0 3.4 4.4 2.0 2.0 1.2 1.8 2.8 3.0 0.0 3.6 2.1 0.1 4.1 1.6 3.6 3.1 0.9 1.9 1.4 0.6 0.0 0.1 0.0 0.0 0.0 0.0 0.0 0.0 0.2 0.7 1.0 0.4 0.2 0.1 0.0 0.0
0.0 0.0 0.0 0.0 0.0 0.0 0.0 0.0 0.0 0.0 0.0 0.0 0.0 0.0 0.0 0.3 4.5 6.4 5.8 2.6 0.9 0.8 0.6 1.5 0.7 0.3 0.3 0.0 1.3 0.9 2.9 2.4 3.8 3.1 3.5 2.9 0.7 0.1 0.5 0.6 0.3 0.0 0.0 0.1 0.0 0.0 0.2 0.0 0.5 0.8 0.4 0.8 0.9 0.8
0.0 0.0 0.0 0.0 0.0 0.0 0.0 0.0 0.0 0.0 0.0 0.0 0.0 8.9 8.4 10.5 10.5 6.9 4.1 2.3 0.4 0.5 0.6 0.6 0.8 0.0 0.0 0.0 0.3 1.0 1.5 0.8 0.9 4.1 4.2 1.5 0.1 0.1 0.0 0.1 0.3 1.4 1.4 0.7 0.4 0.3 0.4 0.4 0.2 0.6 0.6 0.4 0.6 0.4
0.0 0.0 0.0 0.0 0.0 0.0 0.0 0.0 0.0 0.0 0.0 2.1 17.4 22.1 11.4 10.6 1.8 1.1 1.1 0.9 0.2 0.1 0.0 0.0 0.3 0.6 0.1 0.7 0.6 1.5 0.1 0.4 3.1 2.3 1.9 0.1 0.1 0.0 0.0 0.0 0.0 0.0 0.6 1.2 2.0 1.4 1.3 1.5 1.0 1.1 0.7 0.3 0.0 0.0
0.0 0.0 0.0 0.0 0.0 0.0 0.0 0.0 0.0 0.0 0.0 16.8 16.4 13.6 5.6 0.2 0.1 0.1 0.0 0.1 0.0 0.0 0.1 0.0 0.0 0.1 0.6 1.5 0.3 1.0 1.1 3.6 4.2 2.6 1.2 0.5 0.2 0.0 0.0 0.1 0.0 0.0 0.0 0.0 0.2 0.5 1.7 1.6 2.0 1.4 0.7 0.6 0.1 0.0
0.0 0.0 0.0 0.0 0.0 0.0 0.0 0.0 0.0 0.0 10.7 17.6 13.8 4.7 0.0 0.0 0.0 0.0 0.0 0.0 0.0 0.0 0.2 0.3 0.5 1.3 0.9 1.7 1.5 0.4 1.3 2.5 2.8 1.0 0.0 0.0 0.0 0.0 0.1 0.0 0.1 0.0 0.0 0.0 0.0 0.0 0.4 0.5 1.1 1.1 0.2 0.5 0.5 0.0
0.0 0.0 0.0 0.0 0.0 0.0 0.0 0.0 0.0 20.8 20.7 20.3 8.2 0.5 0.0 0.0 0.0 0.0 0.0 0.0 0.0 0.4 1.7 2.1 3.6 0.1 1.0 1.8 0.9 0.1 0.2 0.2 0.2 0.0 0.0 0.0 0.0 0.0 0.3 0.0 0.0 0.0 0.0 0.0 0.2 0.2 0.7 0.3 1.3 1.9 1.2 0.5 0.5 0.7
0.0 0.0 0.0 0.0 0.0 0.0 0.8 3.1 11.3 25.7 26.9 7.6 2.3 0.2 0.1 0.0 0.0 0.0 0.0 0.0 0.0 0.2 1.8 5.3 3.3 3.7 1.4 0.2 0.0 0.1 0.0 0.0 0.0 0.0 0.0 0.0 0.0 0.0 0.3 0.0 0.0 0.1 0.7 1.7 1.7 1.7 1.4 1.3 1.7 1.4 0.3 0.5 0.7 0.7
0.0 0.0 0.0 0.0 0.0 1.6 23.4 24.4 15.4 24.2 5.5 1.0 0.4 0.1 0.0 0.2 0.0 0.0 0.1 0.1 0.1 0.2 1.0 5.3 6.7 2.2 0.0 0.0 0.0 0.0 0.0 0.0 0.0 0.0 0.0 0.0 0.0 0.0 0.1 0.6 0.6 0.0 0.4 1.2 0.8 1.0 0.6 0.2 0.0 0.5 0.6 0.2 0.7 0.4
0.0 0.0 0.0 0.0 0.0 14.6 32.1 27.0 10.9 7.3 2.9 0.7 1.0 1.2 0.4 0.1 0.1 0.0 0.1 0.2 0.9 1.2 7.7 8.0 0.3 0.1 0.1 0.4 0.5 0.4 0.0 0.0 0.0 0.0 0.0 0.0 0.0 0.0 0.0 0.0 0.0 0.2 0.0 0.4 0.3 0.1 0.6 0.3 0.1 0.6 0.5 0.3 0.7 0.6
1.4 7.3 2.4 0.0 5.0 19.1 20.6 16.9 8.9 4.1 1.3 1.7 2.0 0.6 1.4 0.9 0.8 1.4 1.8 1.4 5.5 7.9 3.1 0.2 0.0 0.0 0.4 0.4 0.2 0.4 0.1 0.1 0.0 0.0 0.0 0.0 0.0 0.0 0.0 0.0 0.0 0.1 0.0 0.0 0.1 0.0 0.3 0.2 0.1 0.0 0.4 0.2 0.1 0.9
7.7 3.9 13.6 9.0 32.8 34.0 23.5 9.4 4.8 3.2 2.1 2.7 2.7 1.4 2.5 3.5 3.2 2.9 2.3 5.0 5.8 0.7 0.2 0.3 0.0 0.0 0.0 0.0 0.6 0.4 0.5 0.0 0.1 0.0 0.0 0.0 0.0 0.0 0.0 0.0 0.0 0.0 0.0 0.0 0.0 0.0 0.0 0.0 0.2 0.0 0.4 0.4 0.1 1.1
3.2 8.5 35.2 36.6 42.7 37.5 22.8 7.4 4.2 4.4 4.1 4.6 3.5 4.5 4.4 3.6 3.2 2.6 3.9 2.4 0.7 0.0 0.0 0.0 0.0 1.0 1.4 1.2 1.4 1.1 0.6 0.1 0.0 0.0 0.1 0.0 0.0 0.0 0.0 0.0 0.0 0.0 0.0 0.0 0.0 0.0 0.0 0.0 0.0 0.0 0.0 0.5 0.2 0.1
1.4 33.8 47.9 48.9 33.5 29.5 17.0 15.0 9.6 6.1 7.2 5.7 5.0 3.8 2.8 1.5 3.0 3.5 2.9 0.4 0.0 0.0 0.0 0.0 0.0 0.0 0.1 0.9 1.2 1.9 2.3 1.6 0.5 0.0 0.6 0.3 0.0 0.0 0.0 0.0 0.0 0.0 0.0 0.0 0.0 0.0 0.0 0.0 0.0 0.0 0.0 0.0 0.0 0.1
55.1 69.3 47.3 48.3 26.4 16.7 10.6 8.7 6.6 5.2 4.6 3.9 2.2 2.9 2.2 2.3 3.3 3.7 1.2 0.3 0.0 0.0 0.6 0.8 0.4 0.1 0.1 0.0 0.7 0.9 1.1 1.5 2.5 2.5 0.3 1.7 0.8 0.2 0.0 0.0 0.2 0.1 0.0 0.0 0.0 0.0 0.0 0.0 0.0 0.0 0.0 0.0 0.1 0.2
66.8 37.9 27.8 12.8 8.1 3.5 2.4 2.3 2.2 2.0 1.2 2.3 1.6 1.1 0.6 3.6 5.5 3.4 0.1 0.0 0.0 0.0 0.4 0.3 0.1 0.0 0.0 0.0 0.0 1.1 1.1 1.2 1.0 1.6 0.3 2.0 1.8 2.4 1.9 1.5 0.9 0.4 0.0 0.0 0.3 0.3 0.1 0.0 0.0 0.0 0.0 0.1 0.0 0.4
54.7 30.4 11.4 2.5 1.5 1.3 0.8 1.1 1.2 1.8 2.8 3.3 2.1 1.9 1.7 6.3 2.2 0.7 0.6 0.4 0.2 0.1 0.0 0.0 0.0 0.3 0.2 0.1 0.0 0.0 0.9 1.3 1.2 0.5 0.3 1.6 1.3 0.9 0.6 1.8 1.4 0.9 0.6 1.1 1.0 0.9 0.9 0.5 0.3 0.2 0.5 0.3 0.3 0.3
16.7 6.5 2.5 2.6 2.1 1.4 1.6 1.3 1.3 1.2 1.8 1.2 2.2 3.2 4.4 2.7 0.8 0.1 0.0 0.0 0.0 0.1 0.2 0.3 0.1 0.0 0.0 0.0 0.0 0.6 0.9 1.2 1.2 0.8 1.7 1.8 1.5 1.2 1.0 1.1 2.3 2.4 2.3 1.7 1.2 1.7 1.9 1.5 1.5 1.7 1.4 0.8 0.9 0.7
3.8 0.8 0.1 0.6 0.6 0.4 0.8 0.6 0.7 0.3 0.1 0.2 0.3 0.3 0.1 0.0 0.0 0.0 0.0 0.0 0.0 0.0 0.0 0.0 0.0 0.0 0.0 0.0 0.0 0.6 0.8 1.3 1.9 1.8 1.3 1.3 1.6 1.8 1.8 3.2 3.9 5.0 4.9 4.5 3.0 2.5 2.3 2.4 3.8 4.1 3.6 3.6 3.4 3.4
0.7 0.0 0.0 0.0 0.7 0.7 0.1 0.1 0.1 0.2 0.2 0.0 0.0 0.2 0.1 0.0 0.0 0.0 0.0 0.0 0.0 0.0 0.0 0.0 0.0 0.0 0.0 0.0 0.0 0.9 0.7 0.7 1.4 1.5 1.5 1.3 1.4 1.7 3.1 3.7 4.9 5.5 5.8 5.2 6.5 7.2 5.1 5.8 6.7 7.1 7.0 6.5 5.9 5.0
0.0 0.0 0.1 0.2 0.3 0.5 0.5 0.3 0.2 0.0 0.2 0.1 0.2 0.2 0.1 0.1 0.0 0.0 0.0 0.0 0.0 0.0 0.0 0.0 0.0 0.2 0.3 0.6 0.9 1.2 1.1 1.1 1.2 2.0 2.1 2.5 2.3 3.1 3.0 4.6 4.8 5.7 6.4 6.8 6.3 6.2 5.7 5.6 5.2 5.0 5.1 4.6 4.2 3.9
0.0 0.1 0.0 0.5 0.8 1.6 1.4 0.7 0.3 0.0 0.2 0.2 0.1 0.1 0.1 0.0 0.0 0.0 0.0 0.0 0.0 0.0 0.0 0.0 0.5 0.8 0.9 1.2 1.6 1.8 2.5 2.8 1.8 2.7 2.6 2.7 3.1 2.8 4.2 4.9 6.0 6.3 7.1 7.5 6.9 6.4 6.5 6.5 7.0 6.5 6.7 6.7 6.2 5.6
2.3 1.1 0.9 0.5 2.2 2.1 1.7 1.0 1.0 0.8 0.7 0.4 0.1 0.1 0.0 0.0 0.0 0.0 0.0 0.0 0.0 0.0 0.0 0.8 1.0 1.3 2.2 2.6 2.4 3.5 3.7 3.2 4.3 4.2 4.7 4.6 4.2 4.7 6.0 6.2 7.4 7.3 7.1 7.2 7.5 8.1 8.5 8.2 7.8 7.1 6.7 6.5 6.3 6.2

GFSWCAN_prec_kuchsnow_144.txt.gz
Snowfall_Accumulation
0.0 0.0 0.0 0.0 0.0 0.0 0.0 0.0 0.0 0.0 0.0 0.0 0.0 0.0 0.0 0.0 0.0 0.0 0.0 0.0 0.0 0.0 0.0 0.0 0.0 0.0 0.0 0.0 0.0 0.0 0.0 0.0 0.0 0.2 0.0 0.0 0.0 0.0 0.0 0.0 0.0 0.0 0.1 0.1 0.3 0.6 0.0 0.0 0.0 0.0 0.0 0.0 0.0 0.0
0.0 0.0 0.0 0.0 0.0 0.0 0.0 0.0 0.0 0.0 0.0 0.0 0.0 0.0 0.0 0.0 0.0 0.0 0.0 0.0 0.0 0.0 0.0 0.0 0.0 0.0 0.0 0.0 0.0 0.0 0.0 0.0 0.0 0.0 0.0 0.0 0.0 0.0 0.0 0.0 0.0 0.0 0.0 0.0 0.0 0.0 0.0 0.0 0.0 0.0 0.0 0.0 0.0 0.0
0.0 0.0 0.0 0.0 0.0 0.0 0.0 0.0 0.0 0.0 0.0 0.0 0.0 0.0 0.0 0.0 0.0 0.0 0.0 0.0 0.0 0.1 0.0 0.0 0.0 0.0 0.0 0.0 0.0 0.0 0.0 0.0 0.0 0.0 0.0 0.0 0.0 0.0 0.0 0.0 0.0 0.0 0.0 0.0 0.0 0.0 0.0 0.0 0.0 0.0 0.0 0.0 0.0 0.0
0.0 0.0 0.0 0.0 0.0 0.0 0.0 0.0 0.0 0.0 0.0 0.0 0.0 0.0 0.0 0.0 0.0 0.0 0.0 0.0 0.0 0.1 0.8 0.1 0.0 0.0 0.0 0.0 0.0 0.0 0.0 0.0 0.0 0.0 0.0 0.0 0.0 0.0 0.0 0.0 0.0 0.0 0.0 0.0 0.0 0.0 0.0 0.0 0.0 0.0 0.0 0.0 0.0 0.0
0.0 0.0 0.0 0.0 0.0 0.0 0.0 0.0 0.0 0.0 0.0 0.0 0.0 0.0 0.0 0.0 0.0 0.0 0.0 0.0 0.0 0.1 1.6 0.2 0.0 0.0 0.0 0.0 0.0 0.0 0.0 0.0 0.2 0.1 0.6 0.3 0.0 0.0 0.0 0.0 0.0 0.0 0.0 0.0 0.0 0.0 0.0 0.0 0.0 0.0 0.0 0.0 0.0 0.0
0.0 0.0 0.0 0.0 0.0 0.0 0.0 0.0 0.0 0.0 0.0 0.0 0.0 0.0 0.0 0.0 0.0 0.0 0.0 0.0 0.0 0.0 2.0 1.7 0.0 0.0 0.0 0.0 0.0 0.0 0.0 0.0 0.0 0.4 1.1 0.0 0.0 0.0 0.4 0.0 0.0 0.0 0.0 0.0 0.0 0.0 0.0 0.0 0.0 0.0 0.0 0.0 0.0 0.0
0.0 0.0 0.0 0.0 0.0 0.0 0.0 0.0 0.0 0.0 0.0 0.0 0.0 0.0 0.0 0.0 0.0 0.0 0.0 0.0 0.0 0.0 0.8 3.6 3.3 0.0 0.0 0.0 0.0 0.0 0.0 0.0 0.4 1.2 0.8 0.0 0.0 0.7 0.8 0.2 0.0 0.0 0.0 0.0 0.0 0.0 0.0 0.0 0.0 0.0 0.0 0.0 0.0 0.0
0.0 0.0 0.0 0.0 0.0 0.0 0.0 0.0 0.0 0.0 0.0 0.0 0.0 0.0 0.0 0.0 0.0 0.0 0.0 0.0 0.0 0.0 1.8 9.6 6.7 1.5 0.0 0.2 0.0 0.0 0.0 0.0 0.1 0.4 0.0 0.0 0.0 0.9 1.1 0.0 0.0 0.0 0.0 0.0 0.0 0.0 0.0 0.0 0.0 0.0 0.0 0.0 0.0 0.0
0.0 0.0 0.0 0.0 0.0 0.0 0.0 0.0 0.0 0.0 0.0 0.0 0.0 0.0 0.0 0.0 0.0 0.0 0.0 0.0 0.0 0.0 6.1 5.6 7.1 4.0 0.0 0.0 0.0 0.1 0.0 2.3 0.0 0.7 0.0 0.0 0.4 2.5 0.0 0.1 0.1 0.0 0.1 0.0 0.0 0.0 0.0 0.0 0.0 0.0 0.0 0.0 0.0 0.0
0.0 0.0 0.0 0.0 0.0 0.0 0.0 0.0 0.0 0.0 0.0 0.0 0.0 0.0 0.3 0.0 0.0 0.0 0.0 0.3 2.2 1.6 2.2 5.2 2.8 5.4 1.2 1.6 0.7 0.7 0.7 1.4 3.0 0.0 0.0 0.5 0.0 0.0 0.0 0.0 0.0 0.0 0.0 0.1 0.0 1.8 0.9 0.7 0.0 0.0 0.0 0.0 0.0 0.0
0.0 0.0 0.0 0.0 0.0 0.0 0.0 0.0 0.0 0.0 0.0 0.0 0.0 0.0 0.0 0.0 0.0 0.0 3.4 4.4 2.0 2.0 1.2 1.8 2.8 3.0 0.0 3.6 2.1 0.1 4.1 1.6 3.6 3.1 0.9 1.9 1.4 0.6 0.0 0.1 0.0 0.0 0.0 0.0 0.0 0.0 0.2 0.7 1.0 0.4 0.2 0.1 0.0 0.0
0.0 0.0 0.0 0.0 0.0 0.0 0.0 0.0 0.0 0.0 0.0 0.0 0.0 0.0 0.0 0.3 5.3 7.4 6.4 2.6 0.9 0.8 0.6 1.5 0.7 0.3 0.3 0.0 1.3 0.9 2.9 2.4 3.8 3.1 3.5 2.9 0.7 0.1 0.5 0.6 0.3 0.0 0.0 0.1 0.0 0.0 0.2 0.0 0.5 0.8 0.4 0.8 0.9 0.8
0.0 0.0 0.0 0.0 0.0 0.0 0.0 0.0 0.0 0.0 0.0 0.0 0.6 11.0 11.0 12.8 12.2 7.6 4.4 2.3 0.4 0.5 0.6 0.6 0.8 0.0 0.0 0.0 0.3 1.0 1.5 0.8 0.9 4.1 4.2 1.5 0.1 0.1 0.0 0.1 0.3 1.4 1.4 0.7 0.4 0.3 0.4 0.4 0.2 0.6 0.6 0.4 0.6 0.4
0.0 0.0 0.0 0.0 0.0 0.0 0.0 0.0 0.0 0.0 0.0 2.3 18.8 24.6 13.6 12.9 2.3 1.1 1.1 0.9 0.2 0.1 0.0 0.0 0.3 0.6 0.1 0.7 0.6 1.5 0.1 0.4 3.1 2.3 1.9 0.1 0.1 0.0 0.0 0.0 0.0 0.0 0.6 1.2 2.0 1.4 1.3 1.5 1.0 1.1 0.7 0.3 0.0 0.0
0.0 0.0 0.0 0.0 0.0 0.0 0.0 0.0 0.0 0.0 0.0 17.5 16.4 15.1 6.9 0.2 0.1 0.1 0.0 0.1 0.0 0.0 0.1 0.0 0.0 0.1 0.6 1.5 0.3 1.0 1.1 3.6 4.2 2.6 1.2 0.5 0.2 0.0 0.0 0.1 0.0 0.0 0.0 0.0 0.2 0.5 1.7 1.6 2.0 1.4 0.7 0.6 0.1 0.0
0.0 0.0 0.0 0.0 0.0 0.0 0.0 0.0 0.0 0.0 10.7 17.8 14.1 5.1 0.0 0.0 0.0 0.0 0.0 0.0 0.0 0.0 0.2 0.3 0.5 1.3 0.9 1.7 1.5 0.4 1.3 2.5 2.8 1.0 0.0 0.0 0.0 0.0 0.1 0.0 0.1 0.0 0.0 0.0 0.0 0.0 0.4 0.5 1.1 1.1 0.2 0.5 0.5 0.0
0.0 0.0 0.0 0.0 0.0 0.0 0.0 0.0 0.0 20.8 20.7 20.3 8.2 0.5 0.0 0.0 0.0 0.0 0.0 0.0 0.0 0.4 1.7 2.1 3.6 0.1 1.0 1.8 0.9 0.1 0.2 0.2 0.2 0.0 0.0 0.0 0.0 0.0 0.3 0.0 0.0 0.0 0.0 0.0 0.2 0.2 0.7 0.3 1.3 1.9 1.2 0.5 0.5 0.7
0.0 0.0 0.0 0.0 0.0 0.0 0.8 3.1 11.7 25.7 27.1 7.6 2.3 0.2 0.1 0.0 0.0 0.0 0.0 0.0 0.1 0.3 2.0 5.5 3.3 3.7 1.4 0.2 0.0 0.1 0.0 0.0 0.0 0.0 0.0 0.0 0.0 0.0 0.3 0.0 0.0 0.1 0.7 1.7 1.7 1.7 1.4 1.3 1.7 1.4 0.3 0.5 0.7 0.7
0.0 0.0 0.0 0.0 0.0 1.9 23.7 24.5 15.4 24.5 5.5 1.0 0.4 0.1 0.0 0.2 0.0 0.0 0.1 0.1 0.1 0.2 1.8 6.9 8.2 2.7 0.0 0.0 0.0 0.0 0.0 0.0 0.0 0.0 0.0 0.0 0.0 0.0 0.1 0.6 0.6 0.0 0.4 1.2 0.8 1.0 0.6 0.2 0.0 0.5 0.6 0.2 0.7 0.4
0.0 0.0 0.0 0.0 0.0 15.3 32.7 27.3 10.9 7.3 2.9 0.7 1.0 1.2 0.4 0.1 0.1 0.0 0.1 0.2 0.9 1.2 8.3 9.2 0.3 0.1 0.1 0.4 0.5 0.4 0.0 0.0 0.0 0.0 0.0 0.0 0.0 0.0 0.0 0.0 0.0 0.2 0.0 0.4 0.3 0.1 0.6 0.3 0.1 0.6 0.5 0.3 0.7 0.6
1.4 7.3 2.4 0.0 5.0 20.2 20.8 16.9 9.0 4.1 1.3 1.7 2.0 0.6 1.4 0.9 0.8 1.4 1.8 1.4 5.5 7.9 3.2 0.2 0.0 0.0 0.4 0.4 0.2 0.4 0.1 0.1 0.0 0.0 0.0 0.0 0.0 0.0 0.0 0.0 0.0 0.1 0.0 0.0 0.1 0.0 0.3 0.2 0.1 0.0 0.4 0.2 0.1 0.9
8.4 3.9 13.6 9.0 35.7 35.5 24.1 9.4 4.8 3.2 2.2 2.7 2.7 1.4 2.5 3.5 3.2 2.9 2.3 5.0 5.8 0.7 0.2 0.3 0.0 0.0 0.0 0.0 0.6 0.4 0.5 0.0 0.1 0.0 0.0 0.0 0.0 0.0 0.0 0.0 0.0 0.0 0.0 0.0 0.0 0.0 0.0 0.0 0.2 0.0 0.4 0.4 0.1 1.1
3.4 8.8 35.8 37.6 44.5 39.0 23.6 7.5 4.4 4.5 4.1 4.6 3.5 4.5 4.4 3.6 3.2 2.6 4.2 2.4 0.7 0.0 0.0 0.0 0.0 1.0 1.4 1.2 1.4 1.1 0.6 0.1 0.0 0.0 0.1 0.0 0.0 0.0 0.0 0.0 0.0 0.0 0.0 0.0 0.0 0.0 0.0 0.0 0.0 0.0 0.0 0.5 0.2 0.1
1.4 34.2 48.6 48.9 33.9 30.0 17.4 15.3 9.9 6.3 7.6 5.9 5.2 3.8 2.8 1.5 3.0 3.7 3.0 0.4 0.0 0.0 0.0 0.0 0.0 0.0 0.1 0.9 1.2 1.9 2.3 1.6 0.5 0.0 0.6 0.3 0.0 0.0 0.0 0.0 0.0 0.0 0.0 0.0 0.0 0.0 0.0 0.0 0.0 0.0 0.0 0.0 0.0 0.1
56.0 70.1 48.2 49.1 26.8 17.0 10.6 8.7 6.6 5.3 4.8 3.9 2.2 2.9 2.2 2.3 3.3 3.9 1.2 0.3 0.0 0.0 0.6 0.8 0.4 0.1 0.1 0.0 0.7 0.9 1.1 1.5 2.5 2.5 0.3 1.7 0.8 0.2 0.0 0.0 0.2 0.1 0.0 0.0 0.0 0.0 0.0 0.0 0.0 0.0 0.0 0.0 0.1 0.2
67.6 38.5 28.3 12.8 8.4 3.5 2.4 2.3 2.2 2.0 1.2 2.3 1.6 1.1 0.6 3.6 5.8 3.4 0.1 0.0 0.0 0.0 0.4 0.3 0.1 0.0 0.0 0.0 0.0 1.1 1.1 1.2 1.0 1.6 0.3 2.0 1.8 2.4 1.9 1.5 0.9 0.4 0.0 0.0 0.3 0.3 0.1 0.0 0.0 0.0 0.0 0.1 0.0 0.4
55.4 30.9 11.4 2.5 1.7 1.7 1.2 1.5 1.4 1.9 2.8 3.3 2.1 1.9 2.1 6.8 2.2 0.7 0.6 0.4 0.2 0.1 0.0 0.0 0.0 0.3 0.2 0.1 0.0 0.0 0.9 1.3 1.2 0.5 0.3 1.6 1.3 0.9 0.6 1.8 1.4 0.9 0.6 1.1 1.0 0.9 0.9 0.5 0.3 0.2 0.5 0.3 0.3 0.3
17.3 7.2 3.5 3.3 3.0 2.2 2.5 2.1 2.1 2.0 2.5 1.7 2.6 3.2 4.4 3.0 0.8 0.1 0.0 0.0 0.0 0.1 0.2 0.3 0.1 0.0 0.6 0.7 0.4 0.8 1.0 1.2 1.3 0.8 1.7 1.8 1.5 1.2 1.0 1.1 2.3 2.4 2.3 1.7 1.2 1.7 1.9 1.5 1.5 1.7 1.4 0.8 0.9 0.7
4.4 1.4 0.9 1.7 1.7 1.5 1.7 1.3 1.5 1.0 0.4 0.5 0.5 0.3 0.1 0.0 0.0 0.0 0.0 0.0 0.0 0.2 0.4 0.5 0.5 0.3 0.1 0.0 0.0 0.6 0.8 1.3 1.9 1.8 1.3 1.3 1.6 1.8 1.8 3.2 3.9 5.0 4.9 4.5 3.0 2.5 2.3 2.4 3.8 4.1 3.6 3.6 3.4 3.4
0.7 0.1 0.0 0.1 1.0 1.2 0.7 0.7 0.6 0.5 0.4 0.0 0.0 0.2 0.1 0.0 0.0 0.0 0.0 0.0 0.0 0.0 0.0 0.0 0.0 0.0 0.0 0.0 0.0 0.9 0.7 0.7 1.4 1.5 1.5 1.3 1.4 1.7 3.1 3.7 4.9 5.5 5.8 5.2 6.5 7.2 5.1 5.8 6.7 7.1 7.0 6.5 5.9 5.0
0.0 0.0 0.1 0.2 0.3 0.5 0.5 0.3 0.2 0.0 0.2 0.1 0.2 0.2 0.1 0.1 0.0 0.0 0.0 0.0 0.0 0.0 0.0 0.0 0.0 0.2 0.3 0.6 0.9 1.2 1.1 1.1 1.2 2.0 2.1 2.5 2.3 3.1 3.0 4.6 4.8 5.7 6.4 6.8 6.3 6.2 5.7 5.6 5.2 5.0 5.1 4.6 4.2 3.9
0.0 0.1 0.0 0.5 0.8 1.6 1.4 0.7 0.3 0.0 0.2 0.2 0.1 0.1 0.1 0.0 0.0 0.0 0.0 0.0 0.0 0.0 0.0 0.0 0.5 0.8 0.9 1.2 1.6 1.8 2.5 2.8 1.8 2.7 2.6 2.7 3.1 2.8 4.2 4.9 6.0 6.3 7.1 7.5 6.9 6.4 6.5 6.5 7.0 6.5 6.7 6.7 6.2 5.7
2.3 1.1 0.9 0.5 2.2 2.1 1.7 1.0 1.0 0.8 0.7 0.4 0.1 0.1 0.0 0.0 0.0 0.0 0.0 0.0 0.0 0.0 0.0 0.8 1.0 1.3 2.2 2.6 2.4 3.5 3.7 3.2 4.3 4.2 4.7 4.6 4.2 4.7 6.0 6.2 7.4 7.3 7.1 7.2 7.5 8.1 8.5 8.2 7.8 7.1 6.7 6.5 6.3 6.2